<?xml version='1.0' encoding='UTF-8'?><gpx version="1.1" creator="JPX - https://github.com/jenetics/jpx" xmlns="http://www.topografix.com/GPX/1/1"><trk><trkseg><trkpt lat="43.9863925451216" lon="5.532886102016934"><ele>835.0</ele><time>2026-05-03T14:35:42Z</time></trkpt><trkpt lat="43.98644512314031" lon="5.532942555343407"><ele>835.0</ele><time>2026-05-03T14:35:46Z</time></trkpt><trkpt lat="43.98636129425568" lon="5.5329838541309675"><ele>835.0</ele><time>2026-05-03T14:36:28.999Z</time></trkpt><trkpt lat="43.986339774196715" lon="5.532876060584223"><ele>835.0</ele><time>2026-05-03T14:37:14.998Z</time></trkpt><trkpt lat="43.98639027805859" lon="5.5328182746472105"><ele>835.0</ele><time>2026-05-03T14:37:18Z</time></trkpt><trkpt lat="43.986576685280724" lon="5.532851448645219"><ele>835.6</ele><time>2026-05-03T14:37:26Z</time></trkpt><trkpt lat="43.986678113303256" lon="5.532782914057026"><ele>836.2</ele><time>2026-05-03T14:37:29Z</time></trkpt><trkpt lat="43.986738733074546" lon="5.532879849029789"><ele>836.8</ele><time>2026-05-03T14:37:31Z</time></trkpt><trkpt lat="43.9867866188854" lon="5.53299558065662"><ele>837.4</ele><time>2026-05-03T14:37:33Z</time></trkpt><trkpt lat="43.986842548224466" lon="5.533125291206554"><ele>838.0</ele><time>2026-05-03T14:37:35Z</time></trkpt><trkpt lat="43.98691448900674" lon="5.533233225215549"><ele>837.9999999999999</ele><time>2026-05-03T14:37:37Z</time></trkpt><trkpt lat="43.986977431259376" lon="5.5333165771642285"><ele>838.0</ele><time>2026-05-03T14:37:39Z</time></trkpt><trkpt lat="43.98702546086933" lon="5.533394426281127"><ele>838.0</ele><time>2026-05-03T14:37:41Z</time></trkpt><trkpt lat="43.98708922168683" lon="5.5334319828194785"><ele>838.0</ele><time>2026-05-03T14:37:44Z</time></trkpt><trkpt lat="43.98716699873535" lon="5.533384616060351"><ele>837.9999999999999</ele><time>2026-05-03T14:37:46Z</time></trkpt><trkpt lat="43.98726583105822" lon="5.5333141091964215"><ele>838.0</ele><time>2026-05-03T14:37:48Z</time></trkpt><trkpt lat="43.98736238423322" lon="5.533213653339944"><ele>837.9999999999999</ele><time>2026-05-03T14:37:50Z</time></trkpt><trkpt lat="43.98741747200796" lon="5.533141557843869"><ele>838.0</ele><time>2026-05-03T14:37:51Z</time></trkpt><trkpt lat="43.98747562741656" lon="5.533071541699431"><ele>838.0</ele><time>2026-05-03T14:37:52Z</time></trkpt><trkpt lat="43.987527626232826" lon="5.532986337509736"><ele>838.0</ele><time>2026-05-03T14:37:53Z</time></trkpt><trkpt lat="43.98758141285265" lon="5.532908454897275"><ele>837.9999999999999</ele><time>2026-05-03T14:37:54Z</time></trkpt><trkpt lat="43.98762955535002" lon="5.532823370686313"><ele>838.0</ele><time>2026-05-03T14:37:55Z</time></trkpt><trkpt lat="43.987675787021125" lon="5.532748448091498"><ele>838.9999999999999</ele><time>2026-05-03T14:37:56Z</time></trkpt><trkpt lat="43.98772259920992" lon="5.532676984748289"><ele>840.0</ele><time>2026-05-03T14:37:57Z</time></trkpt><trkpt lat="43.98777541309572" lon="5.532615705104991"><ele>841.0</ele><time>2026-05-03T14:37:58Z</time></trkpt><trkpt lat="43.987885058719186" lon="5.532566192069806"><ele>842.0</ele><time>2026-05-03T14:38:00Z</time></trkpt><trkpt lat="43.98795153429476" lon="5.532503244898693"><ele>842.9999999999999</ele><time>2026-05-03T14:38:02Z</time></trkpt><trkpt lat="43.988030816977165" lon="5.532507088890793"><ele>844.0</ele><time>2026-05-03T14:38:03.999Z</time></trkpt><trkpt lat="43.9881226064861" lon="5.5325026491389915"><ele>843.9999999999999</ele><time>2026-05-03T14:38:05.999Z</time></trkpt><trkpt lat="43.988227969989154" lon="5.53248484231028"><ele>844.0</ele><time>2026-05-03T14:38:07.999Z</time></trkpt><trkpt lat="43.98829754700633" lon="5.532466012737107"><ele>844.0</ele><time>2026-05-03T14:38:08.999Z</time></trkpt><trkpt lat="43.988382381796015" lon="5.5324486303947"><ele>844.0</ele><time>2026-05-03T14:38:09.999Z</time></trkpt><trkpt lat="43.988468952017826" lon="5.532506633906371"><ele>843.9999999999999</ele><time>2026-05-03T14:38:11.999Z</time></trkpt><trkpt lat="43.98853212739137" lon="5.532578354379519"><ele>844.0</ele><time>2026-05-03T14:38:12.999Z</time></trkpt><trkpt lat="43.98859659648409" lon="5.532660358239866"><ele>843.8333333333333</ele><time>2026-05-03T14:38:13.999Z</time></trkpt><trkpt lat="43.98865200784915" lon="5.532739243275605"><ele>843.6666666666666</ele><time>2026-05-03T14:38:14.999Z</time></trkpt><trkpt lat="43.988707305211605" lon="5.532820395269782"><ele>843.5</ele><time>2026-05-03T14:38:16.999Z</time></trkpt><trkpt lat="43.98879851763254" lon="5.532788463321468"><ele>843.3333333333333</ele><time>2026-05-03T14:38:18.999Z</time></trkpt><trkpt lat="43.98887176696195" lon="5.532838854398226"><ele>843.1666666666666</ele><time>2026-05-03T14:38:19.999Z</time></trkpt><trkpt lat="43.98896044747361" lon="5.532910104271891"><ele>843.0</ele><time>2026-05-03T14:38:21.999Z</time></trkpt><trkpt lat="43.98906558861652" lon="5.532906032647349"><ele>843.75</ele><time>2026-05-03T14:38:23.999Z</time></trkpt><trkpt lat="43.98916336856469" lon="5.5328580272096515"><ele>844.5</ele><time>2026-05-03T14:38:24.999Z</time></trkpt><trkpt lat="43.98928540960513" lon="5.532840666815016"><ele>845.25</ele><time>2026-05-03T14:38:25.999Z</time></trkpt><trkpt lat="43.98942020119435" lon="5.532816971033688"><ele>846.0</ele><time>2026-05-03T14:38:26.999Z</time></trkpt><trkpt lat="43.98955648486534" lon="5.532777700263718"><ele>846.0</ele><time>2026-05-03T14:38:27.999Z</time></trkpt><trkpt lat="43.98967435489374" lon="5.532781016765584"><ele>846.0</ele><time>2026-05-03T14:38:28.999Z</time></trkpt><trkpt lat="43.98980303244135" lon="5.532798823502511"><ele>846.0</ele><time>2026-05-03T14:38:29.999Z</time></trkpt><trkpt lat="43.989909356266544" lon="5.532833202916134"><ele>846.0</ele><time>2026-05-03T14:38:30.999Z</time></trkpt><trkpt lat="43.9899874096128" lon="5.532853500235545"><ele>846.0</ele><time>2026-05-03T14:38:31.999Z</time></trkpt><trkpt lat="43.990072873392485" lon="5.532873629215261"><ele>845.6666666666666</ele><time>2026-05-03T14:38:32.999Z</time></trkpt><trkpt lat="43.99014704371859" lon="5.532895371743205"><ele>845.3333333333333</ele><time>2026-05-03T14:38:33.999Z</time></trkpt><trkpt lat="43.99022812911712" lon="5.532884204117987"><ele>845.0</ele><time>2026-05-03T14:38:34.999Z</time></trkpt><trkpt lat="43.990302817268315" lon="5.5328479413896385"><ele>844.6666666666666</ele><time>2026-05-03T14:38:35.999Z</time></trkpt><trkpt lat="43.9903785510257" lon="5.53286366191743"><ele>844.3333333333333</ele><time>2026-05-03T14:38:36.999Z</time></trkpt><trkpt lat="43.99045081407281" lon="5.5328468597878615"><ele>844.0</ele><time>2026-05-03T14:38:37.999Z</time></trkpt><trkpt lat="43.99055332460597" lon="5.532820762687479"><ele>843.9999999999999</ele><time>2026-05-03T14:38:38.999Z</time></trkpt><trkpt lat="43.99066622825888" lon="5.532875950763858"><ele>844.0</ele><time>2026-05-03T14:38:40.999Z</time></trkpt><trkpt lat="43.99073255402829" lon="5.532917025201987"><ele>844.0</ele><time>2026-05-03T14:38:41.999Z</time></trkpt><trkpt lat="43.990808892496126" lon="5.53291848685866"><ele>844.0</ele><time>2026-05-03T14:38:42.999Z</time></trkpt><trkpt lat="43.99088212946579" lon="5.5329132153238865"><ele>843.9999999999999</ele><time>2026-05-03T14:38:43.999Z</time></trkpt><trkpt lat="43.99094982310814" lon="5.532900121390292"><ele>844.0</ele><time>2026-05-03T14:38:45.999Z</time></trkpt><trkpt lat="43.99100515472218" lon="5.532846182073502"><ele>844.2</ele><time>2026-05-03T14:38:47.999Z</time></trkpt><trkpt lat="43.99107874391157" lon="5.532719759253834"><ele>844.4000000000001</ele><time>2026-05-03T14:38:49.999Z</time></trkpt><trkpt lat="43.99114605042984" lon="5.532667023002299"><ele>844.6</ele><time>2026-05-03T14:38:51.999Z</time></trkpt><trkpt lat="43.99120055693846" lon="5.532743774091572"><ele>844.8</ele><time>2026-05-03T14:38:53.999Z</time></trkpt><trkpt lat="43.99122247919923" lon="5.532893651616533"><ele>845.0</ele><time>2026-05-03T14:38:55.999Z</time></trkpt><trkpt lat="43.99123223083547" lon="5.53299040455366"><ele>845.2</ele><time>2026-05-03T14:38:56.999Z</time></trkpt><trkpt lat="43.991254778536685" lon="5.533094310517104"><ele>845.4</ele><time>2026-05-03T14:38:57.999Z</time></trkpt><trkpt lat="43.99126033325717" lon="5.533207980974679"><ele>845.5999999999999</ele><time>2026-05-03T14:38:58.999Z</time></trkpt><trkpt lat="43.99125150908004" lon="5.533344573712394"><ele>845.8</ele><time>2026-05-03T14:38:59.999Z</time></trkpt><trkpt lat="43.99126121888707" lon="5.533493062487405"><ele>846.0</ele><time>2026-05-03T14:39:00.999Z</time></trkpt><trkpt lat="43.99127790524849" lon="5.533653440257372"><ele>846.1666666666666</ele><time>2026-05-03T14:39:01.999Z</time></trkpt><trkpt lat="43.99131436471915" lon="5.533803552361855"><ele>846.3333333333333</ele><time>2026-05-03T14:39:02.999Z</time></trkpt><trkpt lat="43.991324054876685" lon="5.533932902402721"><ele>846.5</ele><time>2026-05-03T14:39:03.999Z</time></trkpt><trkpt lat="43.99133791281141" lon="5.534018423294115"><ele>846.6666666666666</ele><time>2026-05-03T14:39:04.999Z</time></trkpt><trkpt lat="43.99137380872672" lon="5.53411122561855"><ele>846.8333333333333</ele><time>2026-05-03T14:39:06.999Z</time></trkpt><trkpt lat="43.99143831283811" lon="5.534153641102347"><ele>847.0</ele><time>2026-05-03T14:39:07.999Z</time></trkpt><trkpt lat="43.991518402622866" lon="5.534164307562394"><ele>847.0</ele><time>2026-05-03T14:39:08.999Z</time></trkpt><trkpt lat="43.99163624564228" lon="5.5341431879274685"><ele>847.0</ele><time>2026-05-03T14:39:09.999Z</time></trkpt><trkpt lat="43.991776113813685" lon="5.534138473539945"><ele>847.0</ele><time>2026-05-03T14:39:10.999Z</time></trkpt><trkpt lat="43.99190242259608" lon="5.534180502692888"><ele>847.0</ele><time>2026-05-03T14:39:11.998Z</time></trkpt><trkpt lat="43.9920232154016" lon="5.53423753394979"><ele>847.2</ele><time>2026-05-03T14:39:12.998Z</time></trkpt><trkpt lat="43.99212122225447" lon="5.534300223196185"><ele>847.4000000000001</ele><time>2026-05-03T14:39:13.998Z</time></trkpt><trkpt lat="43.992211706523015" lon="5.534367362562858"><ele>847.5999999999999</ele><time>2026-05-03T14:39:14.998Z</time></trkpt><trkpt lat="43.99228208468408" lon="5.534439090178966"><ele>847.8</ele><time>2026-05-03T14:39:15.998Z</time></trkpt><trkpt lat="43.99233945233459" lon="5.534526704736609"><ele>848.0</ele><time>2026-05-03T14:39:16.998Z</time></trkpt><trkpt lat="43.99238746728831" lon="5.5346133665484265"><ele>848.0000000000001</ele><time>2026-05-03T14:39:17.998Z</time></trkpt><trkpt lat="43.99245491956865" lon="5.534679434403126"><ele>848.0</ele><time>2026-05-03T14:39:18.998Z</time></trkpt><trkpt lat="43.992526918335884" lon="5.534741161742804"><ele>848.0</ele><time>2026-05-03T14:39:19.998Z</time></trkpt><trkpt lat="43.99257206646014" lon="5.534826946708525"><ele>848.0</ele><time>2026-05-03T14:39:20.998Z</time></trkpt><trkpt lat="43.99259892903817" lon="5.534933926905496"><ele>848.0000000000001</ele><time>2026-05-03T14:39:21.998Z</time></trkpt><trkpt lat="43.992623960646974" lon="5.535021135352171"><ele>848.0</ele><time>2026-05-03T14:39:22.998Z</time></trkpt><trkpt lat="43.99272605567098" lon="5.5350687531707905"><ele>848.0</ele><time>2026-05-03T14:39:25Z</time></trkpt><trkpt lat="43.99281624216778" lon="5.535064757130643"><ele>848.0</ele><time>2026-05-03T14:39:26Z</time></trkpt><trkpt lat="43.99293364004814" lon="5.535076062430535"><ele>848.0</ele><time>2026-05-03T14:39:27Z</time></trkpt><trkpt lat="43.99308174203033" lon="5.5350993464924825"><ele>848.0</ele><time>2026-05-03T14:39:28Z</time></trkpt><trkpt lat="43.99324033886069" lon="5.535117216691536"><ele>847.5</ele><time>2026-05-03T14:39:29Z</time></trkpt><trkpt lat="43.993376487768664" lon="5.535142976903253"><ele>847.0</ele><time>2026-05-03T14:39:30Z</time></trkpt><trkpt lat="43.9935168987081" lon="5.535174695531227"><ele>846.5</ele><time>2026-05-03T14:39:31Z</time></trkpt><trkpt lat="43.99365767844468" lon="5.535197221662168"><ele>846.0</ele><time>2026-05-03T14:39:32Z</time></trkpt><trkpt lat="43.99378101297576" lon="5.53522094026457"><ele>846.0</ele><time>2026-05-03T14:39:33Z</time></trkpt><trkpt lat="43.99390588215396" lon="5.535249553204439"><ele>846.0</ele><time>2026-05-03T14:39:34Z</time></trkpt><trkpt lat="43.99402472925516" lon="5.535285928186223"><ele>846.0</ele><time>2026-05-03T14:39:35Z</time></trkpt><trkpt lat="43.99413219066384" lon="5.535311781557935"><ele>846.0</ele><time>2026-05-03T14:39:36Z</time></trkpt><trkpt lat="43.99422939549156" lon="5.535339323176169"><ele>844.5999999999999</ele><time>2026-05-03T14:39:37Z</time></trkpt><trkpt lat="43.99430932852847" lon="5.535363753059297"><ele>843.2</ele><time>2026-05-03T14:39:38Z</time></trkpt><trkpt lat="43.99437448115226" lon="5.5353880758902365"><ele>841.8</ele><time>2026-05-03T14:39:39Z</time></trkpt><trkpt lat="43.99448802366931" lon="5.5354145445724106"><ele>840.4000000000001</ele><time>2026-05-03T14:39:41Z</time></trkpt><trkpt lat="43.99455493316522" lon="5.535423150121692"><ele>839.0</ele><time>2026-05-03T14:39:42Z</time></trkpt><trkpt lat="43.99467795159888" lon="5.535425484883072"><ele>839.0000000000001</ele><time>2026-05-03T14:39:44Z</time></trkpt><trkpt lat="43.99473992070744" lon="5.535383628463847"><ele>839.0</ele><time>2026-05-03T14:39:45Z</time></trkpt><trkpt lat="43.994798374911106" lon="5.5353213538774435"><ele>839.0</ele><time>2026-05-03T14:39:46Z</time></trkpt><trkpt lat="43.99485216960167" lon="5.535249880422736"><ele>839.0</ele><time>2026-05-03T14:39:47Z</time></trkpt><trkpt lat="43.994921105187835" lon="5.535179351800868"><ele>839.0000000000001</ele><time>2026-05-03T14:39:48Z</time></trkpt><trkpt lat="43.99499320078759" lon="5.535120952234482"><ele>839.0</ele><time>2026-05-03T14:39:49Z</time></trkpt><trkpt lat="43.99506546487099" lon="5.535041733250423"><ele>837.0000000000001</ele><time>2026-05-03T14:39:51Z</time></trkpt><trkpt lat="43.9951498778719" lon="5.535055655595689"><ele>835.0</ele><time>2026-05-03T14:39:53Z</time></trkpt><trkpt lat="43.99521273525209" lon="5.535105425209182"><ele>833.0</ele><time>2026-05-03T14:39:54Z</time></trkpt><trkpt lat="43.995279087162494" lon="5.535156683483387"><ele>831.0</ele><time>2026-05-03T14:39:55Z</time></trkpt><trkpt lat="43.99535435109935" lon="5.535191313030974"><ele>829.0000000000001</ele><time>2026-05-03T14:39:56Z</time></trkpt><trkpt lat="43.995438797983574" lon="5.53523091619199"><ele>827.0</ele><time>2026-05-03T14:39:57Z</time></trkpt><trkpt lat="43.99550114146525" lon="5.535278300043126"><ele>827.0000000000001</ele><time>2026-05-03T14:39:58Z</time></trkpt><trkpt lat="43.99559160816855" lon="5.535371961652157"><ele>827.0</ele><time>2026-05-03T14:40:00Z</time></trkpt><trkpt lat="43.995684228894476" lon="5.5353353230311875"><ele>827.0</ele><time>2026-05-03T14:40:02Z</time></trkpt><trkpt lat="43.99572420335839" lon="5.535259153385504"><ele>827.0</ele><time>2026-05-03T14:40:03Z</time></trkpt><trkpt lat="43.995748586708174" lon="5.535174182820966"><ele>827.0000000000001</ele><time>2026-05-03T14:40:04Z</time></trkpt><trkpt lat="43.99576326523353" lon="5.5350825532983094"><ele>827.0</ele><time>2026-05-03T14:40:05Z</time></trkpt><trkpt lat="43.99578457389884" lon="5.534984550327404"><ele>824.8</ele><time>2026-05-03T14:40:06Z</time></trkpt><trkpt lat="43.99585286059579" lon="5.534898384395912"><ele>822.6</ele><time>2026-05-03T14:40:08Z</time></trkpt><trkpt lat="43.99592984908143" lon="5.534966288251104"><ele>820.4</ele><time>2026-05-03T14:40:10.999Z</time></trkpt><trkpt lat="43.99598595485403" lon="5.535100166293271"><ele>818.1999999999999</ele><time>2026-05-03T14:40:12.999Z</time></trkpt><trkpt lat="43.9960261903715" lon="5.5351908774535925"><ele>816.0</ele><time>2026-05-03T14:40:13.999Z</time></trkpt><trkpt lat="43.99608770901487" lon="5.535281730708252"><ele>816.0</ele><time>2026-05-03T14:40:14.999Z</time></trkpt><trkpt lat="43.996148745936864" lon="5.535368194943887"><ele>816.0</ele><time>2026-05-03T14:40:15.999Z</time></trkpt><trkpt lat="43.996207164332795" lon="5.5354471146988695"><ele>816.0</ele><time>2026-05-03T14:40:16.999Z</time></trkpt><trkpt lat="43.99627524817491" lon="5.535514475017281"><ele>816.0</ele><time>2026-05-03T14:40:17.999Z</time></trkpt><trkpt lat="43.99634593921378" lon="5.535546655546914"><ele>816.0</ele><time>2026-05-03T14:40:18.999Z</time></trkpt><trkpt lat="43.9964085706494" lon="5.535565986341013"><ele>816.0</ele><time>2026-05-03T14:40:19.999Z</time></trkpt><trkpt lat="43.99651149591471" lon="5.535648168119755"><ele>815.8333333333334</ele><time>2026-05-03T14:40:21.999Z</time></trkpt><trkpt lat="43.996565921480546" lon="5.53572071489268"><ele>815.6666666666667</ele><time>2026-05-03T14:40:22.999Z</time></trkpt><trkpt lat="43.996614731207096" lon="5.5358052673265155"><ele>815.5</ele><time>2026-05-03T14:40:23.999Z</time></trkpt><trkpt lat="43.99666958283116" lon="5.535880998807402"><ele>815.3333333333334</ele><time>2026-05-03T14:40:24.999Z</time></trkpt><trkpt lat="43.99672464453793" lon="5.535951180762623"><ele>815.1666666666667</ele><time>2026-05-03T14:40:25.999Z</time></trkpt><trkpt lat="43.9967877536718" lon="5.536019130853495"><ele>815.0</ele><time>2026-05-03T14:40:26.999Z</time></trkpt><trkpt lat="43.99683499439991" lon="5.536108772359472"><ele>815.3333333333334</ele><time>2026-05-03T14:40:27.999Z</time></trkpt><trkpt lat="43.99687471592066" lon="5.536207540599573"><ele>815.6666666666667</ele><time>2026-05-03T14:40:28.999Z</time></trkpt><trkpt lat="43.99691961948188" lon="5.536290649167557"><ele>816.0</ele><time>2026-05-03T14:40:29.999Z</time></trkpt><trkpt lat="43.996974423649114" lon="5.536349748223"><ele>816.3333333333333</ele><time>2026-05-03T14:40:30.999Z</time></trkpt><trkpt lat="43.99703899714115" lon="5.536405396628084"><ele>816.6666666666666</ele><time>2026-05-03T14:40:31.999Z</time></trkpt><trkpt lat="43.99710237498842" lon="5.536461099799769"><ele>817.0</ele><time>2026-05-03T14:40:32.999Z</time></trkpt><trkpt lat="43.997160991315575" lon="5.536522510489365"><ele>817.6666666666666</ele><time>2026-05-03T14:40:33.999Z</time></trkpt><trkpt lat="43.99720953627819" lon="5.536585310694753"><ele>818.3333333333333</ele><time>2026-05-03T14:40:34.999Z</time></trkpt><trkpt lat="43.99725811092568" lon="5.536642591050712"><ele>819.0</ele><time>2026-05-03T14:40:35.999Z</time></trkpt><trkpt lat="43.997332592291556" lon="5.536736247084243"><ele>819.6666666666667</ele><time>2026-05-03T14:40:37.999Z</time></trkpt><trkpt lat="43.9973144858819" lon="5.536853758490263"><ele>820.3333333333334</ele><time>2026-05-03T14:40:39.999Z</time></trkpt><trkpt lat="43.99724154816884" lon="5.5369540698817685"><ele>821.0</ele><time>2026-05-03T14:40:41.999Z</time></trkpt><trkpt lat="43.99716524343817" lon="5.537092322854437"><ele>822.5000000000001</ele><time>2026-05-03T14:40:43.999Z</time></trkpt><trkpt lat="43.99711836149925" lon="5.537182881927471"><ele>824.0</ele><time>2026-05-03T14:40:44.999Z</time></trkpt><trkpt lat="43.99706322335449" lon="5.537283264242434"><ele>825.5</ele><time>2026-05-03T14:40:45.999Z</time></trkpt><trkpt lat="43.99701386276224" lon="5.537384931276488"><ele>827.0</ele><time>2026-05-03T14:40:46.999Z</time></trkpt><trkpt lat="43.99699247365637" lon="5.537480148458447"><ele>828.5000000000001</ele><time>2026-05-03T14:40:47.999Z</time></trkpt><trkpt lat="43.99698141822107" lon="5.537579751420307"><ele>830.0</ele><time>2026-05-03T14:40:48.999Z</time></trkpt><trkpt lat="43.996964633540976" lon="5.5376906379353805"><ele>830.0000000000001</ele><time>2026-05-03T14:40:49.999Z</time></trkpt><trkpt lat="43.996945462979795" lon="5.537796598645364"><ele>830.0</ele><time>2026-05-03T14:40:50.999Z</time></trkpt><trkpt lat="43.99692447493232" lon="5.537907225548205"><ele>830.0</ele><time>2026-05-03T14:40:51.999Z</time></trkpt><trkpt lat="43.9968947616023" lon="5.538008523275799"><ele>830.0</ele><time>2026-05-03T14:40:52.999Z</time></trkpt><trkpt lat="43.996878499343744" lon="5.538096577637147"><ele>830.0000000000001</ele><time>2026-05-03T14:40:53.999Z</time></trkpt><trkpt lat="43.99687489115668" lon="5.5382509787420595"><ele>830.0</ele><time>2026-05-03T14:40:55.999Z</time></trkpt><trkpt lat="43.99688163390508" lon="5.5384330362528"><ele>832.0000000000001</ele><time>2026-05-03T14:40:57.999Z</time></trkpt><trkpt lat="43.996876455577194" lon="5.5385241254626685"><ele>834.0</ele><time>2026-05-03T14:40:58.999Z</time></trkpt><trkpt lat="43.996878039989205" lon="5.538658177513826"><ele>836.0</ele><time>2026-05-03T14:41:00.999Z</time></trkpt><trkpt lat="43.99686249910225" lon="5.538751875613142"><ele>838.0</ele><time>2026-05-03T14:41:02.999Z</time></trkpt><trkpt lat="43.99681371178374" lon="5.538813920749902"><ele>840.0000000000001</ele><time>2026-05-03T14:41:04.999Z</time></trkpt><trkpt lat="43.996780822805995" lon="5.538920275664153"><ele>842.0</ele><time>2026-05-03T14:41:06.999Z</time></trkpt><trkpt lat="43.99685194898113" lon="5.538923250785703"><ele>843.1428571428572</ele><time>2026-05-03T14:41:09.999Z</time></trkpt><trkpt lat="43.996921349898095" lon="5.538915747423194"><ele>844.2857142857143</ele><time>2026-05-03T14:41:11.999Z</time></trkpt><trkpt lat="43.99698870485771" lon="5.538887949691223"><ele>845.4285714285714</ele><time>2026-05-03T14:41:14.999Z</time></trkpt><trkpt lat="43.997044016518565" lon="5.538835839871313"><ele>846.5714285714287</ele><time>2026-05-03T14:41:16.998Z</time></trkpt><trkpt lat="43.997101933456065" lon="5.538886193765705"><ele>847.7142857142857</ele><time>2026-05-03T14:41:19.998Z</time></trkpt><trkpt lat="43.99710332866411" lon="5.538976022763861"><ele>848.8571428571429</ele><time>2026-05-03T14:41:21.998Z</time></trkpt><trkpt lat="43.997155497814816" lon="5.539104772301036"><ele>850.0</ele><time>2026-05-03T14:41:23.998Z</time></trkpt><trkpt lat="43.99717365118905" lon="5.539191864971754"><ele>849.9999999999999</ele><time>2026-05-03T14:41:24.998Z</time></trkpt><trkpt lat="43.99718512721437" lon="5.5392847738097455"><ele>850.0</ele><time>2026-05-03T14:41:25.998Z</time></trkpt><trkpt lat="43.99717761064462" lon="5.539388879608868"><ele>850.0</ele><time>2026-05-03T14:41:26.998Z</time></trkpt><trkpt lat="43.99716451646368" lon="5.539478006736094"><ele>850.0</ele><time>2026-05-03T14:41:27.998Z</time></trkpt><trkpt lat="43.997121648436746" lon="5.539571673290328"><ele>849.9999999999999</ele><time>2026-05-03T14:41:28.998Z</time></trkpt><trkpt lat="43.997064859573726" lon="5.539672417453183"><ele>850.0</ele><time>2026-05-03T14:41:30Z</time></trkpt><trkpt lat="43.99701269977103" lon="5.539793599949983"><ele>850.6</ele><time>2026-05-03T14:41:31Z</time></trkpt><trkpt lat="43.996970800659405" lon="5.539938287762729"><ele>851.2</ele><time>2026-05-03T14:41:32Z</time></trkpt><trkpt lat="43.9969123563905" lon="5.540069209116469"><ele>851.8</ele><time>2026-05-03T14:41:33Z</time></trkpt><trkpt lat="43.99685388293639" lon="5.5401770505408345"><ele>852.4</ele><time>2026-05-03T14:41:34Z</time></trkpt><trkpt lat="43.99679872339893" lon="5.540262437593994"><ele>853.0</ele><time>2026-05-03T14:41:35Z</time></trkpt><trkpt lat="43.99674401034605" lon="5.540359108758832"><ele>853.4</ele><time>2026-05-03T14:41:36Z</time></trkpt><trkpt lat="43.996710419204604" lon="5.540478385608414"><ele>853.8</ele><time>2026-05-03T14:41:37Z</time></trkpt><trkpt lat="43.99668446547764" lon="5.540625816473057"><ele>854.2</ele><time>2026-05-03T14:41:38Z</time></trkpt><trkpt lat="43.99664371600707" lon="5.540779631399025"><ele>854.6</ele><time>2026-05-03T14:41:39Z</time></trkpt><trkpt lat="43.996610158844184" lon="5.540874030323239"><ele>855.0</ele><time>2026-05-03T14:41:40Z</time></trkpt><trkpt lat="43.99658570202337" lon="5.540979780224049"><ele>855.1666666666666</ele><time>2026-05-03T14:41:43Z</time></trkpt><trkpt lat="43.996539129925296" lon="5.5410864739805215"><ele>855.3333333333333</ele><time>2026-05-03T14:41:48Z</time></trkpt><trkpt lat="43.996462872919984" lon="5.541067754729288"><ele>855.5</ele><time>2026-05-03T14:41:49Z</time></trkpt><trkpt lat="43.9963988367135" lon="5.541115731428493"><ele>855.6666666666666</ele><time>2026-05-03T14:41:51Z</time></trkpt><trkpt lat="43.996316421857045" lon="5.541177477624324"><ele>855.8333333333333</ele><time>2026-05-03T14:41:53Z</time></trkpt><trkpt lat="43.99623966166899" lon="5.541264750547953"><ele>856.0</ele><time>2026-05-03T14:41:55Z</time></trkpt><trkpt lat="43.99615740071138" lon="5.541296618177799"><ele>855.6666666666666</ele><time>2026-05-03T14:41:57Z</time></trkpt><trkpt lat="43.99608842024696" lon="5.541359591727842"><ele>855.3333333333333</ele><time>2026-05-03T14:42:00Z</time></trkpt><trkpt lat="43.99598444582981" lon="5.541445264159966"><ele>855.0</ele><time>2026-05-03T14:42:02Z</time></trkpt><trkpt lat="43.99591309036639" lon="5.541503956343293"><ele>854.6666666666667</ele><time>2026-05-03T14:42:04Z</time></trkpt><trkpt lat="43.99583066268899" lon="5.541541414200056"><ele>854.3333333333334</ele><time>2026-05-03T14:42:06Z</time></trkpt><trkpt lat="43.99577351283687" lon="5.541584400085657"><ele>854.0</ele><time>2026-05-03T14:42:07Z</time></trkpt><trkpt lat="43.99570575070366" lon="5.541635429902774"><ele>854.0</ele><time>2026-05-03T14:42:08Z</time></trkpt><trkpt lat="43.99565003080629" lon="5.541677391017097"><ele>854.0000000000001</ele><time>2026-05-03T14:42:09Z</time></trkpt><trkpt lat="43.99552369559435" lon="5.541772530598535"><ele>854.0000000000001</ele><time>2026-05-03T14:42:11Z</time></trkpt><trkpt lat="43.995443721565664" lon="5.541832903692328"><ele>854.0</ele><time>2026-05-03T14:42:12Z</time></trkpt><trkpt lat="43.99538609651931" lon="5.541876849347276"><ele>854.0</ele><time>2026-05-03T14:42:13Z</time></trkpt><trkpt lat="43.99526075216576" lon="5.541995124611157"><ele>853.8000000000001</ele><time>2026-05-03T14:42:15Z</time></trkpt><trkpt lat="43.99515305176749" lon="5.542054572581737"><ele>853.6000000000001</ele><time>2026-05-03T14:42:16Z</time></trkpt><trkpt lat="43.99508123268478" lon="5.542109342848197"><ele>853.4</ele><time>2026-05-03T14:42:17Z</time></trkpt><trkpt lat="43.99498726464494" lon="5.542181004172151"><ele>853.2</ele><time>2026-05-03T14:42:19Z</time></trkpt><trkpt lat="43.994916002413454" lon="5.542235349760292"><ele>853.0</ele><time>2026-05-03T14:42:20Z</time></trkpt><trkpt lat="43.99485683966985" lon="5.5423064954635"><ele>852.9999999999999</ele><time>2026-05-03T14:42:20.999Z</time></trkpt><trkpt lat="43.994795208831945" lon="5.542328345551613"><ele>853.0</ele><time>2026-05-03T14:42:21.999Z</time></trkpt><trkpt lat="43.99473943429109" lon="5.542372119017458"><ele>853.0</ele><time>2026-05-03T14:42:22.999Z</time></trkpt><trkpt lat="43.99466912204895" lon="5.542427302112356"><ele>853.0</ele><time>2026-05-03T14:42:23.999Z</time></trkpt><trkpt lat="43.99459165244802" lon="5.542488558116554"><ele>852.9999999999999</ele><time>2026-05-03T14:42:24.999Z</time></trkpt><trkpt lat="43.99450850848117" lon="5.542554731486289"><ele>853.0</ele><time>2026-05-03T14:42:25.999Z</time></trkpt><trkpt lat="43.99442586861803" lon="5.542620503633927"><ele>853.0</ele><time>2026-05-03T14:42:26.999Z</time></trkpt><trkpt lat="43.99432728904772" lon="5.5426989620241836"><ele>853.0</ele><time>2026-05-03T14:42:27.999Z</time></trkpt><trkpt lat="43.994230675388145" lon="5.542776612034549"><ele>853.0</ele><time>2026-05-03T14:42:28.999Z</time></trkpt><trkpt lat="43.994140699457915" lon="5.542849423447834"><ele>853.0</ele><time>2026-05-03T14:42:29.999Z</time></trkpt><trkpt lat="43.99403134700225" lon="5.542937914924992"><ele>853.0</ele><time>2026-05-03T14:42:30.999Z</time></trkpt><trkpt lat="43.9939404468509" lon="5.543037825113815"><ele>853.0</ele><time>2026-05-03T14:42:31.999Z</time></trkpt><trkpt lat="43.993838652372006" lon="5.543119963148255"><ele>853.0</ele><time>2026-05-03T14:42:32.999Z</time></trkpt><trkpt lat="43.99373745023696" lon="5.543202145752256"><ele>853.0</ele><time>2026-05-03T14:42:33.999Z</time></trkpt><trkpt lat="43.99363420852933" lon="5.543284236103981"><ele>853.0</ele><time>2026-05-03T14:42:34.999Z</time></trkpt><trkpt lat="43.99352140961607" lon="5.543357000212878"><ele>853.0</ele><time>2026-05-03T14:42:35.999Z</time></trkpt><trkpt lat="43.99342356551149" lon="5.543470942682503"><ele>853.0</ele><time>2026-05-03T14:42:36.999Z</time></trkpt><trkpt lat="43.99331910118151" lon="5.543570311986098"><ele>853.0</ele><time>2026-05-03T14:42:37.999Z</time></trkpt><trkpt lat="43.993214921578314" lon="5.543675349345493"><ele>852.25</ele><time>2026-05-03T14:42:38.999Z</time></trkpt><trkpt lat="43.99311190020329" lon="5.54379461585611"><ele>851.5</ele><time>2026-05-03T14:42:39.999Z</time></trkpt><trkpt lat="43.993010482876684" lon="5.543908385433959"><ele>850.75</ele><time>2026-05-03T14:42:40.999Z</time></trkpt><trkpt lat="43.9929050787784" lon="5.5440175030647385"><ele>850.0</ele><time>2026-05-03T14:42:41.999Z</time></trkpt><trkpt lat="43.99279215404468" lon="5.54411262884137"><ele>850.0</ele><time>2026-05-03T14:42:42.999Z</time></trkpt><trkpt lat="43.9926925010107" lon="5.544216950614411"><ele>850.0</ele><time>2026-05-03T14:42:43.999Z</time></trkpt><trkpt lat="43.992587491198556" lon="5.544328392880262"><ele>850.0</ele><time>2026-05-03T14:42:44.999Z</time></trkpt><trkpt lat="43.99247942463622" lon="5.5444442423518625"><ele>850.0</ele><time>2026-05-03T14:42:45.999Z</time></trkpt><trkpt lat="43.992376898573625" lon="5.544554302711478"><ele>849.0</ele><time>2026-05-03T14:42:46.999Z</time></trkpt><trkpt lat="43.99226799137157" lon="5.544671948891934"><ele>848.0</ele><time>2026-05-03T14:42:47.999Z</time></trkpt><trkpt lat="43.992163905131356" lon="5.5447852820971635"><ele>847.0</ele><time>2026-05-03T14:42:48.999Z</time></trkpt><trkpt lat="43.992058583017986" lon="5.544899961082543"><ele>846.0</ele><time>2026-05-03T14:42:49.999Z</time></trkpt><trkpt lat="43.99195829493078" lon="5.545009158796474"><ele>846.0</ele><time>2026-05-03T14:42:50.999Z</time></trkpt><trkpt lat="43.991858944163916" lon="5.545138763674858"><ele>846.0</ele><time>2026-05-03T14:42:51.999Z</time></trkpt><trkpt lat="43.99175105319597" lon="5.545245799732132"><ele>846.0</ele><time>2026-05-03T14:42:52.999Z</time></trkpt><trkpt lat="43.991649293985475" lon="5.545359868244667"><ele>846.0</ele><time>2026-05-03T14:42:53.999Z</time></trkpt><trkpt lat="43.99155250311087" lon="5.545473144763552"><ele>845.5</ele><time>2026-05-03T14:42:54.999Z</time></trkpt><trkpt lat="43.99144931211065" lon="5.545590050274606"><ele>845.0</ele><time>2026-05-03T14:42:55.999Z</time></trkpt><trkpt lat="43.99133654856389" lon="5.54568614138796"><ele>844.5</ele><time>2026-05-03T14:42:56.999Z</time></trkpt><trkpt lat="43.99123719498354" lon="5.545811145952644"><ele>844.0</ele><time>2026-05-03T14:42:57.999Z</time></trkpt><trkpt lat="43.991131479524725" lon="5.545920445429449"><ele>844.0</ele><time>2026-05-03T14:42:58.999Z</time></trkpt><trkpt lat="43.991031431217806" lon="5.5460372221422265"><ele>844.0</ele><time>2026-05-03T14:42:59.999Z</time></trkpt><trkpt lat="43.99093106173986" lon="5.5461529188132905"><ele>844.0</ele><time>2026-05-03T14:43:00.999Z</time></trkpt><trkpt lat="43.99082937142253" lon="5.546263489894938"><ele>844.0</ele><time>2026-05-03T14:43:01.999Z</time></trkpt><trkpt lat="43.990720358077056" lon="5.546369701263163"><ele>843.5</ele><time>2026-05-03T14:43:02.999Z</time></trkpt><trkpt lat="43.990617386157105" lon="5.546486300150519"><ele>843.0</ele><time>2026-05-03T14:43:03.999Z</time></trkpt><trkpt lat="43.99051099533721" lon="5.546600498041353"><ele>842.5</ele><time>2026-05-03T14:43:04.999Z</time></trkpt><trkpt lat="43.990407463974606" lon="5.546718622132155"><ele>842.0</ele><time>2026-05-03T14:43:05.999Z</time></trkpt><trkpt lat="43.990293582348095" lon="5.546824106523902"><ele>842.0</ele><time>2026-05-03T14:43:06.999Z</time></trkpt><trkpt lat="43.99018923964098" lon="5.546938072746534"><ele>842.0</ele><time>2026-05-03T14:43:07.999Z</time></trkpt><trkpt lat="43.99008947903452" lon="5.5470470342921825"><ele>842.0</ele><time>2026-05-03T14:43:08.999Z</time></trkpt><trkpt lat="43.989990913562444" lon="5.54715469048782"><ele>842.0</ele><time>2026-05-03T14:43:09.999Z</time></trkpt><trkpt lat="43.989889136961956" lon="5.547264350423423"><ele>841.25</ele><time>2026-05-03T14:43:10.999Z</time></trkpt><trkpt lat="43.98980108973485" lon="5.547385642604199"><ele>840.5</ele><time>2026-05-03T14:43:11.999Z</time></trkpt><trkpt lat="43.989702032547676" lon="5.547492120509854"><ele>839.75</ele><time>2026-05-03T14:43:12.999Z</time></trkpt><trkpt lat="43.98960156003322" lon="5.547593366539381"><ele>839.0</ele><time>2026-05-03T14:43:13.999Z</time></trkpt><trkpt lat="43.98950755147997" lon="5.547694202631386"><ele>839.0</ele><time>2026-05-03T14:43:14.999Z</time></trkpt><trkpt lat="43.9894115986185" lon="5.547795515307617"><ele>839.0</ele><time>2026-05-03T14:43:15.999Z</time></trkpt><trkpt lat="43.989309501057534" lon="5.547875548925226"><ele>839.0</ele><time>2026-05-03T14:43:16.999Z</time></trkpt><trkpt lat="43.98921686579071" lon="5.547971818079361"><ele>839.0</ele><time>2026-05-03T14:43:17.999Z</time></trkpt><trkpt lat="43.98911724183578" lon="5.548075323550077"><ele>838.5</ele><time>2026-05-03T14:43:18.999Z</time></trkpt><trkpt lat="43.98901707069576" lon="5.54818084305146"><ele>838.0</ele><time>2026-05-03T14:43:19.999Z</time></trkpt><trkpt lat="43.988913410522805" lon="5.5482913140276935"><ele>837.5</ele><time>2026-05-03T14:43:20.999Z</time></trkpt><trkpt lat="43.98881810973027" lon="5.548427207437201"><ele>837.0</ele><time>2026-05-03T14:43:21.999Z</time></trkpt><trkpt lat="43.98871799577379" lon="5.548543687031234"><ele>837.0</ele><time>2026-05-03T14:43:22.999Z</time></trkpt><trkpt lat="43.98862556424203" lon="5.548667390858962"><ele>837.0</ele><time>2026-05-03T14:43:23.999Z</time></trkpt><trkpt lat="43.98851673451531" lon="5.548785722769389"><ele>837.0</ele><time>2026-05-03T14:43:24.999Z</time></trkpt><trkpt lat="43.98843343413753" lon="5.548929954366417"><ele>837.0</ele><time>2026-05-03T14:43:25.999Z</time></trkpt><trkpt lat="43.98834378847157" lon="5.549052677235637"><ele>835.75</ele><time>2026-05-03T14:43:26.999Z</time></trkpt><trkpt lat="43.98825309137621" lon="5.549186998590193"><ele>834.5</ele><time>2026-05-03T14:43:27.999Z</time></trkpt><trkpt lat="43.98814905668046" lon="5.5492996622863835"><ele>833.25</ele><time>2026-05-03T14:43:28.998Z</time></trkpt><trkpt lat="43.98805429811337" lon="5.54942889621865"><ele>832.0</ele><time>2026-05-03T14:43:29.998Z</time></trkpt><trkpt lat="43.98797322895683" lon="5.5495385147642615"><ele>830.75</ele><time>2026-05-03T14:43:30.998Z</time></trkpt><trkpt lat="43.98788892735654" lon="5.549682812377224"><ele>829.5</ele><time>2026-05-03T14:43:31.998Z</time></trkpt><trkpt lat="43.98780273803017" lon="5.549788915199165"><ele>828.25</ele><time>2026-05-03T14:43:32.998Z</time></trkpt><trkpt lat="43.987708581406835" lon="5.549922937509329"><ele>827.0</ele><time>2026-05-03T14:43:33.998Z</time></trkpt><trkpt lat="43.98761842697333" lon="5.550036451974081"><ele>827.0</ele><time>2026-05-03T14:43:34.998Z</time></trkpt><trkpt lat="43.98753993957979" lon="5.550147268196965"><ele>827.0</ele><time>2026-05-03T14:43:36Z</time></trkpt><trkpt lat="43.98745117840463" lon="5.550274757259777"><ele>827.0</ele><time>2026-05-03T14:43:37Z</time></trkpt><trkpt lat="43.98736785859243" lon="5.550402121615082"><ele>827.0</ele><time>2026-05-03T14:43:38Z</time></trkpt><trkpt lat="43.987284107828124" lon="5.550524793112057"><ele>824.75</ele><time>2026-05-03T14:43:39Z</time></trkpt><trkpt lat="43.9872075033304" lon="5.550638925118424"><ele>822.5</ele><time>2026-05-03T14:43:40Z</time></trkpt><trkpt lat="43.98712797514912" lon="5.550757370990233"><ele>820.25</ele><time>2026-05-03T14:43:41Z</time></trkpt><trkpt lat="43.9870537799805" lon="5.55087948859683"><ele>818.0</ele><time>2026-05-03T14:43:42Z</time></trkpt><trkpt lat="43.986975212676526" lon="5.551001844458282"><ele>818.0</ele><time>2026-05-03T14:43:43Z</time></trkpt><trkpt lat="43.98690055760592" lon="5.551128138841739"><ele>818.0</ele><time>2026-05-03T14:43:44Z</time></trkpt><trkpt lat="43.986815556534054" lon="5.551254653526981"><ele>818.0</ele><time>2026-05-03T14:43:45Z</time></trkpt><trkpt lat="43.98674530610751" lon="5.551380477489276"><ele>818.0</ele><time>2026-05-03T14:43:46Z</time></trkpt><trkpt lat="43.986670995199965" lon="5.551502772283807"><ele>816.75</ele><time>2026-05-03T14:43:47Z</time></trkpt><trkpt lat="43.98659122910564" lon="5.551632847419391"><ele>815.5</ele><time>2026-05-03T14:43:48Z</time></trkpt><trkpt lat="43.986506011962035" lon="5.551766983310609"><ele>814.25</ele><time>2026-05-03T14:43:49Z</time></trkpt><trkpt lat="43.98642352319961" lon="5.551896824651659"><ele>813.0</ele><time>2026-05-03T14:43:50Z</time></trkpt><trkpt lat="43.986331637014594" lon="5.552040288118972"><ele>812.25</ele><time>2026-05-03T14:43:51Z</time></trkpt><trkpt lat="43.98624575447819" lon="5.552173214250224"><ele>811.5</ele><time>2026-05-03T14:43:52Z</time></trkpt><trkpt lat="43.98616102803403" lon="5.552300851823346"><ele>810.75</ele><time>2026-05-03T14:43:53Z</time></trkpt><trkpt lat="43.98607859793896" lon="5.552423101165048"><ele>810.0</ele><time>2026-05-03T14:43:54Z</time></trkpt><trkpt lat="43.98599268945675" lon="5.552550509407218"><ele>810.0</ele><time>2026-05-03T14:43:55Z</time></trkpt><trkpt lat="43.98590166004874" lon="5.552689258506705"><ele>810.0</ele><time>2026-05-03T14:43:56Z</time></trkpt><trkpt lat="43.985826601474685" lon="5.552845103789487"><ele>810.0</ele><time>2026-05-03T14:43:57Z</time></trkpt><trkpt lat="43.9857509921411" lon="5.552974429834694"><ele>810.0</ele><time>2026-05-03T14:43:58Z</time></trkpt><trkpt lat="43.98568681084957" lon="5.553083391960726"><ele>808.2</ele><time>2026-05-03T14:43:59Z</time></trkpt><trkpt lat="43.985609457481175" lon="5.5531748845241395"><ele>806.4</ele><time>2026-05-03T14:44:00Z</time></trkpt><trkpt lat="43.98554664234964" lon="5.553268998021085"><ele>804.5999999999999</ele><time>2026-05-03T14:44:01Z</time></trkpt><trkpt lat="43.985467427818726" lon="5.553366719417116"><ele>802.8</ele><time>2026-05-03T14:44:02Z</time></trkpt><trkpt lat="43.985375115350664" lon="5.553468764470623"><ele>801.0</ele><time>2026-05-03T14:44:03Z</time></trkpt><trkpt lat="43.98527670348525" lon="5.553569958666872"><ele>801.0</ele><time>2026-05-03T14:44:04Z</time></trkpt><trkpt lat="43.985180179400416" lon="5.553656604100126"><ele>801.0</ele><time>2026-05-03T14:44:05Z</time></trkpt><trkpt lat="43.985081426118676" lon="5.553725844518258"><ele>801.0</ele><time>2026-05-03T14:44:06Z</time></trkpt><trkpt lat="43.98497408053979" lon="5.553790296286955"><ele>801.0</ele><time>2026-05-03T14:44:07Z</time></trkpt><trkpt lat="43.98485932224263" lon="5.553854782463861"><ele>798.75</ele><time>2026-05-03T14:44:08Z</time></trkpt><trkpt lat="43.98474833319116" lon="5.55390468146354"><ele>796.5</ele><time>2026-05-03T14:44:09Z</time></trkpt><trkpt lat="43.9846300602528" lon="5.553966867046227"><ele>794.25</ele><time>2026-05-03T14:44:10Z</time></trkpt><trkpt lat="43.9845168095062" lon="5.554043289738265"><ele>792.0</ele><time>2026-05-03T14:44:11Z</time></trkpt><trkpt lat="43.98440215531443" lon="5.554112516322819"><ele>792.0</ele><time>2026-05-03T14:44:12Z</time></trkpt><trkpt lat="43.98429087417091" lon="5.5541787717689735"><ele>792.0</ele><time>2026-05-03T14:44:13Z</time></trkpt><trkpt lat="43.98415954256531" lon="5.554239175270981"><ele>792.0</ele><time>2026-05-03T14:44:14Z</time></trkpt><trkpt lat="43.984045721191265" lon="5.554321941268755"><ele>792.0</ele><time>2026-05-03T14:44:15Z</time></trkpt><trkpt lat="43.98392788715902" lon="5.554380395749288"><ele>791.6</ele><time>2026-05-03T14:44:16Z</time></trkpt><trkpt lat="43.983829474829776" lon="5.554449909075873"><ele>791.2</ele><time>2026-05-03T14:44:17Z</time></trkpt><trkpt lat="43.983738632084986" lon="5.5544839565589355"><ele>790.8</ele><time>2026-05-03T14:44:18Z</time></trkpt><trkpt lat="43.98363282663978" lon="5.554546656781991"><ele>790.4</ele><time>2026-05-03T14:44:19Z</time></trkpt><trkpt lat="43.98354609442227" lon="5.5545957389970555"><ele>790.0</ele><time>2026-05-03T14:44:20Z</time></trkpt><trkpt lat="43.98345960948718" lon="5.554670694010842"><ele>788.25</ele><time>2026-05-03T14:44:21Z</time></trkpt><trkpt lat="43.98335918116232" lon="5.554747729549677"><ele>786.5</ele><time>2026-05-03T14:44:22Z</time></trkpt><trkpt lat="43.983282503266175" lon="5.554866585079809"><ele>784.75</ele><time>2026-05-03T14:44:23Z</time></trkpt><trkpt lat="43.9832075438721" lon="5.554990855542108"><ele>783.0</ele><time>2026-05-03T14:44:24Z</time></trkpt><trkpt lat="43.98313944420311" lon="5.555134288569322"><ele>782.0</ele><time>2026-05-03T14:44:25Z</time></trkpt><trkpt lat="43.98306631178781" lon="5.55527044621636"><ele>781.0</ele><time>2026-05-03T14:44:26Z</time></trkpt><trkpt lat="43.98300867104528" lon="5.5553981243343635"><ele>780.0</ele><time>2026-05-03T14:44:27Z</time></trkpt><trkpt lat="43.982959813835585" lon="5.555512706692347"><ele>779.0</ele><time>2026-05-03T14:44:28Z</time></trkpt><trkpt lat="43.982939229944094" lon="5.555622189727963"><ele>778.0</ele><time>2026-05-03T14:44:28.999Z</time></trkpt><trkpt lat="43.982933023022156" lon="5.5557508887957585"><ele>777.0</ele><time>2026-05-03T14:44:29.999Z</time></trkpt><trkpt lat="43.98292778839283" lon="5.55589872867111"><ele>776.0</ele><time>2026-05-03T14:44:30.999Z</time></trkpt><trkpt lat="43.982912672664035" lon="5.556055110913279"><ele>775.0</ele><time>2026-05-03T14:44:31.999Z</time></trkpt><trkpt lat="43.9829014468118" lon="5.556208661697736"><ele>774.0</ele><time>2026-05-03T14:44:32.999Z</time></trkpt><trkpt lat="43.98289331354452" lon="5.5563655976910855"><ele>773.0</ele><time>2026-05-03T14:44:33.999Z</time></trkpt><trkpt lat="43.98287786486949" lon="5.556534057739012"><ele>771.25</ele><time>2026-05-03T14:44:34.999Z</time></trkpt><trkpt lat="43.982858127186056" lon="5.556702530818603"><ele>769.5</ele><time>2026-05-03T14:44:35.999Z</time></trkpt><trkpt lat="43.98284160922917" lon="5.556865882226382"><ele>767.75</ele><time>2026-05-03T14:44:36.999Z</time></trkpt><trkpt lat="43.98282718064359" lon="5.557030524261438"><ele>766.0</ele><time>2026-05-03T14:44:37.999Z</time></trkpt><trkpt lat="43.98281123721439" lon="5.5572018303867265"><ele>765.25</ele><time>2026-05-03T14:44:38.999Z</time></trkpt><trkpt lat="43.98279681418801" lon="5.557356829927136"><ele>764.5</ele><time>2026-05-03T14:44:39.999Z</time></trkpt><trkpt lat="43.98276997976016" lon="5.557503509028895"><ele>763.75</ele><time>2026-05-03T14:44:40.999Z</time></trkpt><trkpt lat="43.98273640804617" lon="5.557656282981825"><ele>763.0</ele><time>2026-05-03T14:44:41.999Z</time></trkpt><trkpt lat="43.982691322718956" lon="5.557808753965072"><ele>761.75</ele><time>2026-05-03T14:44:42.999Z</time></trkpt><trkpt lat="43.98266206185116" lon="5.557955844897088"><ele>760.5</ele><time>2026-05-03T14:44:43.999Z</time></trkpt><trkpt lat="43.982634818041035" lon="5.558108756023595"><ele>759.25</ele><time>2026-05-03T14:44:44.999Z</time></trkpt><trkpt lat="43.982618547296674" lon="5.558266807210153"><ele>758.0</ele><time>2026-05-03T14:44:45.999Z</time></trkpt><trkpt lat="43.98258597380477" lon="5.558420501556815"><ele>758.0</ele><time>2026-05-03T14:44:46.999Z</time></trkpt><trkpt lat="43.98255755857683" lon="5.5585762662702685"><ele>758.0</ele><time>2026-05-03T14:44:47.999Z</time></trkpt><trkpt lat="43.98252856704366" lon="5.558701856354062"><ele>758.0</ele><time>2026-05-03T14:44:48.999Z</time></trkpt><trkpt lat="43.98248910779494" lon="5.558810095988555"><ele>758.0</ele><time>2026-05-03T14:44:49.999Z</time></trkpt><trkpt lat="43.98244943520322" lon="5.5589041340685394"><ele>758.0</ele><time>2026-05-03T14:44:50.999Z</time></trkpt><trkpt lat="43.982402149896906" lon="5.558991922658346"><ele>755.0</ele><time>2026-05-03T14:44:51.999Z</time></trkpt><trkpt lat="43.98236259779075" lon="5.559090656939117"><ele>752.0</ele><time>2026-05-03T14:44:52.999Z</time></trkpt><trkpt lat="43.98230713978326" lon="5.5591834267849345"><ele>749.0</ele><time>2026-05-03T14:44:53.999Z</time></trkpt><trkpt lat="43.98222531328126" lon="5.559280809847576"><ele>746.0</ele><time>2026-05-03T14:44:54.999Z</time></trkpt><trkpt lat="43.98216340257925" lon="5.559395154220864"><ele>743.0</ele><time>2026-05-03T14:44:55.999Z</time></trkpt><trkpt lat="43.98208769991366" lon="5.559476220888913"><ele>742.1666666666666</ele><time>2026-05-03T14:44:56.999Z</time></trkpt><trkpt lat="43.98202272970183" lon="5.559544959989465"><ele>741.3333333333333</ele><time>2026-05-03T14:44:57.999Z</time></trkpt><trkpt lat="43.981960794083854" lon="5.559608192412607"><ele>740.5</ele><time>2026-05-03T14:44:58.999Z</time></trkpt><trkpt lat="43.981893891214185" lon="5.5596510497935485"><ele>739.6666666666666</ele><time>2026-05-03T14:44:59.999Z</time></trkpt><trkpt lat="43.98179007492396" lon="5.559756297042336"><ele>738.8333333333334</ele><time>2026-05-03T14:45:01.999Z</time></trkpt><trkpt lat="43.98172892649071" lon="5.559822191328613"><ele>738.0</ele><time>2026-05-03T14:45:02.999Z</time></trkpt><trkpt lat="43.981655522872245" lon="5.559908996129928"><ele>736.6666666666666</ele><time>2026-05-03T14:45:04.999Z</time></trkpt><trkpt lat="43.98160199004015" lon="5.559974183152634"><ele>735.3333333333334</ele><time>2026-05-03T14:45:06.999Z</time></trkpt><trkpt lat="43.981575035215215" lon="5.560147507763874"><ele>734.0</ele><time>2026-05-03T14:45:08.999Z</time></trkpt><trkpt lat="43.98155417897372" lon="5.560261196581085"><ele>732.6666666666667</ele><time>2026-05-03T14:45:10.999Z</time></trkpt><trkpt lat="43.98151568887637" lon="5.560376044364523"><ele>731.3333333333334</ele><time>2026-05-03T14:45:11.999Z</time></trkpt><trkpt lat="43.98148746352784" lon="5.560462292907268"><ele>730.0</ele><time>2026-05-03T14:45:12.999Z</time></trkpt><trkpt lat="43.98143963641845" lon="5.560634015955427"><ele>728.4</ele><time>2026-05-03T14:45:14.999Z</time></trkpt><trkpt lat="43.98139268186896" lon="5.5607737657039955"><ele>726.8</ele><time>2026-05-03T14:45:16.999Z</time></trkpt><trkpt lat="43.98135526816523" lon="5.560923821939037"><ele>725.2</ele><time>2026-05-03T14:45:18.999Z</time></trkpt><trkpt lat="43.98131570481182" lon="5.561063192832993"><ele>723.6</ele><time>2026-05-03T14:45:20.999Z</time></trkpt><trkpt lat="43.98133800253182" lon="5.5612131499326996"><ele>722.0</ele><time>2026-05-03T14:45:22.999Z</time></trkpt><trkpt lat="43.98137105323939" lon="5.561352629784873"><ele>722.1666666666666</ele><time>2026-05-03T14:45:24.999Z</time></trkpt><trkpt lat="43.98138821848879" lon="5.561462865458793"><ele>722.3333333333333</ele><time>2026-05-03T14:45:26.999Z</time></trkpt><trkpt lat="43.981467609555025" lon="5.561515679534192"><ele>722.5</ele><time>2026-05-03T14:45:28.999Z</time></trkpt><trkpt lat="43.98152942219325" lon="5.561485811080883"><ele>722.6666666666666</ele><time>2026-05-03T14:45:29.999Z</time></trkpt><trkpt lat="43.98158520489211" lon="5.561420647360939"><ele>722.8333333333334</ele><time>2026-05-03T14:45:30.999Z</time></trkpt><trkpt lat="43.98163848096605" lon="5.561341340732687"><ele>723.0</ele><time>2026-05-03T14:45:31.999Z</time></trkpt><trkpt lat="43.98168655445158" lon="5.561268934512971"><ele>723.0</ele><time>2026-05-03T14:45:32.999Z</time></trkpt><trkpt lat="43.98173522962669" lon="5.561191217789342"><ele>723.0</ele><time>2026-05-03T14:45:33.999Z</time></trkpt><trkpt lat="43.98179478595588" lon="5.561120981690832"><ele>723.0</ele><time>2026-05-03T14:45:34.999Z</time></trkpt><trkpt lat="43.98185228649066" lon="5.561073532362964"><ele>723.0</ele><time>2026-05-03T14:45:35.998Z</time></trkpt><trkpt lat="43.98191774175834" lon="5.56099961315299"><ele>723.0</ele><time>2026-05-03T14:45:37.998Z</time></trkpt><trkpt lat="43.981992824282834" lon="5.56106860304634"><ele>723.0</ele><time>2026-05-03T14:45:41Z</time></trkpt><trkpt lat="43.98201086509988" lon="5.5612185885269465"><ele>723.0000000000001</ele><time>2026-05-03T14:45:43Z</time></trkpt><trkpt lat="43.98202083832975" lon="5.561319167440915"><ele>723.0</ele><time>2026-05-03T14:45:44Z</time></trkpt><trkpt lat="43.98203834155719" lon="5.5614109539044705"><ele>723.0</ele><time>2026-05-03T14:45:45Z</time></trkpt><trkpt lat="43.98205558552602" lon="5.5615141985516185"><ele>723.0</ele><time>2026-05-03T14:45:46Z</time></trkpt><trkpt lat="43.982072441048054" lon="5.561613516906374"><ele>723.0</ele><time>2026-05-03T14:45:47Z</time></trkpt><trkpt lat="43.98208298426504" lon="5.561712960490018"><ele>723.0000000000001</ele><time>2026-05-03T14:45:48Z</time></trkpt><trkpt lat="43.98209774745514" lon="5.561810850450496"><ele>723.0</ele><time>2026-05-03T14:45:49Z</time></trkpt><trkpt lat="43.98212476659432" lon="5.561968163496913"><ele>720.0</ele><time>2026-05-03T14:45:51Z</time></trkpt><trkpt lat="43.98212994640963" lon="5.562143714904464"><ele>717.0</ele><time>2026-05-03T14:45:53Z</time></trkpt><trkpt lat="43.9821199959638" lon="5.56223847768528"><ele>714.0</ele><time>2026-05-03T14:45:54Z</time></trkpt><trkpt lat="43.982081190061145" lon="5.562401848943709"><ele>711.0</ele><time>2026-05-03T14:45:56Z</time></trkpt><trkpt lat="43.982042484125756" lon="5.56255287967625"><ele>708.0</ele><time>2026-05-03T14:45:58Z</time></trkpt><trkpt lat="43.981994728158405" lon="5.562700530888834"><ele>708.0</ele><time>2026-05-03T14:46:00Z</time></trkpt><trkpt lat="43.98194804877503" lon="5.5628398601567"><ele>708.0</ele><time>2026-05-03T14:46:02Z</time></trkpt><trkpt lat="43.981971780305166" lon="5.562941882900829"><ele>708.0</ele><time>2026-05-03T14:46:03Z</time></trkpt><trkpt lat="43.981922257278505" lon="5.563049584227681"><ele>708.0</ele><time>2026-05-03T14:46:05Z</time></trkpt><trkpt lat="43.98183403668464" lon="5.563148350918225"><ele>708.0</ele><time>2026-05-03T14:46:07Z</time></trkpt><trkpt lat="43.9817804827359" lon="5.563209723039177"><ele>705.6666666666666</ele><time>2026-05-03T14:46:08Z</time></trkpt><trkpt lat="43.981727609347345" lon="5.563265939593239"><ele>703.3333333333334</ele><time>2026-05-03T14:46:09Z</time></trkpt><trkpt lat="43.98167403640174" lon="5.563323078120375"><ele>701.0</ele><time>2026-05-03T14:46:10Z</time></trkpt><trkpt lat="43.98158629998887" lon="5.563424101490771"><ele>698.6666666666667</ele><time>2026-05-03T14:46:12Z</time></trkpt><trkpt lat="43.98151307173717" lon="5.563495947728775"><ele>696.3333333333334</ele><time>2026-05-03T14:46:14Z</time></trkpt><trkpt lat="43.981428216528485" lon="5.563515648474155"><ele>694.0</ele><time>2026-05-03T14:46:16Z</time></trkpt><trkpt lat="43.981364627620785" lon="5.563524559599345"><ele>691.8333333333334</ele><time>2026-05-03T14:46:18Z</time></trkpt><trkpt lat="43.981400542696775" lon="5.563612222332846"><ele>689.6666666666667</ele><time>2026-05-03T14:46:21Z</time></trkpt><trkpt lat="43.981446715658066" lon="5.563701055575611"><ele>687.5</ele><time>2026-05-03T14:46:23Z</time></trkpt><trkpt lat="43.98147855061378" lon="5.563791500325536"><ele>685.3333333333334</ele><time>2026-05-03T14:46:26Z</time></trkpt><trkpt lat="43.98137276457009" lon="5.563864460147115"><ele>683.1666666666666</ele><time>2026-05-03T14:46:37.999Z</time></trkpt><trkpt lat="43.98127526547935" lon="5.56392303859926"><ele>681.0</ele><time>2026-05-03T14:46:39.999Z</time></trkpt><trkpt lat="43.98118984041131" lon="5.5639875230413995"><ele>676.5999999999999</ele><time>2026-05-03T14:46:41.999Z</time></trkpt><trkpt lat="43.981116690621285" lon="5.564055614793251"><ele>672.2</ele><time>2026-05-03T14:46:43.999Z</time></trkpt><trkpt lat="43.98104958989445" lon="5.564187994247632"><ele>667.8</ele><time>2026-05-03T14:46:45.999Z</time></trkpt><trkpt lat="43.98098765008619" lon="5.564317689299679"><ele>663.4000000000001</ele><time>2026-05-03T14:46:47.999Z</time></trkpt><trkpt lat="43.98093106017535" lon="5.564447486459926"><ele>659.0</ele><time>2026-05-03T14:46:49.999Z</time></trkpt><trkpt lat="43.98088043723135" lon="5.564578678989191"><ele>656.0</ele><time>2026-05-03T14:46:51.999Z</time></trkpt><trkpt lat="43.98083230695777" lon="5.564721349827939"><ele>653.0</ele><time>2026-05-03T14:46:53.999Z</time></trkpt><trkpt lat="43.980766742471594" lon="5.564856322969308"><ele>650.0</ele><time>2026-05-03T14:46:55.999Z</time></trkpt><trkpt lat="43.98070427407536" lon="5.564992779381414"><ele>647.0</ele><time>2026-05-03T14:46:57.999Z</time></trkpt><trkpt lat="43.98065421915788" lon="5.565104898140843"><ele>644.0</ele><time>2026-05-03T14:46:59.999Z</time></trkpt><trkpt lat="43.98060609016597" lon="5.565216828190934"><ele>644.0</ele><time>2026-05-03T14:47:01.999Z</time></trkpt><trkpt lat="43.98056188249296" lon="5.565318001882234"><ele>644.0</ele><time>2026-05-03T14:47:03.999Z</time></trkpt><trkpt lat="43.98050868557165" lon="5.565401233023813"><ele>644.0</ele><time>2026-05-03T14:47:05.999Z</time></trkpt><trkpt lat="43.980458988866545" lon="5.565491501770174"><ele>644.0</ele><time>2026-05-03T14:47:09.999Z</time></trkpt><trkpt lat="43.980445723356034" lon="5.5655912803925345"><ele>644.0</ele><time>2026-05-03T14:47:11.999Z</time></trkpt><trkpt lat="43.98041110164507" lon="5.565723063937568"><ele>644.0</ele><time>2026-05-03T14:47:13.999Z</time></trkpt><trkpt lat="43.98035277234421" lon="5.565763681826144"><ele>642.5</ele><time>2026-05-03T14:47:14.999Z</time></trkpt><trkpt lat="43.9802774799909" lon="5.565895553447229"><ele>641.0</ele><time>2026-05-03T14:47:16.999Z</time></trkpt><trkpt lat="43.98025178021194" lon="5.565977327863528"><ele>639.5</ele><time>2026-05-03T14:47:17.999Z</time></trkpt><trkpt lat="43.98020578243785" lon="5.566046308863731"><ele>638.0</ele><time>2026-05-03T14:47:18.999Z</time></trkpt><trkpt lat="43.98016811441995" lon="5.566124602807165"><ele>636.5</ele><time>2026-05-03T14:47:19.999Z</time></trkpt><trkpt lat="43.98012647851825" lon="5.5662009398735615"><ele>635.0</ele><time>2026-05-03T14:47:20.999Z</time></trkpt><trkpt lat="43.98008032690788" lon="5.566282159217644"><ele>633.6666666666666</ele><time>2026-05-03T14:47:21.999Z</time></trkpt><trkpt lat="43.98003363386031" lon="5.566364887273065"><ele>632.3333333333333</ele><time>2026-05-03T14:47:22.999Z</time></trkpt><trkpt lat="43.97998793608137" lon="5.5664545631294"><ele>631.0</ele><time>2026-05-03T14:47:23.999Z</time></trkpt><trkpt lat="43.979944549612945" lon="5.566539964453665"><ele>629.6666666666666</ele><time>2026-05-03T14:47:24.999Z</time></trkpt><trkpt lat="43.97989885543664" lon="5.566621066133338"><ele>628.3333333333334</ele><time>2026-05-03T14:47:25.999Z</time></trkpt><trkpt lat="43.97984745840331" lon="5.566693879403718"><ele>627.0</ele><time>2026-05-03T14:47:26.999Z</time></trkpt><trkpt lat="43.97980105053364" lon="5.566781624388525"><ele>627.0</ele><time>2026-05-03T14:47:27.999Z</time></trkpt><trkpt lat="43.97975686436612" lon="5.56686379080812"><ele>627.0</ele><time>2026-05-03T14:47:28.999Z</time></trkpt><trkpt lat="43.97970829348482" lon="5.566949073666329"><ele>627.0</ele><time>2026-05-03T14:47:29.999Z</time></trkpt><trkpt lat="43.979656963799236" lon="5.567022994144842"><ele>627.0</ele><time>2026-05-03T14:47:30.999Z</time></trkpt><trkpt lat="43.979613748303244" lon="5.567111417486031"><ele>627.0</ele><time>2026-05-03T14:47:31.999Z</time></trkpt><trkpt lat="43.97956669889436" lon="5.567189766734157"><ele>627.0</ele><time>2026-05-03T14:47:32.998Z</time></trkpt><trkpt lat="43.97952098525683" lon="5.5672716207437105"><ele>626.3333333333334</ele><time>2026-05-03T14:47:33.998Z</time></trkpt><trkpt lat="43.97947761163531" lon="5.567352324200359"><ele>625.6666666666666</ele><time>2026-05-03T14:47:34.998Z</time></trkpt><trkpt lat="43.97943457361124" lon="5.5674343220634475"><ele>625.0</ele><time>2026-05-03T14:47:35.998Z</time></trkpt><trkpt lat="43.97938892184331" lon="5.567518403491864"><ele>624.3333333333333</ele><time>2026-05-03T14:47:36.998Z</time></trkpt><trkpt lat="43.97934195437278" lon="5.567599515231814"><ele>623.6666666666666</ele><time>2026-05-03T14:47:37.998Z</time></trkpt><trkpt lat="43.97929228187698" lon="5.567680129918313"><ele>623.0</ele><time>2026-05-03T14:47:38.998Z</time></trkpt><trkpt lat="43.979244971450505" lon="5.567769429978055"><ele>623.0</ele><time>2026-05-03T14:47:39.998Z</time></trkpt><trkpt lat="43.97919579222" lon="5.567863183505622"><ele>623.0</ele><time>2026-05-03T14:47:40.998Z</time></trkpt><trkpt lat="43.97914990254726" lon="5.567952872846947"><ele>623.0</ele><time>2026-05-03T14:47:41.998Z</time></trkpt><trkpt lat="43.979086535376325" lon="5.568029220698057"><ele>623.0</ele><time>2026-05-03T14:47:42.998Z</time></trkpt><trkpt lat="43.97903549408337" lon="5.56812419560998"><ele>623.0</ele><time>2026-05-03T14:47:43.998Z</time></trkpt><trkpt lat="43.97899413278556" lon="5.568232634669615"><ele>623.0</ele><time>2026-05-03T14:47:44.998Z</time></trkpt><trkpt lat="43.97894028388555" lon="5.568325802045302"><ele>623.0</ele><time>2026-05-03T14:47:45.998Z</time></trkpt><trkpt lat="43.97887830465433" lon="5.568410950038481"><ele>623.0</ele><time>2026-05-03T14:47:47Z</time></trkpt><trkpt lat="43.97883422296031" lon="5.568490666234092"><ele>623.0</ele><time>2026-05-03T14:47:48Z</time></trkpt><trkpt lat="43.97876637956618" lon="5.568609745307065"><ele>623.0</ele><time>2026-05-03T14:47:50Z</time></trkpt><trkpt lat="43.978719919241826" lon="5.568694738308444"><ele>623.0</ele><time>2026-05-03T14:47:52Z</time></trkpt><trkpt lat="43.978663015279814" lon="5.568763768855577"><ele>623.0</ele><time>2026-05-03T14:47:55Z</time></trkpt><trkpt lat="43.9785935240962" lon="5.568850650628933"><ele>622.6666666666666</ele><time>2026-05-03T14:47:57Z</time></trkpt><trkpt lat="43.97857761057836" lon="5.568949201081538"><ele>622.3333333333333</ele><time>2026-05-03T14:47:58Z</time></trkpt><trkpt lat="43.97854904044533" lon="5.569035361021168"><ele>622.0</ele><time>2026-05-03T14:47:59Z</time></trkpt><trkpt lat="43.978524585847175" lon="5.569127143355179"><ele>621.6666666666666</ele><time>2026-05-03T14:48:00Z</time></trkpt><trkpt lat="43.97849606879541" lon="5.569224606462687"><ele>621.3333333333334</ele><time>2026-05-03T14:48:01Z</time></trkpt><trkpt lat="43.97845753716821" lon="5.5693256234657715"><ele>621.0</ele><time>2026-05-03T14:48:02Z</time></trkpt><trkpt lat="43.97841307039096" lon="5.569424455981316"><ele>620.6666666666666</ele><time>2026-05-03T14:48:03Z</time></trkpt><trkpt lat="43.978371717953685" lon="5.569528495260462"><ele>620.3333333333334</ele><time>2026-05-03T14:48:04Z</time></trkpt><trkpt lat="43.97832944909851" lon="5.56962220346903"><ele>620.0</ele><time>2026-05-03T14:48:05Z</time></trkpt><trkpt lat="43.97828937776169" lon="5.56971919374342"><ele>619.6666666666667</ele><time>2026-05-03T14:48:06Z</time></trkpt><trkpt lat="43.97825201918608" lon="5.569806690412053"><ele>619.3333333333334</ele><time>2026-05-03T14:48:07Z</time></trkpt><trkpt lat="43.9782138007222" lon="5.569893305508644"><ele>619.0</ele><time>2026-05-03T14:48:08Z</time></trkpt><trkpt lat="43.978178242948886" lon="5.56997496852193"><ele>619.0</ele><time>2026-05-03T14:48:09Z</time></trkpt><trkpt lat="43.97814560735565" lon="5.570058293651835"><ele>619.0</ele><time>2026-05-03T14:48:10Z</time></trkpt><trkpt lat="43.978119004645876" lon="5.570144449292634"><ele>619.0</ele><time>2026-05-03T14:48:11Z</time></trkpt><trkpt lat="43.97809278563699" lon="5.570224676528547"><ele>619.0</ele><time>2026-05-03T14:48:12Z</time></trkpt><trkpt lat="43.97806199400743" lon="5.570309565900974"><ele>619.0</ele><time>2026-05-03T14:48:13Z</time></trkpt><trkpt lat="43.97799047812961" lon="5.570412782210512"><ele>619.0</ele><time>2026-05-03T14:48:15Z</time></trkpt><trkpt lat="43.9779582321082" lon="5.570510649649501"><ele>619.0</ele><time>2026-05-03T14:48:18Z</time></trkpt><trkpt lat="43.97795506011039" lon="5.57063734827714"><ele>617.8</ele><time>2026-05-03T14:48:27Z</time></trkpt><trkpt lat="43.977954697633905" lon="5.570744782731967"><ele>616.5999999999999</ele><time>2026-05-03T14:48:29Z</time></trkpt><trkpt lat="43.97794505406767" lon="5.570865577480466"><ele>615.4</ele><time>2026-05-03T14:48:31Z</time></trkpt><trkpt lat="43.9779236794297" lon="5.571011366889482"><ele>614.1999999999999</ele><time>2026-05-03T14:48:33Z</time></trkpt><trkpt lat="43.977900105377465" lon="5.571176890188164"><ele>613.0</ele><time>2026-05-03T14:48:35Z</time></trkpt><trkpt lat="43.97789088433123" lon="5.571266378955163"><ele>612.4285714285714</ele><time>2026-05-03T14:48:35.999Z</time></trkpt><trkpt lat="43.977878660171925" lon="5.571353268964704"><ele>611.8571428571429</ele><time>2026-05-03T14:48:36.999Z</time></trkpt><trkpt lat="43.97786508185936" lon="5.571445862009156"><ele>611.2857142857142</ele><time>2026-05-03T14:48:37.999Z</time></trkpt><trkpt lat="43.97784925664597" lon="5.571543730464346"><ele>610.7142857142858</ele><time>2026-05-03T14:48:38.999Z</time></trkpt><trkpt lat="43.97783659915642" lon="5.5716444132438605"><ele>610.1428571428571</ele><time>2026-05-03T14:48:39.999Z</time></trkpt><trkpt lat="43.977819658860014" lon="5.5717423309419924"><ele>609.5714285714286</ele><time>2026-05-03T14:48:40.999Z</time></trkpt><trkpt lat="43.9778055782671" lon="5.571843890064145"><ele>609.0</ele><time>2026-05-03T14:48:41.999Z</time></trkpt><trkpt lat="43.97779425010177" lon="5.571941671271598"><ele>608.5</ele><time>2026-05-03T14:48:42.999Z</time></trkpt><trkpt lat="43.97778293641792" lon="5.57204836594784"><ele>608.0</ele><time>2026-05-03T14:48:43.999Z</time></trkpt><trkpt lat="43.97776508898923" lon="5.572156785281984"><ele>607.5</ele><time>2026-05-03T14:48:44.999Z</time></trkpt><trkpt lat="43.97774336435716" lon="5.572262931249878"><ele>607.0</ele><time>2026-05-03T14:48:45.999Z</time></trkpt><trkpt lat="43.97772776677711" lon="5.5723665296200755"><ele>606.5</ele><time>2026-05-03T14:48:46.999Z</time></trkpt><trkpt lat="43.97771456425423" lon="5.572475189732062"><ele>606.0</ele><time>2026-05-03T14:48:47.999Z</time></trkpt><trkpt lat="43.977699110273655" lon="5.572579525269951"><ele>606.0</ele><time>2026-05-03T14:48:48.999Z</time></trkpt><trkpt lat="43.9776791789006" lon="5.572687878503979"><ele>606.0</ele><time>2026-05-03T14:48:49.999Z</time></trkpt><trkpt lat="43.97766450993835" lon="5.572798496930256"><ele>606.0</ele><time>2026-05-03T14:48:50.999Z</time></trkpt><trkpt lat="43.97764789963812" lon="5.572912057684772"><ele>606.0</ele><time>2026-05-03T14:48:51.999Z</time></trkpt><trkpt lat="43.977632433415835" lon="5.573030480876535"><ele>606.0</ele><time>2026-05-03T14:48:52.999Z</time></trkpt><trkpt lat="43.977614055451625" lon="5.573152670677445"><ele>606.0</ele><time>2026-05-03T14:48:53.999Z</time></trkpt><trkpt lat="43.977599844260624" lon="5.573274940584071"><ele>605.2</ele><time>2026-05-03T14:48:54.999Z</time></trkpt><trkpt lat="43.977565958071956" lon="5.573398814036142"><ele>604.4000000000001</ele><time>2026-05-03T14:48:55.999Z</time></trkpt><trkpt lat="43.97754805746501" lon="5.573523533281338"><ele>603.6</ele><time>2026-05-03T14:48:56.999Z</time></trkpt><trkpt lat="43.97753994606259" lon="5.573651820543162"><ele>602.8000000000001</ele><time>2026-05-03T14:48:57.999Z</time></trkpt><trkpt lat="43.97751902899212" lon="5.5737755138982"><ele>602.0</ele><time>2026-05-03T14:48:58.999Z</time></trkpt><trkpt lat="43.97750260995223" lon="5.573904691959924"><ele>601.6</ele><time>2026-05-03T14:48:59.999Z</time></trkpt><trkpt lat="43.97748709123783" lon="5.57403746640442"><ele>601.2</ele><time>2026-05-03T14:49:00.999Z</time></trkpt><trkpt lat="43.97746429903742" lon="5.574164736294965"><ele>600.8</ele><time>2026-05-03T14:49:01.999Z</time></trkpt><trkpt lat="43.977446532874026" lon="5.57429867388622"><ele>600.4</ele><time>2026-05-03T14:49:02.999Z</time></trkpt><trkpt lat="43.97742816816485" lon="5.574429330986694"><ele>600.0</ele><time>2026-05-03T14:49:03.999Z</time></trkpt><trkpt lat="43.97740397823074" lon="5.574557575611258"><ele>599.6</ele><time>2026-05-03T14:49:04.999Z</time></trkpt><trkpt lat="43.97738285472203" lon="5.57468742138035"><ele>599.2</ele><time>2026-05-03T14:49:05.999Z</time></trkpt><trkpt lat="43.97736220155686" lon="5.574816548660999"><ele>598.8</ele><time>2026-05-03T14:49:06.999Z</time></trkpt><trkpt lat="43.97734539816217" lon="5.574947621764702"><ele>598.4</ele><time>2026-05-03T14:49:07.999Z</time></trkpt><trkpt lat="43.97732650189455" lon="5.575081321071949"><ele>598.0</ele><time>2026-05-03T14:49:08.999Z</time></trkpt><trkpt lat="43.97730370766615" lon="5.575214266234501"><ele>598.0</ele><time>2026-05-03T14:49:09.999Z</time></trkpt><trkpt lat="43.977280478838374" lon="5.5753481630821415"><ele>598.0</ele><time>2026-05-03T14:49:10.999Z</time></trkpt><trkpt lat="43.977261870200294" lon="5.575483485814298"><ele>598.0</ele><time>2026-05-03T14:49:11.999Z</time></trkpt><trkpt lat="43.977244370217605" lon="5.5756220789708575"><ele>598.0</ele><time>2026-05-03T14:49:12.999Z</time></trkpt><trkpt lat="43.97722381388528" lon="5.575759301233293"><ele>598.0</ele><time>2026-05-03T14:49:13.999Z</time></trkpt><trkpt lat="43.97720494297526" lon="5.575896323509739"><ele>597.6</ele><time>2026-05-03T14:49:14.999Z</time></trkpt><trkpt lat="43.97718152749197" lon="5.576032274526028"><ele>597.1999999999999</ele><time>2026-05-03T14:49:15.999Z</time></trkpt><trkpt lat="43.97716207211603" lon="5.5761651853211465"><ele>596.8</ele><time>2026-05-03T14:49:16.999Z</time></trkpt><trkpt lat="43.977143274682604" lon="5.5762996317360445"><ele>596.4</ele><time>2026-05-03T14:49:17.999Z</time></trkpt><trkpt lat="43.977126404738414" lon="5.576428015945414"><ele>596.0</ele><time>2026-05-03T14:49:18.999Z</time></trkpt><trkpt lat="43.97709673371075" lon="5.576545962012965"><ele>595.8</ele><time>2026-05-03T14:49:19.999Z</time></trkpt><trkpt lat="43.97707851217295" lon="5.576669988904784"><ele>595.6</ele><time>2026-05-03T14:49:20.999Z</time></trkpt><trkpt lat="43.9770636519359" lon="5.576792987777727"><ele>595.4</ele><time>2026-05-03T14:49:21.999Z</time></trkpt><trkpt lat="43.977052775318576" lon="5.576920260848014"><ele>595.2</ele><time>2026-05-03T14:49:22.999Z</time></trkpt><trkpt lat="43.97704456376986" lon="5.577048953353298"><ele>595.0</ele><time>2026-05-03T14:49:23.999Z</time></trkpt><trkpt lat="43.9770534354605" lon="5.577186692746928"><ele>595.0</ele><time>2026-05-03T14:49:24.999Z</time></trkpt><trkpt lat="43.97705137258188" lon="5.577327516788243"><ele>595.0</ele><time>2026-05-03T14:49:25.999Z</time></trkpt><trkpt lat="43.97705359573295" lon="5.577462645378643"><ele>595.0</ele><time>2026-05-03T14:49:26.999Z</time></trkpt><trkpt lat="43.97703940309109" lon="5.577597840337986"><ele>595.0</ele><time>2026-05-03T14:49:27.999Z</time></trkpt><trkpt lat="43.97704969059277" lon="5.57772368297719"><ele>595.0</ele><time>2026-05-03T14:49:28.999Z</time></trkpt><trkpt lat="43.97704696062087" lon="5.5778466579088155"><ele>595.1666666666667</ele><time>2026-05-03T14:49:29.999Z</time></trkpt><trkpt lat="43.97704525808712" lon="5.577968486235721"><ele>595.3333333333334</ele><time>2026-05-03T14:49:30.999Z</time></trkpt><trkpt lat="43.97704660785506" lon="5.578081207978814"><ele>595.5</ele><time>2026-05-03T14:49:31.999Z</time></trkpt><trkpt lat="43.977042517775814" lon="5.578190804680196"><ele>595.6666666666666</ele><time>2026-05-03T14:49:32.999Z</time></trkpt><trkpt lat="43.97703943578066" lon="5.57829175078719"><ele>595.8333333333333</ele><time>2026-05-03T14:49:33.999Z</time></trkpt><trkpt lat="43.977039808222315" lon="5.578394624610425"><ele>596.0</ele><time>2026-05-03T14:49:34.999Z</time></trkpt><trkpt lat="43.97703776040429" lon="5.578494780807561"><ele>596.0</ele><time>2026-05-03T14:49:35.999Z</time></trkpt><trkpt lat="43.977036640034235" lon="5.578589439527976"><ele>596.0</ele><time>2026-05-03T14:49:36.999Z</time></trkpt><trkpt lat="43.97703946353036" lon="5.578685352710369"><ele>596.0</ele><time>2026-05-03T14:49:37.999Z</time></trkpt><trkpt lat="43.97704589157922" lon="5.578775816531663"><ele>596.0</ele><time>2026-05-03T14:49:38.999Z</time></trkpt><trkpt lat="43.977081571085755" lon="5.578920283961606"><ele>596.0</ele><time>2026-05-03T14:49:40.998Z</time></trkpt><trkpt lat="43.977108117134904" lon="5.579002432306124"><ele>596.0</ele><time>2026-05-03T14:49:42.998Z</time></trkpt><trkpt lat="43.97713290666293" lon="5.579095048288658"><ele>596.0</ele><time>2026-05-03T14:49:45.998Z</time></trkpt><trkpt lat="43.97677623168347" lon="5.579381099434639"><ele>596.5</ele><time>2026-05-03T14:49:47.998Z</time></trkpt><trkpt lat="43.97667823370022" lon="5.579369093393972"><ele>597.0</ele><time>2026-05-03T14:49:49.998Z</time></trkpt><trkpt lat="43.97659814966383" lon="5.579419078660942"><ele>597.5</ele><time>2026-05-03T14:49:51.998Z</time></trkpt><trkpt lat="43.97655442017478" lon="5.5795092527912775"><ele>598.0</ele><time>2026-05-03T14:49:54Z</time></trkpt><trkpt lat="43.976530061434836" lon="5.579630058803984"><ele>598.5</ele><time>2026-05-03T14:49:56Z</time></trkpt><trkpt lat="43.97650750987942" lon="5.579735019928357"><ele>599.0</ele><time>2026-05-03T14:49:59Z</time></trkpt><trkpt lat="43.97652570316241" lon="5.57985999033178"><ele>601.2</ele><time>2026-05-03T14:50:02Z</time></trkpt><trkpt lat="43.97653370636147" lon="5.57996398103829"><ele>603.4</ele><time>2026-05-03T14:50:04Z</time></trkpt><trkpt lat="43.97649738987874" lon="5.580048716924962"><ele>605.6</ele><time>2026-05-03T14:50:07Z</time></trkpt><trkpt lat="43.97641541776958" lon="5.580061019505989"><ele>607.8</ele><time>2026-05-03T14:50:09Z</time></trkpt><trkpt lat="43.976311788285955" lon="5.580025025932363"><ele>610.0</ele><time>2026-05-03T14:50:11Z</time></trkpt><trkpt lat="43.97619323722751" lon="5.580030411744109"><ele>610.0</ele><time>2026-05-03T14:50:13Z</time></trkpt><trkpt lat="43.97612838915961" lon="5.580029159747791"><ele>610.0</ele><time>2026-05-03T14:50:14Z</time></trkpt><trkpt lat="43.976064918299635" lon="5.579993154678936"><ele>610.0</ele><time>2026-05-03T14:50:15Z</time></trkpt><trkpt lat="43.97599949499152" lon="5.57997221871869"><ele>610.0</ele><time>2026-05-03T14:50:16Z</time></trkpt><trkpt lat="43.975929051447466" lon="5.579964525153744"><ele>610.0</ele><time>2026-05-03T14:50:17Z</time></trkpt><trkpt lat="43.97586498271447" lon="5.579927126274851"><ele>610.0</ele><time>2026-05-03T14:50:18Z</time></trkpt><trkpt lat="43.97580416966704" lon="5.579869802114453"><ele>610.0</ele><time>2026-05-03T14:50:19Z</time></trkpt><trkpt lat="43.97573568832062" lon="5.579827057497879"><ele>611.3333333333334</ele><time>2026-05-03T14:50:20Z</time></trkpt><trkpt lat="43.97566274613336" lon="5.579797609894746"><ele>612.6666666666667</ele><time>2026-05-03T14:50:21Z</time></trkpt><trkpt lat="43.97559280835288" lon="5.579749733798431"><ele>614.0</ele><time>2026-05-03T14:50:22Z</time></trkpt><trkpt lat="43.97552372468792" lon="5.579704469797324"><ele>615.3333333333334</ele><time>2026-05-03T14:50:23Z</time></trkpt><trkpt lat="43.97544788490364" lon="5.5796633492679275"><ele>616.6666666666666</ele><time>2026-05-03T14:50:24Z</time></trkpt><trkpt lat="43.97537690929377" lon="5.579620096869618"><ele>618.0</ele><time>2026-05-03T14:50:25Z</time></trkpt><trkpt lat="43.9753117967949" lon="5.579580773133813"><ele>618.0</ele><time>2026-05-03T14:50:26Z</time></trkpt><trkpt lat="43.975250196558385" lon="5.579557197309095"><ele>618.0</ele><time>2026-05-03T14:50:27Z</time></trkpt><trkpt lat="43.975142466801636" lon="5.579555330762679"><ele>618.0</ele><time>2026-05-03T14:50:29Z</time></trkpt><trkpt lat="43.97508116211561" lon="5.5796652923408505"><ele>618.0</ele><time>2026-05-03T14:50:31Z</time></trkpt><trkpt lat="43.97506401687255" lon="5.579758220370305"><ele>618.0</ele><time>2026-05-03T14:50:34Z</time></trkpt><trkpt lat="43.9751007946802" lon="5.579838687046877"><ele>618.0</ele><time>2026-05-03T14:50:37Z</time></trkpt><trkpt lat="43.975129294575055" lon="5.579930868438815"><ele>618.0</ele><time>2026-05-03T14:50:39Z</time></trkpt><trkpt lat="43.97522418372279" lon="5.579937867252257"><ele>618.0</ele><time>2026-05-03T14:50:40Z</time></trkpt><trkpt lat="43.97530430305937" lon="5.580018163089078"><ele>618.0</ele><time>2026-05-03T14:50:41.999Z</time></trkpt><trkpt lat="43.97539743278403" lon="5.5800963474751075"><ele>618.0</ele><time>2026-05-03T14:50:43.999Z</time></trkpt><trkpt lat="43.97549058704185" lon="5.580181746905216"><ele>618.0</ele><time>2026-05-03T14:50:45.999Z</time></trkpt><trkpt lat="43.97554206531411" lon="5.580232238344299"><ele>618.0000000000001</ele><time>2026-05-03T14:50:46.999Z</time></trkpt><trkpt lat="43.9755985581961" lon="5.5802912104959175"><ele>618.0</ele><time>2026-05-03T14:50:47.999Z</time></trkpt><trkpt lat="43.97565535163622" lon="5.580350496318281"><ele>618.0</ele><time>2026-05-03T14:50:48.999Z</time></trkpt><trkpt lat="43.97572557797644" lon="5.580395908984991"><ele>618.0</ele><time>2026-05-03T14:50:49.999Z</time></trkpt><trkpt lat="43.97578223006169" lon="5.580466664539962"><ele>618.0</ele><time>2026-05-03T14:50:50.999Z</time></trkpt><trkpt lat="43.975840375148515" lon="5.580532201663413"><ele>618.0000000000001</ele><time>2026-05-03T14:50:51.999Z</time></trkpt><trkpt lat="43.975905857484385" lon="5.580592775936406"><ele>618.0</ele><time>2026-05-03T14:50:52.999Z</time></trkpt><trkpt lat="43.97597516644063" lon="5.580648834702346"><ele>619.1666666666666</ele><time>2026-05-03T14:50:53.999Z</time></trkpt><trkpt lat="43.97604743766692" lon="5.580703617799003"><ele>620.3333333333334</ele><time>2026-05-03T14:50:54.999Z</time></trkpt><trkpt lat="43.976114736347334" lon="5.580761694671584"><ele>621.5</ele><time>2026-05-03T14:50:55.999Z</time></trkpt><trkpt lat="43.97618438470931" lon="5.580817465927027"><ele>622.6666666666667</ele><time>2026-05-03T14:50:56.999Z</time></trkpt><trkpt lat="43.97625504622405" lon="5.580873696628236"><ele>623.8333333333334</ele><time>2026-05-03T14:50:57.999Z</time></trkpt><trkpt lat="43.9763278631008" lon="5.580926934201822"><ele>625.0</ele><time>2026-05-03T14:50:58.999Z</time></trkpt><trkpt lat="43.97639858144669" lon="5.580983405874343"><ele>625.0</ele><time>2026-05-03T14:50:59.999Z</time></trkpt><trkpt lat="43.97646925703003" lon="5.581047307638056"><ele>625.0</ele><time>2026-05-03T14:51:00.999Z</time></trkpt><trkpt lat="43.97654041289712" lon="5.581115375196115"><ele>625.0</ele><time>2026-05-03T14:51:01.999Z</time></trkpt><trkpt lat="43.97661210106144" lon="5.581180098038249"><ele>625.0</ele><time>2026-05-03T14:51:02.999Z</time></trkpt><trkpt lat="43.97668627033903" lon="5.581242305321354"><ele>625.0</ele><time>2026-05-03T14:51:03.999Z</time></trkpt><trkpt lat="43.976760198348835" lon="5.581303038985333"><ele>625.0</ele><time>2026-05-03T14:51:04.999Z</time></trkpt><trkpt lat="43.97683308424179" lon="5.581366665220184"><ele>626.0</ele><time>2026-05-03T14:51:05.999Z</time></trkpt><trkpt lat="43.9769140147637" lon="5.581426062235446"><ele>627.0</ele><time>2026-05-03T14:51:06.999Z</time></trkpt><trkpt lat="43.97698716846614" lon="5.581490225453695"><ele>628.0</ele><time>2026-05-03T14:51:07.999Z</time></trkpt><trkpt lat="43.97705741160799" lon="5.581550832592196"><ele>629.0</ele><time>2026-05-03T14:51:08.999Z</time></trkpt><trkpt lat="43.97712673583673" lon="5.581614880110062"><ele>630.0</ele><time>2026-05-03T14:51:09.999Z</time></trkpt><trkpt lat="43.977200659198644" lon="5.581671693521754"><ele>631.0</ele><time>2026-05-03T14:51:10.999Z</time></trkpt><trkpt lat="43.97727444857769" lon="5.581732709366682"><ele>631.0</ele><time>2026-05-03T14:51:11.999Z</time></trkpt><trkpt lat="43.97734280446929" lon="5.581792135334967"><ele>631.0</ele><time>2026-05-03T14:51:12.999Z</time></trkpt><trkpt lat="43.97741630823996" lon="5.581854411960305"><ele>631.0</ele><time>2026-05-03T14:51:13.999Z</time></trkpt><trkpt lat="43.97748251596548" lon="5.5819174907895945"><ele>631.0</ele><time>2026-05-03T14:51:14.999Z</time></trkpt><trkpt lat="43.97754539791264" lon="5.581987787896841"><ele>631.0</ele><time>2026-05-03T14:51:15.999Z</time></trkpt><trkpt lat="43.97761549190571" lon="5.582054971468126"><ele>631.0</ele><time>2026-05-03T14:51:16.999Z</time></trkpt><trkpt lat="43.97767835095571" lon="5.582131723215893"><ele>631.8333333333334</ele><time>2026-05-03T14:51:17.999Z</time></trkpt><trkpt lat="43.97774306804894" lon="5.582210135472673"><ele>632.6666666666667</ele><time>2026-05-03T14:51:18.999Z</time></trkpt><trkpt lat="43.977808180280135" lon="5.582289748562859"><ele>633.5</ele><time>2026-05-03T14:51:19.999Z</time></trkpt><trkpt lat="43.97787138696553" lon="5.582369065354256"><ele>634.3333333333334</ele><time>2026-05-03T14:51:20.999Z</time></trkpt><trkpt lat="43.97792983830652" lon="5.582452241456627"><ele>635.1666666666666</ele><time>2026-05-03T14:51:21.999Z</time></trkpt><trkpt lat="43.97799622016378" lon="5.582538483645502"><ele>636.0</ele><time>2026-05-03T14:51:22.999Z</time></trkpt><trkpt lat="43.97805964842076" lon="5.582624537935145"><ele>636.0</ele><time>2026-05-03T14:51:23.999Z</time></trkpt><trkpt lat="43.978119486486264" lon="5.582706301829198"><ele>636.0</ele><time>2026-05-03T14:51:24.999Z</time></trkpt><trkpt lat="43.97818869559237" lon="5.582789537927107"><ele>636.0</ele><time>2026-05-03T14:51:25.999Z</time></trkpt><trkpt lat="43.97824890344044" lon="5.582876371881076"><ele>636.0</ele><time>2026-05-03T14:51:26.999Z</time></trkpt><trkpt lat="43.97831333511283" lon="5.58296197780865"><ele>636.0</ele><time>2026-05-03T14:51:27.999Z</time></trkpt><trkpt lat="43.978379131679745" lon="5.583046323634224"><ele>636.0</ele><time>2026-05-03T14:51:28.999Z</time></trkpt><trkpt lat="43.978451480602445" lon="5.583129751774091"><ele>636.5</ele><time>2026-05-03T14:51:29.999Z</time></trkpt><trkpt lat="43.97851636258806" lon="5.583211339864238"><ele>637.0</ele><time>2026-05-03T14:51:30.999Z</time></trkpt><trkpt lat="43.978587334764654" lon="5.583289892160696"><ele>637.5</ele><time>2026-05-03T14:51:31.999Z</time></trkpt><trkpt lat="43.97866273118533" lon="5.583362744327829"><ele>638.0</ele><time>2026-05-03T14:51:32.999Z</time></trkpt><trkpt lat="43.97873326420031" lon="5.58342949045465"><ele>638.5</ele><time>2026-05-03T14:51:33.999Z</time></trkpt><trkpt lat="43.97881715405643" lon="5.583485441506975"><ele>639.0</ele><time>2026-05-03T14:51:34.999Z</time></trkpt><trkpt lat="43.97890978977719" lon="5.583531959514692"><ele>639.0</ele><time>2026-05-03T14:51:35.999Z</time></trkpt><trkpt lat="43.979001192618284" lon="5.583580622775355"><ele>639.0</ele><time>2026-05-03T14:51:36.999Z</time></trkpt><trkpt lat="43.979086852341226" lon="5.583632794749429"><ele>639.0</ele><time>2026-05-03T14:51:37.999Z</time></trkpt><trkpt lat="43.97916654098865" lon="5.583682956780748"><ele>639.0</ele><time>2026-05-03T14:51:38.999Z</time></trkpt><trkpt lat="43.97923555797793" lon="5.583728391530451"><ele>639.0</ele><time>2026-05-03T14:51:39.999Z</time></trkpt><trkpt lat="43.979296348880126" lon="5.583776952258583"><ele>639.0</ele><time>2026-05-03T14:51:40.999Z</time></trkpt><trkpt lat="43.97935280669974" lon="5.583820400535725"><ele>641.6</ele><time>2026-05-03T14:51:41.999Z</time></trkpt><trkpt lat="43.979431357156216" lon="5.58394307786498"><ele>644.2</ele><time>2026-05-03T14:51:43.999Z</time></trkpt><trkpt lat="43.979564379477836" lon="5.583871845347527"><ele>646.8000000000001</ele><time>2026-05-03T14:51:44.998Z</time></trkpt><trkpt lat="43.979621302335374" lon="5.583916744360343"><ele>649.4</ele><time>2026-05-03T14:51:45.998Z</time></trkpt><trkpt lat="43.979704325308624" lon="5.58394217546341"><ele>652.0</ele><time>2026-05-03T14:51:47.998Z</time></trkpt><trkpt lat="43.97978037592683" lon="5.58400019061851"><ele>652.0</ele><time>2026-05-03T14:51:49.998Z</time></trkpt><trkpt lat="43.97986142566926" lon="5.5840143153263915"><ele>652.0</ele><time>2026-05-03T14:51:51.998Z</time></trkpt><trkpt lat="43.979938899727216" lon="5.5839943158370104"><ele>652.0</ele><time>2026-05-03T14:51:55.998Z</time></trkpt><trkpt lat="43.980008770891494" lon="5.583985818011652"><ele>652.0</ele><time>2026-05-03T14:51:57.998Z</time></trkpt><trkpt lat="43.98009067073183" lon="5.583928725255802"><ele>652.0</ele><time>2026-05-03T14:52:00Z</time></trkpt><trkpt lat="43.98013718693965" lon="5.5841797210555715"><ele>652.0</ele><time>2026-05-03T14:52:13Z</time></trkpt><trkpt lat="43.98006636072769" lon="5.58413987060453"><ele>652.0</ele><time>2026-05-03T14:52:15Z</time></trkpt><trkpt lat="43.979991181433036" lon="5.584089462078573"><ele>652.0</ele><time>2026-05-03T14:52:17Z</time></trkpt><trkpt lat="43.979912943076684" lon="5.584085307179313"><ele>652.0</ele><time>2026-05-03T14:52:19Z</time></trkpt><trkpt lat="43.97984150845293" lon="5.584164387846574"><ele>652.0</ele><time>2026-05-03T14:52:21Z</time></trkpt><trkpt lat="43.97977437167908" lon="5.584252874428545"><ele>652.0</ele><time>2026-05-03T14:52:23Z</time></trkpt><trkpt lat="43.979690918938964" lon="5.584306028484974"><ele>652.0</ele><time>2026-05-03T14:52:25Z</time></trkpt><trkpt lat="43.9795996401802" lon="5.584356704776084"><ele>652.0</ele><time>2026-05-03T14:52:27Z</time></trkpt><trkpt lat="43.97951761826391" lon="5.584441062738602"><ele>652.0</ele><time>2026-05-03T14:52:29Z</time></trkpt><trkpt lat="43.979336896399" lon="5.584406998241436"><ele>652.0</ele><time>2026-05-03T14:52:31Z</time></trkpt><trkpt lat="43.97928211258088" lon="5.584491284807202"><ele>651.6</ele><time>2026-05-03T14:52:33Z</time></trkpt><trkpt lat="43.97922079039548" lon="5.5845625057857955"><ele>651.2</ele><time>2026-05-03T14:52:35Z</time></trkpt><trkpt lat="43.97914412438081" lon="5.58463173210346"><ele>650.8</ele><time>2026-05-03T14:52:37Z</time></trkpt><trkpt lat="43.97903416219384" lon="5.58470280363437"><ele>650.4</ele><time>2026-05-03T14:52:39Z</time></trkpt><trkpt lat="43.978913617592674" lon="5.584771044420894"><ele>650.0</ele><time>2026-05-03T14:52:41Z</time></trkpt><trkpt lat="43.97885214048845" lon="5.584802449129213"><ele>649.5714285714286</ele><time>2026-05-03T14:52:42Z</time></trkpt><trkpt lat="43.97878843566174" lon="5.584830861838706"><ele>649.1428571428572</ele><time>2026-05-03T14:52:43Z</time></trkpt><trkpt lat="43.97872477874665" lon="5.5848598144237025"><ele>648.7142857142858</ele><time>2026-05-03T14:52:44Z</time></trkpt><trkpt lat="43.97866266107969" lon="5.584893641407575"><ele>648.2857142857142</ele><time>2026-05-03T14:52:45Z</time></trkpt><trkpt lat="43.97859982219628" lon="5.584933583755313"><ele>647.8571428571429</ele><time>2026-05-03T14:52:46Z</time></trkpt><trkpt lat="43.978533073401344" lon="5.5849865470845454"><ele>647.4285714285714</ele><time>2026-05-03T14:52:46.999Z</time></trkpt><trkpt lat="43.978465957267765" lon="5.585041149676174"><ele>647.0</ele><time>2026-05-03T14:52:47.999Z</time></trkpt><trkpt lat="43.97840598103196" lon="5.585085721656457"><ele>646.8333333333333</ele><time>2026-05-03T14:52:48.999Z</time></trkpt><trkpt lat="43.97834776821967" lon="5.585136354349308"><ele>646.6666666666666</ele><time>2026-05-03T14:52:49.999Z</time></trkpt><trkpt lat="43.97828586684964" lon="5.585200894122665"><ele>646.5</ele><time>2026-05-03T14:52:50.999Z</time></trkpt><trkpt lat="43.978230762259976" lon="5.585268076638062"><ele>646.3333333333334</ele><time>2026-05-03T14:52:51.999Z</time></trkpt><trkpt lat="43.97817966561031" lon="5.585341619610527"><ele>646.1666666666667</ele><time>2026-05-03T14:52:52.999Z</time></trkpt><trkpt lat="43.978129928200985" lon="5.585412996778208"><ele>646.0</ele><time>2026-05-03T14:52:53.999Z</time></trkpt><trkpt lat="43.97807888074237" lon="5.5855107984301124"><ele>645.5</ele><time>2026-05-03T14:52:54.999Z</time></trkpt><trkpt lat="43.978020413977426" lon="5.58559551783771"><ele>645.0</ele><time>2026-05-03T14:52:55.999Z</time></trkpt><trkpt lat="43.9779663181127" lon="5.5856851616831955"><ele>644.5</ele><time>2026-05-03T14:52:56.999Z</time></trkpt><trkpt lat="43.97791364469982" lon="5.585758566490157"><ele>644.0</ele><time>2026-05-03T14:52:57.999Z</time></trkpt><trkpt lat="43.97786227542915" lon="5.585848595782382"><ele>643.5</ele><time>2026-05-03T14:52:58.999Z</time></trkpt><trkpt lat="43.9778029466913" lon="5.5859317987981365"><ele>643.0</ele><time>2026-05-03T14:52:59.999Z</time></trkpt><trkpt lat="43.9777475363903" lon="5.5860197993192156"><ele>643.0</ele><time>2026-05-03T14:53:00.999Z</time></trkpt><trkpt lat="43.97769335319629" lon="5.586086787385078"><ele>643.0</ele><time>2026-05-03T14:53:01.999Z</time></trkpt><trkpt lat="43.97763520803685" lon="5.58617450831082"><ele>643.0</ele><time>2026-05-03T14:53:02.999Z</time></trkpt><trkpt lat="43.977578451198006" lon="5.586226838913185"><ele>643.0</ele><time>2026-05-03T14:53:03.999Z</time></trkpt><trkpt lat="43.97750559361978" lon="5.586284871840229"><ele>643.0</ele><time>2026-05-03T14:53:04.999Z</time></trkpt><trkpt lat="43.97744167023663" lon="5.586376196143888"><ele>643.0</ele><time>2026-05-03T14:53:05.999Z</time></trkpt><trkpt lat="43.97738023786717" lon="5.586441491941787"><ele>642.3333333333334</ele><time>2026-05-03T14:53:06.999Z</time></trkpt><trkpt lat="43.97731303106694" lon="5.5864980021507264"><ele>641.6666666666667</ele><time>2026-05-03T14:53:07.999Z</time></trkpt><trkpt lat="43.97724650970768" lon="5.586554658686783"><ele>641.0</ele><time>2026-05-03T14:53:08.999Z</time></trkpt><trkpt lat="43.977177852770154" lon="5.586610884970075"><ele>640.3333333333334</ele><time>2026-05-03T14:53:09.999Z</time></trkpt><trkpt lat="43.97710600657303" lon="5.5866580286294685"><ele>639.6666666666666</ele><time>2026-05-03T14:53:10.999Z</time></trkpt><trkpt lat="43.97703227966161" lon="5.586702930323397"><ele>639.0</ele><time>2026-05-03T14:53:11.999Z</time></trkpt><trkpt lat="43.9769610097597" lon="5.586752502588803"><ele>639.0</ele><time>2026-05-03T14:53:12.999Z</time></trkpt><trkpt lat="43.976888681271745" lon="5.58680303197675"><ele>639.0</ele><time>2026-05-03T14:53:13.999Z</time></trkpt><trkpt lat="43.97681770784599" lon="5.586853794092976"><ele>639.0</ele><time>2026-05-03T14:53:14.999Z</time></trkpt><trkpt lat="43.97674068651884" lon="5.586889974099117"><ele>639.0</ele><time>2026-05-03T14:53:15.999Z</time></trkpt><trkpt lat="43.976677174589504" lon="5.586962101889176"><ele>639.0</ele><time>2026-05-03T14:53:16.999Z</time></trkpt><trkpt lat="43.9766155003158" lon="5.587023598124268"><ele>639.0</ele><time>2026-05-03T14:53:17.999Z</time></trkpt><trkpt lat="43.97656284926971" lon="5.587110799829399"><ele>638.1666666666666</ele><time>2026-05-03T14:53:18.999Z</time></trkpt><trkpt lat="43.976526293177244" lon="5.587210137724318"><ele>637.3333333333334</ele><time>2026-05-03T14:53:19.999Z</time></trkpt><trkpt lat="43.97650283693615" lon="5.5873349569616915"><ele>636.5</ele><time>2026-05-03T14:53:20.999Z</time></trkpt><trkpt lat="43.97650275853884" lon="5.587443148855763"><ele>635.6666666666667</ele><time>2026-05-03T14:53:21.999Z</time></trkpt><trkpt lat="43.97651778787791" lon="5.58755703611812"><ele>634.8333333333334</ele><time>2026-05-03T14:53:22.999Z</time></trkpt><trkpt lat="43.97653977916315" lon="5.587664174037091"><ele>634.0</ele><time>2026-05-03T14:53:23.999Z</time></trkpt><trkpt lat="43.97658118490349" lon="5.587764458562285"><ele>633.8333333333334</ele><time>2026-05-03T14:53:24.999Z</time></trkpt><trkpt lat="43.97663351430424" lon="5.587846724097614"><ele>633.6666666666667</ele><time>2026-05-03T14:53:25.999Z</time></trkpt><trkpt lat="43.97669674191026" lon="5.58791850719497"><ele>633.5</ele><time>2026-05-03T14:53:26.999Z</time></trkpt><trkpt lat="43.976764649382915" lon="5.587988697940817"><ele>633.3333333333334</ele><time>2026-05-03T14:53:27.999Z</time></trkpt><trkpt lat="43.97682844857663" lon="5.588059221552861"><ele>633.1666666666666</ele><time>2026-05-03T14:53:28.999Z</time></trkpt><trkpt lat="43.976887966885926" lon="5.5881325552112004"><ele>633.0</ele><time>2026-05-03T14:53:29.999Z</time></trkpt><trkpt lat="43.97694722846329" lon="5.588208061876237"><ele>632.6666666666666</ele><time>2026-05-03T14:53:30.999Z</time></trkpt><trkpt lat="43.97701515810776" lon="5.588282172623097"><ele>632.3333333333334</ele><time>2026-05-03T14:53:31.999Z</time></trkpt><trkpt lat="43.97707194066017" lon="5.588361307429909"><ele>632.0</ele><time>2026-05-03T14:53:32.999Z</time></trkpt><trkpt lat="43.97713440066878" lon="5.5884183845043"><ele>631.6666666666667</ele><time>2026-05-03T14:53:33.999Z</time></trkpt><trkpt lat="43.97719459760572" lon="5.588489446962046"><ele>631.3333333333334</ele><time>2026-05-03T14:53:34.999Z</time></trkpt><trkpt lat="43.977257339695704" lon="5.588562462244843"><ele>631.0</ele><time>2026-05-03T14:53:35.999Z</time></trkpt><trkpt lat="43.977323535964935" lon="5.588634768560669"><ele>630.6666666666667</ele><time>2026-05-03T14:53:36.999Z</time></trkpt><trkpt lat="43.977384397836964" lon="5.58870933101598"><ele>630.3333333333334</ele><time>2026-05-03T14:53:37.999Z</time></trkpt><trkpt lat="43.977447227726785" lon="5.5887820266857995"><ele>630.0</ele><time>2026-05-03T14:53:38.999Z</time></trkpt><trkpt lat="43.9775045477451" lon="5.588860518274903"><ele>629.6666666666666</ele><time>2026-05-03T14:53:39.999Z</time></trkpt><trkpt lat="43.97756815677803" lon="5.588939701246101"><ele>629.3333333333333</ele><time>2026-05-03T14:53:40.999Z</time></trkpt><trkpt lat="43.97762824663858" lon="5.589013199806035"><ele>629.0</ele><time>2026-05-03T14:53:41.999Z</time></trkpt><trkpt lat="43.97768956146162" lon="5.589078558643269"><ele>628.5714285714286</ele><time>2026-05-03T14:53:42.999Z</time></trkpt><trkpt lat="43.97775696916197" lon="5.589149631474092"><ele>628.1428571428572</ele><time>2026-05-03T14:53:43.999Z</time></trkpt><trkpt lat="43.977811935279384" lon="5.589228283379217"><ele>627.7142857142858</ele><time>2026-05-03T14:53:44.999Z</time></trkpt><trkpt lat="43.97786336507724" lon="5.589300373524934"><ele>627.2857142857142</ele><time>2026-05-03T14:53:45.999Z</time></trkpt><trkpt lat="43.97792236502609" lon="5.589368245624413"><ele>626.8571428571429</ele><time>2026-05-03T14:53:46.999Z</time></trkpt><trkpt lat="43.9779738726794" lon="5.589431843613052"><ele>626.4285714285714</ele><time>2026-05-03T14:53:47.999Z</time></trkpt><trkpt lat="43.9780197712469" lon="5.589492994453375"><ele>626.0</ele><time>2026-05-03T14:53:48.999Z</time></trkpt><trkpt lat="43.97808875405649" lon="5.5896051329628085"><ele>625.4</ele><time>2026-05-03T14:53:50.998Z</time></trkpt><trkpt lat="43.97816457529033" lon="5.589708549707252"><ele>624.8</ele><time>2026-05-03T14:53:52.998Z</time></trkpt><trkpt lat="43.978243031924656" lon="5.589838637866689"><ele>624.1999999999999</ele><time>2026-05-03T14:53:54.998Z</time></trkpt><trkpt lat="43.97829211023903" lon="5.589915603908864"><ele>623.6</ele><time>2026-05-03T14:53:55.998Z</time></trkpt><trkpt lat="43.978340638167666" lon="5.58999862368621"><ele>623.0</ele><time>2026-05-03T14:53:56.998Z</time></trkpt><trkpt lat="43.9783938098587" lon="5.590078804630186"><ele>623.0</ele><time>2026-05-03T14:53:57.998Z</time></trkpt><trkpt lat="43.97844522229547" lon="5.590156006773104"><ele>623.0</ele><time>2026-05-03T14:53:58.998Z</time></trkpt><trkpt lat="43.97849571843255" lon="5.590236571312535"><ele>623.0</ele><time>2026-05-03T14:53:59.998Z</time></trkpt><trkpt lat="43.97854329005083" lon="5.590309085283585"><ele>623.0</ele><time>2026-05-03T14:54:00.998Z</time></trkpt><trkpt lat="43.97859282231521" lon="5.590375876450592"><ele>623.0</ele><time>2026-05-03T14:54:01.998Z</time></trkpt><trkpt lat="43.97864453900342" lon="5.590443609210132"><ele>623.0</ele><time>2026-05-03T14:54:02.998Z</time></trkpt><trkpt lat="43.978695890110956" lon="5.590515383703847"><ele>623.0</ele><time>2026-05-03T14:54:03.998Z</time></trkpt><trkpt lat="43.978743881901636" lon="5.5905954809766465"><ele>622.5</ele><time>2026-05-03T14:54:05Z</time></trkpt><trkpt lat="43.978793063261044" lon="5.590679839531752"><ele>622.0</ele><time>2026-05-03T14:54:06Z</time></trkpt><trkpt lat="43.97884135079699" lon="5.5907586140649626"><ele>621.5</ele><time>2026-05-03T14:54:07Z</time></trkpt><trkpt lat="43.978895385371295" lon="5.590846160103712"><ele>621.0</ele><time>2026-05-03T14:54:08Z</time></trkpt><trkpt lat="43.97895222014922" lon="5.590929522957313"><ele>620.5</ele><time>2026-05-03T14:54:09Z</time></trkpt><trkpt lat="43.9790013844478" lon="5.591012783800251"><ele>620.0</ele><time>2026-05-03T14:54:10Z</time></trkpt><trkpt lat="43.9790531014811" lon="5.591102448502526"><ele>619.3333333333333</ele><time>2026-05-03T14:54:11Z</time></trkpt><trkpt lat="43.979107375279334" lon="5.59119020163053"><ele>618.6666666666666</ele><time>2026-05-03T14:54:12Z</time></trkpt><trkpt lat="43.979146972918905" lon="5.5912795393047725"><ele>618.0</ele><time>2026-05-03T14:54:13Z</time></trkpt><trkpt lat="43.97920164153292" lon="5.591359718522437"><ele>617.3333333333334</ele><time>2026-05-03T14:54:14Z</time></trkpt><trkpt lat="43.979248262464964" lon="5.5914409967768774"><ele>616.6666666666667</ele><time>2026-05-03T14:54:15Z</time></trkpt><trkpt lat="43.979303325925635" lon="5.5915233775284054"><ele>616.0</ele><time>2026-05-03T14:54:16Z</time></trkpt><trkpt lat="43.97935384728104" lon="5.59159396726313"><ele>616.0</ele><time>2026-05-03T14:54:17Z</time></trkpt><trkpt lat="43.97940551392209" lon="5.591677253254262"><ele>616.0</ele><time>2026-05-03T14:54:18Z</time></trkpt><trkpt lat="43.97946184341925" lon="5.591761184006829"><ele>616.0</ele><time>2026-05-03T14:54:19Z</time></trkpt><trkpt lat="43.97951399715782" lon="5.591838972269381"><ele>616.0</ele><time>2026-05-03T14:54:20Z</time></trkpt><trkpt lat="43.97956770850806" lon="5.591929850476792"><ele>616.0</ele><time>2026-05-03T14:54:21Z</time></trkpt><trkpt lat="43.979612850821376" lon="5.592018307420842"><ele>616.0</ele><time>2026-05-03T14:54:22Z</time></trkpt><trkpt lat="43.97965393234571" lon="5.592112120479487"><ele>614.8333333333334</ele><time>2026-05-03T14:54:23Z</time></trkpt><trkpt lat="43.97969011309791" lon="5.592210666819732"><ele>613.6666666666667</ele><time>2026-05-03T14:54:24Z</time></trkpt><trkpt lat="43.97972337550329" lon="5.592308704783746"><ele>612.5</ele><time>2026-05-03T14:54:25Z</time></trkpt><trkpt lat="43.97974989719442" lon="5.592413922607583"><ele>611.3333333333334</ele><time>2026-05-03T14:54:26Z</time></trkpt><trkpt lat="43.97977255056562" lon="5.592522628042222"><ele>610.1666666666666</ele><time>2026-05-03T14:54:27Z</time></trkpt><trkpt lat="43.97979320430463" lon="5.5926316804532705"><ele>609.0</ele><time>2026-05-03T14:54:28Z</time></trkpt><trkpt lat="43.97981339360288" lon="5.592740568928998"><ele>608.8333333333334</ele><time>2026-05-03T14:54:29Z</time></trkpt><trkpt lat="43.979822257434684" lon="5.592859169595936"><ele>608.6666666666666</ele><time>2026-05-03T14:54:30Z</time></trkpt><trkpt lat="43.979823536260255" lon="5.59297154556671"><ele>608.5</ele><time>2026-05-03T14:54:31Z</time></trkpt><trkpt lat="43.97983353804978" lon="5.5930893059388005"><ele>608.3333333333333</ele><time>2026-05-03T14:54:32Z</time></trkpt><trkpt lat="43.97983849926392" lon="5.593202558520622"><ele>608.1666666666666</ele><time>2026-05-03T14:54:33Z</time></trkpt><trkpt lat="43.97983980149848" lon="5.593312657212846"><ele>608.0</ele><time>2026-05-03T14:54:34Z</time></trkpt><trkpt lat="43.979836963315904" lon="5.593423175173648"><ele>608.0</ele><time>2026-05-03T14:54:35Z</time></trkpt><trkpt lat="43.97984336704007" lon="5.593536807112924"><ele>608.0</ele><time>2026-05-03T14:54:36Z</time></trkpt><trkpt lat="43.97984578292983" lon="5.5936508851594215"><ele>608.0</ele><time>2026-05-03T14:54:37Z</time></trkpt><trkpt lat="43.97984586074264" lon="5.593760261638438"><ele>608.0</ele><time>2026-05-03T14:54:38Z</time></trkpt><trkpt lat="43.97984630819387" lon="5.593868419705507"><ele>608.0</ele><time>2026-05-03T14:54:39Z</time></trkpt><trkpt lat="43.97985273073399" lon="5.5939756703448404"><ele>608.0</ele><time>2026-05-03T14:54:40Z</time></trkpt><trkpt lat="43.979858479713315" lon="5.5940817979422"><ele>608.1666666666666</ele><time>2026-05-03T14:54:41Z</time></trkpt><trkpt lat="43.97986210102606" lon="5.594183521663212"><ele>608.3333333333333</ele><time>2026-05-03T14:54:42Z</time></trkpt><trkpt lat="43.979868625799625" lon="5.594294098762405"><ele>608.5</ele><time>2026-05-03T14:54:43Z</time></trkpt><trkpt lat="43.97987647038363" lon="5.594404786811212"><ele>608.6666666666666</ele><time>2026-05-03T14:54:44Z</time></trkpt><trkpt lat="43.97987902721536" lon="5.594515586526789"><ele>608.8333333333334</ele><time>2026-05-03T14:54:45Z</time></trkpt><trkpt lat="43.97988502162105" lon="5.594629288170697"><ele>609.0</ele><time>2026-05-03T14:54:46Z</time></trkpt><trkpt lat="43.97989183169654" lon="5.594736252894624"><ele>609.0</ele><time>2026-05-03T14:54:47Z</time></trkpt><trkpt lat="43.97989648637844" lon="5.594846708031939"><ele>609.0</ele><time>2026-05-03T14:54:47.999Z</time></trkpt><trkpt lat="43.97989658370506" lon="5.594957353611108"><ele>609.0</ele><time>2026-05-03T14:54:48.999Z</time></trkpt><trkpt lat="43.97990156637394" lon="5.595065826568147"><ele>609.0</ele><time>2026-05-03T14:54:49.999Z</time></trkpt><trkpt lat="43.97990302787049" lon="5.595180966328067"><ele>609.0</ele><time>2026-05-03T14:54:50.999Z</time></trkpt><trkpt lat="43.97989796535767" lon="5.595287439633013"><ele>609.0</ele><time>2026-05-03T14:54:51.999Z</time></trkpt><trkpt lat="43.97989491092775" lon="5.5953957115021415"><ele>609.5</ele><time>2026-05-03T14:54:52.999Z</time></trkpt><trkpt lat="43.97988765793625" lon="5.595501251521672"><ele>610.0</ele><time>2026-05-03T14:54:53.999Z</time></trkpt><trkpt lat="43.979872778901374" lon="5.595605333802492"><ele>610.5</ele><time>2026-05-03T14:54:54.999Z</time></trkpt><trkpt lat="43.979863398892334" lon="5.595717230494334"><ele>611.0</ele><time>2026-05-03T14:54:55.999Z</time></trkpt><trkpt lat="43.97985448009647" lon="5.595824306957866"><ele>611.5</ele><time>2026-05-03T14:54:56.999Z</time></trkpt><trkpt lat="43.97983482763137" lon="5.595927801888451"><ele>612.0</ele><time>2026-05-03T14:54:57.999Z</time></trkpt><trkpt lat="43.979808266356734" lon="5.596034252038991"><ele>612.0</ele><time>2026-05-03T14:54:58.999Z</time></trkpt><trkpt lat="43.97977952942636" lon="5.596140649482422"><ele>612.0</ele><time>2026-05-03T14:54:59.999Z</time></trkpt><trkpt lat="43.97975576908818" lon="5.596248611940159"><ele>612.0</ele><time>2026-05-03T14:55:00.999Z</time></trkpt><trkpt lat="43.97972816765302" lon="5.596346631416187"><ele>612.0</ele><time>2026-05-03T14:55:01.999Z</time></trkpt><trkpt lat="43.97969891520454" lon="5.596441917982758"><ele>612.0</ele><time>2026-05-03T14:55:02.999Z</time></trkpt><trkpt lat="43.979675403195905" lon="5.5965327346194655"><ele>612.0</ele><time>2026-05-03T14:55:03.999Z</time></trkpt><trkpt lat="43.97964818510032" lon="5.596625986420205"><ele>612.1666666666666</ele><time>2026-05-03T14:55:04.999Z</time></trkpt><trkpt lat="43.97962356463681" lon="5.596721471934494"><ele>612.3333333333334</ele><time>2026-05-03T14:55:05.999Z</time></trkpt><trkpt lat="43.97958347798438" lon="5.596808448135406"><ele>612.5</ele><time>2026-05-03T14:55:06.999Z</time></trkpt><trkpt lat="43.979569367099835" lon="5.596902130976297"><ele>612.6666666666667</ele><time>2026-05-03T14:55:07.999Z</time></trkpt><trkpt lat="43.97952222940212" lon="5.596981682600785"><ele>612.8333333333334</ele><time>2026-05-03T14:55:08.999Z</time></trkpt><trkpt lat="43.97948769721676" lon="5.597058759882507"><ele>613.0</ele><time>2026-05-03T14:55:09.999Z</time></trkpt><trkpt lat="43.9794167800514" lon="5.597176168981425"><ele>613.4</ele><time>2026-05-03T14:55:11.999Z</time></trkpt><trkpt lat="43.97935553482202" lon="5.597261458189646"><ele>613.8</ele><time>2026-05-03T14:55:13.999Z</time></trkpt><trkpt lat="43.979400884993545" lon="5.597431572105166"><ele>614.2</ele><time>2026-05-03T14:55:15.999Z</time></trkpt><trkpt lat="43.97943470280769" lon="5.597575726746946"><ele>614.6</ele><time>2026-05-03T14:55:17.999Z</time></trkpt><trkpt lat="43.97947991307622" lon="5.597733331884922"><ele>615.0</ele><time>2026-05-03T14:55:19.999Z</time></trkpt><trkpt lat="43.97952997650677" lon="5.597894603265339"><ele>615.0</ele><time>2026-05-03T14:55:21.999Z</time></trkpt><trkpt lat="43.97958417422141" lon="5.598039537466293"><ele>615.0</ele><time>2026-05-03T14:55:23.999Z</time></trkpt><trkpt lat="43.97965226766672" lon="5.598175961780878"><ele>615.0</ele><time>2026-05-03T14:55:25.999Z</time></trkpt><trkpt lat="43.979718433962965" lon="5.598313093057461"><ele>615.0</ele><time>2026-05-03T14:55:27.999Z</time></trkpt><trkpt lat="43.97977310728769" lon="5.598457315764981"><ele>615.0</ele><time>2026-05-03T14:55:29.999Z</time></trkpt><trkpt lat="43.979825107532555" lon="5.598604582131011"><ele>615.0</ele><time>2026-05-03T14:55:31.999Z</time></trkpt><trkpt lat="43.97981963624955" lon="5.598775072815061"><ele>615.0</ele><time>2026-05-03T14:55:33.999Z</time></trkpt><trkpt lat="43.97978879122108" lon="5.598938598498933"><ele>615.0</ele><time>2026-05-03T14:55:35.999Z</time></trkpt><trkpt lat="43.979755511353815" lon="5.599020716036923"><ele>615.0</ele><time>2026-05-03T14:55:36.999Z</time></trkpt><trkpt lat="43.9797218961172" lon="5.599095330977602"><ele>614.0</ele><time>2026-05-03T14:55:37.999Z</time></trkpt><trkpt lat="43.979658561872725" lon="5.599224240737656"><ele>613.0</ele><time>2026-05-03T14:55:39.999Z</time></trkpt><trkpt lat="43.979602216372854" lon="5.5993509557005225"><ele>612.0</ele><time>2026-05-03T14:55:41.999Z</time></trkpt><trkpt lat="43.979570384263255" lon="5.599431830379713"><ele>611.0</ele><time>2026-05-03T14:55:43.999Z</time></trkpt><trkpt lat="43.97955048586952" lon="5.59952165556849"><ele>610.0</ele><time>2026-05-03T14:55:52.998Z</time></trkpt><trkpt lat="43.97950396451537" lon="5.599593159547636"><ele>609.0</ele><time>2026-05-03T14:55:59.998Z</time></trkpt><trkpt lat="43.979507407965315" lon="5.599703317009594"><ele>607.8333333333334</ele><time>2026-05-03T14:56:03.998Z</time></trkpt><trkpt lat="43.97949204345787" lon="5.599821106807628"><ele>606.6666666666666</ele><time>2026-05-03T14:56:06.998Z</time></trkpt><trkpt lat="43.97947463547163" lon="5.599919685531722"><ele>605.5</ele><time>2026-05-03T14:56:09.998Z</time></trkpt><trkpt lat="43.97945503993621" lon="5.600027965555601"><ele>604.3333333333333</ele><time>2026-05-03T14:56:13Z</time></trkpt><trkpt lat="43.97944004301975" lon="5.600128680998075"><ele>603.1666666666666</ele><time>2026-05-03T14:56:16Z</time></trkpt><trkpt lat="43.97940579550257" lon="5.600223122781662"><ele>602.0</ele><time>2026-05-03T14:56:19Z</time></trkpt><trkpt lat="43.979394175177774" lon="5.600325741825163"><ele>600.2857142857143</ele><time>2026-05-03T14:56:22Z</time></trkpt><trkpt lat="43.97940607409915" lon="5.600438143491658"><ele>598.5714285714286</ele><time>2026-05-03T14:56:25Z</time></trkpt><trkpt lat="43.97944760477609" lon="5.600528564808508"><ele>596.8571428571429</ele><time>2026-05-03T14:56:29Z</time></trkpt><trkpt lat="43.97941030973679" lon="5.600632655997877"><ele>595.1428571428571</ele><time>2026-05-03T14:56:33Z</time></trkpt><trkpt lat="43.97939653515533" lon="5.600734926212306"><ele>593.4285714285714</ele><time>2026-05-03T14:56:36Z</time></trkpt><trkpt lat="43.97939988096334" lon="5.600822472032179"><ele>591.7142857142858</ele><time>2026-05-03T14:56:38Z</time></trkpt><trkpt lat="43.97938334186199" lon="5.600909121840424"><ele>590.0</ele><time>2026-05-03T14:56:42Z</time></trkpt><trkpt lat="43.979384343246856" lon="5.6010020814303685"><ele>590.0</ele><time>2026-05-03T14:56:45Z</time></trkpt><trkpt lat="43.979339132807546" lon="5.6011022235694075"><ele>590.0</ele><time>2026-05-03T14:56:48Z</time></trkpt><trkpt lat="43.979260681816626" lon="5.601152297730524"><ele>590.0</ele><time>2026-05-03T14:56:51Z</time></trkpt><trkpt lat="43.97919028101942" lon="5.601183555954744"><ele>590.0</ele><time>2026-05-03T14:56:54Z</time></trkpt><trkpt lat="43.979141566629515" lon="5.60125820514672"><ele>590.0</ele><time>2026-05-03T14:56:56.999Z</time></trkpt><trkpt lat="43.979123329833506" lon="5.601348081101934"><ele>590.0</ele><time>2026-05-03T14:57:07.999Z</time></trkpt><trkpt lat="43.97914729455149" lon="5.601458404723002"><ele>588.2</ele><time>2026-05-03T14:57:10.999Z</time></trkpt><trkpt lat="43.97922479261766" lon="5.601543956528414"><ele>586.4</ele><time>2026-05-03T14:57:12.999Z</time></trkpt><trkpt lat="43.97931159704987" lon="5.601624368604891"><ele>584.6</ele><time>2026-05-03T14:57:14.999Z</time></trkpt><trkpt lat="43.97937659443324" lon="5.601697659288977"><ele>582.8</ele><time>2026-05-03T14:57:16.999Z</time></trkpt><trkpt lat="43.97944846773044" lon="5.601772528665347"><ele>581.0</ele><time>2026-05-03T14:57:18.999Z</time></trkpt><trkpt lat="43.979506678377795" lon="5.601860640241564"><ele>581.0</ele><time>2026-05-03T14:57:20.999Z</time></trkpt><trkpt lat="43.97953880212157" lon="5.601939037368119"><ele>581.0</ele><time>2026-05-03T14:57:22.999Z</time></trkpt><trkpt lat="43.979472491050814" lon="5.601995474080693"><ele>581.0</ele><time>2026-05-03T14:57:26.999Z</time></trkpt><trkpt lat="43.979418057822784" lon="5.601923249650236"><ele>581.0</ele><time>2026-05-03T14:57:28.999Z</time></trkpt><trkpt lat="43.97934994500345" lon="5.60187106182861"><ele>581.0</ele><time>2026-05-03T14:57:30.999Z</time></trkpt><trkpt lat="43.97929917435182" lon="5.60180817443063"><ele>581.0</ele><time>2026-05-03T14:57:31.999Z</time></trkpt><trkpt lat="43.979225810471" lon="5.601816472393196"><ele>581.0</ele><time>2026-05-03T14:57:33.999Z</time></trkpt><trkpt lat="43.979152653162835" lon="5.601893167187208"><ele>581.2</ele><time>2026-05-03T14:57:35.999Z</time></trkpt><trkpt lat="43.97906856800705" lon="5.601995930141788"><ele>581.4000000000001</ele><time>2026-05-03T14:57:37.999Z</time></trkpt><trkpt lat="43.979025172087" lon="5.602092045927397"><ele>581.6</ele><time>2026-05-03T14:57:39.999Z</time></trkpt><trkpt lat="43.97906411847385" lon="5.602194402295397"><ele>581.8000000000001</ele><time>2026-05-03T14:57:41.999Z</time></trkpt><trkpt lat="43.979156361845426" lon="5.6022922376805235"><ele>582.0</ele><time>2026-05-03T14:57:43.999Z</time></trkpt><trkpt lat="43.979218538888254" lon="5.602423240289408"><ele>582.0</ele><time>2026-05-03T14:57:45.999Z</time></trkpt><trkpt lat="43.97923007713788" lon="5.6025737502796575"><ele>582.0</ele><time>2026-05-03T14:57:47.999Z</time></trkpt><trkpt lat="43.97920207411302" lon="5.602728013439405"><ele>582.0</ele><time>2026-05-03T14:57:49.999Z</time></trkpt><trkpt lat="43.97918605311076" lon="5.602884596797022"><ele>582.0</ele><time>2026-05-03T14:57:51.999Z</time></trkpt><trkpt lat="43.979158106376154" lon="5.60305266981413"><ele>585.0</ele><time>2026-05-03T14:57:53.999Z</time></trkpt><trkpt lat="43.979110756552664" lon="5.603179334836525"><ele>588.0</ele><time>2026-05-03T14:57:55.999Z</time></trkpt><trkpt lat="43.97908221218419" lon="5.60326188001507"><ele>591.0</ele><time>2026-05-03T14:57:56.999Z</time></trkpt><trkpt lat="43.97908305327872" lon="5.603438803235784"><ele>594.0</ele><time>2026-05-03T14:57:58.999Z</time></trkpt><trkpt lat="43.979095753309174" lon="5.603526404672439"><ele>597.0</ele><time>2026-05-03T14:57:59.998Z</time></trkpt><trkpt lat="43.979129216676505" lon="5.603683170449838"><ele>598.75</ele><time>2026-05-03T14:58:01.998Z</time></trkpt><trkpt lat="43.97915599979425" lon="5.603831646113588"><ele>600.5</ele><time>2026-05-03T14:58:03.998Z</time></trkpt><trkpt lat="43.97916846747093" lon="5.603990935603601"><ele>602.25</ele><time>2026-05-03T14:58:05.998Z</time></trkpt><trkpt lat="43.97916294776754" lon="5.604148878456054"><ele>604.0</ele><time>2026-05-03T14:58:07.998Z</time></trkpt><trkpt lat="43.97917866896884" lon="5.604303825187736"><ele>602.1666666666667</ele><time>2026-05-03T14:58:09.998Z</time></trkpt><trkpt lat="43.97920178022568" lon="5.6043932160123155"><ele>600.3333333333334</ele><time>2026-05-03T14:58:10.998Z</time></trkpt><trkpt lat="43.979211639758695" lon="5.604483944691344"><ele>598.5</ele><time>2026-05-03T14:58:11.998Z</time></trkpt><trkpt lat="43.9792259987555" lon="5.604569607915631"><ele>596.6666666666666</ele><time>2026-05-03T14:58:12.998Z</time></trkpt><trkpt lat="43.97926319667225" lon="5.604706134576653"><ele>594.8333333333333</ele><time>2026-05-03T14:58:14.998Z</time></trkpt><trkpt lat="43.97928819943638" lon="5.604869683248458"><ele>593.0</ele><time>2026-05-03T14:58:17Z</time></trkpt><trkpt lat="43.979301786756395" lon="5.605034282981163"><ele>593.0</ele><time>2026-05-03T14:58:19Z</time></trkpt><trkpt lat="43.979322597527755" lon="5.60512033010317"><ele>593.0</ele><time>2026-05-03T14:58:20Z</time></trkpt><trkpt lat="43.97937982472038" lon="5.605269844486558"><ele>593.0</ele><time>2026-05-03T14:58:22Z</time></trkpt><trkpt lat="43.97941328634512" lon="5.605366083831057"><ele>593.0</ele><time>2026-05-03T14:58:23Z</time></trkpt><trkpt lat="43.97947069919845" lon="5.605511760778056"><ele>593.0</ele><time>2026-05-03T14:58:25Z</time></trkpt><trkpt lat="43.979496661524436" lon="5.6055965225167474"><ele>594.5</ele><time>2026-05-03T14:58:26Z</time></trkpt><trkpt lat="43.97953192930709" lon="5.6056816846489275"><ele>596.0</ele><time>2026-05-03T14:58:27Z</time></trkpt><trkpt lat="43.97956666179495" lon="5.605764215511633"><ele>597.5</ele><time>2026-05-03T14:58:28Z</time></trkpt><trkpt lat="43.97961924561819" lon="5.605891471834084"><ele>599.0</ele><time>2026-05-03T14:58:30Z</time></trkpt><trkpt lat="43.97967451699108" lon="5.605985987420416"><ele>600.5</ele><time>2026-05-03T14:58:33Z</time></trkpt><trkpt lat="43.979619528418844" lon="5.6060808474807695"><ele>602.0</ele><time>2026-05-03T14:58:36Z</time></trkpt><trkpt lat="43.979551183713696" lon="5.606052092940669"><ele>602.0</ele><time>2026-05-03T14:58:38Z</time></trkpt><trkpt lat="43.97951100919879" lon="5.605966138802115"><ele>602.0</ele><time>2026-05-03T14:58:40Z</time></trkpt><trkpt lat="43.97943949802859" lon="5.60593716698193"><ele>602.0</ele><time>2026-05-03T14:58:42Z</time></trkpt><trkpt lat="43.97934108045498" lon="5.6059003404381915"><ele>602.0</ele><time>2026-05-03T14:58:44Z</time></trkpt><trkpt lat="43.97924308011376" lon="5.605820622225277"><ele>602.0</ele><time>2026-05-03T14:58:46Z</time></trkpt><trkpt lat="43.97913500138547" lon="5.6057125699231305"><ele>603.8333333333333</ele><time>2026-05-03T14:58:48Z</time></trkpt><trkpt lat="43.979084633099866" lon="5.605641799625805"><ele>605.6666666666666</ele><time>2026-05-03T14:58:49Z</time></trkpt><trkpt lat="43.97903603795526" lon="5.605577300910451"><ele>607.5</ele><time>2026-05-03T14:58:50Z</time></trkpt><trkpt lat="43.97895504037543" lon="5.60546523618734"><ele>609.3333333333334</ele><time>2026-05-03T14:58:52Z</time></trkpt><trkpt lat="43.978890813276536" lon="5.60536053986639"><ele>611.1666666666667</ele><time>2026-05-03T14:58:54Z</time></trkpt><trkpt lat="43.978842920889626" lon="5.605261990539236"><ele>613.0</ele><time>2026-05-03T14:58:56Z</time></trkpt><trkpt lat="43.9787624153568" lon="5.605221456884454"><ele>613.0</ele><time>2026-05-03T14:58:58Z</time></trkpt><trkpt lat="43.97867769852698" lon="5.605259297899855"><ele>613.0</ele><time>2026-05-03T14:59:00Z</time></trkpt><trkpt lat="43.97860415904388" lon="5.605311888177939"><ele>613.0</ele><time>2026-05-03T14:59:01.999Z</time></trkpt><trkpt lat="43.97852541968363" lon="5.605352225876909"><ele>613.0</ele><time>2026-05-03T14:59:04.999Z</time></trkpt><trkpt lat="43.978463819953085" lon="5.605275487300056"><ele>613.0</ele><time>2026-05-03T14:59:07.999Z</time></trkpt><trkpt lat="43.97844976207944" lon="5.605161693795281"><ele>613.0</ele><time>2026-05-03T14:59:09.999Z</time></trkpt><trkpt lat="43.97841081799983" lon="5.605058114891057"><ele>613.0</ele><time>2026-05-03T14:59:11.999Z</time></trkpt><trkpt lat="43.97837273748775" lon="5.604959727315966"><ele>613.0</ele><time>2026-05-03T14:59:13.999Z</time></trkpt><trkpt lat="43.97834587272746" lon="5.604826770054779"><ele>613.0</ele><time>2026-05-03T14:59:16.999Z</time></trkpt><trkpt lat="43.978314655382434" lon="5.604729210218284"><ele>613.0</ele><time>2026-05-03T14:59:18.999Z</time></trkpt><trkpt lat="43.978288000122475" lon="5.604635121176332"><ele>613.0</ele><time>2026-05-03T14:59:20.999Z</time></trkpt><trkpt lat="43.9783388083344" lon="5.604566139679271"><ele>613.0</ele><time>2026-05-03T14:59:23.999Z</time></trkpt><trkpt lat="43.978409741722395" lon="5.6045009827066945"><ele>613.0</ele><time>2026-05-03T14:59:26.999Z</time></trkpt><trkpt lat="43.97846323649841" lon="5.604573515712804"><ele>613.0</ele><time>2026-05-03T14:59:28.999Z</time></trkpt><trkpt lat="43.97848709052454" lon="5.604686742776958"><ele>613.0</ele><time>2026-05-03T14:59:30.999Z</time></trkpt><trkpt lat="43.97852362636697" lon="5.604825373327895"><ele>613.0</ele><time>2026-05-03T14:59:32.999Z</time></trkpt><trkpt lat="43.978572633144296" lon="5.604977053772665"><ele>613.0</ele><time>2026-05-03T14:59:34.999Z</time></trkpt><trkpt lat="43.978622513461254" lon="5.605097074113647"><ele>613.0</ele><time>2026-05-03T14:59:36.999Z</time></trkpt><trkpt lat="43.978675704516505" lon="5.605202935581583"><ele>613.0</ele><time>2026-05-03T14:59:38.999Z</time></trkpt><trkpt lat="43.97874384623002" lon="5.605246229231174"><ele>613.0</ele><time>2026-05-03T14:59:40.999Z</time></trkpt><trkpt lat="43.97880737767145" lon="5.6052501301293125"><ele>613.0</ele><time>2026-05-03T14:59:42.999Z</time></trkpt><trkpt lat="43.97889581424084" lon="5.605321420420395"><ele>613.0</ele><time>2026-05-03T14:59:45.999Z</time></trkpt><trkpt lat="43.97893789448572" lon="5.605476008905034"><ele>614.4285714285714</ele><time>2026-05-03T14:59:47.999Z</time></trkpt><trkpt lat="43.97899090926955" lon="5.605545240461799"><ele>615.8571428571429</ele><time>2026-05-03T14:59:48.999Z</time></trkpt><trkpt lat="43.97905181418511" lon="5.605587479238563"><ele>617.2857142857142</ele><time>2026-05-03T14:59:49.999Z</time></trkpt><trkpt lat="43.97912690648534" lon="5.605636287066772"><ele>618.7142857142858</ele><time>2026-05-03T14:59:50.999Z</time></trkpt><trkpt lat="43.97917254525029" lon="5.6057028245074205"><ele>620.1428571428571</ele><time>2026-05-03T14:59:51.999Z</time></trkpt><trkpt lat="43.979227481599764" lon="5.605771900500944"><ele>621.5714285714286</ele><time>2026-05-03T14:59:52.999Z</time></trkpt><trkpt lat="43.979285980280196" lon="5.6058228244742"><ele>623.0</ele><time>2026-05-03T14:59:53.999Z</time></trkpt><trkpt lat="43.979381134274576" lon="5.605907568499126"><ele>619.5</ele><time>2026-05-03T14:59:55.999Z</time></trkpt><trkpt lat="43.97948834083418" lon="5.605950597278068"><ele>616.0</ele><time>2026-05-03T14:59:57.999Z</time></trkpt><trkpt lat="43.97956361946589" lon="5.606002304345555"><ele>612.5</ele><time>2026-05-03T14:59:59.999Z</time></trkpt><trkpt lat="43.97961358378799" lon="5.606068262884865"><ele>609.0</ele><time>2026-05-03T15:00:01.999Z</time></trkpt><trkpt lat="43.97967150918627" lon="5.60601653285819"><ele>605.5</ele><time>2026-05-03T15:00:04.999Z</time></trkpt><trkpt lat="43.97963053611703" lon="5.605895257608239"><ele>602.0</ele><time>2026-05-03T15:00:07.998Z</time></trkpt><trkpt lat="43.97957172436491" lon="5.605841329694816"><ele>602.0</ele><time>2026-05-03T15:00:09.998Z</time></trkpt><trkpt lat="43.97964588792549" lon="5.605815564936023"><ele>602.0</ele><time>2026-05-03T15:00:14.998Z</time></trkpt><trkpt lat="43.97973062483557" lon="5.605915229984805"><ele>602.0</ele><time>2026-05-03T15:00:16.998Z</time></trkpt><trkpt lat="43.97978404015773" lon="5.605965724487787"><ele>602.0</ele><time>2026-05-03T15:00:17.998Z</time></trkpt><trkpt lat="43.97984133284789" lon="5.606014307667467"><ele>602.0</ele><time>2026-05-03T15:00:18.998Z</time></trkpt><trkpt lat="43.97993342592406" lon="5.606124727715176"><ele>602.0</ele><time>2026-05-03T15:00:20.998Z</time></trkpt><trkpt lat="43.980019197483415" lon="5.606184236366509"><ele>600.1666666666666</ele><time>2026-05-03T15:00:23Z</time></trkpt><trkpt lat="43.9801176644092" lon="5.606225750080884"><ele>598.3333333333333</ele><time>2026-05-03T15:00:25Z</time></trkpt><trkpt lat="43.98017964383173" lon="5.60628330756187"><ele>596.5</ele><time>2026-05-03T15:00:27Z</time></trkpt><trkpt lat="43.9802330608134" lon="5.606330818655141"><ele>594.6666666666666</ele><time>2026-05-03T15:00:28Z</time></trkpt><trkpt lat="43.98029194325025" lon="5.6063848246866534"><ele>592.8333333333334</ele><time>2026-05-03T15:00:29Z</time></trkpt><trkpt lat="43.98039464574572" lon="5.60643638237368"><ele>591.0</ele><time>2026-05-03T15:00:31Z</time></trkpt><trkpt lat="43.98047465475094" lon="5.606504554742422"><ele>591.0</ele><time>2026-05-03T15:00:33Z</time></trkpt><trkpt lat="43.98055101750705" lon="5.606565418476401"><ele>591.0</ele><time>2026-05-03T15:00:35Z</time></trkpt><trkpt lat="43.980599196731305" lon="5.606636261296412"><ele>591.0</ele><time>2026-05-03T15:00:37Z</time></trkpt><trkpt lat="43.980638755520765" lon="5.6065650770122435"><ele>591.0</ele><time>2026-05-03T15:00:40Z</time></trkpt><trkpt lat="43.98058983588678" lon="5.606473472016359"><ele>591.0</ele><time>2026-05-03T15:00:42Z</time></trkpt><trkpt lat="43.98052597243412" lon="5.606348335526716"><ele>591.0</ele><time>2026-05-03T15:00:44Z</time></trkpt><trkpt lat="43.980456909622355" lon="5.606266984787819"><ele>591.0</ele><time>2026-05-03T15:00:45Z</time></trkpt><trkpt lat="43.98040619420721" lon="5.606181624983311"><ele>591.0</ele><time>2026-05-03T15:00:46Z</time></trkpt><trkpt lat="43.98036248458416" lon="5.606074721168462"><ele>591.0</ele><time>2026-05-03T15:00:47Z</time></trkpt><trkpt lat="43.980318329529744" lon="5.605992595431525"><ele>591.0</ele><time>2026-05-03T15:00:48Z</time></trkpt><trkpt lat="43.980280212896425" lon="5.605892494569542"><ele>591.0</ele><time>2026-05-03T15:00:49Z</time></trkpt><trkpt lat="43.9802425875779" lon="5.605794197173576"><ele>591.0</ele><time>2026-05-03T15:00:50Z</time></trkpt><trkpt lat="43.980207160397775" lon="5.605635420646007"><ele>587.5</ele><time>2026-05-03T15:00:52Z</time></trkpt><trkpt lat="43.98018707735936" lon="5.605503173209717"><ele>584.0</ele><time>2026-05-03T15:00:54Z</time></trkpt><trkpt lat="43.98017400591781" lon="5.605400727182474"><ele>580.5</ele><time>2026-05-03T15:00:56Z</time></trkpt><trkpt lat="43.980147626123674" lon="5.605303567495496"><ele>577.0</ele><time>2026-05-03T15:00:58Z</time></trkpt><trkpt lat="43.980131773153744" lon="5.605206204072807"><ele>573.5</ele><time>2026-05-03T15:01:00Z</time></trkpt><trkpt lat="43.98009524147224" lon="5.605091023227732"><ele>570.0</ele><time>2026-05-03T15:01:02Z</time></trkpt><trkpt lat="43.98006845771254" lon="5.604968212356428"><ele>569.1666666666666</ele><time>2026-05-03T15:01:04Z</time></trkpt><trkpt lat="43.9800779706998" lon="5.604856150320212"><ele>568.3333333333334</ele><time>2026-05-03T15:01:05.999Z</time></trkpt><trkpt lat="43.980063062076646" lon="5.604747491823838"><ele>567.5</ele><time>2026-05-03T15:01:08.999Z</time></trkpt><trkpt lat="43.98008714054866" lon="5.604642325711535"><ele>566.6666666666667</ele><time>2026-05-03T15:01:12.999Z</time></trkpt><trkpt lat="43.98008441614522" lon="5.604545714025892"><ele>565.8333333333334</ele><time>2026-05-03T15:01:17.999Z</time></trkpt><trkpt lat="43.98005184091954" lon="5.604464289940854"><ele>565.0</ele><time>2026-05-03T15:01:21.999Z</time></trkpt><trkpt lat="43.98003359904477" lon="5.6043622964315105"><ele>568.8333333333334</ele><time>2026-05-03T15:01:24.999Z</time></trkpt><trkpt lat="43.97999375941575" lon="5.604284323504551"><ele>572.6666666666667</ele><time>2026-05-03T15:01:28.999Z</time></trkpt><trkpt lat="43.97995323771661" lon="5.604184755330366"><ele>576.5</ele><time>2026-05-03T15:01:31.999Z</time></trkpt><trkpt lat="43.97988562889733" lon="5.604120024761065"><ele>580.3333333333334</ele><time>2026-05-03T15:01:33.999Z</time></trkpt><trkpt lat="43.979839807445536" lon="5.60403834239414"><ele>584.1666666666666</ele><time>2026-05-03T15:01:36.999Z</time></trkpt><trkpt lat="43.979752785101255" lon="5.604036457541027"><ele>588.0</ele><time>2026-05-03T15:01:39.999Z</time></trkpt><trkpt lat="43.97969742837836" lon="5.603958902557551"><ele>588.0</ele><time>2026-05-03T15:01:43.999Z</time></trkpt><trkpt lat="43.97967299695565" lon="5.60387375427174"><ele>588.0</ele><time>2026-05-03T15:01:46.999Z</time></trkpt><trkpt lat="43.97961639082736" lon="5.603810632186809"><ele>588.0</ele><time>2026-05-03T15:01:49.999Z</time></trkpt><trkpt lat="43.97957900865667" lon="5.603732872669107"><ele>588.0</ele><time>2026-05-03T15:01:52.999Z</time></trkpt><trkpt lat="43.9795257399181" lon="5.6036568373133235"><ele>588.0</ele><time>2026-05-03T15:01:55.999Z</time></trkpt><trkpt lat="43.97949271876362" lon="5.603572900874034"><ele>588.0</ele><time>2026-05-03T15:01:57.999Z</time></trkpt><trkpt lat="43.979442107208584" lon="5.603497238249715"><ele>588.0</ele><time>2026-05-03T15:02:00.999Z</time></trkpt><trkpt lat="43.97937459006936" lon="5.603428619642818"><ele>587.8333333333334</ele><time>2026-05-03T15:02:02.999Z</time></trkpt><trkpt lat="43.97930737537502" lon="5.6033803538929865"><ele>587.6666666666666</ele><time>2026-05-03T15:02:04.999Z</time></trkpt><trkpt lat="43.979230842989764" lon="5.603333985413633"><ele>587.5</ele><time>2026-05-03T15:02:06.999Z</time></trkpt><trkpt lat="43.9791540948284" lon="5.603257581799673"><ele>587.3333333333333</ele><time>2026-05-03T15:02:08.999Z</time></trkpt><trkpt lat="43.97909952297556" lon="5.603184851387466"><ele>587.1666666666666</ele><time>2026-05-03T15:02:10.999Z</time></trkpt><trkpt lat="43.97914214440025" lon="5.603057843150024"><ele>587.0</ele><time>2026-05-03T15:02:13.998Z</time></trkpt><trkpt lat="43.979182804898265" lon="5.6029334787210665"><ele>586.1666666666666</ele><time>2026-05-03T15:02:15.998Z</time></trkpt><trkpt lat="43.9791906477041" lon="5.602794793129992"><ele>585.3333333333333</ele><time>2026-05-03T15:02:17.998Z</time></trkpt><trkpt lat="43.979204926621776" lon="5.602659604465694"><ele>584.5</ele><time>2026-05-03T15:02:19.998Z</time></trkpt><trkpt lat="43.97921266785821" lon="5.602571339530793"><ele>583.6666666666666</ele><time>2026-05-03T15:02:20.998Z</time></trkpt><trkpt lat="43.97921933767268" lon="5.602459454377205"><ele>582.8333333333334</ele><time>2026-05-03T15:02:22.998Z</time></trkpt><trkpt lat="43.979184231597195" lon="5.602347536734468"><ele>582.0</ele><time>2026-05-03T15:02:24.998Z</time></trkpt><trkpt lat="43.9791467564807" lon="5.60226999358148"><ele>581.8000000000001</ele><time>2026-05-03T15:02:25.998Z</time></trkpt><trkpt lat="43.979065136995494" lon="5.602186256036568"><ele>581.6</ele><time>2026-05-03T15:02:27.998Z</time></trkpt><trkpt lat="43.979021064839785" lon="5.6020898668602355"><ele>581.4000000000001</ele><time>2026-05-03T15:02:30Z</time></trkpt><trkpt lat="43.9790486260068" lon="5.602001367789341"><ele>581.2</ele><time>2026-05-03T15:02:32Z</time></trkpt><trkpt lat="43.97912380514975" lon="5.601915482130134"><ele>581.0</ele><time>2026-05-03T15:02:34Z</time></trkpt><trkpt lat="43.979211042380825" lon="5.601820594965768"><ele>581.0</ele><time>2026-05-03T15:02:36Z</time></trkpt><trkpt lat="43.979280314415135" lon="5.601783150617327"><ele>581.0</ele><time>2026-05-03T15:02:38Z</time></trkpt><trkpt lat="43.97936097534993" lon="5.6018508582335"><ele>581.0</ele><time>2026-05-03T15:02:40Z</time></trkpt><trkpt lat="43.97943669657541" lon="5.601945368097173"><ele>581.0</ele><time>2026-05-03T15:02:42Z</time></trkpt><trkpt lat="43.97949225038822" lon="5.601988400432757"><ele>581.0</ele><time>2026-05-03T15:02:45Z</time></trkpt><trkpt lat="43.9795386180142" lon="5.60192743596193"><ele>581.0</ele><time>2026-05-03T15:02:48Z</time></trkpt><trkpt lat="43.97948627479054" lon="5.601818315162064"><ele>581.0</ele><time>2026-05-03T15:02:51Z</time></trkpt><trkpt lat="43.97942329442394" lon="5.601734567924593"><ele>581.0</ele><time>2026-05-03T15:02:53Z</time></trkpt><trkpt lat="43.97932465349309" lon="5.601642802700481"><ele>581.0</ele><time>2026-05-03T15:02:55Z</time></trkpt><trkpt lat="43.97924009754264" lon="5.601549729795532"><ele>581.0</ele><time>2026-05-03T15:02:57Z</time></trkpt><trkpt lat="43.97919117543485" lon="5.601492522746843"><ele>581.0</ele><time>2026-05-03T15:02:58Z</time></trkpt><trkpt lat="43.979126737355024" lon="5.601418888591033"><ele>581.0</ele><time>2026-05-03T15:03:00Z</time></trkpt><trkpt lat="43.97911284504444" lon="5.601326564913562"><ele>581.0</ele><time>2026-05-03T15:03:03Z</time></trkpt><trkpt lat="43.97920061568668" lon="5.601282592504363"><ele>581.0</ele><time>2026-05-03T15:03:06Z</time></trkpt><trkpt lat="43.9792963801248" lon="5.601322221685749"><ele>581.0</ele><time>2026-05-03T15:03:08Z</time></trkpt><trkpt lat="43.97936514878236" lon="5.6013545711096215"><ele>581.0</ele><time>2026-05-03T15:03:10Z</time></trkpt><trkpt lat="43.97944033034949" lon="5.601430673175125"><ele>581.0</ele><time>2026-05-03T15:03:12Z</time></trkpt><trkpt lat="43.9794907835243" lon="5.601499174483999"><ele>581.0</ele><time>2026-05-03T15:03:14Z</time></trkpt><trkpt lat="43.9795670127671" lon="5.601572839965402"><ele>581.0</ele><time>2026-05-03T15:03:16Z</time></trkpt><trkpt lat="43.97962889794576" lon="5.601637530592832"><ele>581.0</ele><time>2026-05-03T15:03:17.999Z</time></trkpt><trkpt lat="43.979691293841036" lon="5.601699384940784"><ele>581.0</ele><time>2026-05-03T15:03:19.999Z</time></trkpt><trkpt lat="43.97974949490165" lon="5.601764267850598"><ele>581.0</ele><time>2026-05-03T15:03:21.999Z</time></trkpt><trkpt lat="43.97980384709309" lon="5.601831367035451"><ele>581.0</ele><time>2026-05-03T15:03:23.999Z</time></trkpt><trkpt lat="43.9798687875386" lon="5.601914569894452"><ele>581.0</ele><time>2026-05-03T15:03:25.999Z</time></trkpt><trkpt lat="43.979922535219984" lon="5.601987168930459"><ele>581.0</ele><time>2026-05-03T15:03:26.999Z</time></trkpt><trkpt lat="43.97994520595509" lon="5.602074791288241"><ele>581.0</ele><time>2026-05-03T15:03:27.999Z</time></trkpt><trkpt lat="43.9799907551356" lon="5.60215556603306"><ele>581.0</ele><time>2026-05-03T15:03:28.999Z</time></trkpt><trkpt lat="43.980034403007444" lon="5.602227733482426"><ele>581.0</ele><time>2026-05-03T15:03:30.999Z</time></trkpt><trkpt lat="43.98009709038394" lon="5.602289259224224"><ele>581.0</ele><time>2026-05-03T15:03:33.999Z</time></trkpt><trkpt lat="43.98013702874122" lon="5.60236643573152"><ele>581.0</ele><time>2026-05-03T15:03:36.999Z</time></trkpt><trkpt lat="43.98022095641181" lon="5.602452686924921"><ele>578.0</ele><time>2026-05-03T15:03:38.999Z</time></trkpt><trkpt lat="43.980284745013606" lon="5.602583183099866"><ele>575.0</ele><time>2026-05-03T15:03:40.999Z</time></trkpt><trkpt lat="43.98032210452908" lon="5.602687607942879"><ele>572.0</ele><time>2026-05-03T15:03:42.999Z</time></trkpt><trkpt lat="43.98036523848514" lon="5.602835369948494"><ele>569.0</ele><time>2026-05-03T15:03:44.999Z</time></trkpt><trkpt lat="43.98040242612621" lon="5.6029316293585945"><ele>566.0</ele><time>2026-05-03T15:03:46.999Z</time></trkpt><trkpt lat="43.98044722758073" lon="5.603052818291733"><ele>566.0</ele><time>2026-05-03T15:03:48.999Z</time></trkpt><trkpt lat="43.980504762554695" lon="5.603178191004932"><ele>566.0</ele><time>2026-05-03T15:03:50.999Z</time></trkpt><trkpt lat="43.98053767201526" lon="5.603304630162441"><ele>566.0</ele><time>2026-05-03T15:03:52.999Z</time></trkpt><trkpt lat="43.980576134895635" lon="5.603435557223259"><ele>566.0</ele><time>2026-05-03T15:03:54.999Z</time></trkpt><trkpt lat="43.98062344813491" lon="5.603562590589197"><ele>566.0</ele><time>2026-05-03T15:03:56.999Z</time></trkpt><trkpt lat="43.980647745562834" lon="5.603668705895654"><ele>565.4</ele><time>2026-05-03T15:03:58.999Z</time></trkpt><trkpt lat="43.98067693156002" lon="5.603805137089436"><ele>564.8</ele><time>2026-05-03T15:04:00.999Z</time></trkpt><trkpt lat="43.98072955911292" lon="5.603933217974752"><ele>564.1999999999999</ele><time>2026-05-03T15:04:02.999Z</time></trkpt><trkpt lat="43.98078533769651" lon="5.604044014433748"><ele>563.6</ele><time>2026-05-03T15:04:04.999Z</time></trkpt><trkpt lat="43.980808398614286" lon="5.6041401032375315"><ele>563.0</ele><time>2026-05-03T15:04:06.999Z</time></trkpt><trkpt lat="43.980878094103936" lon="5.6041969154351055"><ele>565.0</ele><time>2026-05-03T15:04:08.999Z</time></trkpt><trkpt lat="43.980919744677" lon="5.604272438605492"><ele>567.0</ele><time>2026-05-03T15:04:10.999Z</time></trkpt><trkpt lat="43.980945757109275" lon="5.60436497510814"><ele>569.0</ele><time>2026-05-03T15:04:12.999Z</time></trkpt><trkpt lat="43.981004786210185" lon="5.604475757342304"><ele>571.0</ele><time>2026-05-03T15:04:14.999Z</time></trkpt><trkpt lat="43.98101987266617" lon="5.6045938120772405"><ele>573.0</ele><time>2026-05-03T15:04:16.999Z</time></trkpt><trkpt lat="43.98105086359841" lon="5.6047118022832265"><ele>575.0</ele><time>2026-05-03T15:04:18.999Z</time></trkpt><trkpt lat="43.98109817634759" lon="5.604849739577342"><ele>575.0</ele><time>2026-05-03T15:04:20.999Z</time></trkpt><trkpt lat="43.981140337831754" lon="5.6049972433317"><ele>575.0</ele><time>2026-05-03T15:04:22.998Z</time></trkpt><trkpt lat="43.98119564842758" lon="5.605154046845442"><ele>575.0</ele><time>2026-05-03T15:04:24.998Z</time></trkpt><trkpt lat="43.98122537477247" lon="5.60523421768851"><ele>575.0</ele><time>2026-05-03T15:04:25.998Z</time></trkpt><trkpt lat="43.98127386390186" lon="5.605386714162596"><ele>575.0</ele><time>2026-05-03T15:04:27.998Z</time></trkpt><trkpt lat="43.981334167263924" lon="5.605533617734813"><ele>572.6</ele><time>2026-05-03T15:04:29.998Z</time></trkpt><trkpt lat="43.9813674037143" lon="5.605613380008145"><ele>570.2</ele><time>2026-05-03T15:04:30.998Z</time></trkpt><trkpt lat="43.98140807583556" lon="5.605688212275713"><ele>567.8</ele><time>2026-05-03T15:04:31.998Z</time></trkpt><trkpt lat="43.98142879396468" lon="5.605778291552896"><ele>565.4</ele><time>2026-05-03T15:04:32.998Z</time></trkpt><trkpt lat="43.98148817748499" lon="5.6059307381085235"><ele>563.0</ele><time>2026-05-03T15:04:35Z</time></trkpt><trkpt lat="43.98156203192822" lon="5.606068768489107"><ele>562.0</ele><time>2026-05-03T15:04:37Z</time></trkpt><trkpt lat="43.981608602967725" lon="5.606224987499442"><ele>561.0</ele><time>2026-05-03T15:04:39Z</time></trkpt><trkpt lat="43.98166674217411" lon="5.606352977611519"><ele>560.0</ele><time>2026-05-03T15:04:41Z</time></trkpt><trkpt lat="43.98174385309318" lon="5.606473078526112"><ele>559.0</ele><time>2026-05-03T15:04:43Z</time></trkpt><trkpt lat="43.98176699985402" lon="5.6065569394477635"><ele>558.0</ele><time>2026-05-03T15:04:44Z</time></trkpt><trkpt lat="43.981834908482355" lon="5.606693748382382"><ele>559.0</ele><time>2026-05-03T15:04:46Z</time></trkpt><trkpt lat="43.981873298693934" lon="5.606770825662572"><ele>560.0</ele><time>2026-05-03T15:04:47Z</time></trkpt><trkpt lat="43.98194390683369" lon="5.606910103193499"><ele>561.0</ele><time>2026-05-03T15:04:49Z</time></trkpt><trkpt lat="43.98201582701105" lon="5.607049347388819"><ele>562.0</ele><time>2026-05-03T15:04:51Z</time></trkpt><trkpt lat="43.98208737054576" lon="5.607185226561528"><ele>563.0</ele><time>2026-05-03T15:04:53Z</time></trkpt><trkpt lat="43.98212538002354" lon="5.607257416120476"><ele>563.0</ele><time>2026-05-03T15:04:54Z</time></trkpt><trkpt lat="43.982206743611165" lon="5.607387992468461"><ele>563.0</ele><time>2026-05-03T15:04:56Z</time></trkpt><trkpt lat="43.982245775159676" lon="5.607468196387812"><ele>563.0</ele><time>2026-05-03T15:04:57Z</time></trkpt><trkpt lat="43.98226825497626" lon="5.607553432547179"><ele>563.0</ele><time>2026-05-03T15:04:58Z</time></trkpt><trkpt lat="43.9823314864446" lon="5.607713866300138"><ele>563.0</ele><time>2026-05-03T15:05:00Z</time></trkpt><trkpt lat="43.98238890771831" lon="5.607877900740966"><ele>563.0</ele><time>2026-05-03T15:05:02Z</time></trkpt><trkpt lat="43.98241371881957" lon="5.607963275804517"><ele>563.0</ele><time>2026-05-03T15:05:03Z</time></trkpt><trkpt lat="43.982431927251355" lon="5.608052230941405"><ele>563.0</ele><time>2026-05-03T15:05:04Z</time></trkpt><trkpt lat="43.982447065565964" lon="5.60814530680052"><ele>563.0</ele><time>2026-05-03T15:05:05Z</time></trkpt><trkpt lat="43.982455821322716" lon="5.608236679057711"><ele>563.0</ele><time>2026-05-03T15:05:06Z</time></trkpt><trkpt lat="43.98245812898642" lon="5.608331973058028"><ele>563.0</ele><time>2026-05-03T15:05:07Z</time></trkpt><trkpt lat="43.98246033095681" lon="5.608425267174442"><ele>563.0</ele><time>2026-05-03T15:05:08Z</time></trkpt><trkpt lat="43.98247618332848" lon="5.608518420831701"><ele>563.0</ele><time>2026-05-03T15:05:09Z</time></trkpt><trkpt lat="43.98247647717568" lon="5.60860761521177"><ele>563.0</ele><time>2026-05-03T15:05:10Z</time></trkpt><trkpt lat="43.98247813297073" lon="5.608703383403599"><ele>563.0</ele><time>2026-05-03T15:05:11Z</time></trkpt><trkpt lat="43.982484202360425" lon="5.608805460318009"><ele>563.0</ele><time>2026-05-03T15:05:12Z</time></trkpt><trkpt lat="43.98249545669964" lon="5.608899457219636"><ele>563.0</ele><time>2026-05-03T15:05:13Z</time></trkpt><trkpt lat="43.98251448570099" lon="5.608990699818384"><ele>563.0</ele><time>2026-05-03T15:05:14Z</time></trkpt><trkpt lat="43.98254343220869" lon="5.6090788966777145"><ele>563.0</ele><time>2026-05-03T15:05:15Z</time></trkpt><trkpt lat="43.98258064100856" lon="5.609160607679853"><ele>563.1428571428571</ele><time>2026-05-03T15:05:16Z</time></trkpt><trkpt lat="43.98262542694825" lon="5.609243995162026"><ele>563.2857142857143</ele><time>2026-05-03T15:05:17Z</time></trkpt><trkpt lat="43.98266795169374" lon="5.6093256944118295"><ele>563.4285714285714</ele><time>2026-05-03T15:05:18Z</time></trkpt><trkpt lat="43.98271597693412" lon="5.609386388653982"><ele>563.5714285714286</ele><time>2026-05-03T15:05:19Z</time></trkpt><trkpt lat="43.9827626647299" lon="5.609461063717546"><ele>563.7142857142857</ele><time>2026-05-03T15:05:19.999Z</time></trkpt><trkpt lat="43.98282259356482" lon="5.609532674128411"><ele>563.8571428571429</ele><time>2026-05-03T15:05:20.999Z</time></trkpt><trkpt lat="43.982874258267394" lon="5.609600227692263"><ele>564.0</ele><time>2026-05-03T15:05:21.999Z</time></trkpt><trkpt lat="43.98292627530906" lon="5.6096740450682105"><ele>564.0</ele><time>2026-05-03T15:05:22.999Z</time></trkpt><trkpt lat="43.982978155932514" lon="5.609738771137944"><ele>564.0</ele><time>2026-05-03T15:05:23.999Z</time></trkpt><trkpt lat="43.983032755180986" lon="5.609810269979124"><ele>564.0</ele><time>2026-05-03T15:05:24.999Z</time></trkpt><trkpt lat="43.98308472048995" lon="5.6098688726993"><ele>564.0</ele><time>2026-05-03T15:05:25.999Z</time></trkpt><trkpt lat="43.983136683704174" lon="5.609933867057725"><ele>564.0</ele><time>2026-05-03T15:05:26.999Z</time></trkpt><trkpt lat="43.983183424507274" lon="5.609999143901608"><ele>564.0</ele><time>2026-05-03T15:05:27.999Z</time></trkpt><trkpt lat="43.98322780242036" lon="5.610072282731283"><ele>564.0</ele><time>2026-05-03T15:05:28.999Z</time></trkpt><trkpt lat="43.98326634531274" lon="5.61015341079886"><ele>564.0</ele><time>2026-05-03T15:05:29.999Z</time></trkpt><trkpt lat="43.983300192214145" lon="5.610238342728732"><ele>564.0</ele><time>2026-05-03T15:05:30.999Z</time></trkpt><trkpt lat="43.98335395255528" lon="5.610395398875739"><ele>564.0</ele><time>2026-05-03T15:05:32.999Z</time></trkpt><trkpt lat="43.983383013514484" lon="5.610565249898688"><ele>564.0</ele><time>2026-05-03T15:05:34.999Z</time></trkpt><trkpt lat="43.983356346703765" lon="5.610651004438412"><ele>564.0</ele><time>2026-05-03T15:05:35.999Z</time></trkpt><trkpt lat="43.983314647905544" lon="5.610820484535704"><ele>562.2857142857143</ele><time>2026-05-03T15:05:37.999Z</time></trkpt><trkpt lat="43.98329016601928" lon="5.610910865876046"><ele>560.5714285714286</ele><time>2026-05-03T15:05:38.999Z</time></trkpt><trkpt lat="43.98326267932017" lon="5.610998131459533"><ele>558.8571428571429</ele><time>2026-05-03T15:05:39.999Z</time></trkpt><trkpt lat="43.98323385333392" lon="5.611088854685363"><ele>557.1428571428571</ele><time>2026-05-03T15:05:40.999Z</time></trkpt><trkpt lat="43.98322215189199" lon="5.6111884865677375"><ele>555.4285714285714</ele><time>2026-05-03T15:05:41.999Z</time></trkpt><trkpt lat="43.98319916397542" lon="5.611280018484305"><ele>553.7142857142858</ele><time>2026-05-03T15:05:42.999Z</time></trkpt><trkpt lat="43.98316676965876" lon="5.611370754330985"><ele>552.0</ele><time>2026-05-03T15:05:43.999Z</time></trkpt><trkpt lat="43.98314113706236" lon="5.611468166281805"><ele>551.7142857142858</ele><time>2026-05-03T15:05:44.999Z</time></trkpt><trkpt lat="43.9831158612151" lon="5.611565693633047"><ele>551.4285714285714</ele><time>2026-05-03T15:05:45.999Z</time></trkpt><trkpt lat="43.98308816906274" lon="5.611664130628106"><ele>551.1428571428571</ele><time>2026-05-03T15:05:46.999Z</time></trkpt><trkpt lat="43.983058598691315" lon="5.611755721926823"><ele>550.8571428571429</ele><time>2026-05-03T15:05:47.999Z</time></trkpt><trkpt lat="43.98302461519983" lon="5.611843785144282"><ele>550.5714285714286</ele><time>2026-05-03T15:05:48.999Z</time></trkpt><trkpt lat="43.982985004379344" lon="5.611929889574086"><ele>550.2857142857143</ele><time>2026-05-03T15:05:49.999Z</time></trkpt><trkpt lat="43.9829440893153" lon="5.612017979253469"><ele>550.0</ele><time>2026-05-03T15:05:50.999Z</time></trkpt><trkpt lat="43.98290169310844" lon="5.612107396291176"><ele>550.8571428571429</ele><time>2026-05-03T15:05:51.999Z</time></trkpt><trkpt lat="43.982860779908044" lon="5.612194272584959"><ele>551.7142857142857</ele><time>2026-05-03T15:05:52.999Z</time></trkpt><trkpt lat="43.98281904116105" lon="5.612280157000069"><ele>552.5714285714286</ele><time>2026-05-03T15:05:53.999Z</time></trkpt><trkpt lat="43.98277768854787" lon="5.612368508352743"><ele>553.4285714285714</ele><time>2026-05-03T15:05:54.999Z</time></trkpt><trkpt lat="43.98273774654111" lon="5.612451425365128"><ele>554.2857142857143</ele><time>2026-05-03T15:05:55.999Z</time></trkpt><trkpt lat="43.98270085087189" lon="5.612534915878153"><ele>555.1428571428571</ele><time>2026-05-03T15:05:56.999Z</time></trkpt><trkpt lat="43.982669636165724" lon="5.61262222177428"><ele>556.0</ele><time>2026-05-03T15:05:57.999Z</time></trkpt><trkpt lat="43.98264303348519" lon="5.6127149121062345"><ele>556.0</ele><time>2026-05-03T15:05:58.999Z</time></trkpt><trkpt lat="43.982633029843896" lon="5.612810436684691"><ele>556.0</ele><time>2026-05-03T15:05:59.999Z</time></trkpt><trkpt lat="43.9826334132901" lon="5.61290779412918"><ele>556.0</ele><time>2026-05-03T15:06:00.999Z</time></trkpt><trkpt lat="43.982641203765326" lon="5.612999423039086"><ele>556.0</ele><time>2026-05-03T15:06:01.999Z</time></trkpt><trkpt lat="43.982654061258685" lon="5.613095717206951"><ele>556.0</ele><time>2026-05-03T15:06:02.999Z</time></trkpt><trkpt lat="43.98267599174944" lon="5.613191776093737"><ele>556.0</ele><time>2026-05-03T15:06:03.999Z</time></trkpt><trkpt lat="43.98269480647431" lon="5.613289703152631"><ele>556.0</ele><time>2026-05-03T15:06:04.999Z</time></trkpt><trkpt lat="43.982717305427805" lon="5.613385603596487"><ele>555.7142857142857</ele><time>2026-05-03T15:06:05.999Z</time></trkpt><trkpt lat="43.982739606631526" lon="5.613485821729459"><ele>555.4285714285714</ele><time>2026-05-03T15:06:06.999Z</time></trkpt><trkpt lat="43.98275891064164" lon="5.613582446103825"><ele>555.1428571428571</ele><time>2026-05-03T15:06:07.999Z</time></trkpt><trkpt lat="43.982783978735384" lon="5.613681079863776"><ele>554.8571428571429</ele><time>2026-05-03T15:06:08.999Z</time></trkpt><trkpt lat="43.98280611341234" lon="5.613780304013638"><ele>554.5714285714286</ele><time>2026-05-03T15:06:09.999Z</time></trkpt><trkpt lat="43.98282734918473" lon="5.61387396915286"><ele>554.2857142857142</ele><time>2026-05-03T15:06:10.999Z</time></trkpt><trkpt lat="43.98285244665147" lon="5.613968427097647"><ele>554.0</ele><time>2026-05-03T15:06:11.999Z</time></trkpt><trkpt lat="43.98287058897982" lon="5.614059889382284"><ele>553.1666666666666</ele><time>2026-05-03T15:06:12.999Z</time></trkpt><trkpt lat="43.98289491524862" lon="5.6141538028483495"><ele>552.3333333333333</ele><time>2026-05-03T15:06:13.999Z</time></trkpt><trkpt lat="43.982917812354785" lon="5.614236761084621"><ele>551.5</ele><time>2026-05-03T15:06:14.999Z</time></trkpt><trkpt lat="43.982944246784314" lon="5.614326900878056"><ele>550.6666666666666</ele><time>2026-05-03T15:06:15.999Z</time></trkpt><trkpt lat="43.982987037183406" lon="5.614479246497337"><ele>549.8333333333334</ele><time>2026-05-03T15:06:17.999Z</time></trkpt><trkpt lat="43.983022870536054" lon="5.614626667495458"><ele>549.0</ele><time>2026-05-03T15:06:19.999Z</time></trkpt><trkpt lat="43.98308611274039" lon="5.61474594146329"><ele>548.8333333333334</ele><time>2026-05-03T15:06:21.999Z</time></trkpt><trkpt lat="43.983134314089575" lon="5.614847378203324"><ele>548.6666666666666</ele><time>2026-05-03T15:06:23.999Z</time></trkpt><trkpt lat="43.98317399004956" lon="5.614929463721696"><ele>548.5</ele><time>2026-05-03T15:06:25.999Z</time></trkpt><trkpt lat="43.98321195113624" lon="5.614999785049335"><ele>548.3333333333333</ele><time>2026-05-03T15:06:27.998Z</time></trkpt><trkpt lat="43.98326418176104" lon="5.615063912400081"><ele>548.1666666666666</ele><time>2026-05-03T15:06:30.998Z</time></trkpt><trkpt lat="43.98332350451926" lon="5.615139593771962"><ele>548.0</ele><time>2026-05-03T15:06:47Z</time></trkpt><trkpt lat="43.98339975230548" lon="5.615230137665308"><ele>548.4</ele><time>2026-05-03T15:06:49Z</time></trkpt><trkpt lat="43.98346568202933" lon="5.615339849434566"><ele>548.8</ele><time>2026-05-03T15:06:51Z</time></trkpt><trkpt lat="43.98355028374203" lon="5.615447164971384"><ele>549.2</ele><time>2026-05-03T15:06:53Z</time></trkpt><trkpt lat="43.98363231956377" lon="5.615556624589719"><ele>549.6</ele><time>2026-05-03T15:06:55Z</time></trkpt><trkpt lat="43.98371111141693" lon="5.615676346925532"><ele>550.0</ele><time>2026-05-03T15:06:57Z</time></trkpt><trkpt lat="43.983756367991106" lon="5.615742683904879"><ele>550.0</ele><time>2026-05-03T15:06:58Z</time></trkpt><trkpt lat="43.98385279620594" lon="5.615866012666654"><ele>550.0</ele><time>2026-05-03T15:07:00Z</time></trkpt><trkpt lat="43.98389855953775" lon="5.615928910950422"><ele>550.0</ele><time>2026-05-03T15:07:01Z</time></trkpt><trkpt lat="43.983940915941986" lon="5.61600010961639"><ele>550.0</ele><time>2026-05-03T15:07:02Z</time></trkpt><trkpt lat="43.983986707781604" lon="5.616064658533842"><ele>550.0</ele><time>2026-05-03T15:07:03Z</time></trkpt><trkpt lat="43.984076814247736" lon="5.616189881972182"><ele>549.4285714285714</ele><time>2026-05-03T15:07:05Z</time></trkpt><trkpt lat="43.98412740941381" lon="5.616259639970155"><ele>548.8571428571429</ele><time>2026-05-03T15:07:06Z</time></trkpt><trkpt lat="43.98417787786068" lon="5.616329020241229"><ele>548.2857142857142</ele><time>2026-05-03T15:07:07Z</time></trkpt><trkpt lat="43.98422705143173" lon="5.616393969069722"><ele>547.7142857142858</ele><time>2026-05-03T15:07:08Z</time></trkpt><trkpt lat="43.98427968248663" lon="5.616459650423806"><ele>547.1428571428571</ele><time>2026-05-03T15:07:09Z</time></trkpt><trkpt lat="43.98433123355385" lon="5.616524544934704"><ele>546.5714285714286</ele><time>2026-05-03T15:07:10Z</time></trkpt><trkpt lat="43.984379835082706" lon="5.616594632553159"><ele>546.0</ele><time>2026-05-03T15:07:11Z</time></trkpt><trkpt lat="43.984426792114306" lon="5.61666462839007"><ele>547.1428571428571</ele><time>2026-05-03T15:07:12Z</time></trkpt><trkpt lat="43.98447867013771" lon="5.616735895026567"><ele>548.2857142857142</ele><time>2026-05-03T15:07:13Z</time></trkpt><trkpt lat="43.98453211962412" lon="5.616799995548419"><ele>549.4285714285714</ele><time>2026-05-03T15:07:14Z</time></trkpt><trkpt lat="43.98458310490483" lon="5.616868399948765"><ele>550.5714285714286</ele><time>2026-05-03T15:07:15Z</time></trkpt><trkpt lat="43.9846321333694" lon="5.616934062661386"><ele>551.7142857142857</ele><time>2026-05-03T15:07:16Z</time></trkpt><trkpt lat="43.984678838013394" lon="5.617003878825254"><ele>552.8571428571429</ele><time>2026-05-03T15:07:17Z</time></trkpt><trkpt lat="43.984728007729124" lon="5.617075877333507"><ele>554.0</ele><time>2026-05-03T15:07:18Z</time></trkpt><trkpt lat="43.98477391214036" lon="5.617150363820649"><ele>554.0</ele><time>2026-05-03T15:07:19Z</time></trkpt><trkpt lat="43.9848234413893" lon="5.617220987177906"><ele>554.0</ele><time>2026-05-03T15:07:20Z</time></trkpt><trkpt lat="43.98484950135227" lon="5.617316859662375"><ele>554.0</ele><time>2026-05-03T15:07:21Z</time></trkpt><trkpt lat="43.984903074363345" lon="5.617388979836055"><ele>554.0</ele><time>2026-05-03T15:07:22Z</time></trkpt><trkpt lat="43.98493689780424" lon="5.617475819689276"><ele>554.0</ele><time>2026-05-03T15:07:23Z</time></trkpt><trkpt lat="43.98497538216811" lon="5.617559270527229"><ele>554.0</ele><time>2026-05-03T15:07:24Z</time></trkpt><trkpt lat="43.98501018360513" lon="5.617641795834159"><ele>554.0</ele><time>2026-05-03T15:07:25Z</time></trkpt><trkpt lat="43.98503275984065" lon="5.617734712742897"><ele>554.7142857142857</ele><time>2026-05-03T15:07:26Z</time></trkpt><trkpt lat="43.9850657268017" lon="5.617818761748134"><ele>555.4285714285713</ele><time>2026-05-03T15:07:26.999Z</time></trkpt><trkpt lat="43.98510003133103" lon="5.617901262187488"><ele>556.1428571428571</ele><time>2026-05-03T15:07:27.999Z</time></trkpt><trkpt lat="43.98513318542694" lon="5.617983919271581"><ele>556.8571428571429</ele><time>2026-05-03T15:07:28.999Z</time></trkpt><trkpt lat="43.9851680529208" lon="5.618068596674257"><ele>557.5714285714287</ele><time>2026-05-03T15:07:29.999Z</time></trkpt><trkpt lat="43.98520444758572" lon="5.618152414408936"><ele>558.2857142857143</ele><time>2026-05-03T15:07:30.999Z</time></trkpt><trkpt lat="43.98524118810321" lon="5.618240506044136"><ele>559.0</ele><time>2026-05-03T15:07:31.999Z</time></trkpt><trkpt lat="43.98527356819933" lon="5.618333355024613"><ele>559.0</ele><time>2026-05-03T15:07:32.999Z</time></trkpt><trkpt lat="43.98530102878491" lon="5.618427339061173"><ele>559.0</ele><time>2026-05-03T15:07:33.999Z</time></trkpt><trkpt lat="43.98533576574224" lon="5.6185216346675695"><ele>559.0</ele><time>2026-05-03T15:07:34.999Z</time></trkpt><trkpt lat="43.985374168075566" lon="5.6186103276374535"><ele>559.0</ele><time>2026-05-03T15:07:35.999Z</time></trkpt><trkpt lat="43.98541131153749" lon="5.618703948273428"><ele>559.0</ele><time>2026-05-03T15:07:36.999Z</time></trkpt><trkpt lat="43.985444741134025" lon="5.618803615164286"><ele>559.0</ele><time>2026-05-03T15:07:37.999Z</time></trkpt><trkpt lat="43.985484184672586" lon="5.618891501405218"><ele>558.3333333333334</ele><time>2026-05-03T15:07:38.999Z</time></trkpt><trkpt lat="43.985520647344345" lon="5.618986048904718"><ele>557.6666666666667</ele><time>2026-05-03T15:07:39.999Z</time></trkpt><trkpt lat="43.985556403811415" lon="5.61908298825666"><ele>557.0</ele><time>2026-05-03T15:07:40.999Z</time></trkpt><trkpt lat="43.9855921556939" lon="5.6191755666810845"><ele>556.3333333333334</ele><time>2026-05-03T15:07:41.999Z</time></trkpt><trkpt lat="43.985628318300385" lon="5.6192691088914986"><ele>555.6666666666666</ele><time>2026-05-03T15:07:42.999Z</time></trkpt><trkpt lat="43.985671117811734" lon="5.619364312601406"><ele>555.0</ele><time>2026-05-03T15:07:43.999Z</time></trkpt><trkpt lat="43.98570419648667" lon="5.619454073460663"><ele>554.5</ele><time>2026-05-03T15:07:44.999Z</time></trkpt><trkpt lat="43.98574077588326" lon="5.619539749201574"><ele>554.0</ele><time>2026-05-03T15:07:45.999Z</time></trkpt><trkpt lat="43.98577745143207" lon="5.6196331360282175"><ele>553.5</ele><time>2026-05-03T15:07:46.999Z</time></trkpt><trkpt lat="43.98581596960886" lon="5.619731384887777"><ele>553.0</ele><time>2026-05-03T15:07:47.999Z</time></trkpt><trkpt lat="43.98585106749201" lon="5.619826672132611"><ele>552.5</ele><time>2026-05-03T15:07:48.999Z</time></trkpt><trkpt lat="43.98588621390518" lon="5.619920866028312"><ele>552.0</ele><time>2026-05-03T15:07:49.999Z</time></trkpt><trkpt lat="43.98592425027753" lon="5.620011390030827"><ele>553.5</ele><time>2026-05-03T15:07:50.999Z</time></trkpt><trkpt lat="43.98596727732154" lon="5.620104211977117"><ele>555.0</ele><time>2026-05-03T15:07:51.999Z</time></trkpt><trkpt lat="43.98600525395219" lon="5.620196285403606"><ele>556.5</ele><time>2026-05-03T15:07:52.999Z</time></trkpt><trkpt lat="43.98604085851132" lon="5.6202837149108875"><ele>558.0</ele><time>2026-05-03T15:07:53.999Z</time></trkpt><trkpt lat="43.98607343489193" lon="5.620378805944142"><ele>559.5</ele><time>2026-05-03T15:07:54.999Z</time></trkpt><trkpt lat="43.986107616700956" lon="5.62047185917222"><ele>561.0</ele><time>2026-05-03T15:07:55.999Z</time></trkpt><trkpt lat="43.986142149369826" lon="5.620563123386515"><ele>561.0</ele><time>2026-05-03T15:07:56.999Z</time></trkpt><trkpt lat="43.98618041623895" lon="5.620649730965956"><ele>561.0</ele><time>2026-05-03T15:07:57.999Z</time></trkpt><trkpt lat="43.986213434989004" lon="5.620737985832867"><ele>561.0</ele><time>2026-05-03T15:07:58.999Z</time></trkpt><trkpt lat="43.98624102381241" lon="5.620823912588313"><ele>561.0</ele><time>2026-05-03T15:07:59.999Z</time></trkpt><trkpt lat="43.98627167111008" lon="5.620911756739202"><ele>561.0</ele><time>2026-05-03T15:08:00.999Z</time></trkpt><trkpt lat="43.98630370625898" lon="5.620994415519215"><ele>561.0</ele><time>2026-05-03T15:08:01.999Z</time></trkpt><trkpt lat="43.9863412409114" lon="5.621071046243989"><ele>561.0</ele><time>2026-05-03T15:08:02.999Z</time></trkpt><trkpt lat="43.98638433408565" lon="5.621141063275325"><ele>560.7142857142857</ele><time>2026-05-03T15:08:03.999Z</time></trkpt><trkpt lat="43.98644115728565" lon="5.621199997297833"><ele>560.4285714285713</ele><time>2026-05-03T15:08:04.999Z</time></trkpt><trkpt lat="43.98650102329998" lon="5.621252580672412"><ele>560.1428571428571</ele><time>2026-05-03T15:08:05.999Z</time></trkpt><trkpt lat="43.98656237279076" lon="5.621302628620133"><ele>559.8571428571429</ele><time>2026-05-03T15:08:06.999Z</time></trkpt><trkpt lat="43.986629996057864" lon="5.621348044769678"><ele>559.5714285714287</ele><time>2026-05-03T15:08:07.999Z</time></trkpt><trkpt lat="43.9866934393339" lon="5.621392353704411"><ele>559.2857142857143</ele><time>2026-05-03T15:08:08.999Z</time></trkpt><trkpt lat="43.98676037612712" lon="5.62143185900656"><ele>559.0</ele><time>2026-05-03T15:08:09.999Z</time></trkpt><trkpt lat="43.98683558503189" lon="5.6214624578696935"><ele>559.5714285714286</ele><time>2026-05-03T15:08:10.999Z</time></trkpt><trkpt lat="43.98691068807764" lon="5.62149070034541"><ele>560.1428571428572</ele><time>2026-05-03T15:08:11.999Z</time></trkpt><trkpt lat="43.98698119163325" lon="5.621513089447223"><ele>560.7142857142858</ele><time>2026-05-03T15:08:12.999Z</time></trkpt><trkpt lat="43.987052423613" lon="5.621530271777094"><ele>561.2857142857143</ele><time>2026-05-03T15:08:13.999Z</time></trkpt><trkpt lat="43.98712398111685" lon="5.621541302600773"><ele>561.8571428571429</ele><time>2026-05-03T15:08:14.999Z</time></trkpt><trkpt lat="43.98719052503347" lon="5.621549030094026"><ele>562.4285714285714</ele><time>2026-05-03T15:08:15.999Z</time></trkpt><trkpt lat="43.98725561600068" lon="5.6215533951488945"><ele>563.0</ele><time>2026-05-03T15:08:16.999Z</time></trkpt><trkpt lat="43.98731922835109" lon="5.621558127955223"><ele>563.0</ele><time>2026-05-03T15:08:17.999Z</time></trkpt><trkpt lat="43.98744395563461" lon="5.621562420655424"><ele>563.0</ele><time>2026-05-03T15:08:19.999Z</time></trkpt><trkpt lat="43.98755156664259" lon="5.621632454268052"><ele>563.0</ele><time>2026-05-03T15:08:21.999Z</time></trkpt><trkpt lat="43.98758248287786" lon="5.62171781351297"><ele>563.0</ele><time>2026-05-03T15:08:23.999Z</time></trkpt><trkpt lat="43.9875844541676" lon="5.621822002353766"><ele>563.0</ele><time>2026-05-03T15:08:25.999Z</time></trkpt><trkpt lat="43.98757204470833" lon="5.621924283175031"><ele>563.6666666666666</ele><time>2026-05-03T15:08:28.999Z</time></trkpt><trkpt lat="43.987835219698205" lon="5.621861969494986"><ele>564.3333333333334</ele><time>2026-05-03T15:08:33.998Z</time></trkpt><trkpt lat="43.98792474955378" lon="5.621808086600095"><ele>565.0</ele><time>2026-05-03T15:08:35.998Z</time></trkpt><trkpt lat="43.988015189536384" lon="5.6217624561649995"><ele>565.0</ele><time>2026-05-03T15:08:37.998Z</time></trkpt><trkpt lat="43.98809838738161" lon="5.621677056382361"><ele>565.0</ele><time>2026-05-03T15:08:39.998Z</time></trkpt><trkpt lat="43.988178335487326" lon="5.621588287710101"><ele>565.0</ele><time>2026-05-03T15:08:41.998Z</time></trkpt><trkpt lat="43.988270642737476" lon="5.621518445858738"><ele>565.0</ele><time>2026-05-03T15:08:43.998Z</time></trkpt><trkpt lat="43.98838414748868" lon="5.621508071514409"><ele>565.0</ele><time>2026-05-03T15:08:45.998Z</time></trkpt><trkpt lat="43.98845279287135" lon="5.6215063258663145"><ele>565.4</ele><time>2026-05-03T15:08:47Z</time></trkpt><trkpt lat="43.98856146961468" lon="5.621502711582595"><ele>565.8</ele><time>2026-05-03T15:08:49Z</time></trkpt><trkpt lat="43.98865080164963" lon="5.621566416438955"><ele>566.2</ele><time>2026-05-03T15:08:51Z</time></trkpt><trkpt lat="43.98869990976746" lon="5.621635293007643"><ele>566.6</ele><time>2026-05-03T15:08:53Z</time></trkpt><trkpt lat="43.98876465146495" lon="5.621698215859853"><ele>567.0</ele><time>2026-05-03T15:08:56Z</time></trkpt><trkpt lat="43.988863292550406" lon="5.621733537986741"><ele>567.0</ele><time>2026-05-03T15:08:59Z</time></trkpt><trkpt lat="43.988934197823646" lon="5.621766377951683"><ele>567.0</ele><time>2026-05-03T15:09:01Z</time></trkpt><trkpt lat="43.98901553259223" lon="5.621792965060924"><ele>567.0</ele><time>2026-05-03T15:09:03Z</time></trkpt><trkpt lat="43.989076535061436" lon="5.621832862610113"><ele>567.0</ele><time>2026-05-03T15:09:05Z</time></trkpt><trkpt lat="43.98915820618442" lon="5.62187297762654"><ele>567.0</ele><time>2026-05-03T15:09:08Z</time></trkpt><trkpt lat="43.98924127391831" lon="5.621870244412603"><ele>567.0</ele><time>2026-05-03T15:09:10Z</time></trkpt><trkpt lat="43.98931732995753" lon="5.621868580015038"><ele>567.8333333333334</ele><time>2026-05-03T15:09:12Z</time></trkpt><trkpt lat="43.989376304335586" lon="5.621934778629774"><ele>568.6666666666666</ele><time>2026-05-03T15:09:15Z</time></trkpt><trkpt lat="43.9894528574713" lon="5.622005488726628"><ele>569.5</ele><time>2026-05-03T15:09:23Z</time></trkpt><trkpt lat="43.98952061499981" lon="5.622054327751635"><ele>570.3333333333333</ele><time>2026-05-03T15:09:26Z</time></trkpt><trkpt lat="43.98959945073743" lon="5.622088033469689"><ele>571.1666666666666</ele><time>2026-05-03T15:09:37.999Z</time></trkpt><trkpt lat="43.989529473768556" lon="5.622097018877372"><ele>572.0</ele><time>2026-05-03T15:10:30.999Z</time></trkpt><trkpt lat="43.98946855362888" lon="5.62203885223994"><ele>572.8333333333333</ele><time>2026-05-03T15:10:33.999Z</time></trkpt><trkpt lat="43.9893953731052" lon="5.62196788090005"><ele>573.6666666666666</ele><time>2026-05-03T15:10:36.999Z</time></trkpt><trkpt lat="43.98932819649183" lon="5.621896291371356"><ele>574.5</ele><time>2026-05-03T15:10:39.998Z</time></trkpt><trkpt lat="43.98924757759994" lon="5.621877797924924"><ele>575.3333333333334</ele><time>2026-05-03T15:10:42.998Z</time></trkpt><trkpt lat="43.98916725191182" lon="5.621876927678451"><ele>576.1666666666667</ele><time>2026-05-03T15:10:45.998Z</time></trkpt><trkpt lat="43.989086482117486" lon="5.62183513326815"><ele>577.0</ele><time>2026-05-03T15:10:48.998Z</time></trkpt><trkpt lat="43.989008157245316" lon="5.621797612356492"><ele>575.3333333333334</ele><time>2026-05-03T15:10:50.998Z</time></trkpt><trkpt lat="43.98893439163773" lon="5.621770872134228"><ele>573.6666666666667</ele><time>2026-05-03T15:10:53Z</time></trkpt><trkpt lat="43.98886838607314" lon="5.621750693869218"><ele>572.0</ele><time>2026-05-03T15:10:55Z</time></trkpt><trkpt lat="43.98879601621327" lon="5.621707784301779"><ele>570.3333333333334</ele><time>2026-05-03T15:10:58Z</time></trkpt><trkpt lat="43.98872776651218" lon="5.6216659480892295"><ele>568.6666666666666</ele><time>2026-05-03T15:11:01Z</time></trkpt><trkpt lat="43.9886644502506" lon="5.621606149376268"><ele>567.0</ele><time>2026-05-03T15:11:03Z</time></trkpt><trkpt lat="43.98859645508248" lon="5.621552215248731"><ele>567.0</ele><time>2026-05-03T15:11:05Z</time></trkpt><trkpt lat="43.988502041478625" lon="5.621534993785016"><ele>567.0</ele><time>2026-05-03T15:11:07Z</time></trkpt><trkpt lat="43.98831857081967" lon="5.621542456425457"><ele>567.0</ele><time>2026-05-03T15:11:09Z</time></trkpt><trkpt lat="43.988245682477505" lon="5.621549875162799"><ele>567.0</ele><time>2026-05-03T15:11:10Z</time></trkpt><trkpt lat="43.98817505485822" lon="5.621591954826827"><ele>567.0</ele><time>2026-05-03T15:11:11Z</time></trkpt><trkpt lat="43.98810361265973" lon="5.621649402851728"><ele>566.6</ele><time>2026-05-03T15:11:12Z</time></trkpt><trkpt lat="43.988030833358735" lon="5.621721562588843"><ele>566.2</ele><time>2026-05-03T15:11:13Z</time></trkpt><trkpt lat="43.98797204596137" lon="5.621780813341121"><ele>565.8</ele><time>2026-05-03T15:11:14Z</time></trkpt><trkpt lat="43.98785604431576" lon="5.621823253477649"><ele>565.4</ele><time>2026-05-03T15:11:16Z</time></trkpt><trkpt lat="43.98773957721099" lon="5.621897506560367"><ele>565.0</ele><time>2026-05-03T15:11:18Z</time></trkpt><trkpt lat="43.98764220089808" lon="5.6219106317335825"><ele>565.0</ele><time>2026-05-03T15:11:20Z</time></trkpt><trkpt lat="43.98756278774777" lon="5.621974979572287"><ele>565.0</ele><time>2026-05-03T15:11:23Z</time></trkpt><trkpt lat="43.9874962090311" lon="5.622066485979242"><ele>565.0</ele><time>2026-05-03T15:11:25Z</time></trkpt><trkpt lat="43.987409180182205" lon="5.622134245052151"><ele>565.0</ele><time>2026-05-03T15:11:27Z</time></trkpt><trkpt lat="43.987314476999025" lon="5.622161800809721"><ele>565.0</ele><time>2026-05-03T15:11:29Z</time></trkpt><trkpt lat="43.98722807984157" lon="5.6221693999957045"><ele>566.0</ele><time>2026-05-03T15:11:31Z</time></trkpt><trkpt lat="43.987121449626045" lon="5.622127882353707"><ele>567.0</ele><time>2026-05-03T15:11:33Z</time></trkpt><trkpt lat="43.98700473543792" lon="5.622092425730564"><ele>568.0</ele><time>2026-05-03T15:11:35Z</time></trkpt><trkpt lat="43.98694039635858" lon="5.6220761357708895"><ele>569.0</ele><time>2026-05-03T15:11:35.999Z</time></trkpt><trkpt lat="43.98687064664461" lon="5.622064197215052"><ele>570.0</ele><time>2026-05-03T15:11:36.999Z</time></trkpt><trkpt lat="43.98680206609815" lon="5.622055143309832"><ele>571.0</ele><time>2026-05-03T15:11:37.999Z</time></trkpt><trkpt lat="43.98673418412335" lon="5.622044185036852"><ele>571.2857142857143</ele><time>2026-05-03T15:11:38.999Z</time></trkpt><trkpt lat="43.98666562744927" lon="5.622028537974742"><ele>571.5714285714286</ele><time>2026-05-03T15:11:39.999Z</time></trkpt><trkpt lat="43.98660222880491" lon="5.622005549253508"><ele>571.8571428571429</ele><time>2026-05-03T15:11:40.999Z</time></trkpt><trkpt lat="43.986538255310094" lon="5.621979009300749"><ele>572.1428571428571</ele><time>2026-05-03T15:11:41.999Z</time></trkpt><trkpt lat="43.98647714602364" lon="5.621955255404513"><ele>572.4285714285714</ele><time>2026-05-03T15:11:42.999Z</time></trkpt><trkpt lat="43.98641544391798" lon="5.621934044279354"><ele>572.7142857142858</ele><time>2026-05-03T15:11:43.999Z</time></trkpt><trkpt lat="43.98631876457755" lon="5.621901399121779"><ele>573.0</ele><time>2026-05-03T15:11:45.999Z</time></trkpt><trkpt lat="43.98632167359882" lon="5.622043426556467"><ele>573.0</ele><time>2026-05-03T15:11:52.999Z</time></trkpt><trkpt lat="43.986390928736675" lon="5.622089912640724"><ele>573.0</ele><time>2026-05-03T15:11:54.999Z</time></trkpt><trkpt lat="43.98646963206996" lon="5.622148148408135"><ele>573.0</ele><time>2026-05-03T15:11:56.999Z</time></trkpt><trkpt lat="43.986555224871594" lon="5.622210835442368"><ele>573.0</ele><time>2026-05-03T15:11:58.999Z</time></trkpt><trkpt lat="43.98664378927943" lon="5.622278585120612"><ele>573.0</ele><time>2026-05-03T15:12:00.999Z</time></trkpt><trkpt lat="43.98674840036199" lon="5.622339060100239"><ele>572.6666666666666</ele><time>2026-05-03T15:12:02.999Z</time></trkpt><trkpt lat="43.986853526784984" lon="5.622390031678372"><ele>572.3333333333334</ele><time>2026-05-03T15:12:04.999Z</time></trkpt><trkpt lat="43.9869021588754" lon="5.622473414934042"><ele>572.0</ele><time>2026-05-03T15:12:07.999Z</time></trkpt><trkpt lat="43.986906711033605" lon="5.622568810418056"><ele>571.6666666666667</ele><time>2026-05-03T15:12:09.999Z</time></trkpt><trkpt lat="43.9868522578647" lon="5.622685657044928"><ele>571.3333333333334</ele><time>2026-05-03T15:12:11.999Z</time></trkpt><trkpt lat="43.98688987849769" lon="5.622797045688487"><ele>571.0</ele><time>2026-05-03T15:12:14.999Z</time></trkpt><trkpt lat="43.98698055300557" lon="5.622835304585537"><ele>572.6666666666667</ele><time>2026-05-03T15:12:16.999Z</time></trkpt><trkpt lat="43.98705698241604" lon="5.622885356555638"><ele>574.3333333333334</ele><time>2026-05-03T15:12:18.999Z</time></trkpt><trkpt lat="43.98712193522909" lon="5.622973294486673"><ele>576.0</ele><time>2026-05-03T15:12:20.999Z</time></trkpt><trkpt lat="43.98718041980531" lon="5.623051586605503"><ele>577.6666666666666</ele><time>2026-05-03T15:12:22.999Z</time></trkpt><trkpt lat="43.987258579812" lon="5.623116140058425"><ele>579.3333333333333</ele><time>2026-05-03T15:12:24.999Z</time></trkpt><trkpt lat="43.98733793918718" lon="5.623184126721518"><ele>581.0</ele><time>2026-05-03T15:12:26.999Z</time></trkpt><trkpt lat="43.987418375067925" lon="5.6232412573660655"><ele>581.0</ele><time>2026-05-03T15:12:28.999Z</time></trkpt><trkpt lat="43.98749449357015" lon="5.623311764704744"><ele>581.0</ele><time>2026-05-03T15:12:30.999Z</time></trkpt><trkpt lat="43.98754132119375" lon="5.623411728150382"><ele>581.0</ele><time>2026-05-03T15:12:33.999Z</time></trkpt><trkpt lat="43.987569268549436" lon="5.6235254069344265"><ele>581.0</ele><time>2026-05-03T15:12:35.999Z</time></trkpt><trkpt lat="43.987656791647936" lon="5.623570626859782"><ele>581.0</ele><time>2026-05-03T15:12:37.999Z</time></trkpt><trkpt lat="43.98776319175901" lon="5.623638071778366"><ele>582.0</ele><time>2026-05-03T15:12:39.999Z</time></trkpt><trkpt lat="43.98785639194278" lon="5.623733191916028"><ele>583.0</ele><time>2026-05-03T15:12:41.999Z</time></trkpt><trkpt lat="43.98795474381322" lon="5.623823496177979"><ele>584.0</ele><time>2026-05-03T15:12:43.999Z</time></trkpt><trkpt lat="43.98804834032121" lon="5.623884738748748"><ele>585.0</ele><time>2026-05-03T15:12:45.998Z</time></trkpt><trkpt lat="43.98817036408915" lon="5.6238988838882245"><ele>585.0</ele><time>2026-05-03T15:12:47.998Z</time></trkpt><trkpt lat="43.9882750629173" lon="5.623942753280991"><ele>585.0</ele><time>2026-05-03T15:12:49.998Z</time></trkpt><trkpt lat="43.98833667698543" lon="5.6239979599269"><ele>585.0</ele><time>2026-05-03T15:12:50.998Z</time></trkpt><trkpt lat="43.98840081894302" lon="5.624051745478644"><ele>585.0</ele><time>2026-05-03T15:12:51.998Z</time></trkpt><trkpt lat="43.988458130302725" lon="5.624107832597832"><ele>585.0</ele><time>2026-05-03T15:12:52.998Z</time></trkpt><trkpt lat="43.988522967722815" lon="5.624169150149776"><ele>585.0</ele><time>2026-05-03T15:12:53.998Z</time></trkpt><trkpt lat="43.98857280729028" lon="5.624233804221494"><ele>586.1666666666666</ele><time>2026-05-03T15:12:54.998Z</time></trkpt><trkpt lat="43.988628496538844" lon="5.624305409041871"><ele>587.3333333333334</ele><time>2026-05-03T15:12:55.998Z</time></trkpt><trkpt lat="43.98869501290918" lon="5.624365207758819"><ele>588.5</ele><time>2026-05-03T15:12:56.998Z</time></trkpt><trkpt lat="43.988766395479004" lon="5.624422260926089"><ele>589.6666666666667</ele><time>2026-05-03T15:12:58Z</time></trkpt><trkpt lat="43.988824208806015" lon="5.624472048021773"><ele>590.8333333333334</ele><time>2026-05-03T15:12:59Z</time></trkpt><trkpt lat="43.98890425677365" lon="5.624541289761493"><ele>592.0</ele><time>2026-05-03T15:13:01Z</time></trkpt><trkpt lat="43.988934413517036" lon="5.6246617479516905"><ele>592.0</ele><time>2026-05-03T15:13:03Z</time></trkpt><trkpt lat="43.988980737827724" lon="5.62482069325753"><ele>592.0</ele><time>2026-05-03T15:13:05Z</time></trkpt><trkpt lat="43.989050513020125" lon="5.624924114043224"><ele>592.0</ele><time>2026-05-03T15:13:07Z</time></trkpt><trkpt lat="43.98911722022326" lon="5.624946297598232"><ele>592.0</ele><time>2026-05-03T15:13:09Z</time></trkpt><trkpt lat="43.9892234197528" lon="5.624936979088514"><ele>592.0</ele><time>2026-05-03T15:13:11Z</time></trkpt><trkpt lat="43.98929053504272" lon="5.624963262104719"><ele>593.0</ele><time>2026-05-03T15:13:12Z</time></trkpt><trkpt lat="43.98937879029211" lon="5.625038463135376"><ele>594.0</ele><time>2026-05-03T15:13:14Z</time></trkpt><trkpt lat="43.989438097050126" lon="5.625069496527053"><ele>595.0</ele><time>2026-05-03T15:13:15Z</time></trkpt><trkpt lat="43.98951003115062" lon="5.6251057605021275"><ele>596.0</ele><time>2026-05-03T15:13:18Z</time></trkpt><trkpt lat="43.9895440661355" lon="5.625183375713783"><ele>597.0</ele><time>2026-05-03T15:13:20Z</time></trkpt><trkpt lat="43.989573674027035" lon="5.625268930262555"><ele>598.0</ele><time>2026-05-03T15:13:21Z</time></trkpt><trkpt lat="43.9896280932669" lon="5.625425430447842"><ele>598.5</ele><time>2026-05-03T15:13:23Z</time></trkpt><trkpt lat="43.9896806776819" lon="5.625493551411611"><ele>599.0</ele><time>2026-05-03T15:13:24Z</time></trkpt><trkpt lat="43.989745642425504" lon="5.625546881948232"><ele>599.5</ele><time>2026-05-03T15:13:25Z</time></trkpt><trkpt lat="43.98979822760388" lon="5.625605053619334"><ele>600.0</ele><time>2026-05-03T15:13:26Z</time></trkpt><trkpt lat="43.98985200653458" lon="5.625663381758707"><ele>600.5</ele><time>2026-05-03T15:13:27Z</time></trkpt><trkpt lat="43.9899027319203" lon="5.625726170589291"><ele>601.0</ele><time>2026-05-03T15:13:28Z</time></trkpt><trkpt lat="43.99000802050681" lon="5.62581017893342"><ele>600.4</ele><time>2026-05-03T15:13:30Z</time></trkpt><trkpt lat="43.99009955631278" lon="5.625906866956477"><ele>599.8</ele><time>2026-05-03T15:13:31.999Z</time></trkpt><trkpt lat="43.990150866435194" lon="5.625961512029016"><ele>599.1999999999999</ele><time>2026-05-03T15:13:32.999Z</time></trkpt><trkpt lat="43.99025241122058" lon="5.6260629659305215"><ele>598.6</ele><time>2026-05-03T15:13:34.999Z</time></trkpt><trkpt lat="43.99030252532769" lon="5.626121801828682"><ele>598.0</ele><time>2026-05-03T15:13:35.999Z</time></trkpt><trkpt lat="43.99037473157818" lon="5.626222941365129"><ele>600.25</ele><time>2026-05-03T15:13:37.999Z</time></trkpt><trkpt lat="43.99046148186694" lon="5.626308120799613"><ele>602.5</ele><time>2026-05-03T15:13:39.999Z</time></trkpt><trkpt lat="43.99051398842706" lon="5.626441308059015"><ele>604.75</ele><time>2026-05-03T15:13:41.999Z</time></trkpt><trkpt lat="43.99056252979961" lon="5.626590843245146"><ele>607.0</ele><time>2026-05-03T15:13:43.999Z</time></trkpt><trkpt lat="43.99066566263338" lon="5.626690429174169"><ele>607.0</ele><time>2026-05-03T15:13:45.999Z</time></trkpt><trkpt lat="43.99071919104536" lon="5.626741196479632"><ele>607.0</ele><time>2026-05-03T15:13:46.999Z</time></trkpt><trkpt lat="43.990816563213066" lon="5.626865430858003"><ele>607.0</ele><time>2026-05-03T15:13:48.999Z</time></trkpt><trkpt lat="43.99087663239845" lon="5.62692626974692"><ele>607.0</ele><time>2026-05-03T15:13:49.999Z</time></trkpt><trkpt lat="43.99093671249039" lon="5.626988657972704"><ele>607.0</ele><time>2026-05-03T15:13:50.999Z</time></trkpt><trkpt lat="43.990991482333015" lon="5.627060083236607"><ele>607.0</ele><time>2026-05-03T15:13:51.999Z</time></trkpt><trkpt lat="43.99104514918439" lon="5.627127589656531"><ele>607.8333333333334</ele><time>2026-05-03T15:13:52.999Z</time></trkpt><trkpt lat="43.99110205554245" lon="5.627196549995545"><ele>608.6666666666667</ele><time>2026-05-03T15:13:53.999Z</time></trkpt><trkpt lat="43.99116351608218" lon="5.6272536588196"><ele>609.5</ele><time>2026-05-03T15:13:54.999Z</time></trkpt><trkpt lat="43.9912170954496" lon="5.6273228877817"><ele>610.3333333333334</ele><time>2026-05-03T15:13:55.999Z</time></trkpt><trkpt lat="43.99130125136614" lon="5.627421620083564"><ele>611.1666666666666</ele><time>2026-05-03T15:13:57.999Z</time></trkpt><trkpt lat="43.99135360354096" lon="5.627500670027874"><ele>612.0</ele><time>2026-05-03T15:13:59.999Z</time></trkpt><trkpt lat="43.99142198351563" lon="5.627592277732255"><ele>612.0</ele><time>2026-05-03T15:14:01.999Z</time></trkpt><trkpt lat="43.99147841216901" lon="5.627680473142163"><ele>612.0</ele><time>2026-05-03T15:14:03.999Z</time></trkpt><trkpt lat="43.99154467285585" lon="5.627741871555938"><ele>612.0</ele><time>2026-05-03T15:14:15.999Z</time></trkpt><trkpt lat="43.991603799796565" lon="5.627816506025573"><ele>612.0</ele><time>2026-05-03T15:14:17.999Z</time></trkpt><trkpt lat="43.99168633051774" lon="5.627906331894872"><ele>612.0</ele><time>2026-05-03T15:14:19.999Z</time></trkpt><trkpt lat="43.991748024559314" lon="5.6280297885239765"><ele>613.0</ele><time>2026-05-03T15:14:21.999Z</time></trkpt><trkpt lat="43.991786667588364" lon="5.628173727617065"><ele>614.0</ele><time>2026-05-03T15:14:23.999Z</time></trkpt><trkpt lat="43.99183233098329" lon="5.628308508511559"><ele>615.0</ele><time>2026-05-03T15:14:25.999Z</time></trkpt><trkpt lat="43.99188888390931" lon="5.628421164364333"><ele>616.0</ele><time>2026-05-03T15:14:27.999Z</time></trkpt><trkpt lat="43.99192931790895" lon="5.628489905859637"><ele>617.0</ele><time>2026-05-03T15:14:28.999Z</time></trkpt><trkpt lat="43.9920112161659" lon="5.628537821479166"><ele>617.0</ele><time>2026-05-03T15:14:30.999Z</time></trkpt><trkpt lat="43.99211583387503" lon="5.628542490073984"><ele>617.0</ele><time>2026-05-03T15:14:32.999Z</time></trkpt><trkpt lat="43.99221699746407" lon="5.628602286144755"><ele>617.0</ele><time>2026-05-03T15:14:34.999Z</time></trkpt><trkpt lat="43.992267290371544" lon="5.6286554425209365"><ele>617.0</ele><time>2026-05-03T15:14:35.999Z</time></trkpt><trkpt lat="43.99237441573328" lon="5.628757064628772"><ele>617.0</ele><time>2026-05-03T15:14:37.999Z</time></trkpt><trkpt lat="43.99242524521229" lon="5.628814306733047"><ele>616.4</ele><time>2026-05-03T15:14:38.999Z</time></trkpt><trkpt lat="43.99247111367936" lon="5.628881971540418"><ele>615.8000000000001</ele><time>2026-05-03T15:14:39.999Z</time></trkpt><trkpt lat="43.992531762451186" lon="5.628966364595741"><ele>615.2</ele><time>2026-05-03T15:14:40.999Z</time></trkpt><trkpt lat="43.99257210272199" lon="5.629039842014512"><ele>614.6</ele><time>2026-05-03T15:14:41.999Z</time></trkpt><trkpt lat="43.99264761231771" lon="5.629179868560665"><ele>614.0</ele><time>2026-05-03T15:14:43.999Z</time></trkpt><trkpt lat="43.99271575341247" lon="5.629324398708044"><ele>614.0</ele><time>2026-05-03T15:14:45.999Z</time></trkpt><trkpt lat="43.99274505430317" lon="5.629408539365603"><ele>614.0</ele><time>2026-05-03T15:14:46.999Z</time></trkpt><trkpt lat="43.9927640017633" lon="5.629492748810482"><ele>614.0</ele><time>2026-05-03T15:14:47.999Z</time></trkpt><trkpt lat="43.99277796623814" lon="5.62958913309479"><ele>614.0</ele><time>2026-05-03T15:14:48.999Z</time></trkpt><trkpt lat="43.992826897623644" lon="5.629723139371478"><ele>614.0</ele><time>2026-05-03T15:14:50.999Z</time></trkpt><trkpt lat="43.99284808364431" lon="5.629848398430445"><ele>614.0</ele><time>2026-05-03T15:14:52.998Z</time></trkpt><trkpt lat="43.992817474128195" lon="5.629992756113158"><ele>615.75</ele><time>2026-05-03T15:14:54.998Z</time></trkpt><trkpt lat="43.99289006063631" lon="5.630122135032235"><ele>617.5</ele><time>2026-05-03T15:14:56.998Z</time></trkpt><trkpt lat="43.99297165971212" lon="5.630262407298666"><ele>619.25</ele><time>2026-05-03T15:14:58.998Z</time></trkpt><trkpt lat="43.993030154428155" lon="5.630414419289688"><ele>621.0</ele><time>2026-05-03T15:15:00.998Z</time></trkpt><trkpt lat="43.993089263086915" lon="5.630488161236652"><ele>622.4</ele><time>2026-05-03T15:15:01.998Z</time></trkpt><trkpt lat="43.99316462577766" lon="5.6306419920949695"><ele>623.8</ele><time>2026-05-03T15:15:04Z</time></trkpt><trkpt lat="43.99320960525043" lon="5.630712213640608"><ele>625.1999999999999</ele><time>2026-05-03T15:15:05Z</time></trkpt><trkpt lat="43.993252672597244" lon="5.630779886659573"><ele>626.6</ele><time>2026-05-03T15:15:06Z</time></trkpt><trkpt lat="43.99333501185681" lon="5.630912167021852"><ele>628.0</ele><time>2026-05-03T15:15:08Z</time></trkpt><trkpt lat="43.99337498405871" lon="5.630982833397084"><ele>627.9999999999999</ele><time>2026-05-03T15:15:09Z</time></trkpt><trkpt lat="43.993426958517134" lon="5.631041800908129"><ele>628.0</ele><time>2026-05-03T15:15:10Z</time></trkpt><trkpt lat="43.99346754022346" lon="5.6311111168709"><ele>628.0</ele><time>2026-05-03T15:15:11Z</time></trkpt><trkpt lat="43.993514561770276" lon="5.631179543803451"><ele>628.0</ele><time>2026-05-03T15:15:12Z</time></trkpt><trkpt lat="43.99355107096425" lon="5.631254257590025"><ele>628.0</ele><time>2026-05-03T15:15:13Z</time></trkpt><trkpt lat="43.99358961668549" lon="5.631331631322701"><ele>627.9999999999999</ele><time>2026-05-03T15:15:14Z</time></trkpt><trkpt lat="43.99363171298279" lon="5.631403974819761"><ele>628.0</ele><time>2026-05-03T15:15:15Z</time></trkpt><trkpt lat="43.99368087774321" lon="5.63147966701088"><ele>629.5714285714286</ele><time>2026-05-03T15:15:16Z</time></trkpt><trkpt lat="43.99372873643159" lon="5.631558852049565"><ele>631.1428571428571</ele><time>2026-05-03T15:15:17Z</time></trkpt><trkpt lat="43.993776543375105" lon="5.631630260614491"><ele>632.7142857142858</ele><time>2026-05-03T15:15:18Z</time></trkpt><trkpt lat="43.99383507581816" lon="5.631689121397035"><ele>634.2857142857142</ele><time>2026-05-03T15:15:19Z</time></trkpt><trkpt lat="43.99388862247427" lon="5.6317487783104"><ele>635.8571428571429</ele><time>2026-05-03T15:15:20Z</time></trkpt><trkpt lat="43.99395593270264" lon="5.631796629062797"><ele>637.4285714285714</ele><time>2026-05-03T15:15:21Z</time></trkpt><trkpt lat="43.99401925879506" lon="5.631848498838664"><ele>639.0</ele><time>2026-05-03T15:15:22Z</time></trkpt><trkpt lat="43.994131431885926" lon="5.631914578896913"><ele>638.6</ele><time>2026-05-03T15:15:24Z</time></trkpt><trkpt lat="43.9942453453732" lon="5.631893777882023"><ele>638.2</ele><time>2026-05-03T15:15:26Z</time></trkpt><trkpt lat="43.99434032614394" lon="5.631884462698382"><ele>637.8000000000001</ele><time>2026-05-03T15:15:28Z</time></trkpt><trkpt lat="43.994432161190936" lon="5.631951743677114"><ele>637.4</ele><time>2026-05-03T15:15:30Z</time></trkpt><trkpt lat="43.994527753664876" lon="5.632073372786103"><ele>637.0</ele><time>2026-05-03T15:15:32Z</time></trkpt><trkpt lat="43.99456340878752" lon="5.632171997309529"><ele>638.1666666666667</ele><time>2026-05-03T15:15:34Z</time></trkpt><trkpt lat="43.99454122883237" lon="5.632277400749491"><ele>639.3333333333334</ele><time>2026-05-03T15:15:36Z</time></trkpt><trkpt lat="43.99452624946607" lon="5.63237313869179"><ele>640.5</ele><time>2026-05-03T15:15:38Z</time></trkpt><trkpt lat="43.99457958604278" lon="5.632444096393554"><ele>641.6666666666666</ele><time>2026-05-03T15:16:13.999Z</time></trkpt><trkpt lat="43.99468870728048" lon="5.632416983332736"><ele>642.8333333333333</ele><time>2026-05-03T15:16:15.999Z</time></trkpt><trkpt lat="43.99478854093075" lon="5.632484399880431"><ele>644.0</ele><time>2026-05-03T15:16:17.999Z</time></trkpt><trkpt lat="43.994883643619765" lon="5.632616505100332"><ele>644.0</ele><time>2026-05-03T15:16:19.999Z</time></trkpt><trkpt lat="43.99494247739794" lon="5.632679840037499"><ele>644.0</ele><time>2026-05-03T15:16:20.999Z</time></trkpt><trkpt lat="43.99501080150022" lon="5.6327345520500725"><ele>644.0</ele><time>2026-05-03T15:16:21.999Z</time></trkpt><trkpt lat="43.99506878893155" lon="5.6327991298753775"><ele>644.0</ele><time>2026-05-03T15:16:22.999Z</time></trkpt><trkpt lat="43.99511536641248" lon="5.632879113489165"><ele>644.0</ele><time>2026-05-03T15:16:23.999Z</time></trkpt><trkpt lat="43.995150680374195" lon="5.632957711221947"><ele>644.0</ele><time>2026-05-03T15:16:24.999Z</time></trkpt><trkpt lat="43.995204915220164" lon="5.633038113671231"><ele>644.0</ele><time>2026-05-03T15:16:25.999Z</time></trkpt><trkpt lat="43.995273401626086" lon="5.633089166109888"><ele>644.6</ele><time>2026-05-03T15:16:26.999Z</time></trkpt><trkpt lat="43.99535199822993" lon="5.6331269789460645"><ele>645.2</ele><time>2026-05-03T15:16:27.999Z</time></trkpt><trkpt lat="43.9954177823526" lon="5.633189933691675"><ele>645.8000000000001</ele><time>2026-05-03T15:16:28.999Z</time></trkpt><trkpt lat="43.995463924849076" lon="5.633260747836791"><ele>646.4000000000001</ele><time>2026-05-03T15:16:29.999Z</time></trkpt><trkpt lat="43.99556898340024" lon="5.6333016367303905"><ele>647.0</ele><time>2026-05-03T15:16:31.999Z</time></trkpt><trkpt lat="43.995691335986244" lon="5.6332839734908635"><ele>647.0</ele><time>2026-05-03T15:16:33.999Z</time></trkpt><trkpt lat="43.995810192115485" lon="5.633339324523238"><ele>647.0</ele><time>2026-05-03T15:16:35.999Z</time></trkpt><trkpt lat="43.99587921845924" lon="5.633372065397706"><ele>647.0</ele><time>2026-05-03T15:16:36.999Z</time></trkpt><trkpt lat="43.995948414408055" lon="5.6334246526039795"><ele>647.0</ele><time>2026-05-03T15:16:37.999Z</time></trkpt><trkpt lat="43.99600786751469" lon="5.633482513104908"><ele>647.0</ele><time>2026-05-03T15:16:38.999Z</time></trkpt><trkpt lat="43.996060929501425" lon="5.633534991706536"><ele>647.0</ele><time>2026-05-03T15:16:39.999Z</time></trkpt><trkpt lat="43.99612509343836" lon="5.633541819361411"><ele>648.0</ele><time>2026-05-03T15:16:40.999Z</time></trkpt><trkpt lat="43.99619703760583" lon="5.633524268457668"><ele>649.0</ele><time>2026-05-03T15:16:41.999Z</time></trkpt><trkpt lat="43.996269988799135" lon="5.633532860738314"><ele>650.0</ele><time>2026-05-03T15:16:42.999Z</time></trkpt><trkpt lat="43.99633356809688" lon="5.633550868413757"><ele>651.0</ele><time>2026-05-03T15:16:43.999Z</time></trkpt><trkpt lat="43.996396468085116" lon="5.6335619843936655"><ele>652.0</ele><time>2026-05-03T15:16:44.999Z</time></trkpt><trkpt lat="43.996508532165194" lon="5.633614533864418"><ele>653.0</ele><time>2026-05-03T15:16:46.999Z</time></trkpt><trkpt lat="43.996566823205384" lon="5.63366772358076"><ele>653.0</ele><time>2026-05-03T15:16:47.999Z</time></trkpt><trkpt lat="43.996632732714126" lon="5.633726987109747"><ele>653.0</ele><time>2026-05-03T15:16:48.999Z</time></trkpt><trkpt lat="43.99669000077903" lon="5.63380019287767"><ele>653.0</ele><time>2026-05-03T15:16:49.999Z</time></trkpt><trkpt lat="43.99675071853615" lon="5.633869599194334"><ele>653.0</ele><time>2026-05-03T15:16:50.999Z</time></trkpt><trkpt lat="43.99681628965929" lon="5.633931077477654"><ele>653.0</ele><time>2026-05-03T15:16:51.999Z</time></trkpt><trkpt lat="43.99687874123891" lon="5.634000825602253"><ele>653.0</ele><time>2026-05-03T15:16:52.999Z</time></trkpt><trkpt lat="43.996932595231755" lon="5.634070704998469"><ele>649.0</ele><time>2026-05-03T15:16:53.999Z</time></trkpt><trkpt lat="43.99700651429319" lon="5.634204510091779"><ele>645.0</ele><time>2026-05-03T15:16:55.999Z</time></trkpt><trkpt lat="43.99703444677572" lon="5.634291700571709"><ele>641.0</ele><time>2026-05-03T15:16:56.999Z</time></trkpt><trkpt lat="43.99705991430941" lon="5.634442773355493"><ele>637.0</ele><time>2026-05-03T15:16:58.999Z</time></trkpt><trkpt lat="43.997085805626284" lon="5.634555787586465"><ele>633.0</ele><time>2026-05-03T15:16:59.999Z</time></trkpt><trkpt lat="43.997110557492064" lon="5.634663941008575"><ele>633.0</ele><time>2026-05-03T15:17:00.999Z</time></trkpt><trkpt lat="43.99711574932498" lon="5.634762048849052"><ele>633.0</ele><time>2026-05-03T15:17:01.999Z</time></trkpt><trkpt lat="43.99712249221676" lon="5.634869348917388"><ele>633.0</ele><time>2026-05-03T15:17:02.999Z</time></trkpt><trkpt lat="43.99712253845559" lon="5.6349582352649605"><ele>633.0</ele><time>2026-05-03T15:17:03.999Z</time></trkpt><trkpt lat="43.99713879574795" lon="5.635142692780763"><ele>633.0</ele><time>2026-05-03T15:17:05.999Z</time></trkpt><trkpt lat="43.997143691743034" lon="5.635291558505574"><ele>634.0</ele><time>2026-05-03T15:17:07.998Z</time></trkpt><trkpt lat="43.99714375735617" lon="5.635438996537261"><ele>635.0</ele><time>2026-05-03T15:17:10Z</time></trkpt><trkpt lat="43.99719686776863" lon="5.635544024542082"><ele>636.0</ele><time>2026-05-03T15:17:12Z</time></trkpt><trkpt lat="43.99725072513189" lon="5.635617981185756"><ele>637.0</ele><time>2026-05-03T15:17:13Z</time></trkpt><trkpt lat="43.997322622237796" lon="5.635693734083998"><ele>638.0</ele><time>2026-05-03T15:17:14Z</time></trkpt><trkpt lat="43.99736115629225" lon="5.635849096023127"><ele>638.0</ele><time>2026-05-03T15:17:16Z</time></trkpt><trkpt lat="43.997373254185746" lon="5.6359982914367555"><ele>638.0</ele><time>2026-05-03T15:17:18Z</time></trkpt><trkpt lat="43.997456097250094" lon="5.636119660496563"><ele>638.0</ele><time>2026-05-03T15:17:20Z</time></trkpt><trkpt lat="43.99750683548263" lon="5.636217375914293"><ele>638.0</ele><time>2026-05-03T15:17:22Z</time></trkpt><trkpt lat="43.99754420437926" lon="5.6363805213320415"><ele>638.0</ele><time>2026-05-03T15:17:24Z</time></trkpt><trkpt lat="43.99756912342292" lon="5.6364634424230164"><ele>635.5</ele><time>2026-05-03T15:17:25Z</time></trkpt><trkpt lat="43.99764209836627" lon="5.636501571003604"><ele>633.0</ele><time>2026-05-03T15:17:26Z</time></trkpt><trkpt lat="43.997690315650445" lon="5.636568060907618"><ele>630.5</ele><time>2026-05-03T15:17:27Z</time></trkpt><trkpt lat="43.997736524069836" lon="5.636663471116451"><ele>628.0</ele><time>2026-05-03T15:17:28Z</time></trkpt><trkpt lat="43.99777669831232" lon="5.6367451709130485"><ele>625.5</ele><time>2026-05-03T15:17:29Z</time></trkpt><trkpt lat="43.99783045898316" lon="5.636838090730733"><ele>623.0</ele><time>2026-05-03T15:17:30Z</time></trkpt><trkpt lat="43.99788695318467" lon="5.6369175885546"><ele>624.8</ele><time>2026-05-03T15:17:31Z</time></trkpt><trkpt lat="43.99793032533961" lon="5.63700430701722"><ele>626.5999999999999</ele><time>2026-05-03T15:17:32Z</time></trkpt><trkpt lat="43.997992228594036" lon="5.637172478980677"><ele>628.4000000000001</ele><time>2026-05-03T15:17:34Z</time></trkpt><trkpt lat="43.998070114356636" lon="5.637319437680831"><ele>630.2</ele><time>2026-05-03T15:17:36Z</time></trkpt><trkpt lat="43.998122400862904" lon="5.637374967729334"><ele>632.0</ele><time>2026-05-03T15:17:37Z</time></trkpt><trkpt lat="43.99818637822271" lon="5.637502632621104"><ele>632.0</ele><time>2026-05-03T15:17:39Z</time></trkpt><trkpt lat="43.998211265489374" lon="5.637650111309817"><ele>632.0</ele><time>2026-05-03T15:17:41Z</time></trkpt><trkpt lat="43.9982293058064" lon="5.637783973681289"><ele>632.0</ele><time>2026-05-03T15:17:43Z</time></trkpt><trkpt lat="43.9982339905119" lon="5.6379302340984925"><ele>632.0</ele><time>2026-05-03T15:17:45Z</time></trkpt><trkpt lat="43.99819598638893" lon="5.638025957384495"><ele>632.0</ele><time>2026-05-03T15:17:47Z</time></trkpt><trkpt lat="43.99814571225561" lon="5.6380876413623096"><ele>631.3333333333333</ele><time>2026-05-03T15:17:53Z</time></trkpt><trkpt lat="43.99811494604436" lon="5.638175727271055"><ele>630.6666666666666</ele><time>2026-05-03T15:17:56Z</time></trkpt><trkpt lat="43.99809796716805" lon="5.638286020215684"><ele>630.0</ele><time>2026-05-03T15:18:03Z</time></trkpt><trkpt lat="43.998096383728345" lon="5.6384087734564545"><ele>629.3333333333334</ele><time>2026-05-03T15:18:05Z</time></trkpt><trkpt lat="43.99808931205805" lon="5.638535682118824"><ele>628.6666666666667</ele><time>2026-05-03T15:18:06.999Z</time></trkpt><trkpt lat="43.9981073042021" lon="5.638640560517934"><ele>628.0</ele><time>2026-05-03T15:18:08.999Z</time></trkpt><trkpt lat="43.998128624110706" lon="5.6387550719761546"><ele>625.8571428571428</ele><time>2026-05-03T15:18:10.999Z</time></trkpt><trkpt lat="43.9981418298374" lon="5.63886473605432"><ele>623.7142857142857</ele><time>2026-05-03T15:18:12.999Z</time></trkpt><trkpt lat="43.99812417078907" lon="5.638961567914006"><ele>621.5714285714286</ele><time>2026-05-03T15:18:14.999Z</time></trkpt><trkpt lat="43.9981030054651" lon="5.6390493995537145"><ele>619.4285714285713</ele><time>2026-05-03T15:18:16.999Z</time></trkpt><trkpt lat="43.99806044368613" lon="5.6391235812036316"><ele>617.2857142857142</ele><time>2026-05-03T15:18:18.999Z</time></trkpt><trkpt lat="43.99806442249247" lon="5.639215628465806"><ele>615.1428571428571</ele><time>2026-05-03T15:18:20.999Z</time></trkpt><trkpt lat="43.99809004919543" lon="5.639336784325024"><ele>613.0</ele><time>2026-05-03T15:18:22.999Z</time></trkpt><trkpt lat="43.99810922346167" lon="5.639456483952921"><ele>612.0</ele><time>2026-05-03T15:18:24.999Z</time></trkpt><trkpt lat="43.998119501206304" lon="5.639554934399443"><ele>611.0</ele><time>2026-05-03T15:18:26.999Z</time></trkpt><trkpt lat="43.998108099179056" lon="5.639672695414023"><ele>610.0</ele><time>2026-05-03T15:18:28.999Z</time></trkpt><trkpt lat="43.998059695847125" lon="5.639793308713276"><ele>609.0</ele><time>2026-05-03T15:18:30.999Z</time></trkpt><trkpt lat="43.99801967758652" lon="5.63991901586313"><ele>608.0</ele><time>2026-05-03T15:18:32.999Z</time></trkpt><trkpt lat="43.99801655717456" lon="5.640007845359411"><ele>607.0</ele><time>2026-05-03T15:18:33.999Z</time></trkpt><trkpt lat="43.99800951484271" lon="5.640151671193052"><ele>607.0</ele><time>2026-05-03T15:18:35.999Z</time></trkpt><trkpt lat="43.99801208585165" lon="5.640257891005079"><ele>607.0</ele><time>2026-05-03T15:18:37.999Z</time></trkpt><trkpt lat="43.99801007202953" lon="5.640377675827985"><ele>607.0</ele><time>2026-05-03T15:18:39.999Z</time></trkpt><trkpt lat="43.998053302664395" lon="5.640471231919837"><ele>607.0</ele><time>2026-05-03T15:18:41.999Z</time></trkpt><trkpt lat="43.99815101363283" lon="5.64047959634416"><ele>607.0</ele><time>2026-05-03T15:18:43.999Z</time></trkpt><trkpt lat="43.99826668868462" lon="5.640515497617062"><ele>605.6</ele><time>2026-05-03T15:18:45.999Z</time></trkpt><trkpt lat="43.998400670556286" lon="5.640570065452993"><ele>604.2</ele><time>2026-05-03T15:18:47.999Z</time></trkpt><trkpt lat="43.99851269335832" lon="5.640638448121192"><ele>602.8</ele><time>2026-05-03T15:18:49.999Z</time></trkpt><trkpt lat="43.99861135090007" lon="5.640650919270187"><ele>601.4</ele><time>2026-05-03T15:18:51.999Z</time></trkpt><trkpt lat="43.99868314525587" lon="5.640601210599506"><ele>600.0</ele><time>2026-05-03T15:18:53.999Z</time></trkpt><trkpt lat="43.998765724546345" lon="5.640549778993823"><ele>600.0</ele><time>2026-05-03T15:18:55.999Z</time></trkpt><trkpt lat="43.998859646265885" lon="5.6405654030123165"><ele>600.0</ele><time>2026-05-03T15:18:57.999Z</time></trkpt><trkpt lat="43.99894496684077" lon="5.640482575719549"><ele>600.0</ele><time>2026-05-03T15:18:59.999Z</time></trkpt><trkpt lat="43.999026430384625" lon="5.64041350225931"><ele>600.0</ele><time>2026-05-03T15:19:01.999Z</time></trkpt><trkpt lat="43.999099439403295" lon="5.640410240306951"><ele>600.0</ele><time>2026-05-03T15:19:03.999Z</time></trkpt><trkpt lat="43.99912175302348" lon="5.640526637322443"><ele>600.0</ele><time>2026-05-03T15:19:07.999Z</time></trkpt><trkpt lat="43.99904374316502" lon="5.6406318408379725"><ele>600.0</ele><time>2026-05-03T15:19:09.999Z</time></trkpt><trkpt lat="43.99895754609526" lon="5.640761945097644"><ele>600.0</ele><time>2026-05-03T15:19:11.999Z</time></trkpt><trkpt lat="43.99891161321318" lon="5.64083926305925"><ele>600.0</ele><time>2026-05-03T15:19:12.999Z</time></trkpt><trkpt lat="43.9988566840634" lon="5.640912382148032"><ele>600.0</ele><time>2026-05-03T15:19:13.999Z</time></trkpt><trkpt lat="43.998805984859665" lon="5.640991114318515"><ele>600.0</ele><time>2026-05-03T15:19:14.999Z</time></trkpt><trkpt lat="43.998771055788424" lon="5.641100341069912"><ele>600.0</ele><time>2026-05-03T15:19:17Z</time></trkpt><trkpt lat="43.9987123045425" lon="5.641244660467156"><ele>600.0</ele><time>2026-05-03T15:19:18Z</time></trkpt><trkpt lat="43.99867394167209" lon="5.641345054624779"><ele>600.0</ele><time>2026-05-03T15:19:19Z</time></trkpt><trkpt lat="43.99862301317383" lon="5.641411500091154"><ele>600.0</ele><time>2026-05-03T15:19:20Z</time></trkpt><trkpt lat="43.998586851074194" lon="5.641496906639753"><ele>600.0</ele><time>2026-05-03T15:19:21Z</time></trkpt><trkpt lat="43.9985354313283" lon="5.641636791192682"><ele>600.8</ele><time>2026-05-03T15:19:23Z</time></trkpt><trkpt lat="43.998505418185594" lon="5.6417654367545715"><ele>601.6</ele><time>2026-05-03T15:19:25Z</time></trkpt><trkpt lat="43.99845812533887" lon="5.64193025336803"><ele>602.4</ele><time>2026-05-03T15:19:27Z</time></trkpt><trkpt lat="43.99840563754582" lon="5.642072402207221"><ele>603.2</ele><time>2026-05-03T15:19:29Z</time></trkpt><trkpt lat="43.99835479040633" lon="5.642189178860691"><ele>604.0</ele><time>2026-05-03T15:19:31Z</time></trkpt><trkpt lat="43.99833608381468" lon="5.642275898765226"><ele>605.2</ele><time>2026-05-03T15:19:32Z</time></trkpt><trkpt lat="43.99829262740211" lon="5.642426561288926"><ele>606.4</ele><time>2026-05-03T15:19:34Z</time></trkpt><trkpt lat="43.99824512913106" lon="5.6425907491488845"><ele>607.6</ele><time>2026-05-03T15:19:36Z</time></trkpt><trkpt lat="43.998213137648825" lon="5.6426827016226895"><ele>608.8</ele><time>2026-05-03T15:19:37Z</time></trkpt><trkpt lat="43.99818107243063" lon="5.642829664385772"><ele>610.0</ele><time>2026-05-03T15:19:39Z</time></trkpt><trkpt lat="43.99816457321155" lon="5.642966719248411"><ele>610.0</ele><time>2026-05-03T15:19:41Z</time></trkpt><trkpt lat="43.99818831371888" lon="5.643053454862444"><ele>610.0</ele><time>2026-05-03T15:19:43Z</time></trkpt><trkpt lat="43.998229742454" lon="5.643141658632826"><ele>610.0</ele><time>2026-05-03T15:19:45Z</time></trkpt><trkpt lat="43.99827970739387" lon="5.64324349824763"><ele>610.0</ele><time>2026-05-03T15:19:47Z</time></trkpt><trkpt lat="43.99834028776063" lon="5.6433644042672935"><ele>610.0</ele><time>2026-05-03T15:19:49Z</time></trkpt><trkpt lat="43.998377307388644" lon="5.643490432457434"><ele>610.0</ele><time>2026-05-03T15:19:51Z</time></trkpt><trkpt lat="43.99838370268509" lon="5.6436321384315535"><ele>610.2</ele><time>2026-05-03T15:19:53Z</time></trkpt><trkpt lat="43.9983768228863" lon="5.643764757370834"><ele>610.4</ele><time>2026-05-03T15:19:55Z</time></trkpt><trkpt lat="43.99835936711947" lon="5.643927945139152"><ele>610.6</ele><time>2026-05-03T15:19:57Z</time></trkpt><trkpt lat="43.99834376342783" lon="5.644062249780728"><ele>610.8</ele><time>2026-05-03T15:19:59Z</time></trkpt><trkpt lat="43.998326668591574" lon="5.644192228032728"><ele>611.0</ele><time>2026-05-03T15:20:01Z</time></trkpt><trkpt lat="43.99831009724446" lon="5.644328426101851"><ele>611.6</ele><time>2026-05-03T15:20:03Z</time></trkpt><trkpt lat="43.998291424541385" lon="5.644464262157993"><ele>612.2</ele><time>2026-05-03T15:20:05Z</time></trkpt><trkpt lat="43.99826030258084" lon="5.644584723691143"><ele>612.8</ele><time>2026-05-03T15:20:07Z</time></trkpt><trkpt lat="43.998235054801576" lon="5.644724890582015"><ele>613.4</ele><time>2026-05-03T15:20:09Z</time></trkpt><trkpt lat="43.99821038601245" lon="5.6448674583967815"><ele>614.0</ele><time>2026-05-03T15:20:11Z</time></trkpt><trkpt lat="43.99819619722579" lon="5.645023421014824"><ele>614.0</ele><time>2026-05-03T15:20:13Z</time></trkpt><trkpt lat="43.99818013627119" lon="5.645175000526282"><ele>614.0</ele><time>2026-05-03T15:20:14.999Z</time></trkpt><trkpt lat="43.99812677247081" lon="5.645308541840577"><ele>614.0</ele><time>2026-05-03T15:20:16.999Z</time></trkpt><trkpt lat="43.998094604251754" lon="5.645449068862848"><ele>614.0</ele><time>2026-05-03T15:20:18.999Z</time></trkpt><trkpt lat="43.99805811708951" lon="5.64558726632722"><ele>614.0</ele><time>2026-05-03T15:20:20.999Z</time></trkpt><trkpt lat="43.998031143926895" lon="5.645732362970324"><ele>615.0</ele><time>2026-05-03T15:20:22.999Z</time></trkpt><trkpt lat="43.99801868658395" lon="5.64584313476843"><ele>616.0</ele><time>2026-05-03T15:20:25.999Z</time></trkpt><trkpt lat="43.998144867581836" lon="5.645905355737082"><ele>617.0</ele><time>2026-05-03T15:20:54.999Z</time></trkpt><trkpt lat="43.998246163667034" lon="5.645855747802455"><ele>618.0</ele><time>2026-05-03T15:20:56.999Z</time></trkpt><trkpt lat="43.998353075954036" lon="5.645824503967013"><ele>619.0</ele><time>2026-05-03T15:20:58.999Z</time></trkpt><trkpt lat="43.998471209194015" lon="5.645779099768636"><ele>619.1428571428571</ele><time>2026-05-03T15:21:00.999Z</time></trkpt><trkpt lat="43.998535539218416" lon="5.645760945239898"><ele>619.2857142857143</ele><time>2026-05-03T15:21:01.999Z</time></trkpt><trkpt lat="43.9986003021165" lon="5.645743306317362"><ele>619.4285714285714</ele><time>2026-05-03T15:21:02.999Z</time></trkpt><trkpt lat="43.99866896843681" lon="5.64572022975363"><ele>619.5714285714286</ele><time>2026-05-03T15:21:03.999Z</time></trkpt><trkpt lat="43.998734051057994" lon="5.64569848255306"><ele>619.7142857142857</ele><time>2026-05-03T15:21:04.999Z</time></trkpt><trkpt lat="43.99880054019673" lon="5.6456822778070865"><ele>619.8571428571429</ele><time>2026-05-03T15:21:05.999Z</time></trkpt><trkpt lat="43.99886560364319" lon="5.645671407635685"><ele>620.0</ele><time>2026-05-03T15:21:06.999Z</time></trkpt><trkpt lat="43.99893389445248" lon="5.645662336146474"><ele>620.0</ele><time>2026-05-03T15:21:07.999Z</time></trkpt><trkpt lat="43.99899875955307" lon="5.645656090200362"><ele>620.0</ele><time>2026-05-03T15:21:08.999Z</time></trkpt><trkpt lat="43.99906289437135" lon="5.645643689110849"><ele>620.0</ele><time>2026-05-03T15:21:09.999Z</time></trkpt><trkpt lat="43.99912678575485" lon="5.645628751693696"><ele>620.0</ele><time>2026-05-03T15:21:10.999Z</time></trkpt><trkpt lat="43.999250574337054" lon="5.6456123344223785"><ele>620.0</ele><time>2026-05-03T15:21:12.999Z</time></trkpt><trkpt lat="43.99936397282299" lon="5.645609538340195"><ele>620.0</ele><time>2026-05-03T15:21:14.999Z</time></trkpt><trkpt lat="43.999451374499536" lon="5.645605998885318"><ele>620.1666666666666</ele><time>2026-05-03T15:21:16.999Z</time></trkpt><trkpt lat="43.99951469968821" lon="5.6456395648333055"><ele>620.3333333333333</ele><time>2026-05-03T15:21:19.999Z</time></trkpt><trkpt lat="43.999480677170574" lon="5.645721315314825"><ele>620.5</ele><time>2026-05-03T15:21:22Z</time></trkpt><trkpt lat="43.99949294432655" lon="5.645833135271525"><ele>620.6666666666666</ele><time>2026-05-03T15:21:24Z</time></trkpt><trkpt lat="43.9995542387528" lon="5.645914117527455"><ele>620.8333333333334</ele><time>2026-05-03T15:21:25Z</time></trkpt><trkpt lat="43.99946646233149" lon="5.646023967640987"><ele>621.0</ele><time>2026-05-03T15:21:27Z</time></trkpt><trkpt lat="43.99945646061363" lon="5.646157781227827"><ele>621.0</ele><time>2026-05-03T15:21:29Z</time></trkpt><trkpt lat="43.99943955458685" lon="5.646296007627474"><ele>621.0</ele><time>2026-05-03T15:21:31Z</time></trkpt><trkpt lat="43.999425862320535" lon="5.646426680238581"><ele>621.0</ele><time>2026-05-03T15:21:33Z</time></trkpt><trkpt lat="43.99940942231881" lon="5.646557691914501"><ele>621.0</ele><time>2026-05-03T15:21:35Z</time></trkpt><trkpt lat="43.99939424051071" lon="5.646694249380935"><ele>621.0</ele><time>2026-05-03T15:21:37Z</time></trkpt><trkpt lat="43.99937191458705" lon="5.646815763521371"><ele>621.0</ele><time>2026-05-03T15:21:39Z</time></trkpt><trkpt lat="43.999391742631616" lon="5.646930958236477"><ele>621.0</ele><time>2026-05-03T15:21:41Z</time></trkpt><trkpt lat="43.999370309940566" lon="5.647048959189711"><ele>621.0</ele><time>2026-05-03T15:21:43Z</time></trkpt><trkpt lat="43.99935774117982" lon="5.647163378165781"><ele>621.0</ele><time>2026-05-03T15:21:45Z</time></trkpt><trkpt lat="43.99935423313414" lon="5.647270938374047"><ele>621.0</ele><time>2026-05-03T15:21:47Z</time></trkpt><trkpt lat="43.99933066827644" lon="5.6473749223192895"><ele>621.0</ele><time>2026-05-03T15:21:49Z</time></trkpt><trkpt lat="43.99930540744461" lon="5.647476787125068"><ele>622.4</ele><time>2026-05-03T15:21:51Z</time></trkpt><trkpt lat="43.999260172423526" lon="5.647581669813589"><ele>623.8</ele><time>2026-05-03T15:21:53Z</time></trkpt><trkpt lat="43.999210552591556" lon="5.647710094270199"><ele>625.1999999999999</ele><time>2026-05-03T15:21:55Z</time></trkpt><trkpt lat="43.99916573417926" lon="5.64781720271792"><ele>626.6</ele><time>2026-05-03T15:21:57Z</time></trkpt><trkpt lat="43.99909493037566" lon="5.647904639747032"><ele>628.0</ele><time>2026-05-03T15:21:59Z</time></trkpt><trkpt lat="43.9990063834041" lon="5.648000731964228"><ele>631.8</ele><time>2026-05-03T15:22:01Z</time></trkpt><trkpt lat="43.99891142931942" lon="5.648073092984383"><ele>635.5999999999999</ele><time>2026-05-03T15:22:03Z</time></trkpt><trkpt lat="43.998817756805835" lon="5.6481740736437205"><ele>639.4000000000001</ele><time>2026-05-03T15:22:05Z</time></trkpt><trkpt lat="43.998743539468094" lon="5.648269889068385"><ele>643.2</ele><time>2026-05-03T15:22:07Z</time></trkpt><trkpt lat="43.998678889840846" lon="5.6483563512325246"><ele>647.0</ele><time>2026-05-03T15:22:09Z</time></trkpt><trkpt lat="43.99859324322834" lon="5.648432144807547"><ele>647.0</ele><time>2026-05-03T15:22:11Z</time></trkpt><trkpt lat="43.99851375501964" lon="5.648525384452965"><ele>647.0</ele><time>2026-05-03T15:22:13Z</time></trkpt><trkpt lat="43.998445035208775" lon="5.648578228228327"><ele>647.0</ele><time>2026-05-03T15:22:15Z</time></trkpt><trkpt lat="43.998368489804996" lon="5.6486809525286965"><ele>647.0</ele><time>2026-05-03T15:22:17Z</time></trkpt><trkpt lat="43.99828180385465" lon="5.648798001402354"><ele>647.0</ele><time>2026-05-03T15:22:19Z</time></trkpt><trkpt lat="43.99818357560185" lon="5.648888852350933"><ele>651.4000000000001</ele><time>2026-05-03T15:22:20.999Z</time></trkpt><trkpt lat="43.99811871593847" lon="5.648907672321093"><ele>655.8000000000001</ele><time>2026-05-03T15:22:21.999Z</time></trkpt><trkpt lat="43.99800860773747" lon="5.648936941837145"><ele>660.2</ele><time>2026-05-03T15:22:23.999Z</time></trkpt><trkpt lat="43.997943330638115" lon="5.648945688198507"><ele>664.6</ele><time>2026-05-03T15:22:24.999Z</time></trkpt><trkpt lat="43.99782511259172" lon="5.648950421638082"><ele>669.0</ele><time>2026-05-03T15:22:26.999Z</time></trkpt><trkpt lat="43.99769553601362" lon="5.6489632966218"><ele>669.0</ele><time>2026-05-03T15:22:28.999Z</time></trkpt><trkpt lat="43.997571567890375" lon="5.64898317622993"><ele>669.0</ele><time>2026-05-03T15:22:30.999Z</time></trkpt><trkpt lat="43.99745769656874" lon="5.649006126392159"><ele>669.0</ele><time>2026-05-03T15:22:32.999Z</time></trkpt><trkpt lat="43.99733935046345" lon="5.649068637835173"><ele>669.0</ele><time>2026-05-03T15:22:34.999Z</time></trkpt><trkpt lat="43.99723438028589" lon="5.649165615939287"><ele>669.3333333333334</ele><time>2026-05-03T15:22:36.999Z</time></trkpt><trkpt lat="43.99718732781703" lon="5.649227170840691"><ele>669.6666666666666</ele><time>2026-05-03T15:22:37.999Z</time></trkpt><trkpt lat="43.997137633794196" lon="5.6493000381810905"><ele>670.0</ele><time>2026-05-03T15:22:38.999Z</time></trkpt><trkpt lat="43.99705213898441" lon="5.6494185355482065"><ele>670.3333333333333</ele><time>2026-05-03T15:22:40.999Z</time></trkpt><trkpt lat="43.9969760222182" lon="5.649544813303295"><ele>670.6666666666666</ele><time>2026-05-03T15:22:42.999Z</time></trkpt><trkpt lat="43.99692982439324" lon="5.6496059984521265"><ele>671.0</ele><time>2026-05-03T15:22:43.999Z</time></trkpt><trkpt lat="43.99687723443555" lon="5.649660889693224"><ele>675.0</ele><time>2026-05-03T15:22:44.999Z</time></trkpt><trkpt lat="43.99677688562674" lon="5.649741078369639"><ele>679.0</ele><time>2026-05-03T15:22:46.999Z</time></trkpt><trkpt lat="43.99667402282439" lon="5.649820224414143"><ele>683.0</ele><time>2026-05-03T15:22:48.999Z</time></trkpt><trkpt lat="43.996564892228044" lon="5.64992170379859"><ele>687.0</ele><time>2026-05-03T15:22:50.999Z</time></trkpt><trkpt lat="43.99649943692733" lon="5.649972393149447"><ele>691.0</ele><time>2026-05-03T15:22:51.999Z</time></trkpt><trkpt lat="43.99642849446258" lon="5.6500030116897815"><ele>691.0</ele><time>2026-05-03T15:22:52.999Z</time></trkpt><trkpt lat="43.99635126167368" lon="5.650034914029289"><ele>691.0</ele><time>2026-05-03T15:22:53.999Z</time></trkpt><trkpt lat="43.99629085796451" lon="5.650072574996132"><ele>691.0</ele><time>2026-05-03T15:22:54.999Z</time></trkpt><trkpt lat="43.99616892287515" lon="5.65015797757832"><ele>691.0</ele><time>2026-05-03T15:22:56.999Z</time></trkpt><trkpt lat="43.99610323735962" lon="5.650213259775187"><ele>691.0</ele><time>2026-05-03T15:22:57.999Z</time></trkpt><trkpt lat="43.99603657772074" lon="5.650264954163426"><ele>691.0</ele><time>2026-05-03T15:22:58.999Z</time></trkpt><trkpt lat="43.995965968237066" lon="5.650311499663256"><ele>694.8333333333334</ele><time>2026-05-03T15:22:59.999Z</time></trkpt><trkpt lat="43.99588729721886" lon="5.650356421243897"><ele>698.6666666666667</ele><time>2026-05-03T15:23:00.999Z</time></trkpt><trkpt lat="43.995819134254816" lon="5.650404754076083"><ele>702.5</ele><time>2026-05-03T15:23:01.999Z</time></trkpt><trkpt lat="43.99575640630014" lon="5.650441546253121"><ele>706.3333333333334</ele><time>2026-05-03T15:23:02.999Z</time></trkpt><trkpt lat="43.99569038641038" lon="5.650497120258007"><ele>710.1666666666666</ele><time>2026-05-03T15:23:03.999Z</time></trkpt><trkpt lat="43.99560178241209" lon="5.650608429174996"><ele>714.0</ele><time>2026-05-03T15:23:05.999Z</time></trkpt><trkpt lat="43.99554858436863" lon="5.650662109593704"><ele>714.0</ele><time>2026-05-03T15:23:06.999Z</time></trkpt><trkpt lat="43.99548794095314" lon="5.650719556749874"><ele>714.0</ele><time>2026-05-03T15:23:07.999Z</time></trkpt><trkpt lat="43.99542763477028" lon="5.650763799425037"><ele>714.0</ele><time>2026-05-03T15:23:08.999Z</time></trkpt><trkpt lat="43.99536885065523" lon="5.650798389242942"><ele>714.0</ele><time>2026-05-03T15:23:09.999Z</time></trkpt><trkpt lat="43.99530589677381" lon="5.650828079743252"><ele>714.0</ele><time>2026-05-03T15:23:10.999Z</time></trkpt><trkpt lat="43.99523802017607" lon="5.65087598685473"><ele>714.0</ele><time>2026-05-03T15:23:11.999Z</time></trkpt><trkpt lat="43.995174459729505" lon="5.650925719995861"><ele>714.0</ele><time>2026-05-03T15:23:12.999Z</time></trkpt><trkpt lat="43.99511130428839" lon="5.650976946339707"><ele>714.0</ele><time>2026-05-03T15:23:13.999Z</time></trkpt><trkpt lat="43.99504095338656" lon="5.651034779057137"><ele>714.0</ele><time>2026-05-03T15:23:14.999Z</time></trkpt><trkpt lat="43.99492977067563" lon="5.651134704788158"><ele>714.0</ele><time>2026-05-03T15:23:16.999Z</time></trkpt><trkpt lat="43.99482267619646" lon="5.651250488787442"><ele>714.0</ele><time>2026-05-03T15:23:18.999Z</time></trkpt><trkpt lat="43.994746147281326" lon="5.651316501138149"><ele>714.0</ele><time>2026-05-03T15:23:19.999Z</time></trkpt><trkpt lat="43.99467649856475" lon="5.651378805698387"><ele>717.3333333333334</ele><time>2026-05-03T15:23:20.999Z</time></trkpt><trkpt lat="43.99460339602797" lon="5.65143157382245"><ele>720.6666666666666</ele><time>2026-05-03T15:23:21.999Z</time></trkpt><trkpt lat="43.994533460522376" lon="5.6514650762321335"><ele>724.0</ele><time>2026-05-03T15:23:22.999Z</time></trkpt><trkpt lat="43.99445210922199" lon="5.651506551488226"><ele>727.3333333333333</ele><time>2026-05-03T15:23:23.999Z</time></trkpt><trkpt lat="43.994381228598186" lon="5.651537571145119"><ele>730.6666666666666</ele><time>2026-05-03T15:23:24.999Z</time></trkpt><trkpt lat="43.994309405045676" lon="5.651582180871479"><ele>734.0</ele><time>2026-05-03T15:23:26.999Z</time></trkpt><trkpt lat="43.994267430047636" lon="5.651656952417508"><ele>734.0</ele><time>2026-05-03T15:23:34Z</time></trkpt><trkpt lat="43.99419556181149" lon="5.651724606477375"><ele>734.0</ele><time>2026-05-03T15:23:36Z</time></trkpt><trkpt lat="43.9941217838216" lon="5.6517974677322265"><ele>734.0</ele><time>2026-05-03T15:23:38Z</time></trkpt><trkpt lat="43.99406100593244" lon="5.651851410586307"><ele>734.0</ele><time>2026-05-03T15:23:40Z</time></trkpt><trkpt lat="43.99399558055106" lon="5.65188967823152"><ele>734.0</ele><time>2026-05-03T15:23:42Z</time></trkpt><trkpt lat="43.99390829372293" lon="5.6519481018916435"><ele>734.0</ele><time>2026-05-03T15:23:44Z</time></trkpt><trkpt lat="43.99382771597309" lon="5.65198918621584"><ele>735.3333333333333</ele><time>2026-05-03T15:23:46Z</time></trkpt><trkpt lat="43.99376554688032" lon="5.652031038568589"><ele>736.6666666666666</ele><time>2026-05-03T15:23:48Z</time></trkpt><trkpt lat="43.99373183010968" lon="5.652127454067308"><ele>738.0</ele><time>2026-05-03T15:23:50Z</time></trkpt><trkpt lat="43.99372106649637" lon="5.652226619824708"><ele>739.3333333333334</ele><time>2026-05-03T15:23:52Z</time></trkpt><trkpt lat="43.9937185670783" lon="5.652323619585583"><ele>740.6666666666667</ele><time>2026-05-03T15:24:07Z</time></trkpt><trkpt lat="43.99368994631125" lon="5.652420540360457"><ele>742.0</ele><time>2026-05-03T15:24:13Z</time></trkpt><trkpt lat="43.99365153886471" lon="5.652534940102881"><ele>742.0</ele><time>2026-05-03T15:24:17Z</time></trkpt><trkpt lat="43.993636777744875" lon="5.6526493638701325"><ele>742.0</ele><time>2026-05-03T15:24:19Z</time></trkpt><trkpt lat="43.99363539729364" lon="5.65276886908557"><ele>742.0</ele><time>2026-05-03T15:24:21Z</time></trkpt><trkpt lat="43.993623897384104" lon="5.652861400379382"><ele>742.0</ele><time>2026-05-03T15:24:22.999Z</time></trkpt><trkpt lat="43.993630364762005" lon="5.652963421654221"><ele>742.0</ele><time>2026-05-03T15:24:26.999Z</time></trkpt><trkpt lat="43.993620893351235" lon="5.653065876588625"><ele>742.0</ele><time>2026-05-03T15:24:35.999Z</time></trkpt><trkpt lat="43.993614484612046" lon="5.653173003122552"><ele>741.4000000000001</ele><time>2026-05-03T15:25:19.999Z</time></trkpt><trkpt lat="43.99356371544113" lon="5.653295089207897"><ele>740.8000000000001</ele><time>2026-05-03T15:25:23.999Z</time></trkpt><trkpt lat="43.99354580556889" lon="5.653417165248581"><ele>740.2</ele><time>2026-05-03T15:25:25.999Z</time></trkpt><trkpt lat="43.99352860835201" lon="5.653541676640524"><ele>739.6</ele><time>2026-05-03T15:25:27.999Z</time></trkpt><trkpt lat="43.9935102546476" lon="5.653651493709377"><ele>739.0</ele><time>2026-05-03T15:25:29.998Z</time></trkpt><trkpt lat="43.99346858033224" lon="5.653800473416984"><ele>737.6666666666667</ele><time>2026-05-03T15:25:31.998Z</time></trkpt><trkpt lat="43.993397437051705" lon="5.653828794214796"><ele>736.3333333333334</ele><time>2026-05-03T15:25:32.998Z</time></trkpt><trkpt lat="43.99331001929531" lon="5.653951922932067"><ele>735.0</ele><time>2026-05-03T15:25:35Z</time></trkpt><trkpt lat="43.993257106946054" lon="5.654014638744712"><ele>733.6666666666666</ele><time>2026-05-03T15:25:36Z</time></trkpt><trkpt lat="43.993199732223395" lon="5.654083121457868"><ele>732.3333333333333</ele><time>2026-05-03T15:25:37Z</time></trkpt><trkpt lat="43.993136234188285" lon="5.6541664928093756"><ele>731.0</ele><time>2026-05-03T15:25:38Z</time></trkpt><trkpt lat="43.99308497820085" lon="5.654247865857691"><ele>730.0</ele><time>2026-05-03T15:25:39Z</time></trkpt><trkpt lat="43.99301625228538" lon="5.654325606833756"><ele>729.0</ele><time>2026-05-03T15:25:40Z</time></trkpt><trkpt lat="43.99295034465591" lon="5.654417833274299"><ele>728.0</ele><time>2026-05-03T15:25:41Z</time></trkpt><trkpt lat="43.99288579850096" lon="5.654513851713107"><ele>727.0</ele><time>2026-05-03T15:25:42Z</time></trkpt><trkpt lat="43.99282160866954" lon="5.654611679963267"><ele>726.0</ele><time>2026-05-03T15:25:43Z</time></trkpt><trkpt lat="43.99275590061008" lon="5.6547139058552816"><ele>724.5</ele><time>2026-05-03T15:25:44Z</time></trkpt><trkpt lat="43.99269350720797" lon="5.654801282232261"><ele>723.0</ele><time>2026-05-03T15:25:45Z</time></trkpt><trkpt lat="43.99264060491085" lon="5.6548855642954114"><ele>721.5</ele><time>2026-05-03T15:25:46Z</time></trkpt><trkpt lat="43.992597333608906" lon="5.654983727681151"><ele>720.0</ele><time>2026-05-03T15:25:47Z</time></trkpt><trkpt lat="43.99253933359728" lon="5.655069130701226"><ele>718.5</ele><time>2026-05-03T15:25:48Z</time></trkpt><trkpt lat="43.992490454981784" lon="5.655165986648684"><ele>717.0</ele><time>2026-05-03T15:25:49Z</time></trkpt><trkpt lat="43.99244405884008" lon="5.655259105408843"><ele>715.8333333333334</ele><time>2026-05-03T15:25:50Z</time></trkpt><trkpt lat="43.99240221160271" lon="5.655377802249425"><ele>714.6666666666666</ele><time>2026-05-03T15:25:51Z</time></trkpt><trkpt lat="43.992370392878065" lon="5.655485765906556"><ele>713.5</ele><time>2026-05-03T15:25:52Z</time></trkpt><trkpt lat="43.99234710587616" lon="5.655596607564419"><ele>712.3333333333333</ele><time>2026-05-03T15:25:53Z</time></trkpt><trkpt lat="43.992335947140354" lon="5.655690749223748"><ele>711.1666666666666</ele><time>2026-05-03T15:25:54Z</time></trkpt><trkpt lat="43.992308221833134" lon="5.6558059169380375"><ele>710.0</ele><time>2026-05-03T15:25:56Z</time></trkpt><trkpt lat="43.992264472093176" lon="5.65591666386559"><ele>710.0</ele><time>2026-05-03T15:25:58Z</time></trkpt><trkpt lat="43.9921788705905" lon="5.655930402585481"><ele>710.0</ele><time>2026-05-03T15:26:00Z</time></trkpt><trkpt lat="43.9920710458868" lon="5.65594876212422"><ele>710.0</ele><time>2026-05-03T15:26:02Z</time></trkpt><trkpt lat="43.99197639222188" lon="5.655947967638972"><ele>710.0</ele><time>2026-05-03T15:26:04Z</time></trkpt><trkpt lat="43.991907760316195" lon="5.655955994623579"><ele>710.0</ele><time>2026-05-03T15:26:06Z</time></trkpt><trkpt lat="43.991801554088234" lon="5.655951033296321"><ele>710.0</ele><time>2026-05-03T15:26:08Z</time></trkpt><trkpt lat="43.99170549468098" lon="5.655962148822167"><ele>710.0</ele><time>2026-05-03T15:26:10Z</time></trkpt><trkpt lat="43.99164313856568" lon="5.6559796431481635"><ele>710.0</ele><time>2026-05-03T15:26:32.999Z</time></trkpt><trkpt lat="43.99171529272949" lon="5.655979803093438"><ele>710.0</ele><time>2026-05-03T15:26:49.999Z</time></trkpt><trkpt lat="43.99181476507496" lon="5.65594231406621"><ele>710.0</ele><time>2026-05-03T15:26:55.999Z</time></trkpt><trkpt lat="43.99190565949208" lon="5.655944059714485"><ele>710.0</ele><time>2026-05-03T15:26:57.999Z</time></trkpt><trkpt lat="43.99198684512375" lon="5.655938685025666"><ele>710.0</ele><time>2026-05-03T15:26:59.999Z</time></trkpt><trkpt lat="43.99206103755912" lon="5.655944118972419"><ele>710.0</ele><time>2026-05-03T15:27:01.999Z</time></trkpt><trkpt lat="43.992138133997805" lon="5.655956423362029"><ele>710.0</ele><time>2026-05-03T15:27:03.999Z</time></trkpt><trkpt lat="43.992219033743304" lon="5.655949631164779"><ele>710.0</ele><time>2026-05-03T15:27:05.999Z</time></trkpt><trkpt lat="43.99230132244126" lon="5.655921155462607"><ele>710.0</ele><time>2026-05-03T15:27:08.999Z</time></trkpt><trkpt lat="43.9923475867432" lon="5.6560073351266125"><ele>710.0</ele><time>2026-05-03T15:27:12.999Z</time></trkpt><trkpt lat="43.99230172072044" lon="5.656072927855625"><ele>709.6666666666666</ele><time>2026-05-03T15:27:14.999Z</time></trkpt><trkpt lat="43.99223573238512" lon="5.656196837102993"><ele>709.3333333333333</ele><time>2026-05-03T15:27:16.999Z</time></trkpt><trkpt lat="43.99220270161034" lon="5.656274990164321"><ele>709.0</ele><time>2026-05-03T15:27:18.999Z</time></trkpt><trkpt lat="43.9921498792917" lon="5.656376759876335"><ele>708.6666666666666</ele><time>2026-05-03T15:27:21.999Z</time></trkpt><trkpt lat="43.99213353486861" lon="5.656465384853287"><ele>708.3333333333334</ele><time>2026-05-03T15:27:24.999Z</time></trkpt><trkpt lat="43.99215587334785" lon="5.656565622892831"><ele>708.0</ele><time>2026-05-03T15:27:28.999Z</time></trkpt><trkpt lat="43.99223533563867" lon="5.656624671641811"><ele>708.0</ele><time>2026-05-03T15:27:30.998Z</time></trkpt><trkpt lat="43.99230750004337" lon="5.656676402052532"><ele>708.0</ele><time>2026-05-03T15:27:32.998Z</time></trkpt><trkpt lat="43.992396837640236" lon="5.656722357217051"><ele>708.0</ele><time>2026-05-03T15:27:34.998Z</time></trkpt><trkpt lat="43.99247412343454" lon="5.656770717142144"><ele>708.0</ele><time>2026-05-03T15:27:36.998Z</time></trkpt><trkpt lat="43.99255130823952" lon="5.656850678136121"><ele>708.0</ele><time>2026-05-03T15:27:38.998Z</time></trkpt><trkpt lat="43.992606528299206" lon="5.656974265050601"><ele>708.0</ele><time>2026-05-03T15:27:41Z</time></trkpt><trkpt lat="43.992689844899665" lon="5.657038837075252"><ele>708.0</ele><time>2026-05-03T15:27:43Z</time></trkpt><trkpt lat="43.99277490787899" lon="5.65715803705135"><ele>708.0</ele><time>2026-05-03T15:27:45Z</time></trkpt><trkpt lat="43.992827986448454" lon="5.6572065962320455"><ele>708.0</ele><time>2026-05-03T15:27:46Z</time></trkpt><trkpt lat="43.99287386456979" lon="5.657276029303955"><ele>708.0</ele><time>2026-05-03T15:27:47Z</time></trkpt><trkpt lat="43.99294297780631" lon="5.657430359464088"><ele>708.0</ele><time>2026-05-03T15:27:49Z</time></trkpt><trkpt lat="43.993018893844436" lon="5.657574577983331"><ele>708.0</ele><time>2026-05-03T15:27:51Z</time></trkpt><trkpt lat="43.99306655152461" lon="5.657639413000059"><ele>708.0</ele><time>2026-05-03T15:27:52Z</time></trkpt><trkpt lat="43.9930984216278" lon="5.657716325840614"><ele>708.0</ele><time>2026-05-03T15:27:53Z</time></trkpt><trkpt lat="43.993167528856596" lon="5.657828229634923"><ele>708.0</ele><time>2026-05-03T15:27:55Z</time></trkpt><trkpt lat="43.99320308608317" lon="5.65790173529605"><ele>708.0</ele><time>2026-05-03T15:27:56Z</time></trkpt><trkpt lat="43.993249175961125" lon="5.6579767541602095"><ele>708.3333333333334</ele><time>2026-05-03T15:27:57Z</time></trkpt><trkpt lat="43.99330415496229" lon="5.658039780144508"><ele>708.6666666666666</ele><time>2026-05-03T15:27:58Z</time></trkpt><trkpt lat="43.99335550820347" lon="5.658098649630091"><ele>709.0</ele><time>2026-05-03T15:27:59Z</time></trkpt><trkpt lat="43.99340602131063" lon="5.658154777370801"><ele>709.3333333333333</ele><time>2026-05-03T15:28:00Z</time></trkpt><trkpt lat="43.99350341547113" lon="5.6582612088469935"><ele>709.6666666666666</ele><time>2026-05-03T15:28:02Z</time></trkpt><trkpt lat="43.99355364950245" lon="5.658314656831955"><ele>710.0</ele><time>2026-05-03T15:28:03Z</time></trkpt><trkpt lat="43.993625792282806" lon="5.65839141526861"><ele>710.0</ele><time>2026-05-03T15:28:04Z</time></trkpt><trkpt lat="43.99368927790352" lon="5.658457425206201"><ele>710.0</ele><time>2026-05-03T15:28:05Z</time></trkpt><trkpt lat="43.99376238919827" lon="5.658532930562775"><ele>710.0</ele><time>2026-05-03T15:28:06Z</time></trkpt><trkpt lat="43.99384997138592" lon="5.658601487983681"><ele>710.0</ele><time>2026-05-03T15:28:07Z</time></trkpt><trkpt lat="43.993927857072" lon="5.658703952815631"><ele>710.0</ele><time>2026-05-03T15:28:08Z</time></trkpt><trkpt lat="43.99401022030335" lon="5.658761887988718"><ele>710.0</ele><time>2026-05-03T15:28:09Z</time></trkpt><trkpt lat="43.994074157558124" lon="5.658851269955437"><ele>710.0</ele><time>2026-05-03T15:28:10Z</time></trkpt><trkpt lat="43.99413162610301" lon="5.658888649773396"><ele>710.0</ele><time>2026-05-03T15:28:11Z</time></trkpt><trkpt lat="43.99419403455385" lon="5.658969074839051"><ele>710.0</ele><time>2026-05-03T15:28:12Z</time></trkpt><trkpt lat="43.994275674757084" lon="5.659032649550537"><ele>710.0</ele><time>2026-05-03T15:28:13Z</time></trkpt><trkpt lat="43.99434293535157" lon="5.659093098015893"><ele>710.0</ele><time>2026-05-03T15:28:14Z</time></trkpt><trkpt lat="43.994407336993625" lon="5.659142289154703"><ele>709.0</ele><time>2026-05-03T15:28:15Z</time></trkpt><trkpt lat="43.99447203884081" lon="5.65916778796918"><ele>708.0</ele><time>2026-05-03T15:28:16Z</time></trkpt><trkpt lat="43.99456776788829" lon="5.6591820313687355"><ele>707.0</ele><time>2026-05-03T15:28:18Z</time></trkpt><trkpt lat="43.99466226369051" lon="5.659133489183364"><ele>706.0</ele><time>2026-05-03T15:28:20Z</time></trkpt><trkpt lat="43.994811780424705" lon="5.659103360476109"><ele>705.0</ele><time>2026-05-03T15:28:23.999Z</time></trkpt><trkpt lat="43.99488348588342" lon="5.659152700068938"><ele>705.0</ele><time>2026-05-03T15:28:25.999Z</time></trkpt><trkpt lat="43.994959246531586" lon="5.6592079555271635"><ele>705.0</ele><time>2026-05-03T15:28:27.999Z</time></trkpt><trkpt lat="43.995052871857126" lon="5.659263740606872"><ele>705.0</ele><time>2026-05-03T15:28:29.999Z</time></trkpt><trkpt lat="43.995138308394516" lon="5.659350094809256"><ele>705.0</ele><time>2026-05-03T15:28:31.999Z</time></trkpt><trkpt lat="43.99524903617698" lon="5.6594316148332515"><ele>705.0</ele><time>2026-05-03T15:28:33.999Z</time></trkpt><trkpt lat="43.99534139350221" lon="5.659518058667421"><ele>704.1666666666666</ele><time>2026-05-03T15:28:35.999Z</time></trkpt><trkpt lat="43.9954441203028" lon="5.65959709421987"><ele>703.3333333333334</ele><time>2026-05-03T15:28:37.999Z</time></trkpt><trkpt lat="43.995516649787966" lon="5.659641883711107"><ele>702.5</ele><time>2026-05-03T15:28:38.999Z</time></trkpt><trkpt lat="43.99559499317864" lon="5.659689672607284"><ele>701.6666666666667</ele><time>2026-05-03T15:28:39.999Z</time></trkpt><trkpt lat="43.99566030459954" lon="5.659730798334992"><ele>700.8333333333334</ele><time>2026-05-03T15:28:40.999Z</time></trkpt><trkpt lat="43.995718956430046" lon="5.659770689343552"><ele>700.0</ele><time>2026-05-03T15:28:41.999Z</time></trkpt><trkpt lat="43.99578941154879" lon="5.659824535941267"><ele>700.0</ele><time>2026-05-03T15:28:42.999Z</time></trkpt><trkpt lat="43.995833570022505" lon="5.6599144272164255"><ele>700.0</ele><time>2026-05-03T15:28:43.999Z</time></trkpt><trkpt lat="43.99591005082922" lon="5.660036277825877"><ele>700.0</ele><time>2026-05-03T15:28:45.999Z</time></trkpt><trkpt lat="43.99595216708424" lon="5.6601958740283775"><ele>700.0</ele><time>2026-05-03T15:28:47.999Z</time></trkpt><trkpt lat="43.99597132532892" lon="5.660280512402934"><ele>700.0</ele><time>2026-05-03T15:28:48.999Z</time></trkpt><trkpt lat="43.995985967326334" lon="5.660417837267339"><ele>700.0</ele><time>2026-05-03T15:28:50.999Z</time></trkpt><trkpt lat="43.995993879246086" lon="5.660536705900556"><ele>700.0</ele><time>2026-05-03T15:28:52.999Z</time></trkpt><trkpt lat="43.995998187286666" lon="5.660677756939734"><ele>700.0</ele><time>2026-05-03T15:28:54.999Z</time></trkpt><trkpt lat="43.99605880938509" lon="5.660811473524765"><ele>700.0</ele><time>2026-05-03T15:28:56.999Z</time></trkpt><trkpt lat="43.99614975561408" lon="5.660921960096741"><ele>700.0</ele><time>2026-05-03T15:28:58.999Z</time></trkpt><trkpt lat="43.99621921632329" lon="5.660990936815748"><ele>700.0</ele><time>2026-05-03T15:29:00.999Z</time></trkpt><trkpt lat="43.996298484356586" lon="5.661103713524233"><ele>700.0</ele><time>2026-05-03T15:29:02.999Z</time></trkpt><trkpt lat="43.996365227896305" lon="5.661218168914457"><ele>700.0</ele><time>2026-05-03T15:29:04.999Z</time></trkpt><trkpt lat="43.99641946497523" lon="5.661312788123499"><ele>700.0</ele><time>2026-05-03T15:29:06.999Z</time></trkpt><trkpt lat="43.99647399556481" lon="5.661403464365377"><ele>700.0</ele><time>2026-05-03T15:29:08.999Z</time></trkpt><trkpt lat="43.99661837324853" lon="5.661456301563299"><ele>699.6666666666667</ele><time>2026-05-03T15:29:36.998Z</time></trkpt><trkpt lat="43.99664417431951" lon="5.661556388511873"><ele>699.3333333333334</ele><time>2026-05-03T15:29:38.998Z</time></trkpt><trkpt lat="43.99670203345964" lon="5.661616442228567"><ele>699.0</ele><time>2026-05-03T15:29:40.998Z</time></trkpt><trkpt lat="43.99678357635388" lon="5.661608240842912"><ele>698.6666666666666</ele><time>2026-05-03T15:29:42.998Z</time></trkpt><trkpt lat="43.996834712398474" lon="5.661542199733758"><ele>698.3333333333333</ele><time>2026-05-03T15:29:44.998Z</time></trkpt><trkpt lat="43.99686560489195" lon="5.661430217586921"><ele>698.0</ele><time>2026-05-03T15:29:47Z</time></trkpt><trkpt lat="43.99689679613669" lon="5.661312152769312"><ele>699.4</ele><time>2026-05-03T15:29:49Z</time></trkpt><trkpt lat="43.996955049628596" lon="5.661203554080737"><ele>700.8</ele><time>2026-05-03T15:29:51Z</time></trkpt><trkpt lat="43.99703937000506" lon="5.661100127590437"><ele>702.2</ele><time>2026-05-03T15:29:53Z</time></trkpt><trkpt lat="43.99710155433381" lon="5.661074059301436"><ele>703.6</ele><time>2026-05-03T15:29:54Z</time></trkpt><trkpt lat="43.99720970105218" lon="5.661041775359277"><ele>705.0</ele><time>2026-05-03T15:29:56Z</time></trkpt><trkpt lat="43.99732988353496" lon="5.661036073437553"><ele>705.4285714285713</ele><time>2026-05-03T15:29:58Z</time></trkpt><trkpt lat="43.99739293376586" lon="5.66103590891685"><ele>705.8571428571429</ele><time>2026-05-03T15:29:59Z</time></trkpt><trkpt lat="43.99745657404969" lon="5.661036867373302"><ele>706.2857142857142</ele><time>2026-05-03T15:30:00Z</time></trkpt><trkpt lat="43.99753776367362" lon="5.6610395044688655"><ele>706.7142857142857</ele><time>2026-05-03T15:30:01Z</time></trkpt><trkpt lat="43.997606275855816" lon="5.661040713721246"><ele>707.1428571428571</ele><time>2026-05-03T15:30:02Z</time></trkpt><trkpt lat="43.997678221827364" lon="5.661041867415628"><ele>707.5714285714286</ele><time>2026-05-03T15:30:03Z</time></trkpt><trkpt lat="43.99775309980539" lon="5.661035276009218"><ele>708.0</ele><time>2026-05-03T15:30:04Z</time></trkpt><trkpt lat="43.99782156838036" lon="5.661028479823176"><ele>709.0</ele><time>2026-05-03T15:30:05Z</time></trkpt><trkpt lat="43.99789619244106" lon="5.661016248333436"><ele>710.0</ele><time>2026-05-03T15:30:06Z</time></trkpt><trkpt lat="43.99797648939688" lon="5.661004049198239"><ele>711.0</ele><time>2026-05-03T15:30:07Z</time></trkpt><trkpt lat="43.99804541261138" lon="5.660983078990412"><ele>712.0</ele><time>2026-05-03T15:30:08Z</time></trkpt><trkpt lat="43.998131525181385" lon="5.660964311877566"><ele>713.0</ele><time>2026-05-03T15:30:09Z</time></trkpt><trkpt lat="43.99819561540732" lon="5.660954639716056"><ele>714.0</ele><time>2026-05-03T15:30:10Z</time></trkpt><trkpt lat="43.99825910610422" lon="5.660942402110316"><ele>715.0</ele><time>2026-05-03T15:30:11Z</time></trkpt><trkpt lat="43.99838911458452" lon="5.660915245885355"><ele>715.8333333333334</ele><time>2026-05-03T15:30:13Z</time></trkpt><trkpt lat="43.998449374266926" lon="5.660879086542532"><ele>716.6666666666667</ele><time>2026-05-03T15:30:14Z</time></trkpt><trkpt lat="43.99852776717962" lon="5.660867831517814"><ele>717.5</ele><time>2026-05-03T15:30:15Z</time></trkpt><trkpt lat="43.99860069597461" lon="5.660847162795438"><ele>718.3333333333334</ele><time>2026-05-03T15:30:16Z</time></trkpt><trkpt lat="43.998671477068385" lon="5.6608273263640925"><ele>719.1666666666666</ele><time>2026-05-03T15:30:17Z</time></trkpt><trkpt lat="43.99875299411236" lon="5.660809094939532"><ele>720.0</ele><time>2026-05-03T15:30:18Z</time></trkpt><trkpt lat="43.99888415686052" lon="5.660791198892343"><ele>720.0</ele><time>2026-05-03T15:30:20Z</time></trkpt><trkpt lat="43.998956158623" lon="5.660790287578855"><ele>720.0</ele><time>2026-05-03T15:30:21Z</time></trkpt><trkpt lat="43.99903159086626" lon="5.6607982693113605"><ele>720.0</ele><time>2026-05-03T15:30:22Z</time></trkpt><trkpt lat="43.99911340230711" lon="5.660812258601448"><ele>720.0</ele><time>2026-05-03T15:30:23Z</time></trkpt><trkpt lat="43.99919154012565" lon="5.660829225411244"><ele>720.0</ele><time>2026-05-03T15:30:24Z</time></trkpt><trkpt lat="43.99928031719114" lon="5.660829340042654"><ele>720.0</ele><time>2026-05-03T15:30:25Z</time></trkpt><trkpt lat="43.999360972264384" lon="5.66085791901467"><ele>720.1428571428571</ele><time>2026-05-03T15:30:26Z</time></trkpt><trkpt lat="43.99944050753538" lon="5.660875133557082"><ele>720.2857142857143</ele><time>2026-05-03T15:30:27Z</time></trkpt><trkpt lat="43.99951417932833" lon="5.660891212994758"><ele>720.4285714285714</ele><time>2026-05-03T15:30:27.999Z</time></trkpt><trkpt lat="43.999592567367614" lon="5.660901256403645"><ele>720.5714285714286</ele><time>2026-05-03T15:30:28.999Z</time></trkpt><trkpt lat="43.9996608769478" lon="5.660917177630238"><ele>720.7142857142858</ele><time>2026-05-03T15:30:29.999Z</time></trkpt><trkpt lat="43.999729415573825" lon="5.660926411575279"><ele>720.8571428571429</ele><time>2026-05-03T15:30:30.999Z</time></trkpt><trkpt lat="43.9997968524755" lon="5.6609416973175755"><ele>721.0</ele><time>2026-05-03T15:30:31.999Z</time></trkpt><trkpt lat="43.99990315198676" lon="5.660948942048008"><ele>721.0</ele><time>2026-05-03T15:30:33.999Z</time></trkpt><trkpt lat="44.00000512361027" lon="5.660911488231632"><ele>721.0</ele><time>2026-05-03T15:30:35.999Z</time></trkpt><trkpt lat="44.00006937398621" lon="5.660938801703364"><ele>721.0</ele><time>2026-05-03T15:30:36.999Z</time></trkpt><trkpt lat="44.00012650880473" lon="5.660981850229026"><ele>721.0</ele><time>2026-05-03T15:30:37.999Z</time></trkpt><trkpt lat="44.000245544388555" lon="5.661064652014375"><ele>721.0</ele><time>2026-05-03T15:30:39.999Z</time></trkpt><trkpt lat="44.00032429972353" lon="5.66108962851522"><ele>720.6666666666667</ele><time>2026-05-03T15:30:40.999Z</time></trkpt><trkpt lat="44.00040491211124" lon="5.661119823262923"><ele>720.3333333333334</ele><time>2026-05-03T15:30:41.999Z</time></trkpt><trkpt lat="44.00048689181003" lon="5.661146754893715"><ele>720.0</ele><time>2026-05-03T15:30:42.999Z</time></trkpt><trkpt lat="44.000566618086204" lon="5.66116282110596"><ele>719.6666666666666</ele><time>2026-05-03T15:30:43.999Z</time></trkpt><trkpt lat="44.00066052280642" lon="5.66118271434926"><ele>719.3333333333333</ele><time>2026-05-03T15:30:44.999Z</time></trkpt><trkpt lat="44.00072354232969" lon="5.661206252625937"><ele>719.0</ele><time>2026-05-03T15:30:45.999Z</time></trkpt><trkpt lat="44.0007963086643" lon="5.661241232886778"><ele>719.6</ele><time>2026-05-03T15:30:46.999Z</time></trkpt><trkpt lat="44.00086358531653" lon="5.661271219327857"><ele>720.2</ele><time>2026-05-03T15:30:47.999Z</time></trkpt><trkpt lat="44.00101283790235" lon="5.661324890022038"><ele>720.8000000000001</ele><time>2026-05-03T15:30:49.999Z</time></trkpt><trkpt lat="44.00110222086759" lon="5.661438199423203"><ele>721.4000000000001</ele><time>2026-05-03T15:30:51.999Z</time></trkpt><trkpt lat="44.00116004246165" lon="5.661490546369446"><ele>722.0</ele><time>2026-05-03T15:30:52.999Z</time></trkpt><trkpt lat="44.00122175447199" lon="5.661525408394092"><ele>722.0</ele><time>2026-05-03T15:30:53.999Z</time></trkpt><trkpt lat="44.00131183346441" lon="5.661572005855919"><ele>722.0</ele><time>2026-05-03T15:30:54.999Z</time></trkpt><trkpt lat="44.00137823542646" lon="5.6616245576047355"><ele>722.0</ele><time>2026-05-03T15:30:55.999Z</time></trkpt><trkpt lat="44.00145298940264" lon="5.661670057092672"><ele>722.0</ele><time>2026-05-03T15:30:56.999Z</time></trkpt><trkpt lat="44.00152941277319" lon="5.661706912661608"><ele>722.0</ele><time>2026-05-03T15:30:57.999Z</time></trkpt><trkpt lat="44.00158834786321" lon="5.66174293706983"><ele>722.0</ele><time>2026-05-03T15:30:58.999Z</time></trkpt><trkpt lat="44.001642013332955" lon="5.661789898595697"><ele>723.1666666666666</ele><time>2026-05-03T15:30:59.999Z</time></trkpt><trkpt lat="44.00170940356361" lon="5.661824401812377"><ele>724.3333333333333</ele><time>2026-05-03T15:31:00.999Z</time></trkpt><trkpt lat="44.001784165068116" lon="5.661845232545388"><ele>725.5</ele><time>2026-05-03T15:31:01.999Z</time></trkpt><trkpt lat="44.00186518998303" lon="5.66187535820676"><ele>726.6666666666666</ele><time>2026-05-03T15:31:02.999Z</time></trkpt><trkpt lat="44.00194783326616" lon="5.66190206893789"><ele>727.8333333333334</ele><time>2026-05-03T15:31:03.999Z</time></trkpt><trkpt lat="44.00201305090037" lon="5.661940440423385"><ele>729.0</ele><time>2026-05-03T15:31:04.999Z</time></trkpt><trkpt lat="44.00208091229776" lon="5.661980406142936"><ele>729.0</ele><time>2026-05-03T15:31:05.999Z</time></trkpt><trkpt lat="44.002161289267775" lon="5.662028758534082"><ele>729.0</ele><time>2026-05-03T15:31:06.999Z</time></trkpt><trkpt lat="44.002240895153335" lon="5.662080865900584"><ele>729.0</ele><time>2026-05-03T15:31:07.999Z</time></trkpt><trkpt lat="44.00231667525651" lon="5.662113293970617"><ele>729.0</ele><time>2026-05-03T15:31:08.999Z</time></trkpt><trkpt lat="44.00239473681493" lon="5.662168308084668"><ele>729.0</ele><time>2026-05-03T15:31:09.999Z</time></trkpt><trkpt lat="44.002458484298565" lon="5.662212354848545"><ele>729.0</ele><time>2026-05-03T15:31:10.999Z</time></trkpt><trkpt lat="44.00253019731453" lon="5.662248825663207"><ele>730.4000000000001</ele><time>2026-05-03T15:31:11.999Z</time></trkpt><trkpt lat="44.00260732891453" lon="5.662289600334279"><ele>731.8</ele><time>2026-05-03T15:31:12.999Z</time></trkpt><trkpt lat="44.002677070423765" lon="5.662334835739584"><ele>733.2</ele><time>2026-05-03T15:31:13.999Z</time></trkpt><trkpt lat="44.00277155231103" lon="5.6623990146692895"><ele>734.5999999999999</ele><time>2026-05-03T15:31:14.999Z</time></trkpt><trkpt lat="44.00286259690841" lon="5.662448292622675"><ele>736.0</ele><time>2026-05-03T15:31:15.999Z</time></trkpt><trkpt lat="44.00294250813894" lon="5.662506779115133"><ele>736.0</ele><time>2026-05-03T15:31:16.999Z</time></trkpt><trkpt lat="44.00301265128192" lon="5.6625698325693286"><ele>736.0</ele><time>2026-05-03T15:31:17.999Z</time></trkpt><trkpt lat="44.00310430839996" lon="5.66263043775764"><ele>736.0</ele><time>2026-05-03T15:31:18.999Z</time></trkpt><trkpt lat="44.00319868586058" lon="5.662694697915016"><ele>736.0</ele><time>2026-05-03T15:31:19.999Z</time></trkpt><trkpt lat="44.00330359087908" lon="5.6627621613532275"><ele>736.0</ele><time>2026-05-03T15:31:20.999Z</time></trkpt><trkpt lat="44.0033885438515" lon="5.662828933450451"><ele>737.1999999999999</ele><time>2026-05-03T15:31:21.999Z</time></trkpt><trkpt lat="44.00348327495321" lon="5.662887660097937"><ele>738.4</ele><time>2026-05-03T15:31:22.999Z</time></trkpt><trkpt lat="44.00355783107979" lon="5.662950020718233"><ele>739.6</ele><time>2026-05-03T15:31:23.999Z</time></trkpt><trkpt lat="44.003625578103616" lon="5.6630036135340305"><ele>740.8</ele><time>2026-05-03T15:31:24.999Z</time></trkpt><trkpt lat="44.00371185874737" lon="5.663064010584912"><ele>742.0</ele><time>2026-05-03T15:31:25.999Z</time></trkpt><trkpt lat="44.00379042274948" lon="5.663128319288128"><ele>742.0</ele><time>2026-05-03T15:31:26.999Z</time></trkpt><trkpt lat="44.00386556304342" lon="5.6631836697689435"><ele>742.0</ele><time>2026-05-03T15:31:27.999Z</time></trkpt><trkpt lat="44.00394653511181" lon="5.663233104970288"><ele>742.0</ele><time>2026-05-03T15:31:28.999Z</time></trkpt><trkpt lat="44.00402503841533" lon="5.663281806506768"><ele>742.0</ele><time>2026-05-03T15:31:29.999Z</time></trkpt><trkpt lat="44.004101944534995" lon="5.663325459568876"><ele>742.0</ele><time>2026-05-03T15:31:30.999Z</time></trkpt><trkpt lat="44.00416225974468" lon="5.663364032340911"><ele>742.0</ele><time>2026-05-03T15:31:31.999Z</time></trkpt><trkpt lat="44.004225810612475" lon="5.663400603434378"><ele>743.4000000000001</ele><time>2026-05-03T15:31:32.999Z</time></trkpt><trkpt lat="44.00435682956459" lon="5.663469907369833"><ele>744.8000000000001</ele><time>2026-05-03T15:31:34.998Z</time></trkpt><trkpt lat="44.00443879720319" lon="5.663505038358017"><ele>746.2</ele><time>2026-05-03T15:31:35.998Z</time></trkpt><trkpt lat="44.00452041382009" lon="5.663551390017676"><ele>747.6</ele><time>2026-05-03T15:31:36.998Z</time></trkpt><trkpt lat="44.00458353715854" lon="5.66359615382288"><ele>749.0</ele><time>2026-05-03T15:31:37.998Z</time></trkpt><trkpt lat="44.00465947352449" lon="5.663641250585284"><ele>749.0</ele><time>2026-05-03T15:31:38.998Z</time></trkpt><trkpt lat="44.00473126146507" lon="5.6636872628268184"><ele>749.0</ele><time>2026-05-03T15:31:39.998Z</time></trkpt><trkpt lat="44.004787979375955" lon="5.663754357400433"><ele>749.0</ele><time>2026-05-03T15:31:40.998Z</time></trkpt><trkpt lat="44.004856436006335" lon="5.663774167271908"><ele>749.0</ele><time>2026-05-03T15:31:41.998Z</time></trkpt><trkpt lat="44.00492276671434" lon="5.663821638075934"><ele>749.0</ele><time>2026-05-03T15:31:42.998Z</time></trkpt><trkpt lat="44.005038629357266" lon="5.663899265552064"><ele>749.0</ele><time>2026-05-03T15:31:44.998Z</time></trkpt><trkpt lat="44.00511118140079" lon="5.6639337244257595"><ele>749.6</ele><time>2026-05-03T15:31:45.998Z</time></trkpt><trkpt lat="44.005182488917534" lon="5.663968788946877"><ele>750.2</ele><time>2026-05-03T15:31:46.998Z</time></trkpt><trkpt lat="44.005253629102015" lon="5.66402086329019"><ele>750.8000000000001</ele><time>2026-05-03T15:31:47.998Z</time></trkpt><trkpt lat="44.00532958853969" lon="5.664055255691528"><ele>751.4000000000001</ele><time>2026-05-03T15:31:48.998Z</time></trkpt><trkpt lat="44.00542967230105" lon="5.664080188260396"><ele>752.0</ele><time>2026-05-03T15:31:49.998Z</time></trkpt><trkpt lat="44.00554923440383" lon="5.664100511313266"><ele>752.0</ele><time>2026-05-03T15:31:50.998Z</time></trkpt><trkpt lat="44.005631230471984" lon="5.66414565133332"><ele>752.0</ele><time>2026-05-03T15:31:52Z</time></trkpt><trkpt lat="44.005711153827725" lon="5.664197938924427"><ele>752.0</ele><time>2026-05-03T15:31:53Z</time></trkpt><trkpt lat="44.005771128316866" lon="5.66428320033248"><ele>752.0</ele><time>2026-05-03T15:31:54Z</time></trkpt><trkpt lat="44.00581150626584" lon="5.664363392574183"><ele>752.0</ele><time>2026-05-03T15:31:55Z</time></trkpt><trkpt lat="44.0058743887533" lon="5.664430490747088"><ele>752.0</ele><time>2026-05-03T15:31:57Z</time></trkpt><trkpt lat="44.00594339885071" lon="5.664440773066299"><ele>752.1666666666666</ele><time>2026-05-03T15:31:59Z</time></trkpt><trkpt lat="44.00602219472398" lon="5.664452789560931"><ele>752.3333333333333</ele><time>2026-05-03T15:32:01Z</time></trkpt><trkpt lat="44.006077617436134" lon="5.664404936398734"><ele>752.5</ele><time>2026-05-03T15:32:03Z</time></trkpt><trkpt lat="44.00614763516486" lon="5.664342956249772"><ele>752.6666666666666</ele><time>2026-05-03T15:32:05Z</time></trkpt><trkpt lat="44.006208857139555" lon="5.664303737153402"><ele>752.8333333333334</ele><time>2026-05-03T15:32:07Z</time></trkpt><trkpt lat="44.00628302557081" lon="5.664303729370557"><ele>753.0</ele><time>2026-05-03T15:32:09Z</time></trkpt><trkpt lat="44.0063794257593" lon="5.664367301800779"><ele>754.4</ele><time>2026-05-03T15:32:11Z</time></trkpt><trkpt lat="44.00646912439703" lon="5.664414140037872"><ele>755.8</ele><time>2026-05-03T15:32:13Z</time></trkpt><trkpt lat="44.00655520196019" lon="5.664379903339871"><ele>757.2</ele><time>2026-05-03T15:32:15Z</time></trkpt><trkpt lat="44.006632959678534" lon="5.664307124378584"><ele>758.6</ele><time>2026-05-03T15:32:17Z</time></trkpt><trkpt lat="44.00670759481328" lon="5.66419231459165"><ele>760.0</ele><time>2026-05-03T15:32:19Z</time></trkpt><trkpt lat="44.00675877965715" lon="5.6640949005794825"><ele>761.4</ele><time>2026-05-03T15:32:21Z</time></trkpt><trkpt lat="44.00682793933998" lon="5.663990680078879"><ele>762.8</ele><time>2026-05-03T15:32:23Z</time></trkpt><trkpt lat="44.006901552290266" lon="5.663874924266829"><ele>764.2</ele><time>2026-05-03T15:32:25Z</time></trkpt><trkpt lat="44.006944589545895" lon="5.663808027860727"><ele>765.6</ele><time>2026-05-03T15:32:26Z</time></trkpt><trkpt lat="44.00699146282795" lon="5.663746312924133"><ele>767.0</ele><time>2026-05-03T15:32:27Z</time></trkpt><trkpt lat="44.00707765784401" lon="5.663657239554533"><ele>768.6666666666666</ele><time>2026-05-03T15:32:29Z</time></trkpt><trkpt lat="44.00714035138043" lon="5.663544826856716"><ele>770.3333333333333</ele><time>2026-05-03T15:32:31Z</time></trkpt><trkpt lat="44.00721839640602" lon="5.663440216169183"><ele>772.0</ele><time>2026-05-03T15:32:33Z</time></trkpt><trkpt lat="44.00729171676083" lon="5.6633494595093"><ele>773.6666666666666</ele><time>2026-05-03T15:32:35Z</time></trkpt><trkpt lat="44.00732601138704" lon="5.6632745183459825"><ele>775.3333333333334</ele><time>2026-05-03T15:32:35.999Z</time></trkpt><trkpt lat="44.007369881206955" lon="5.6632034490519745"><ele>777.0</ele><time>2026-05-03T15:32:36.999Z</time></trkpt><trkpt lat="44.00746762897873" lon="5.6630888929316985"><ele>778.0</ele><time>2026-05-03T15:32:38.999Z</time></trkpt><trkpt lat="44.0075250132317" lon="5.663033136052705"><ele>779.0</ele><time>2026-05-03T15:32:39.999Z</time></trkpt><trkpt lat="44.00761570355167" lon="5.662999066479178"><ele>780.0</ele><time>2026-05-03T15:32:41.999Z</time></trkpt><trkpt lat="44.007692689946296" lon="5.662956753866049"><ele>781.0</ele><time>2026-05-03T15:32:43.999Z</time></trkpt><trkpt lat="44.00778456687291" lon="5.662949137811615"><ele>782.0</ele><time>2026-05-03T15:32:45.999Z</time></trkpt><trkpt lat="44.00790060952265" lon="5.662979069492415"><ele>782.0000000000001</ele><time>2026-05-03T15:32:47.999Z</time></trkpt><trkpt lat="44.00799037516346" lon="5.662952081824483"><ele>782.0</ele><time>2026-05-03T15:32:49.999Z</time></trkpt><trkpt lat="44.00806407590388" lon="5.662942884102848"><ele>782.0</ele><time>2026-05-03T15:32:50.999Z</time></trkpt><trkpt lat="44.00813990937883" lon="5.662913572966133"><ele>782.0</ele><time>2026-05-03T15:32:51.999Z</time></trkpt><trkpt lat="44.00821659748884" lon="5.662892329829202"><ele>782.0000000000001</ele><time>2026-05-03T15:32:52.999Z</time></trkpt><trkpt lat="44.0082958887346" lon="5.6628771280221954"><ele>782.0</ele><time>2026-05-03T15:32:53.999Z</time></trkpt><trkpt lat="44.00837244053763" lon="5.662846293751795"><ele>783.6</ele><time>2026-05-03T15:32:54.999Z</time></trkpt><trkpt lat="44.00842650604354" lon="5.662793528876097"><ele>785.2</ele><time>2026-05-03T15:32:55.999Z</time></trkpt><trkpt lat="44.00852754196409" lon="5.662672982468647"><ele>786.8</ele><time>2026-05-03T15:32:57.999Z</time></trkpt><trkpt lat="44.00863538102455" lon="5.662593907409721"><ele>788.4</ele><time>2026-05-03T15:32:59.999Z</time></trkpt><trkpt lat="44.00872081239232" lon="5.66249884472844"><ele>790.0</ele><time>2026-05-03T15:33:01.999Z</time></trkpt><trkpt lat="44.00881474407741" lon="5.662493711912377"><ele>791.4</ele><time>2026-05-03T15:33:03.999Z</time></trkpt><trkpt lat="44.00890009912745" lon="5.6624243409926915"><ele>792.8</ele><time>2026-05-03T15:33:05.999Z</time></trkpt><trkpt lat="44.00892258106686" lon="5.662299658449934"><ele>794.2</ele><time>2026-05-03T15:33:07.999Z</time></trkpt><trkpt lat="44.008953502361386" lon="5.662124313411841"><ele>795.6</ele><time>2026-05-03T15:33:09.999Z</time></trkpt><trkpt lat="44.008971122525125" lon="5.662019964122382"><ele>797.0</ele><time>2026-05-03T15:33:10.999Z</time></trkpt><trkpt lat="44.0089755803807" lon="5.661906762276195"><ele>797.8</ele><time>2026-05-03T15:33:11.999Z</time></trkpt><trkpt lat="44.008982054553805" lon="5.661793774959628"><ele>798.6</ele><time>2026-05-03T15:33:12.999Z</time></trkpt><trkpt lat="44.00899950828126" lon="5.661647212309769"><ele>799.4</ele><time>2026-05-03T15:33:14.999Z</time></trkpt><trkpt lat="44.00908311909552" lon="5.661558581538437"><ele>800.1999999999999</ele><time>2026-05-03T15:33:16.999Z</time></trkpt><trkpt lat="44.00919026658071" lon="5.661514242459792"><ele>801.0</ele><time>2026-05-03T15:33:18.999Z</time></trkpt><trkpt lat="44.00928452646332" lon="5.6614706917613065"><ele>801.0</ele><time>2026-05-03T15:33:20.999Z</time></trkpt><trkpt lat="44.009392576833896" lon="5.6614095132375075"><ele>801.0</ele><time>2026-05-03T15:33:22.999Z</time></trkpt><trkpt lat="44.00947609925009" lon="5.66131279653595"><ele>801.0</ele><time>2026-05-03T15:33:24.999Z</time></trkpt><trkpt lat="44.00954807065134" lon="5.661206124584082"><ele>801.0</ele><time>2026-05-03T15:33:26.999Z</time></trkpt><trkpt lat="44.00960634231546" lon="5.661081502587259"><ele>801.0</ele><time>2026-05-03T15:33:28.999Z</time></trkpt><trkpt lat="44.00964598914459" lon="5.6610119386915345"><ele>802.0</ele><time>2026-05-03T15:33:29.999Z</time></trkpt><trkpt lat="44.00969028535071" lon="5.660944940320583"><ele>803.0</ele><time>2026-05-03T15:33:30.999Z</time></trkpt><trkpt lat="44.009732387623785" lon="5.6608758903310115"><ele>804.0</ele><time>2026-05-03T15:33:31.999Z</time></trkpt><trkpt lat="44.009772208155745" lon="5.6607900346646"><ele>805.0</ele><time>2026-05-03T15:33:32.999Z</time></trkpt><trkpt lat="44.009810060836124" lon="5.660695311602325"><ele>806.0</ele><time>2026-05-03T15:33:33.999Z</time></trkpt><trkpt lat="44.00987171049708" lon="5.660583250366325"><ele>807.0</ele><time>2026-05-03T15:33:34.999Z</time></trkpt><trkpt lat="44.00993320640003" lon="5.6604594991741894"><ele>807.2</ele><time>2026-05-03T15:33:35.999Z</time></trkpt><trkpt lat="44.00999806779077" lon="5.66036038479998"><ele>807.4000000000001</ele><time>2026-05-03T15:33:36.999Z</time></trkpt><trkpt lat="44.01004028571642" lon="5.660266419085782"><ele>807.5999999999999</ele><time>2026-05-03T15:33:37.999Z</time></trkpt><trkpt lat="44.010098777432205" lon="5.66014621720445"><ele>807.8</ele><time>2026-05-03T15:33:39.999Z</time></trkpt><trkpt lat="44.01014002937164" lon="5.659963267888454"><ele>808.0</ele><time>2026-05-03T15:33:41.999Z</time></trkpt><trkpt lat="44.010158640640256" lon="5.659860138354642"><ele>808.8333333333333</ele><time>2026-05-03T15:33:42.998Z</time></trkpt><trkpt lat="44.01019081322132" lon="5.659760867055473"><ele>809.6666666666666</ele><time>2026-05-03T15:33:43.998Z</time></trkpt><trkpt lat="44.01023356402244" lon="5.6596631432954485"><ele>810.5</ele><time>2026-05-03T15:33:44.998Z</time></trkpt><trkpt lat="44.0102673508028" lon="5.659560596836344"><ele>811.3333333333333</ele><time>2026-05-03T15:33:45.998Z</time></trkpt><trkpt lat="44.01030856734054" lon="5.659477660526585"><ele>812.1666666666666</ele><time>2026-05-03T15:33:46.998Z</time></trkpt><trkpt lat="44.01035584125793" lon="5.659386115134912"><ele>813.0</ele><time>2026-05-03T15:33:47.998Z</time></trkpt><trkpt lat="44.010403545889304" lon="5.659302767672674"><ele>813.8333333333334</ele><time>2026-05-03T15:33:48.998Z</time></trkpt><trkpt lat="44.01045521498808" lon="5.659220376984909"><ele>814.6666666666667</ele><time>2026-05-03T15:33:49.998Z</time></trkpt><trkpt lat="44.010505309567414" lon="5.659140245441798"><ele>815.5</ele><time>2026-05-03T15:33:50.998Z</time></trkpt><trkpt lat="44.0105528356809" lon="5.659065302719008"><ele>816.3333333333334</ele><time>2026-05-03T15:33:51.998Z</time></trkpt><trkpt lat="44.010610235833965" lon="5.658989721884412"><ele>817.1666666666667</ele><time>2026-05-03T15:33:52.998Z</time></trkpt><trkpt lat="44.010657589701545" lon="5.658931834336872"><ele>818.0</ele><time>2026-05-03T15:33:53.998Z</time></trkpt><trkpt lat="44.01074428893489" lon="5.658828095799772"><ele>818.0</ele><time>2026-05-03T15:33:55.998Z</time></trkpt><trkpt lat="44.01080805374791" lon="5.658775042914611"><ele>818.0</ele><time>2026-05-03T15:33:56.998Z</time></trkpt><trkpt lat="44.010925010324115" lon="5.658728505533938"><ele>818.0</ele><time>2026-05-03T15:33:59Z</time></trkpt><trkpt lat="44.011033171440225" lon="5.6587055348749935"><ele>818.0</ele><time>2026-05-03T15:34:01Z</time></trkpt><trkpt lat="44.011119786665084" lon="5.658670709672309"><ele>818.0</ele><time>2026-05-03T15:34:03Z</time></trkpt><trkpt lat="44.01120316352261" lon="5.658602615149499"><ele>819.3333333333334</ele><time>2026-05-03T15:34:05Z</time></trkpt><trkpt lat="44.01126810223001" lon="5.658564999768871"><ele>820.6666666666667</ele><time>2026-05-03T15:34:06Z</time></trkpt><trkpt lat="44.01133758390708" lon="5.658514413408718"><ele>822.0</ele><time>2026-05-03T15:34:07Z</time></trkpt><trkpt lat="44.011410442204436" lon="5.65848723440633"><ele>823.3333333333333</ele><time>2026-05-03T15:34:08Z</time></trkpt><trkpt lat="44.01149493432881" lon="5.6584736749637505"><ele>824.6666666666666</ele><time>2026-05-03T15:34:10Z</time></trkpt><trkpt lat="44.01157863581872" lon="5.6584037907247025"><ele>826.0</ele><time>2026-05-03T15:34:12Z</time></trkpt><trkpt lat="44.01168839677116" lon="5.658329266533502"><ele>826.4999999999999</ele><time>2026-05-03T15:34:14Z</time></trkpt><trkpt lat="44.01174495539535" lon="5.658280976971482"><ele>827.0</ele><time>2026-05-03T15:34:15Z</time></trkpt><trkpt lat="44.011803712579756" lon="5.658215691216537"><ele>827.5</ele><time>2026-05-03T15:34:16Z</time></trkpt><trkpt lat="44.011870617898325" lon="5.65815444016374"><ele>828.0</ele><time>2026-05-03T15:34:17Z</time></trkpt><trkpt lat="44.011941960872605" lon="5.658100169042054"><ele>828.4999999999999</ele><time>2026-05-03T15:34:18Z</time></trkpt><trkpt lat="44.012019544350125" lon="5.65803775237728"><ele>829.0</ele><time>2026-05-03T15:34:19Z</time></trkpt><trkpt lat="44.01207783584961" lon="5.657992193085237"><ele>828.9999999999999</ele><time>2026-05-03T15:34:20Z</time></trkpt><trkpt lat="44.012135825608866" lon="5.657943878690027"><ele>829.0</ele><time>2026-05-03T15:34:21Z</time></trkpt><trkpt lat="44.01224175373191" lon="5.657869684559826"><ele>829.0</ele><time>2026-05-03T15:34:23Z</time></trkpt><trkpt lat="44.01231916591874" lon="5.6578337873072035"><ele>829.0</ele><time>2026-05-03T15:34:24Z</time></trkpt><trkpt lat="44.01239545051103" lon="5.657819080661197"><ele>828.9999999999999</ele><time>2026-05-03T15:34:25Z</time></trkpt><trkpt lat="44.012475149289315" lon="5.657775286482856"><ele>829.0</ele><time>2026-05-03T15:34:26Z</time></trkpt><trkpt lat="44.01256042405634" lon="5.657740031448534"><ele>831.6666666666666</ele><time>2026-05-03T15:34:27Z</time></trkpt><trkpt lat="44.01265367654524" lon="5.657716867262383"><ele>834.3333333333333</ele><time>2026-05-03T15:34:28Z</time></trkpt><trkpt lat="44.01272840457246" lon="5.657710755106441"><ele>837.0</ele><time>2026-05-03T15:34:29Z</time></trkpt><trkpt lat="44.01281161367869" lon="5.65772639980023"><ele>839.6666666666667</ele><time>2026-05-03T15:34:30Z</time></trkpt><trkpt lat="44.012884277035305" lon="5.65772704680221"><ele>842.3333333333334</ele><time>2026-05-03T15:34:31Z</time></trkpt><trkpt lat="44.01295105437166" lon="5.657703305650928"><ele>845.0</ele><time>2026-05-03T15:34:32Z</time></trkpt><trkpt lat="44.01301541117341" lon="5.657670191540859"><ele>845.0000000000001</ele><time>2026-05-03T15:34:33Z</time></trkpt><trkpt lat="44.0131228770312" lon="5.657665031603544"><ele>845.0</ele><time>2026-05-03T15:34:35Z</time></trkpt><trkpt lat="44.01318738841252" lon="5.657641186404618"><ele>845.0</ele><time>2026-05-03T15:34:37Z</time></trkpt><trkpt lat="44.01329694977423" lon="5.6576335721976605"><ele>845.0</ele><time>2026-05-03T15:34:39Z</time></trkpt><trkpt lat="44.01337424166845" lon="5.657636847554363"><ele>845.0000000000001</ele><time>2026-05-03T15:34:40Z</time></trkpt><trkpt lat="44.01345830798505" lon="5.657658937552233"><ele>845.0</ele><time>2026-05-03T15:34:41Z</time></trkpt><trkpt lat="44.013535814585495" lon="5.6576434128164665"><ele>846.8</ele><time>2026-05-03T15:34:42Z</time></trkpt><trkpt lat="44.013647980498185" lon="5.657617404075055"><ele>848.6</ele><time>2026-05-03T15:34:43.999Z</time></trkpt><trkpt lat="44.01375311793536" lon="5.657581364600469"><ele>850.4000000000001</ele><time>2026-05-03T15:34:45.999Z</time></trkpt><trkpt lat="44.013829710583686" lon="5.657519904858555"><ele>852.2</ele><time>2026-05-03T15:34:48.999Z</time></trkpt><trkpt lat="44.01392509534347" lon="5.657460751416555"><ele>854.0</ele><time>2026-05-03T15:34:50.999Z</time></trkpt><trkpt lat="44.014048027164506" lon="5.657440947635806"><ele>854.0</ele><time>2026-05-03T15:34:52.999Z</time></trkpt><trkpt lat="44.01413777878671" lon="5.657399317195065"><ele>854.0000000000001</ele><time>2026-05-03T15:34:54.999Z</time></trkpt><trkpt lat="44.01422477620019" lon="5.657349964936247"><ele>854.0000000000001</ele><time>2026-05-03T15:34:56.999Z</time></trkpt><trkpt lat="44.01433153654631" lon="5.657290954322071"><ele>854.0</ele><time>2026-05-03T15:34:58.999Z</time></trkpt><trkpt lat="44.0144100421486" lon="5.657173872481755"><ele>854.0</ele><time>2026-05-03T15:35:00.999Z</time></trkpt><trkpt lat="44.01445843740899" lon="5.657078482670589"><ele>855.6</ele><time>2026-05-03T15:35:02.999Z</time></trkpt><trkpt lat="44.01451221258955" lon="5.657024721812225"><ele>857.2</ele><time>2026-05-03T15:35:04.999Z</time></trkpt><trkpt lat="44.01460028375531" lon="5.656971458819207"><ele>858.8000000000001</ele><time>2026-05-03T15:35:06.999Z</time></trkpt><trkpt lat="44.014723670867944" lon="5.656971266066193"><ele>860.4000000000001</ele><time>2026-05-03T15:35:08.999Z</time></trkpt><trkpt lat="44.0147982211879" lon="5.656979797736031"><ele>862.0</ele><time>2026-05-03T15:35:09.999Z</time></trkpt><trkpt lat="44.01489204170942" lon="5.6569872127665155"><ele>862.6</ele><time>2026-05-03T15:35:10.999Z</time></trkpt><trkpt lat="44.014987808059935" lon="5.6570051396254915"><ele>863.2</ele><time>2026-05-03T15:35:11.999Z</time></trkpt><trkpt lat="44.015082899429586" lon="5.657034169720217"><ele>863.8</ele><time>2026-05-03T15:35:12.999Z</time></trkpt><trkpt lat="44.01520553483888" lon="5.657061884947589"><ele>864.4</ele><time>2026-05-03T15:35:13.999Z</time></trkpt><trkpt lat="44.01531447121659" lon="5.65707818735567"><ele>865.0</ele><time>2026-05-03T15:35:14.999Z</time></trkpt><trkpt lat="44.0154062981239" lon="5.657102174124832"><ele>864.9999999999999</ele><time>2026-05-03T15:35:15.999Z</time></trkpt><trkpt lat="44.01553288978359" lon="5.657141462630441"><ele>865.0</ele><time>2026-05-03T15:35:17.999Z</time></trkpt><trkpt lat="44.01560351510199" lon="5.657148445502934"><ele>865.0</ele><time>2026-05-03T15:35:18.999Z</time></trkpt><trkpt lat="44.0156908189174" lon="5.6571477796953324"><ele>865.0</ele><time>2026-05-03T15:35:19.999Z</time></trkpt><trkpt lat="44.0157705739905" lon="5.657151288092699"><ele>864.9999999999999</ele><time>2026-05-03T15:35:20.999Z</time></trkpt><trkpt lat="44.01585173309545" lon="5.657149305580367"><ele>865.0</ele><time>2026-05-03T15:35:21.999Z</time></trkpt><trkpt lat="44.01593893696632" lon="5.657146759073137"><ele>865.4285714285714</ele><time>2026-05-03T15:35:22.999Z</time></trkpt><trkpt lat="44.01600143949351" lon="5.657135021921874"><ele>865.8571428571429</ele><time>2026-05-03T15:35:23.999Z</time></trkpt><trkpt lat="44.01607315307738" lon="5.65709406906064"><ele>866.2857142857142</ele><time>2026-05-03T15:35:24.999Z</time></trkpt><trkpt lat="44.016159424747876" lon="5.657058123437617"><ele>866.7142857142858</ele><time>2026-05-03T15:35:25.999Z</time></trkpt><trkpt lat="44.01622308890206" lon="5.657016215203159"><ele>867.1428571428571</ele><time>2026-05-03T15:35:26.999Z</time></trkpt><trkpt lat="44.01628453376634" lon="5.656969097519323"><ele>867.5714285714286</ele><time>2026-05-03T15:35:27.999Z</time></trkpt><trkpt lat="44.01634138926418" lon="5.656923996351464"><ele>868.0</ele><time>2026-05-03T15:35:28.999Z</time></trkpt><trkpt lat="44.01639333137237" lon="5.656873170062645"><ele>868.6666666666666</ele><time>2026-05-03T15:35:29.999Z</time></trkpt><trkpt lat="44.01644633462181" lon="5.656807045015079"><ele>869.3333333333333</ele><time>2026-05-03T15:35:30.999Z</time></trkpt><trkpt lat="44.01649776841611" lon="5.656737773150074"><ele>870.0</ele><time>2026-05-03T15:35:31.999Z</time></trkpt><trkpt lat="44.01655611304857" lon="5.656692051717969"><ele>870.6666666666667</ele><time>2026-05-03T15:35:32.999Z</time></trkpt><trkpt lat="44.01661070079994" lon="5.65663692585252"><ele>871.3333333333334</ele><time>2026-05-03T15:35:33.999Z</time></trkpt><trkpt lat="44.01667269999478" lon="5.656614312362738"><ele>872.0</ele><time>2026-05-03T15:35:34.999Z</time></trkpt><trkpt lat="44.01679047024222" lon="5.656566235144734"><ele>872.1666666666667</ele><time>2026-05-03T15:35:36.999Z</time></trkpt><trkpt lat="44.016857390015716" lon="5.656569618267732"><ele>872.3333333333334</ele><time>2026-05-03T15:35:37.999Z</time></trkpt><trkpt lat="44.01692504899178" lon="5.656582706641871"><ele>872.5</ele><time>2026-05-03T15:35:38.999Z</time></trkpt><trkpt lat="44.01700147648234" lon="5.65659825900493"><ele>872.6666666666667</ele><time>2026-05-03T15:35:39.999Z</time></trkpt><trkpt lat="44.01708085783633" lon="5.656620424881334"><ele>872.8333333333334</ele><time>2026-05-03T15:35:40.999Z</time></trkpt><trkpt lat="44.0171541032503" lon="5.656634250629185"><ele>873.0</ele><time>2026-05-03T15:35:41.999Z</time></trkpt><trkpt lat="44.01723835555193" lon="5.65664835170836"><ele>873.0</ele><time>2026-05-03T15:35:42.999Z</time></trkpt><trkpt lat="44.01732526088406" lon="5.65665903225844"><ele>873.0</ele><time>2026-05-03T15:35:43.999Z</time></trkpt><trkpt lat="44.01740937787812" lon="5.656679688182826"><ele>873.0</ele><time>2026-05-03T15:35:44.999Z</time></trkpt><trkpt lat="44.01749383020033" lon="5.656700569568418"><ele>873.0</ele><time>2026-05-03T15:35:45.999Z</time></trkpt><trkpt lat="44.01757412880454" lon="5.65672041713937"><ele>873.0</ele><time>2026-05-03T15:35:46.999Z</time></trkpt><trkpt lat="44.017657930861375" lon="5.656727418312249"><ele>873.0</ele><time>2026-05-03T15:35:47.999Z</time></trkpt><trkpt lat="44.01773503675033" lon="5.656727125617899"><ele>873.0</ele><time>2026-05-03T15:35:48.998Z</time></trkpt><trkpt lat="44.01781708110651" lon="5.656734530598957"><ele>873.0</ele><time>2026-05-03T15:35:49.998Z</time></trkpt><trkpt lat="44.01789509538499" lon="5.656748940108136"><ele>873.0</ele><time>2026-05-03T15:35:50.998Z</time></trkpt><trkpt lat="44.0179732471929" lon="5.656760721238388"><ele>873.0</ele><time>2026-05-03T15:35:51.998Z</time></trkpt><trkpt lat="44.01805056054967" lon="5.656779565255551"><ele>873.0</ele><time>2026-05-03T15:35:52.998Z</time></trkpt><trkpt lat="44.018124053205476" lon="5.656802902477681"><ele>873.0</ele><time>2026-05-03T15:35:53.998Z</time></trkpt><trkpt lat="44.01820369960669" lon="5.656830725330366"><ele>873.0</ele><time>2026-05-03T15:35:54.998Z</time></trkpt><trkpt lat="44.01827848922051" lon="5.656863254865824"><ele>873.0</ele><time>2026-05-03T15:35:55.998Z</time></trkpt><trkpt lat="44.01834717794017" lon="5.6568968432462485"><ele>873.0</ele><time>2026-05-03T15:35:56.998Z</time></trkpt><trkpt lat="44.01842591070828" lon="5.656914096699796"><ele>873.0</ele><time>2026-05-03T15:35:57.998Z</time></trkpt><trkpt lat="44.01850092858092" lon="5.656938611428875"><ele>873.0</ele><time>2026-05-03T15:35:58.998Z</time></trkpt><trkpt lat="44.01860883137193" lon="5.657001839923592"><ele>873.0</ele><time>2026-05-03T15:36:00.998Z</time></trkpt><trkpt lat="44.01868729738596" lon="5.657027963614908"><ele>872.2</ele><time>2026-05-03T15:36:02.998Z</time></trkpt><trkpt lat="44.01876679735754" lon="5.657050378908075"><ele>871.4</ele><time>2026-05-03T15:36:05Z</time></trkpt><trkpt lat="44.01886828233756" lon="5.657019302952335"><ele>870.6000000000001</ele><time>2026-05-03T15:36:08Z</time></trkpt><trkpt lat="44.01896262604815" lon="5.656964003279396"><ele>869.8000000000001</ele><time>2026-05-03T15:36:10Z</time></trkpt><trkpt lat="44.01905941640647" lon="5.656911797077222"><ele>869.0</ele><time>2026-05-03T15:36:12Z</time></trkpt><trkpt lat="44.01913176172982" lon="5.656865683916001"><ele>867.2</ele><time>2026-05-03T15:36:14Z</time></trkpt><trkpt lat="44.019208353445265" lon="5.656789923478629"><ele>865.4000000000001</ele><time>2026-05-03T15:36:16Z</time></trkpt><trkpt lat="44.01925820820688" lon="5.656733086888862"><ele>863.6</ele><time>2026-05-03T15:36:17Z</time></trkpt><trkpt lat="44.01933851165025" lon="5.656626189847838"><ele>861.8</ele><time>2026-05-03T15:36:19Z</time></trkpt><trkpt lat="44.01943131793943" lon="5.656487311181737"><ele>860.0</ele><time>2026-05-03T15:36:21Z</time></trkpt><trkpt lat="44.01947625774451" lon="5.656418714136066"><ele>860.0</ele><time>2026-05-03T15:36:22Z</time></trkpt><trkpt lat="44.01956253332173" lon="5.656356251923941"><ele>860.0</ele><time>2026-05-03T15:36:24Z</time></trkpt><trkpt lat="44.01968240416164" lon="5.656288467046465"><ele>860.0</ele><time>2026-05-03T15:36:26Z</time></trkpt><trkpt lat="44.019759235245424" lon="5.656275184489937"><ele>860.0</ele><time>2026-05-03T15:36:28Z</time></trkpt><trkpt lat="44.01980892858624" lon="5.6562193637067475"><ele>860.0</ele><time>2026-05-03T15:36:39Z</time></trkpt><trkpt lat="44.019914282551554" lon="5.656158128168791"><ele>858.1666666666667</ele><time>2026-05-03T15:36:41Z</time></trkpt><trkpt lat="44.02003479861941" lon="5.656077520775721"><ele>856.3333333333334</ele><time>2026-05-03T15:36:43Z</time></trkpt><trkpt lat="44.02010418996962" lon="5.656032442479572"><ele>854.5</ele><time>2026-05-03T15:36:44Z</time></trkpt><trkpt lat="44.02017018013404" lon="5.655978961142219"><ele>852.6666666666667</ele><time>2026-05-03T15:36:45Z</time></trkpt><trkpt lat="44.020231610049834" lon="5.65593101192031"><ele>850.8333333333334</ele><time>2026-05-03T15:36:46Z</time></trkpt><trkpt lat="44.02030258940892" lon="5.655877751457936"><ele>849.0</ele><time>2026-05-03T15:36:48Z</time></trkpt><trkpt lat="44.02035922174267" lon="5.655822472538415"><ele>849.0</ele><time>2026-05-03T15:36:50Z</time></trkpt><trkpt lat="44.02042251427063" lon="5.655769985067276"><ele>849.0</ele><time>2026-05-03T15:36:53Z</time></trkpt><trkpt lat="44.020477022740515" lon="5.655717195735425"><ele>849.0</ele><time>2026-05-03T15:36:55.999Z</time></trkpt><trkpt lat="44.02055416972786" lon="5.655648151905394"><ele>849.0</ele><time>2026-05-03T15:37:16.999Z</time></trkpt><trkpt lat="44.02067317349005" lon="5.655570266759363"><ele>849.0</ele><time>2026-05-03T15:37:18.999Z</time></trkpt><trkpt lat="44.02074713608289" lon="5.655516772235759"><ele>849.0</ele><time>2026-05-03T15:37:19.999Z</time></trkpt><trkpt lat="44.0208279565517" lon="5.655460423047692"><ele>850.6666666666666</ele><time>2026-05-03T15:37:20.999Z</time></trkpt><trkpt lat="44.02091649225599" lon="5.655430918030373"><ele>852.3333333333333</ele><time>2026-05-03T15:37:21.999Z</time></trkpt><trkpt lat="44.020991591429656" lon="5.655412974272246"><ele>854.0</ele><time>2026-05-03T15:37:22.999Z</time></trkpt><trkpt lat="44.021075773615955" lon="5.655393324525387"><ele>855.6666666666666</ele><time>2026-05-03T15:37:23.999Z</time></trkpt><trkpt lat="44.02116164373752" lon="5.655373438245563"><ele>857.3333333333333</ele><time>2026-05-03T15:37:24.999Z</time></trkpt><trkpt lat="44.02124717550329" lon="5.655353113771356"><ele>859.0</ele><time>2026-05-03T15:37:25.999Z</time></trkpt><trkpt lat="44.021343620976204" lon="5.655312133245352"><ele>855.6</ele><time>2026-05-03T15:37:26.999Z</time></trkpt><trkpt lat="44.02141983667195" lon="5.655281574198708"><ele>852.2</ele><time>2026-05-03T15:37:27.999Z</time></trkpt><trkpt lat="44.02152169829963" lon="5.65526488251324"><ele>848.8000000000001</ele><time>2026-05-03T15:37:28.999Z</time></trkpt><trkpt lat="44.0216189274972" lon="5.655231804218259"><ele>845.4000000000001</ele><time>2026-05-03T15:37:29.999Z</time></trkpt><trkpt lat="44.02170381197687" lon="5.655184964597808"><ele>842.0</ele><time>2026-05-03T15:37:30.999Z</time></trkpt><trkpt lat="44.02178920538719" lon="5.655158990612118"><ele>842.0000000000001</ele><time>2026-05-03T15:37:31.999Z</time></trkpt><trkpt lat="44.021883780069025" lon="5.655135708725433"><ele>842.0</ele><time>2026-05-03T15:37:32.999Z</time></trkpt><trkpt lat="44.021977474224" lon="5.6551053287703885"><ele>842.0</ele><time>2026-05-03T15:37:33.999Z</time></trkpt><trkpt lat="44.02205871575727" lon="5.655088883276089"><ele>842.0</ele><time>2026-05-03T15:37:34.999Z</time></trkpt><trkpt lat="44.02214886922096" lon="5.655066034255443"><ele>842.0000000000001</ele><time>2026-05-03T15:37:35.999Z</time></trkpt><trkpt lat="44.02222415474457" lon="5.6550320867531925"><ele>842.0</ele><time>2026-05-03T15:37:36.999Z</time></trkpt><trkpt lat="44.02231373444686" lon="5.6550203552492535"><ele>842.0</ele><time>2026-05-03T15:37:37.999Z</time></trkpt><trkpt lat="44.022411748307846" lon="5.6550220743024475"><ele>842.0</ele><time>2026-05-03T15:37:38.999Z</time></trkpt><trkpt lat="44.022508209484776" lon="5.655021931118225"><ele>842.0</ele><time>2026-05-03T15:37:39.999Z</time></trkpt><trkpt lat="44.022601301727285" lon="5.655019484588723"><ele>842.0</ele><time>2026-05-03T15:37:40.999Z</time></trkpt><trkpt lat="44.02269340354332" lon="5.655018299077658"><ele>842.0</ele><time>2026-05-03T15:37:41.999Z</time></trkpt><trkpt lat="44.02277491537378" lon="5.655006873325766"><ele>842.3333333333334</ele><time>2026-05-03T15:37:42.999Z</time></trkpt><trkpt lat="44.022874701827284" lon="5.655036885328055"><ele>842.6666666666667</ele><time>2026-05-03T15:37:43.999Z</time></trkpt><trkpt lat="44.02296816549536" lon="5.654982022782365"><ele>843.0</ele><time>2026-05-03T15:37:44.999Z</time></trkpt><trkpt lat="44.023042482618415" lon="5.654980589503472"><ele>843.3333333333333</ele><time>2026-05-03T15:37:45.999Z</time></trkpt><trkpt lat="44.02311552046231" lon="5.654971457874776"><ele>843.6666666666666</ele><time>2026-05-03T15:37:46.999Z</time></trkpt><trkpt lat="44.02317976208527" lon="5.6549678716262495"><ele>844.0</ele><time>2026-05-03T15:37:47.999Z</time></trkpt><trkpt lat="44.023264145648575" lon="5.654960580201261"><ele>843.6</ele><time>2026-05-03T15:37:49.999Z</time></trkpt><trkpt lat="44.02335416907805" lon="5.654957074635961"><ele>843.2</ele><time>2026-05-03T15:38:04.998Z</time></trkpt><trkpt lat="44.023451984913294" lon="5.654928133227037"><ele>842.8000000000001</ele><time>2026-05-03T15:38:06.998Z</time></trkpt><trkpt lat="44.02358236627568" lon="5.654898309072948"><ele>842.4000000000001</ele><time>2026-05-03T15:38:08.998Z</time></trkpt><trkpt lat="44.02365212855806" lon="5.654886963109058"><ele>842.0</ele><time>2026-05-03T15:38:10Z</time></trkpt><trkpt lat="44.02372233054947" lon="5.654892302639448"><ele>842.0000000000001</ele><time>2026-05-03T15:38:11Z</time></trkpt><trkpt lat="44.023806093364186" lon="5.65487545479363"><ele>842.0</ele><time>2026-05-03T15:38:12Z</time></trkpt><trkpt lat="44.0238869106077" lon="5.654881524888534"><ele>842.0</ele><time>2026-05-03T15:38:13Z</time></trkpt><trkpt lat="44.023967948978296" lon="5.654890667576375"><ele>842.0</ele><time>2026-05-03T15:38:14Z</time></trkpt><trkpt lat="44.02405373775004" lon="5.654915334975334"><ele>842.0000000000001</ele><time>2026-05-03T15:38:15Z</time></trkpt><trkpt lat="44.02413769224721" lon="5.654934634993713"><ele>842.0</ele><time>2026-05-03T15:38:16Z</time></trkpt><trkpt lat="44.0242209632917" lon="5.654952565273886"><ele>840.5000000000001</ele><time>2026-05-03T15:38:17Z</time></trkpt><trkpt lat="44.024302404154035" lon="5.654965016777863"><ele>839.0</ele><time>2026-05-03T15:38:18Z</time></trkpt><trkpt lat="44.024376967163946" lon="5.654989446060279"><ele>837.5</ele><time>2026-05-03T15:38:19Z</time></trkpt><trkpt lat="44.02447388812633" lon="5.655006169955173"><ele>836.0</ele><time>2026-05-03T15:38:20Z</time></trkpt><trkpt lat="44.02455814561622" lon="5.655029615247764"><ele>834.5000000000001</ele><time>2026-05-03T15:38:21Z</time></trkpt><trkpt lat="44.02463681591077" lon="5.655057816078185"><ele>833.0</ele><time>2026-05-03T15:38:22Z</time></trkpt><trkpt lat="44.02472644626524" lon="5.65509553057316"><ele>833.0000000000001</ele><time>2026-05-03T15:38:23Z</time></trkpt><trkpt lat="44.024801624121" lon="5.655104718962014"><ele>833.0</ele><time>2026-05-03T15:38:24Z</time></trkpt><trkpt lat="44.02486803002564" lon="5.655138427262695"><ele>833.0</ele><time>2026-05-03T15:38:25Z</time></trkpt><trkpt lat="44.02495231247003" lon="5.6551560190912955"><ele>833.0</ele><time>2026-05-03T15:38:26Z</time></trkpt><trkpt lat="44.02503742278733" lon="5.655184160925946"><ele>833.0000000000001</ele><time>2026-05-03T15:38:27Z</time></trkpt><trkpt lat="44.025123348282605" lon="5.655173902058626"><ele>833.0</ele><time>2026-05-03T15:38:28Z</time></trkpt><trkpt lat="44.025192555442956" lon="5.655186436978495"><ele>831.4285714285714</ele><time>2026-05-03T15:38:29Z</time></trkpt><trkpt lat="44.025262219949404" lon="5.6552008023047975"><ele>829.8571428571429</ele><time>2026-05-03T15:38:30Z</time></trkpt><trkpt lat="44.025335627262734" lon="5.655204313949087"><ele>828.2857142857142</ele><time>2026-05-03T15:38:31Z</time></trkpt><trkpt lat="44.02541020847319" lon="5.655200130458239"><ele>826.7142857142858</ele><time>2026-05-03T15:38:32Z</time></trkpt><trkpt lat="44.02547744670926" lon="5.655186164851426"><ele>825.1428571428571</ele><time>2026-05-03T15:38:33Z</time></trkpt><trkpt lat="44.02555666943761" lon="5.655176370478865"><ele>823.5714285714286</ele><time>2026-05-03T15:38:34Z</time></trkpt><trkpt lat="44.02563791125127" lon="5.655163458570584"><ele>822.0</ele><time>2026-05-03T15:38:35Z</time></trkpt><trkpt lat="44.02570126185973" lon="5.655149517308399"><ele>820.4000000000001</ele><time>2026-05-03T15:38:36Z</time></trkpt><trkpt lat="44.025833446703885" lon="5.6551185526707615"><ele>818.8000000000001</ele><time>2026-05-03T15:38:38Z</time></trkpt><trkpt lat="44.02591097393891" lon="5.65506022150633"><ele>817.2</ele><time>2026-05-03T15:38:39Z</time></trkpt><trkpt lat="44.02597948502839" lon="5.654977144887055"><ele>815.6</ele><time>2026-05-03T15:38:40Z</time></trkpt><trkpt lat="44.026054834444444" lon="5.654905690705961"><ele>814.0</ele><time>2026-05-03T15:38:41Z</time></trkpt><trkpt lat="44.02612941865357" lon="5.654808041579357"><ele>813.9999999999999</ele><time>2026-05-03T15:38:42Z</time></trkpt><trkpt lat="44.02620674470364" lon="5.654778676966897"><ele>814.0</ele><time>2026-05-03T15:38:43Z</time></trkpt><trkpt lat="44.026282183183945" lon="5.654710175892605"><ele>814.0</ele><time>2026-05-03T15:38:44Z</time></trkpt><trkpt lat="44.02636298933736" lon="5.654666050939009"><ele>814.0</ele><time>2026-05-03T15:38:45Z</time></trkpt><trkpt lat="44.02644937339172" lon="5.654608279214128"><ele>813.9999999999999</ele><time>2026-05-03T15:38:46Z</time></trkpt><trkpt lat="44.02653905594533" lon="5.654566551224177"><ele>814.0</ele><time>2026-05-03T15:38:47Z</time></trkpt><trkpt lat="44.0266217590891" lon="5.654538082042938"><ele>813.4999999999999</ele><time>2026-05-03T15:38:48Z</time></trkpt><trkpt lat="44.02671141745531" lon="5.654519088257116"><ele>813.0</ele><time>2026-05-03T15:38:49Z</time></trkpt><trkpt lat="44.026798016172215" lon="5.654478500096721"><ele>812.5</ele><time>2026-05-03T15:38:50Z</time></trkpt><trkpt lat="44.02686986997082" lon="5.654454809644432"><ele>812.0</ele><time>2026-05-03T15:38:51Z</time></trkpt><trkpt lat="44.02694366153202" lon="5.654418918443608"><ele>811.4999999999999</ele><time>2026-05-03T15:38:52Z</time></trkpt><trkpt lat="44.02701253120751" lon="5.654375368935509"><ele>811.0</ele><time>2026-05-03T15:38:53Z</time></trkpt><trkpt lat="44.02707897351267" lon="5.654334120009054"><ele>810.4</ele><time>2026-05-03T15:38:54Z</time></trkpt><trkpt lat="44.02714831320147" lon="5.654288089755424"><ele>809.8</ele><time>2026-05-03T15:38:55Z</time></trkpt><trkpt lat="44.027243756621615" lon="5.654233900323674"><ele>809.1999999999999</ele><time>2026-05-03T15:38:57Z</time></trkpt><trkpt lat="44.02732692408486" lon="5.6541941604749075"><ele>808.5999999999999</ele><time>2026-05-03T15:38:59Z</time></trkpt><trkpt lat="44.027413681717995" lon="5.654139914147947"><ele>808.0</ele><time>2026-05-03T15:39:00.999Z</time></trkpt><trkpt lat="44.027562275027144" lon="5.654235075942304"><ele>808.0</ele><time>2026-05-03T15:39:01.999Z</time></trkpt><trkpt lat="44.02762408618807" lon="5.654157157234443"><ele>808.0</ele><time>2026-05-03T15:39:03.999Z</time></trkpt><trkpt lat="44.02769939408195" lon="5.654087116071433"><ele>808.0</ele><time>2026-05-03T15:39:05.999Z</time></trkpt><trkpt lat="44.02782024367752" lon="5.654066443806007"><ele>808.0</ele><time>2026-05-03T15:39:07.999Z</time></trkpt><trkpt lat="44.027959457442435" lon="5.654055585560419"><ele>808.0</ele><time>2026-05-03T15:39:09.999Z</time></trkpt><trkpt lat="44.028037652135104" lon="5.654049878149673"><ele>807.9999999999999</ele><time>2026-05-03T15:39:10.999Z</time></trkpt><trkpt lat="44.02811982799154" lon="5.6540491531632355"><ele>808.0</ele><time>2026-05-03T15:39:11.999Z</time></trkpt><trkpt lat="44.028206360603505" lon="5.654058387448531"><ele>808.0</ele><time>2026-05-03T15:39:12.999Z</time></trkpt><trkpt lat="44.028299464882195" lon="5.654090700151917"><ele>808.0</ele><time>2026-05-03T15:39:13.999Z</time></trkpt><trkpt lat="44.02839251778443" lon="5.654085808768436"><ele>807.9999999999999</ele><time>2026-05-03T15:39:14.999Z</time></trkpt><trkpt lat="44.02847654631561" lon="5.654101971697513"><ele>808.0</ele><time>2026-05-03T15:39:15.999Z</time></trkpt><trkpt lat="44.028564241285" lon="5.654107536056168"><ele>807.9999999999999</ele><time>2026-05-03T15:39:16.999Z</time></trkpt><trkpt lat="44.02865546671301" lon="5.654126152339974"><ele>808.0</ele><time>2026-05-03T15:39:17.999Z</time></trkpt><trkpt lat="44.028736729750115" lon="5.654134535082068"><ele>808.0</ele><time>2026-05-03T15:39:18.999Z</time></trkpt><trkpt lat="44.0288215480609" lon="5.654147548999984"><ele>808.0</ele><time>2026-05-03T15:39:19.999Z</time></trkpt><trkpt lat="44.02890672808054" lon="5.654149261965551"><ele>807.9999999999999</ele><time>2026-05-03T15:39:20.999Z</time></trkpt><trkpt lat="44.028996758031994" lon="5.654174024143809"><ele>808.0</ele><time>2026-05-03T15:39:21.999Z</time></trkpt><trkpt lat="44.029085470607384" lon="5.654180205805012"><ele>807.8333333333333</ele><time>2026-05-03T15:39:22.999Z</time></trkpt><trkpt lat="44.0291724154572" lon="5.654217790116482"><ele>807.6666666666666</ele><time>2026-05-03T15:39:23.999Z</time></trkpt><trkpt lat="44.029252307122874" lon="5.654235733632275"><ele>807.5</ele><time>2026-05-03T15:39:24.999Z</time></trkpt><trkpt lat="44.029326296194036" lon="5.654253132231563"><ele>807.3333333333333</ele><time>2026-05-03T15:39:25.999Z</time></trkpt><trkpt lat="44.02940167260183" lon="5.654270857064729"><ele>807.1666666666666</ele><time>2026-05-03T15:39:26.999Z</time></trkpt><trkpt lat="44.02948705720902" lon="5.654264895008757"><ele>807.0</ele><time>2026-05-03T15:39:27.999Z</time></trkpt><trkpt lat="44.029581271837046" lon="5.654281922190239"><ele>807.0</ele><time>2026-05-03T15:39:28.999Z</time></trkpt><trkpt lat="44.02966553441087" lon="5.654319409757674"><ele>807.0</ele><time>2026-05-03T15:39:29.999Z</time></trkpt><trkpt lat="44.029761585266954" lon="5.654333650440735"><ele>807.0</ele><time>2026-05-03T15:39:30.999Z</time></trkpt><trkpt lat="44.02985430478283" lon="5.654329122380612"><ele>807.0</ele><time>2026-05-03T15:39:31.999Z</time></trkpt><trkpt lat="44.0299415685251" lon="5.654328247211403"><ele>807.0</ele><time>2026-05-03T15:39:32.999Z</time></trkpt><trkpt lat="44.03002571367152" lon="5.654315894965216"><ele>806.8571428571429</ele><time>2026-05-03T15:39:33.999Z</time></trkpt><trkpt lat="44.030093091454546" lon="5.654301387091793"><ele>806.7142857142858</ele><time>2026-05-03T15:39:34.999Z</time></trkpt><trkpt lat="44.03016577872129" lon="5.654277662559672"><ele>806.5714285714287</ele><time>2026-05-03T15:39:35.999Z</time></trkpt><trkpt lat="44.03023188209024" lon="5.654248370197624"><ele>806.4285714285714</ele><time>2026-05-03T15:39:36.999Z</time></trkpt><trkpt lat="44.0302975213729" lon="5.654215484451463"><ele>806.2857142857142</ele><time>2026-05-03T15:39:37.999Z</time></trkpt><trkpt lat="44.03037210796501" lon="5.654199721469003"><ele>806.1428571428572</ele><time>2026-05-03T15:39:38.999Z</time></trkpt><trkpt lat="44.030450273181785" lon="5.654157537141803"><ele>806.0</ele><time>2026-05-03T15:39:39.999Z</time></trkpt><trkpt lat="44.03051775211086" lon="5.654152938015124"><ele>806.0</ele><time>2026-05-03T15:39:40.999Z</time></trkpt><trkpt lat="44.03059372820524" lon="5.654144474877178"><ele>806.0</ele><time>2026-05-03T15:39:41.999Z</time></trkpt><trkpt lat="44.03067577665813" lon="5.6541153907520085"><ele>806.0</ele><time>2026-05-03T15:39:42.999Z</time></trkpt><trkpt lat="44.03081997678027" lon="5.654102694986109"><ele>806.0</ele><time>2026-05-03T15:39:44.999Z</time></trkpt><trkpt lat="44.03092193953522" lon="5.654082302944882"><ele>806.0</ele><time>2026-05-03T15:39:45.999Z</time></trkpt><trkpt lat="44.031021830440785" lon="5.6540631129890295"><ele>805.1999999999999</ele><time>2026-05-03T15:39:46.999Z</time></trkpt><trkpt lat="44.031119687404505" lon="5.654038770258392"><ele>804.4</ele><time>2026-05-03T15:39:47.999Z</time></trkpt><trkpt lat="44.03120552498575" lon="5.654025988642473"><ele>803.6</ele><time>2026-05-03T15:39:48.999Z</time></trkpt><trkpt lat="44.03129924396094" lon="5.6539977093087685"><ele>802.8</ele><time>2026-05-03T15:39:49.999Z</time></trkpt><trkpt lat="44.03139526806998" lon="5.654003100619335"><ele>802.0</ele><time>2026-05-03T15:39:50.999Z</time></trkpt><trkpt lat="44.03146705956006" lon="5.653992657843067"><ele>802.0</ele><time>2026-05-03T15:39:51.999Z</time></trkpt><trkpt lat="44.03155191575668" lon="5.654002439146977"><ele>802.0</ele><time>2026-05-03T15:39:52.999Z</time></trkpt><trkpt lat="44.03164961701421" lon="5.654027723988604"><ele>802.0</ele><time>2026-05-03T15:39:54.999Z</time></trkpt><trkpt lat="44.03174767258454" lon="5.654063010922043"><ele>802.0</ele><time>2026-05-03T15:39:56.999Z</time></trkpt><trkpt lat="44.03183380589122" lon="5.6539844231635366"><ele>802.0</ele><time>2026-05-03T15:39:58.999Z</time></trkpt><trkpt lat="44.031918687257814" lon="5.6538574604049"><ele>801.6666666666666</ele><time>2026-05-03T15:40:00.999Z</time></trkpt><trkpt lat="44.0319605469199" lon="5.653769848845719"><ele>801.3333333333333</ele><time>2026-05-03T15:40:01.999Z</time></trkpt><trkpt lat="44.03200615535341" lon="5.653676212988897"><ele>801.0</ele><time>2026-05-03T15:40:02.999Z</time></trkpt><trkpt lat="44.03205963571287" lon="5.653568996228374"><ele>800.6666666666667</ele><time>2026-05-03T15:40:03.999Z</time></trkpt><trkpt lat="44.03211397364034" lon="5.6534600602494285"><ele>800.3333333333334</ele><time>2026-05-03T15:40:04.999Z</time></trkpt><trkpt lat="44.03216592726683" lon="5.65335590428386"><ele>800.0</ele><time>2026-05-03T15:40:05.999Z</time></trkpt><trkpt lat="44.03222227548084" lon="5.653247249356383"><ele>799.8</ele><time>2026-05-03T15:40:06.998Z</time></trkpt><trkpt lat="44.03227597028457" lon="5.653152262443756"><ele>799.6</ele><time>2026-05-03T15:40:07.998Z</time></trkpt><trkpt lat="44.03233631747682" lon="5.653050422292492"><ele>799.4000000000001</ele><time>2026-05-03T15:40:08.998Z</time></trkpt><trkpt lat="44.03238684389706" lon="5.652938123373485"><ele>799.2</ele><time>2026-05-03T15:40:09.998Z</time></trkpt><trkpt lat="44.032453912667975" lon="5.6528418044689355"><ele>799.0</ele><time>2026-05-03T15:40:10.998Z</time></trkpt><trkpt lat="44.032534467953646" lon="5.652749466713557"><ele>799.0</ele><time>2026-05-03T15:40:11.998Z</time></trkpt><trkpt lat="44.03261083249813" lon="5.652654686117014"><ele>799.0</ele><time>2026-05-03T15:40:12.998Z</time></trkpt><trkpt lat="44.032681993185534" lon="5.652552238517079"><ele>799.0</ele><time>2026-05-03T15:40:13.998Z</time></trkpt><trkpt lat="44.03276779894888" lon="5.652461536897477"><ele>799.0</ele><time>2026-05-03T15:40:14.998Z</time></trkpt><trkpt lat="44.032853452729995" lon="5.652385827576394"><ele>799.0</ele><time>2026-05-03T15:40:16Z</time></trkpt><trkpt lat="44.03294192896524" lon="5.652315974051472"><ele>799.0</ele><time>2026-05-03T15:40:17Z</time></trkpt><trkpt lat="44.03302969181376" lon="5.652251592839003"><ele>799.0</ele><time>2026-05-03T15:40:18Z</time></trkpt><trkpt lat="44.03311941774708" lon="5.652184236688155"><ele>799.0</ele><time>2026-05-03T15:40:19Z</time></trkpt><trkpt lat="44.033213654117205" lon="5.6521169056675555"><ele>799.0</ele><time>2026-05-03T15:40:20Z</time></trkpt><trkpt lat="44.033309064147026" lon="5.652066663168883"><ele>799.0</ele><time>2026-05-03T15:40:21Z</time></trkpt><trkpt lat="44.0334062044369" lon="5.652018424822618"><ele>798.2</ele><time>2026-05-03T15:40:22Z</time></trkpt><trkpt lat="44.033521110582655" lon="5.651961107458778"><ele>797.4000000000001</ele><time>2026-05-03T15:40:23Z</time></trkpt><trkpt lat="44.033623309482316" lon="5.651907223020033"><ele>796.6</ele><time>2026-05-03T15:40:24Z</time></trkpt><trkpt lat="44.033721688669445" lon="5.651853528207441"><ele>795.8</ele><time>2026-05-03T15:40:25Z</time></trkpt><trkpt lat="44.03382109069137" lon="5.651793261481523"><ele>795.0</ele><time>2026-05-03T15:40:26Z</time></trkpt><trkpt lat="44.03391658087934" lon="5.65174587934665"><ele>795.0</ele><time>2026-05-03T15:40:27Z</time></trkpt><trkpt lat="44.03401459414427" lon="5.651706138024534"><ele>795.0</ele><time>2026-05-03T15:40:28Z</time></trkpt><trkpt lat="44.034112821566545" lon="5.651653838065234"><ele>795.0</ele><time>2026-05-03T15:40:29Z</time></trkpt><trkpt lat="44.03421396033853" lon="5.65161841359486"><ele>795.0</ele><time>2026-05-03T15:40:30Z</time></trkpt><trkpt lat="44.034309648675666" lon="5.651570428065978"><ele>795.0</ele><time>2026-05-03T15:40:31Z</time></trkpt><trkpt lat="44.03442181149933" lon="5.651529281732013"><ele>796.2</ele><time>2026-05-03T15:40:32Z</time></trkpt><trkpt lat="44.03452284635784" lon="5.651474214395543"><ele>797.4</ele><time>2026-05-03T15:40:33Z</time></trkpt><trkpt lat="44.03462389122826" lon="5.651422566342485"><ele>798.5999999999999</ele><time>2026-05-03T15:40:34Z</time></trkpt><trkpt lat="44.034726649923" lon="5.651367311386765"><ele>799.8</ele><time>2026-05-03T15:40:35Z</time></trkpt><trkpt lat="44.034831338224535" lon="5.651320406231413"><ele>801.0</ele><time>2026-05-03T15:40:36Z</time></trkpt><trkpt lat="44.034941867378116" lon="5.651292378941635"><ele>802.4</ele><time>2026-05-03T15:40:37Z</time></trkpt><trkpt lat="44.035051051332985" lon="5.6512629612238685"><ele>803.8</ele><time>2026-05-03T15:40:38Z</time></trkpt><trkpt lat="44.03516775737922" lon="5.651238977529363"><ele>805.1999999999999</ele><time>2026-05-03T15:40:39Z</time></trkpt><trkpt lat="44.03527202587886" lon="5.6512031622045935"><ele>806.5999999999999</ele><time>2026-05-03T15:40:40Z</time></trkpt><trkpt lat="44.035378416249635" lon="5.651175234048817"><ele>808.0</ele><time>2026-05-03T15:40:41Z</time></trkpt><trkpt lat="44.035476247376536" lon="5.651169990224515"><ele>808.0</ele><time>2026-05-03T15:40:42Z</time></trkpt><trkpt lat="44.03556022514219" lon="5.651175357219481"><ele>808.0</ele><time>2026-05-03T15:40:43Z</time></trkpt><trkpt lat="44.035630874818665" lon="5.651179123937881"><ele>808.0</ele><time>2026-05-03T15:40:44Z</time></trkpt><trkpt lat="44.03576496428518" lon="5.651102588517689"><ele>808.0</ele><time>2026-05-03T15:40:46Z</time></trkpt><trkpt lat="44.03579658169045" lon="5.650970520990316"><ele>808.0</ele><time>2026-05-03T15:40:47Z</time></trkpt><trkpt lat="44.03584398507569" lon="5.650830932633242"><ele>806.8</ele><time>2026-05-03T15:40:48Z</time></trkpt><trkpt lat="44.03588901180324" lon="5.650688072036079"><ele>805.5999999999999</ele><time>2026-05-03T15:40:49Z</time></trkpt><trkpt lat="44.03591713172418" lon="5.650539818689553"><ele>804.4000000000001</ele><time>2026-05-03T15:40:50Z</time></trkpt><trkpt lat="44.03596362632498" lon="5.650411049590518"><ele>803.2</ele><time>2026-05-03T15:40:51Z</time></trkpt><trkpt lat="44.036013899522096" lon="5.650287147743352"><ele>802.0</ele><time>2026-05-03T15:40:52Z</time></trkpt><trkpt lat="44.036072696905464" lon="5.650161379456275"><ele>799.8</ele><time>2026-05-03T15:40:53Z</time></trkpt><trkpt lat="44.03613769173713" lon="5.6500413546080255"><ele>797.6</ele><time>2026-05-03T15:40:54Z</time></trkpt><trkpt lat="44.03620848243203" lon="5.6499249192753265"><ele>795.4</ele><time>2026-05-03T15:40:55Z</time></trkpt><trkpt lat="44.03626788535801" lon="5.649812022923391"><ele>793.1999999999999</ele><time>2026-05-03T15:40:56Z</time></trkpt><trkpt lat="44.0363223839811" lon="5.64970085315863"><ele>791.0</ele><time>2026-05-03T15:40:57Z</time></trkpt><trkpt lat="44.03638018814961" lon="5.6495936598251895"><ele>791.0</ele><time>2026-05-03T15:40:58Z</time></trkpt><trkpt lat="44.03643445160636" lon="5.64947880899192"><ele>791.0</ele><time>2026-05-03T15:40:59Z</time></trkpt><trkpt lat="44.03648780193108" lon="5.649359796782647"><ele>791.0</ele><time>2026-05-03T15:41:00Z</time></trkpt><trkpt lat="44.036541132701636" lon="5.649232204767156"><ele>791.0</ele><time>2026-05-03T15:41:01Z</time></trkpt><trkpt lat="44.03659678314562" lon="5.649108301796857"><ele>791.0</ele><time>2026-05-03T15:41:02Z</time></trkpt><trkpt lat="44.03664489592421" lon="5.648979073494058"><ele>792.1999999999999</ele><time>2026-05-03T15:41:03Z</time></trkpt><trkpt lat="44.03669653939314" lon="5.648858877965836"><ele>793.4</ele><time>2026-05-03T15:41:04Z</time></trkpt><trkpt lat="44.03673770801354" lon="5.648725050127855"><ele>794.6</ele><time>2026-05-03T15:41:05Z</time></trkpt><trkpt lat="44.03677748828666" lon="5.648591970569363"><ele>795.8</ele><time>2026-05-03T15:41:06Z</time></trkpt><trkpt lat="44.036825806955044" lon="5.648469342888516"><ele>797.0</ele><time>2026-05-03T15:41:07Z</time></trkpt><trkpt lat="44.03686179517517" lon="5.648333564562604"><ele>797.0</ele><time>2026-05-03T15:41:08Z</time></trkpt><trkpt lat="44.03689677167887" lon="5.648201248176944"><ele>797.0</ele><time>2026-05-03T15:41:08.999Z</time></trkpt><trkpt lat="44.03692850002061" lon="5.648070501674676"><ele>797.0</ele><time>2026-05-03T15:41:09.999Z</time></trkpt><trkpt lat="44.03697257895528" lon="5.647968774987171"><ele>797.0</ele><time>2026-05-03T15:41:10.999Z</time></trkpt><trkpt lat="44.03697310535948" lon="5.647856422526899"><ele>797.0</ele><time>2026-05-03T15:41:11.999Z</time></trkpt><trkpt lat="44.03697823650083" lon="5.647740269054834"><ele>796.6</ele><time>2026-05-03T15:41:12.999Z</time></trkpt><trkpt lat="44.036974101076865" lon="5.647608777163866"><ele>796.2</ele><time>2026-05-03T15:41:13.999Z</time></trkpt><trkpt lat="44.0369803777979" lon="5.6474734117956364"><ele>795.8</ele><time>2026-05-03T15:41:14.999Z</time></trkpt><trkpt lat="44.03698897001645" lon="5.6473435722026935"><ele>795.4</ele><time>2026-05-03T15:41:15.999Z</time></trkpt><trkpt lat="44.03699320211748" lon="5.647229616660321"><ele>795.0</ele><time>2026-05-03T15:41:16.999Z</time></trkpt><trkpt lat="44.03701334582131" lon="5.647117439483005"><ele>795.0</ele><time>2026-05-03T15:41:17.999Z</time></trkpt><trkpt lat="44.037018380354475" lon="5.647020380572128"><ele>795.0</ele><time>2026-05-03T15:41:18.999Z</time></trkpt><trkpt lat="44.037004618564154" lon="5.646920880784535"><ele>795.0</ele><time>2026-05-03T15:41:19.999Z</time></trkpt><trkpt lat="44.03699532875792" lon="5.646830046828291"><ele>795.0</ele><time>2026-05-03T15:41:20.999Z</time></trkpt><trkpt lat="44.03697577951272" lon="5.64672178192012"><ele>795.0</ele><time>2026-05-03T15:41:21.999Z</time></trkpt><trkpt lat="44.03694164449046" lon="5.646605634051158"><ele>795.0</ele><time>2026-05-03T15:41:22.999Z</time></trkpt><trkpt lat="44.03690333487658" lon="5.646516331279364"><ele>794.1666666666666</ele><time>2026-05-03T15:41:23.999Z</time></trkpt><trkpt lat="44.036858803452056" lon="5.646387112627211"><ele>793.3333333333333</ele><time>2026-05-03T15:41:25.999Z</time></trkpt><trkpt lat="44.03682170917127" lon="5.646303864105623"><ele>792.5</ele><time>2026-05-03T15:41:27.999Z</time></trkpt><trkpt lat="44.036888964486074" lon="5.6462904426676435"><ele>791.6666666666666</ele><time>2026-05-03T15:41:34.999Z</time></trkpt><trkpt lat="44.03692440598651" lon="5.646364107063639"><ele>790.8333333333333</ele><time>2026-05-03T15:41:35.999Z</time></trkpt><trkpt lat="44.03697477293866" lon="5.64645176883834"><ele>790.0</ele><time>2026-05-03T15:41:36.999Z</time></trkpt><trkpt lat="44.037036407139816" lon="5.6465257293785545"><ele>790.0</ele><time>2026-05-03T15:41:37.999Z</time></trkpt><trkpt lat="44.0371126692273" lon="5.646611460037813"><ele>790.0</ele><time>2026-05-03T15:41:38.999Z</time></trkpt><trkpt lat="44.03717904626601" lon="5.646719093733739"><ele>790.0</ele><time>2026-05-03T15:41:39.999Z</time></trkpt><trkpt lat="44.03724596310772" lon="5.646811199324122"><ele>790.0</ele><time>2026-05-03T15:41:40.999Z</time></trkpt><trkpt lat="44.03729541173073" lon="5.646902068831328"><ele>790.0</ele><time>2026-05-03T15:41:41.999Z</time></trkpt><trkpt lat="44.03733291374677" lon="5.646994974245672"><ele>790.8333333333333</ele><time>2026-05-03T15:41:42.999Z</time></trkpt><trkpt lat="44.03735896715445" lon="5.647100104405209"><ele>791.6666666666666</ele><time>2026-05-03T15:41:43.999Z</time></trkpt><trkpt lat="44.03739717387224" lon="5.647203597210687"><ele>792.5</ele><time>2026-05-03T15:41:44.999Z</time></trkpt><trkpt lat="44.03744486402197" lon="5.647287852737146"><ele>793.3333333333333</ele><time>2026-05-03T15:41:45.999Z</time></trkpt><trkpt lat="44.037505048750184" lon="5.647344435398159"><ele>794.1666666666666</ele><time>2026-05-03T15:41:46.999Z</time></trkpt><trkpt lat="44.03758652057902" lon="5.647369316154849"><ele>795.0</ele><time>2026-05-03T15:41:47.999Z</time></trkpt><trkpt lat="44.03766827518419" lon="5.647387629024661"><ele>793.3333333333334</ele><time>2026-05-03T15:41:48.999Z</time></trkpt><trkpt lat="44.037753924470934" lon="5.647408933191553"><ele>791.6666666666667</ele><time>2026-05-03T15:41:49.999Z</time></trkpt><trkpt lat="44.03782706992317" lon="5.647469264934123"><ele>790.0</ele><time>2026-05-03T15:41:50.999Z</time></trkpt><trkpt lat="44.037908793262815" lon="5.647524461039673"><ele>788.3333333333334</ele><time>2026-05-03T15:41:51.999Z</time></trkpt><trkpt lat="44.03799613795832" lon="5.647557947453688"><ele>786.6666666666667</ele><time>2026-05-03T15:41:52.999Z</time></trkpt><trkpt lat="44.03806658221107" lon="5.647597748743506"><ele>785.0</ele><time>2026-05-03T15:41:53.999Z</time></trkpt><trkpt lat="44.0381296941754" lon="5.647630439665229"><ele>785.0</ele><time>2026-05-03T15:41:54.999Z</time></trkpt><trkpt lat="44.03818584212397" lon="5.647676828434333"><ele>785.0</ele><time>2026-05-03T15:41:55.999Z</time></trkpt><trkpt lat="44.03823350042993" lon="5.647737874191481"><ele>785.0</ele><time>2026-05-03T15:41:56.999Z</time></trkpt><trkpt lat="44.03824647213218" lon="5.6478313440379635"><ele>785.0</ele><time>2026-05-03T15:41:57.999Z</time></trkpt><trkpt lat="44.038276310859715" lon="5.647921257762136"><ele>785.0</ele><time>2026-05-03T15:41:58.999Z</time></trkpt><trkpt lat="44.03831638965866" lon="5.648016309891564"><ele>785.0</ele><time>2026-05-03T15:41:59.999Z</time></trkpt><trkpt lat="44.0383659332742" lon="5.64810371834409"><ele>785.0</ele><time>2026-05-03T15:42:00.999Z</time></trkpt><trkpt lat="44.03845089613947" lon="5.648145514668164"><ele>784.8333333333334</ele><time>2026-05-03T15:42:01.999Z</time></trkpt><trkpt lat="44.03853654412969" lon="5.648155274287786"><ele>784.6666666666667</ele><time>2026-05-03T15:42:02.999Z</time></trkpt><trkpt lat="44.03862452181619" lon="5.648165883852469"><ele>784.5</ele><time>2026-05-03T15:42:03.999Z</time></trkpt><trkpt lat="44.038714551153205" lon="5.648157988140924"><ele>784.3333333333333</ele><time>2026-05-03T15:42:04.999Z</time></trkpt><trkpt lat="44.03878525704002" lon="5.648175963285798"><ele>784.1666666666666</ele><time>2026-05-03T15:42:05.999Z</time></trkpt><trkpt lat="44.038850195456654" lon="5.648192473105431"><ele>784.0</ele><time>2026-05-03T15:42:06.999Z</time></trkpt><trkpt lat="44.03894314545206" lon="5.6482061245625"><ele>783.9999999999999</ele><time>2026-05-03T15:42:08.999Z</time></trkpt><trkpt lat="44.03901905338607" lon="5.64819888721069"><ele>784.0</ele><time>2026-05-03T15:42:10.999Z</time></trkpt><trkpt lat="44.039101199884655" lon="5.648191774906482"><ele>784.0</ele><time>2026-05-03T15:42:12.998Z</time></trkpt><trkpt lat="44.039033605102" lon="5.648093546078527"><ele>784.0</ele><time>2026-05-03T15:42:13.998Z</time></trkpt><trkpt lat="44.03895763114354" lon="5.647994853852053"><ele>783.9999999999999</ele><time>2026-05-03T15:42:15.998Z</time></trkpt><trkpt lat="44.03890260844842" lon="5.647934334928789"><ele>784.0</ele><time>2026-05-03T15:42:16.998Z</time></trkpt><trkpt lat="44.03884031426991" lon="5.647877392171916"><ele>784.0</ele><time>2026-05-03T15:42:17.998Z</time></trkpt><trkpt lat="44.03879075269352" lon="5.647799419558544"><ele>784.0</ele><time>2026-05-03T15:42:18.998Z</time></trkpt><trkpt lat="44.038735255915576" lon="5.647707053692672"><ele>784.0</ele><time>2026-05-03T15:42:19.998Z</time></trkpt><trkpt lat="44.03867006764095" lon="5.647593951662815"><ele>784.0</ele><time>2026-05-03T15:42:20.998Z</time></trkpt><trkpt lat="44.03858935391818" lon="5.647487471034635"><ele>784.0</ele><time>2026-05-03T15:42:22Z</time></trkpt><trkpt lat="44.03851540525379" lon="5.647354002279278"><ele>780.75</ele><time>2026-05-03T15:42:23Z</time></trkpt><trkpt lat="44.03844636327401" lon="5.647214833909996"><ele>777.5</ele><time>2026-05-03T15:42:24Z</time></trkpt><trkpt lat="44.038376955831794" lon="5.647078247146093"><ele>774.25</ele><time>2026-05-03T15:42:25Z</time></trkpt><trkpt lat="44.03831351650526" lon="5.646916868999975"><ele>771.0</ele><time>2026-05-03T15:42:26Z</time></trkpt><trkpt lat="44.0382501894551" lon="5.646770809143056"><ele>771.0</ele><time>2026-05-03T15:42:27Z</time></trkpt><trkpt lat="44.03818815022207" lon="5.646634150018327"><ele>771.0</ele><time>2026-05-03T15:42:28Z</time></trkpt><trkpt lat="44.03812833343493" lon="5.646510529657837"><ele>771.0</ele><time>2026-05-03T15:42:29Z</time></trkpt><trkpt lat="44.03804882190338" lon="5.646389989987349"><ele>771.0</ele><time>2026-05-03T15:42:30Z</time></trkpt><trkpt lat="44.037987862878666" lon="5.646254845425209"><ele>771.0</ele><time>2026-05-03T15:42:31Z</time></trkpt><trkpt lat="44.037921231903084" lon="5.646136159783265"><ele>771.0</ele><time>2026-05-03T15:42:32Z</time></trkpt><trkpt lat="44.037855350456134" lon="5.6460091777331884"><ele>771.0</ele><time>2026-05-03T15:42:33Z</time></trkpt><trkpt lat="44.03778509952348" lon="5.64589305726603"><ele>771.0</ele><time>2026-05-03T15:42:34Z</time></trkpt><trkpt lat="44.03773070198818" lon="5.645765843453156"><ele>771.0</ele><time>2026-05-03T15:42:35Z</time></trkpt><trkpt lat="44.03766709674462" lon="5.645660559445914"><ele>768.0</ele><time>2026-05-03T15:42:36Z</time></trkpt><trkpt lat="44.03759134988592" lon="5.645561537927158"><ele>765.0</ele><time>2026-05-03T15:42:37Z</time></trkpt><trkpt lat="44.037528586733956" lon="5.645453720561847"><ele>762.0</ele><time>2026-05-03T15:42:38Z</time></trkpt><trkpt lat="44.0374698641465" lon="5.645358078631514"><ele>759.0</ele><time>2026-05-03T15:42:39Z</time></trkpt><trkpt lat="44.03739827724849" lon="5.645235203771171"><ele>756.0</ele><time>2026-05-03T15:42:40Z</time></trkpt><trkpt lat="44.0373477978375" lon="5.645133327266897"><ele>755.4</ele><time>2026-05-03T15:42:41Z</time></trkpt><trkpt lat="44.03727821009501" lon="5.645020253423649"><ele>754.8</ele><time>2026-05-03T15:42:42Z</time></trkpt><trkpt lat="44.03720521770599" lon="5.644920886960981"><ele>754.1999999999999</ele><time>2026-05-03T15:42:43Z</time></trkpt><trkpt lat="44.037156103134244" lon="5.644834822995699"><ele>753.5999999999999</ele><time>2026-05-03T15:42:44Z</time></trkpt><trkpt lat="44.03708884076447" lon="5.644748694974935"><ele>753.0</ele><time>2026-05-03T15:42:45Z</time></trkpt><trkpt lat="44.03703006140339" lon="5.644686515003373"><ele>753.0</ele><time>2026-05-03T15:42:46Z</time></trkpt><trkpt lat="44.03695186350551" lon="5.644575670499592"><ele>753.0</ele><time>2026-05-03T15:42:48Z</time></trkpt><trkpt lat="44.03687630115145" lon="5.644488614057242"><ele>753.0</ele><time>2026-05-03T15:42:50Z</time></trkpt><trkpt lat="44.036845424276514" lon="5.64440950502372"><ele>753.0</ele><time>2026-05-03T15:42:52Z</time></trkpt><trkpt lat="44.036942899403854" lon="5.644338238904022"><ele>753.0</ele><time>2026-05-03T15:42:55Z</time></trkpt><trkpt lat="44.037064307097666" lon="5.64435887458005"><ele>750.2857142857143</ele><time>2026-05-03T15:42:57Z</time></trkpt><trkpt lat="44.037128514743145" lon="5.644356757702307"><ele>747.5714285714287</ele><time>2026-05-03T15:42:58Z</time></trkpt><trkpt lat="44.03719461215912" lon="5.644341534406041"><ele>744.8571428571429</ele><time>2026-05-03T15:42:59Z</time></trkpt><trkpt lat="44.03726044124633" lon="5.644337408194604"><ele>742.1428571428571</ele><time>2026-05-03T15:43:00Z</time></trkpt><trkpt lat="44.037323311762535" lon="5.644292231641332"><ele>739.4285714285714</ele><time>2026-05-03T15:43:01Z</time></trkpt><trkpt lat="44.03738859084311" lon="5.64427024125474"><ele>736.7142857142857</ele><time>2026-05-03T15:43:02Z</time></trkpt><trkpt lat="44.037451671127656" lon="5.644242522650258"><ele>734.0</ele><time>2026-05-03T15:43:03Z</time></trkpt><trkpt lat="44.03752372137284" lon="5.6442384066160525"><ele>732.8000000000001</ele><time>2026-05-03T15:43:04Z</time></trkpt><trkpt lat="44.03758380218504" lon="5.644211987948317"><ele>731.6</ele><time>2026-05-03T15:43:05Z</time></trkpt><trkpt lat="44.037672937494285" lon="5.644149623937127"><ele>730.4</ele><time>2026-05-03T15:43:07Z</time></trkpt><trkpt lat="44.037770973501885" lon="5.644081154298085"><ele>729.2</ele><time>2026-05-03T15:43:09Z</time></trkpt><trkpt lat="44.03783954679239" lon="5.643972476115911"><ele>728.0</ele><time>2026-05-03T15:43:11Z</time></trkpt><trkpt lat="44.037895119017456" lon="5.64384645316391"><ele>728.0</ele><time>2026-05-03T15:43:13Z</time></trkpt><trkpt lat="44.03792236254208" lon="5.643714334486944"><ele>728.0</ele><time>2026-05-03T15:43:14.999Z</time></trkpt><trkpt lat="44.03793512772819" lon="5.643576881241781"><ele>728.0</ele><time>2026-05-03T15:43:16.999Z</time></trkpt><trkpt lat="44.03795466711972" lon="5.643442865666221"><ele>728.0</ele><time>2026-05-03T15:43:18.999Z</time></trkpt><trkpt lat="44.0379755146531" lon="5.643319749540198"><ele>728.0</ele><time>2026-05-03T15:43:20.999Z</time></trkpt><trkpt lat="44.037989173022126" lon="5.643232929701972"><ele>727.1666666666666</ele><time>2026-05-03T15:43:22.999Z</time></trkpt><trkpt lat="44.03801868119586" lon="5.6431273479419986"><ele>726.3333333333333</ele><time>2026-05-03T15:43:24.999Z</time></trkpt><trkpt lat="44.038033480033945" lon="5.642994041557141"><ele>725.5</ele><time>2026-05-03T15:43:26.999Z</time></trkpt><trkpt lat="44.03804974040283" lon="5.642837650545716"><ele>724.6666666666666</ele><time>2026-05-03T15:43:28.999Z</time></trkpt><trkpt lat="44.03806115144712" lon="5.6427421849519135"><ele>723.8333333333334</ele><time>2026-05-03T15:43:29.999Z</time></trkpt><trkpt lat="44.03807388487968" lon="5.642642418870671"><ele>723.0</ele><time>2026-05-03T15:43:30.999Z</time></trkpt><trkpt lat="44.03808654758646" lon="5.6425432073979485"><ele>722.4</ele><time>2026-05-03T15:43:31.999Z</time></trkpt><trkpt lat="44.038099926687416" lon="5.642438382843351"><ele>721.8</ele><time>2026-05-03T15:43:32.999Z</time></trkpt><trkpt lat="44.0381158741973" lon="5.642312662909307"><ele>721.2</ele><time>2026-05-03T15:43:33.999Z</time></trkpt><trkpt lat="44.03813064032067" lon="5.642185069779924"><ele>720.6</ele><time>2026-05-03T15:43:34.999Z</time></trkpt><trkpt lat="44.03814749576408" lon="5.642037254214271"><ele>720.0</ele><time>2026-05-03T15:43:35.999Z</time></trkpt><trkpt lat="44.0381639574214" lon="5.641877384548918"><ele>720.0</ele><time>2026-05-03T15:43:36.999Z</time></trkpt><trkpt lat="44.03817782598041" lon="5.641729175315078"><ele>720.0</ele><time>2026-05-03T15:43:37.999Z</time></trkpt><trkpt lat="44.038192322585324" lon="5.641574253983434"><ele>720.0</ele><time>2026-05-03T15:43:38.999Z</time></trkpt><trkpt lat="44.03819163174074" lon="5.6414198430081335"><ele>720.0</ele><time>2026-05-03T15:43:39.999Z</time></trkpt><trkpt lat="44.038205484515956" lon="5.641268115341526"><ele>720.0</ele><time>2026-05-03T15:43:40.999Z</time></trkpt><trkpt lat="44.0382356517959" lon="5.641122599528164"><ele>720.8</ele><time>2026-05-03T15:43:41.999Z</time></trkpt><trkpt lat="44.03825055511768" lon="5.640973451383768"><ele>721.6</ele><time>2026-05-03T15:43:42.999Z</time></trkpt><trkpt lat="44.03826612210139" lon="5.640820818296099"><ele>722.4000000000001</ele><time>2026-05-03T15:43:43.999Z</time></trkpt><trkpt lat="44.03828186281836" lon="5.640666481612739"><ele>723.2</ele><time>2026-05-03T15:43:44.999Z</time></trkpt><trkpt lat="44.03828287301233" lon="5.640511516509309"><ele>724.0</ele><time>2026-05-03T15:43:45.999Z</time></trkpt><trkpt lat="44.03829798075773" lon="5.640360418642834"><ele>724.8000000000001</ele><time>2026-05-03T15:43:46.999Z</time></trkpt><trkpt lat="44.03832828945736" lon="5.640211271773434"><ele>725.6</ele><time>2026-05-03T15:43:47.999Z</time></trkpt><trkpt lat="44.03834356391748" lon="5.640058891081013"><ele>726.4</ele><time>2026-05-03T15:43:48.999Z</time></trkpt><trkpt lat="44.038342380244956" lon="5.639902492836101"><ele>727.2</ele><time>2026-05-03T15:43:49.999Z</time></trkpt><trkpt lat="44.03835636628902" lon="5.639750152478351"><ele>728.0</ele><time>2026-05-03T15:43:50.999Z</time></trkpt><trkpt lat="44.03838804537454" lon="5.639593445695875"><ele>728.75</ele><time>2026-05-03T15:43:51.999Z</time></trkpt><trkpt lat="44.03838809837463" lon="5.6394183011573995"><ele>729.5</ele><time>2026-05-03T15:43:52.999Z</time></trkpt><trkpt lat="44.03841981966936" lon="5.639260965611839"><ele>730.25</ele><time>2026-05-03T15:43:53.999Z</time></trkpt><trkpt lat="44.03843455966382" lon="5.639106729029596"><ele>731.0</ele><time>2026-05-03T15:43:54.999Z</time></trkpt><trkpt lat="44.03843270727381" lon="5.638950701050051"><ele>731.0</ele><time>2026-05-03T15:43:55.999Z</time></trkpt><trkpt lat="44.03844917952162" lon="5.63880084854663"><ele>731.0</ele><time>2026-05-03T15:43:56.999Z</time></trkpt><trkpt lat="44.038467239649044" lon="5.638653145751442"><ele>731.0</ele><time>2026-05-03T15:43:57.999Z</time></trkpt><trkpt lat="44.038478598334486" lon="5.638507116453343"><ele>731.0</ele><time>2026-05-03T15:43:58.999Z</time></trkpt><trkpt lat="44.03849180568955" lon="5.638360402600016"><ele>731.0</ele><time>2026-05-03T15:43:59.999Z</time></trkpt><trkpt lat="44.038519961786896" lon="5.638218340301323"><ele>732.0</ele><time>2026-05-03T15:44:00.999Z</time></trkpt><trkpt lat="44.03853355347555" lon="5.638077160582003"><ele>733.0</ele><time>2026-05-03T15:44:01.999Z</time></trkpt><trkpt lat="44.03854671200504" lon="5.6379404796316726"><ele>734.0</ele><time>2026-05-03T15:44:02.999Z</time></trkpt><trkpt lat="44.038559375677856" lon="5.637805378190827"><ele>735.0</ele><time>2026-05-03T15:44:03.999Z</time></trkpt><trkpt lat="44.03857111795755" lon="5.637677955504268"><ele>736.0</ele><time>2026-05-03T15:44:04.999Z</time></trkpt><trkpt lat="44.03856641305606" lon="5.6375525120943575"><ele>736.5</ele><time>2026-05-03T15:44:05.999Z</time></trkpt><trkpt lat="44.038580730363094" lon="5.637435988102395"><ele>737.0</ele><time>2026-05-03T15:44:06.999Z</time></trkpt><trkpt lat="44.03859280796495" lon="5.637346491234985"><ele>737.5</ele><time>2026-05-03T15:44:07.999Z</time></trkpt><trkpt lat="44.03860084726898" lon="5.637219531247116"><ele>738.0</ele><time>2026-05-03T15:44:09.999Z</time></trkpt><trkpt lat="44.03859925211826" lon="5.6371139677316515"><ele>738.5</ele><time>2026-05-03T15:44:14.999Z</time></trkpt><trkpt lat="44.03861520949213" lon="5.636955788775446"><ele>739.0</ele><time>2026-05-03T15:44:16.998Z</time></trkpt><trkpt lat="44.038568421313364" lon="5.63686793121197"><ele>739.5</ele><time>2026-05-03T15:44:17.998Z</time></trkpt><trkpt lat="44.03856404331168" lon="5.636777487361053"><ele>740.0</ele><time>2026-05-03T15:44:18.998Z</time></trkpt><trkpt lat="44.03853876166655" lon="5.636654140487018"><ele>740.5</ele><time>2026-05-03T15:44:20.998Z</time></trkpt><trkpt lat="44.03847106912602" lon="5.636634890572813"><ele>741.0</ele><time>2026-05-03T15:44:22.998Z</time></trkpt><trkpt lat="44.03839008363886" lon="5.636551712235665"><ele>741.5</ele><time>2026-05-03T15:44:24.998Z</time></trkpt><trkpt lat="44.03834184871609" lon="5.6364949531532895"><ele>742.0</ele><time>2026-05-03T15:44:25.998Z</time></trkpt><trkpt lat="44.03826673745535" lon="5.636374358189797"><ele>742.0</ele><time>2026-05-03T15:44:28Z</time></trkpt><trkpt lat="44.03820982964954" lon="5.636264153046516"><ele>742.0</ele><time>2026-05-03T15:44:30Z</time></trkpt><trkpt lat="44.03815818090233" lon="5.636151875561256"><ele>742.0</ele><time>2026-05-03T15:44:32Z</time></trkpt><trkpt lat="44.03811476134723" lon="5.636017815161231"><ele>742.0</ele><time>2026-05-03T15:44:34Z</time></trkpt><trkpt lat="44.03809361708806" lon="5.63586398431987"><ele>742.0</ele><time>2026-05-03T15:44:36Z</time></trkpt><trkpt lat="44.03810012480886" lon="5.63574402398882"><ele>743.2</ele><time>2026-05-03T15:44:38Z</time></trkpt><trkpt lat="44.03816001179957" lon="5.635625499824158"><ele>744.4000000000001</ele><time>2026-05-03T15:44:41Z</time></trkpt><trkpt lat="44.03821414645826" lon="5.6355050704559835"><ele>745.5999999999999</ele><time>2026-05-03T15:44:43Z</time></trkpt><trkpt lat="44.03825903440281" lon="5.635371159553424"><ele>746.8</ele><time>2026-05-03T15:44:45Z</time></trkpt><trkpt lat="44.03828731244249" lon="5.635210081690256"><ele>748.0</ele><time>2026-05-03T15:44:47Z</time></trkpt><trkpt lat="44.03830872296417" lon="5.6350717567909685"><ele>749.0</ele><time>2026-05-03T15:44:49Z</time></trkpt><trkpt lat="44.03827194755733" lon="5.6349705709616815"><ele>750.0</ele><time>2026-05-03T15:44:51Z</time></trkpt><trkpt lat="44.03817094428375" lon="5.634924571530563"><ele>751.0</ele><time>2026-05-03T15:44:53Z</time></trkpt><trkpt lat="44.03804496985162" lon="5.6348913616127225"><ele>752.0</ele><time>2026-05-03T15:44:55Z</time></trkpt><trkpt lat="44.03798520645564" lon="5.634840598365945"><ele>753.0</ele><time>2026-05-03T15:44:56Z</time></trkpt><trkpt lat="44.03791720585768" lon="5.634828008046829"><ele>753.0</ele><time>2026-05-03T15:44:57Z</time></trkpt><trkpt lat="44.03784763445336" lon="5.634798221648129"><ele>753.0</ele><time>2026-05-03T15:44:58Z</time></trkpt><trkpt lat="44.03778915728924" lon="5.634750768823906"><ele>753.0</ele><time>2026-05-03T15:44:59Z</time></trkpt><trkpt lat="44.03768822301726" lon="5.634705398557937"><ele>753.0</ele><time>2026-05-03T15:45:01Z</time></trkpt><trkpt lat="44.03760083817615" lon="5.634666532841426"><ele>753.0</ele><time>2026-05-03T15:45:03Z</time></trkpt><trkpt lat="44.03754446882237" lon="5.634606863106954"><ele>753.0</ele><time>2026-05-03T15:45:05Z</time></trkpt><trkpt lat="44.03750516114689" lon="5.634451927567884"><ele>753.3333333333334</ele><time>2026-05-03T15:45:07Z</time></trkpt><trkpt lat="44.037486287269786" lon="5.634359847518067"><ele>753.6666666666666</ele><time>2026-05-03T15:45:08Z</time></trkpt><trkpt lat="44.037461800319555" lon="5.634258818060089"><ele>754.0</ele><time>2026-05-03T15:45:09Z</time></trkpt><trkpt lat="44.037431270993984" lon="5.634161984847286"><ele>754.3333333333333</ele><time>2026-05-03T15:45:10Z</time></trkpt><trkpt lat="44.037395105752914" lon="5.63407503612993"><ele>754.6666666666666</ele><time>2026-05-03T15:45:11Z</time></trkpt><trkpt lat="44.037368422895526" lon="5.633995559435891"><ele>755.0</ele><time>2026-05-03T15:45:12Z</time></trkpt><trkpt lat="44.03732363073687" lon="5.633852810594945"><ele>755.0</ele><time>2026-05-03T15:45:14Z</time></trkpt><trkpt lat="44.03730590733484" lon="5.633740908667304"><ele>755.0</ele><time>2026-05-03T15:45:15.999Z</time></trkpt><trkpt lat="44.037348875899184" lon="5.6336164995003175"><ele>755.0</ele><time>2026-05-03T15:45:17.999Z</time></trkpt><trkpt lat="44.037407439507255" lon="5.633467195730375"><ele>755.0</ele><time>2026-05-03T15:45:19.999Z</time></trkpt><trkpt lat="44.03743573470584" lon="5.633387547859337"><ele>755.0</ele><time>2026-05-03T15:45:20.999Z</time></trkpt><trkpt lat="44.037488624447235" lon="5.633227242511671"><ele>756.2857142857142</ele><time>2026-05-03T15:45:22.999Z</time></trkpt><trkpt lat="44.037516948544535" lon="5.633138478705573"><ele>757.5714285714287</ele><time>2026-05-03T15:45:23.999Z</time></trkpt><trkpt lat="44.03753845870524" lon="5.633055354226672"><ele>758.8571428571429</ele><time>2026-05-03T15:45:24.999Z</time></trkpt><trkpt lat="44.03756024602122" lon="5.6329632624772445"><ele>760.1428571428571</ele><time>2026-05-03T15:45:25.999Z</time></trkpt><trkpt lat="44.03758473041652" lon="5.632870537035828"><ele>761.4285714285713</ele><time>2026-05-03T15:45:26.999Z</time></trkpt><trkpt lat="44.037611913173876" lon="5.632775661636692"><ele>762.7142857142858</ele><time>2026-05-03T15:45:27.999Z</time></trkpt><trkpt lat="44.03763956416052" lon="5.632683382956027"><ele>764.0</ele><time>2026-05-03T15:45:28.999Z</time></trkpt><trkpt lat="44.03767175329845" lon="5.632591003479505"><ele>764.8333333333333</ele><time>2026-05-03T15:45:29.999Z</time></trkpt><trkpt lat="44.037698957630525" lon="5.6324894976359605"><ele>765.6666666666666</ele><time>2026-05-03T15:45:30.999Z</time></trkpt><trkpt lat="44.0377279022782" lon="5.632391296820012"><ele>766.5</ele><time>2026-05-03T15:45:31.999Z</time></trkpt><trkpt lat="44.03775708795183" lon="5.6322936164046995"><ele>767.3333333333333</ele><time>2026-05-03T15:45:32.999Z</time></trkpt><trkpt lat="44.037786266264966" lon="5.6321989585208945"><ele>768.1666666666666</ele><time>2026-05-03T15:45:33.999Z</time></trkpt><trkpt lat="44.0378342342843" lon="5.632099553682499"><ele>769.0</ele><time>2026-05-03T15:45:34.999Z</time></trkpt><trkpt lat="44.037855395672715" lon="5.63199454915504"><ele>769.9999999999999</ele><time>2026-05-03T15:45:35.999Z</time></trkpt><trkpt lat="44.037889931918336" lon="5.631887363705847"><ele>771.0</ele><time>2026-05-03T15:45:36.999Z</time></trkpt><trkpt lat="44.03792114083503" lon="5.631787826508147"><ele>772.0</ele><time>2026-05-03T15:45:37.999Z</time></trkpt><trkpt lat="44.03795233498376" lon="5.631680371354017"><ele>773.0</ele><time>2026-05-03T15:45:38.999Z</time></trkpt><trkpt lat="44.03799900925793" lon="5.631577351089723"><ele>773.9999999999999</ele><time>2026-05-03T15:45:39.999Z</time></trkpt><trkpt lat="44.03803224129447" lon="5.63147516127358"><ele>775.0</ele><time>2026-05-03T15:45:40.999Z</time></trkpt><trkpt lat="44.03806731401369" lon="5.631367311375502"><ele>774.9999999999999</ele><time>2026-05-03T15:45:41.999Z</time></trkpt><trkpt lat="44.0381011345294" lon="5.631263312007253"><ele>775.0</ele><time>2026-05-03T15:45:42.999Z</time></trkpt><trkpt lat="44.03811950023679" lon="5.631155340875775"><ele>775.0</ele><time>2026-05-03T15:45:43.999Z</time></trkpt><trkpt lat="44.03815297244112" lon="5.631049638161325"><ele>775.0</ele><time>2026-05-03T15:45:44.999Z</time></trkpt><trkpt lat="44.03820429378774" lon="5.630953142300666"><ele>774.9999999999999</ele><time>2026-05-03T15:45:45.999Z</time></trkpt><trkpt lat="44.038234928883675" lon="5.630855688832902"><ele>775.0</ele><time>2026-05-03T15:45:46.999Z</time></trkpt><trkpt lat="44.03824900870294" lon="5.630745577289107"><ele>775.7142857142857</ele><time>2026-05-03T15:45:47.999Z</time></trkpt><trkpt lat="44.03826955374188" lon="5.630639991378381"><ele>776.4285714285714</ele><time>2026-05-03T15:45:48.999Z</time></trkpt><trkpt lat="44.038278696310144" lon="5.630532741703351"><ele>777.1428571428571</ele><time>2026-05-03T15:45:49.999Z</time></trkpt><trkpt lat="44.038279123279125" lon="5.630427444155493"><ele>777.8571428571429</ele><time>2026-05-03T15:45:50.999Z</time></trkpt><trkpt lat="44.0382803459308" lon="5.6303293546105575"><ele>778.5714285714286</ele><time>2026-05-03T15:45:51.999Z</time></trkpt><trkpt lat="44.03827927535397" lon="5.630239374417929"><ele>779.2857142857142</ele><time>2026-05-03T15:45:52.999Z</time></trkpt><trkpt lat="44.03827079144226" lon="5.6301419403870785"><ele>780.0</ele><time>2026-05-03T15:45:58.999Z</time></trkpt><trkpt lat="44.03829511501318" lon="5.630018580455544"><ele>780.8333333333334</ele><time>2026-05-03T15:46:00.999Z</time></trkpt><trkpt lat="44.03828107255932" lon="5.629923158988889"><ele>781.6666666666667</ele><time>2026-05-03T15:46:01.999Z</time></trkpt><trkpt lat="44.038281400226204" lon="5.629827398285807"><ele>782.5</ele><time>2026-05-03T15:46:02.999Z</time></trkpt><trkpt lat="44.03827893995241" lon="5.629723586524655"><ele>783.3333333333334</ele><time>2026-05-03T15:46:03.999Z</time></trkpt><trkpt lat="44.038278134485715" lon="5.629626201231183"><ele>784.1666666666667</ele><time>2026-05-03T15:46:04.999Z</time></trkpt><trkpt lat="44.03828473269842" lon="5.629448594275638"><ele>785.0</ele><time>2026-05-03T15:46:06.999Z</time></trkpt><trkpt lat="44.03828385606816" lon="5.629284975720195"><ele>785.4</ele><time>2026-05-03T15:46:08.999Z</time></trkpt><trkpt lat="44.038291382136" lon="5.629114184349374"><ele>785.8</ele><time>2026-05-03T15:46:10.999Z</time></trkpt><trkpt lat="44.038292502522886" lon="5.628947488746323"><ele>786.2</ele><time>2026-05-03T15:46:12.999Z</time></trkpt><trkpt lat="44.03829361853544" lon="5.628832555436757"><ele>786.6</ele><time>2026-05-03T15:46:14.999Z</time></trkpt><trkpt lat="44.038314924796225" lon="5.6287496644678425"><ele>787.0</ele><time>2026-05-03T15:46:18.998Z</time></trkpt><trkpt lat="44.03841991050644" lon="5.6287443359338205"><ele>788.6</ele><time>2026-05-03T15:46:20.998Z</time></trkpt><trkpt lat="44.03849305072573" lon="5.628761848609649"><ele>790.2</ele><time>2026-05-03T15:46:22.998Z</time></trkpt><trkpt lat="44.03857683174948" lon="5.628762959158451"><ele>791.8</ele><time>2026-05-03T15:46:24.998Z</time></trkpt><trkpt lat="44.038717537869125" lon="5.628757639806575"><ele>793.4</ele><time>2026-05-03T15:46:31.998Z</time></trkpt><trkpt lat="44.03871857699055" lon="5.628662496333519"><ele>795.0</ele><time>2026-05-03T15:46:39Z</time></trkpt><trkpt lat="44.03881021746952" lon="5.628660943814959"><ele>795.0</ele><time>2026-05-03T15:47:07Z</time></trkpt><trkpt lat="44.03885128362634" lon="5.62877779679929"><ele>795.0</ele><time>2026-05-03T15:47:09Z</time></trkpt><trkpt lat="44.03889528014115" lon="5.628860157048721"><ele>795.0</ele><time>2026-05-03T15:47:11Z</time></trkpt><trkpt lat="44.03896900511664" lon="5.628907524593781"><ele>795.0</ele><time>2026-05-03T15:47:13Z</time></trkpt><trkpt lat="44.039032252724674" lon="5.628950071422364"><ele>795.0</ele><time>2026-05-03T15:47:15Z</time></trkpt><trkpt lat="44.03898921761508" lon="5.62888495324222"><ele>795.0</ele><time>2026-05-03T15:47:21.999Z</time></trkpt><trkpt lat="44.03891838661417" lon="5.628883920139151"><ele>795.0</ele><time>2026-05-03T15:47:23.999Z</time></trkpt><trkpt lat="44.03885828024757" lon="5.62885294621708"><ele>795.0</ele><time>2026-05-03T15:47:25.999Z</time></trkpt><trkpt lat="44.03881381172635" lon="5.62878884647342"><ele>795.0</ele><time>2026-05-03T15:47:27.999Z</time></trkpt><trkpt lat="44.03882934956003" lon="5.628690456065235"><ele>795.0</ele><time>2026-05-03T15:47:30.999Z</time></trkpt><trkpt lat="44.03889703294722" lon="5.628678913632989"><ele>795.0</ele><time>2026-05-03T15:47:44.999Z</time></trkpt><trkpt lat="44.03883819233394" lon="5.628712137326772"><ele>795.0</ele><time>2026-05-03T15:48:38.998Z</time></trkpt><trkpt lat="44.038809975253685" lon="5.628806199379664"><ele>795.0</ele><time>2026-05-03T15:50:30.998Z</time></trkpt><trkpt lat="44.03886136430759" lon="5.6287472175282485"><ele>795.0</ele><time>2026-05-03T16:07:56Z</time></trkpt><trkpt lat="44.0387794257461" lon="5.628675906903884"><ele>795.0</ele><time>2026-05-03T16:09:07.999Z</time></trkpt><trkpt lat="44.0387110916408" lon="5.628807572952118"><ele>795.0</ele><time>2026-05-03T16:09:09.999Z</time></trkpt><trkpt lat="44.038826601401475" lon="5.628775949702992"><ele>795.0</ele><time>2026-05-03T16:09:16.999Z</time></trkpt><trkpt lat="44.03873167705706" lon="5.628719317395603"><ele>795.0</ele><time>2026-05-03T16:11:55Z</time></trkpt><trkpt lat="44.0386486256269" lon="5.628655243156793"><ele>795.8</ele><time>2026-05-03T16:11:57Z</time></trkpt><trkpt lat="44.03857324925442" lon="5.6285533404305585"><ele>796.6</ele><time>2026-05-03T16:11:59Z</time></trkpt><trkpt lat="44.03848425535948" lon="5.628473231422021"><ele>797.4000000000001</ele><time>2026-05-03T16:12:01Z</time></trkpt><trkpt lat="44.03841378352426" lon="5.628391035006651"><ele>798.2</ele><time>2026-05-03T16:12:03Z</time></trkpt><trkpt lat="44.03832751015169" lon="5.628306223142221"><ele>799.0</ele><time>2026-05-03T16:12:05Z</time></trkpt><trkpt lat="44.03821810031203" lon="5.628223537020586"><ele>796.25</ele><time>2026-05-03T16:12:07Z</time></trkpt><trkpt lat="44.03814500915549" lon="5.628087984047543"><ele>793.5</ele><time>2026-05-03T16:12:09Z</time></trkpt><trkpt lat="44.038050463540515" lon="5.627986421351041"><ele>790.75</ele><time>2026-05-03T16:12:11Z</time></trkpt><trkpt lat="44.03797129902426" lon="5.627902239152945"><ele>788.0</ele><time>2026-05-03T16:12:13Z</time></trkpt><trkpt lat="44.03787729672369" lon="5.628088284307322"><ele>788.0000000000001</ele><time>2026-05-03T16:12:15Z</time></trkpt><trkpt lat="44.037851780626625" lon="5.628170869550788"><ele>788.0</ele><time>2026-05-03T16:12:16Z</time></trkpt><trkpt lat="44.0378194540691" lon="5.628307632400383"><ele>788.0</ele><time>2026-05-03T16:12:18Z</time></trkpt><trkpt lat="44.03778117468291" lon="5.6284441351380945"><ele>788.0</ele><time>2026-05-03T16:12:20Z</time></trkpt><trkpt lat="44.037746193607845" lon="5.628560910483429"><ele>788.0000000000001</ele><time>2026-05-03T16:12:22Z</time></trkpt><trkpt lat="44.03771610212282" lon="5.628662453335223"><ele>788.0</ele><time>2026-05-03T16:12:24Z</time></trkpt><trkpt lat="44.03763518511331" lon="5.628693306403037"><ele>787.75</ele><time>2026-05-03T16:12:27Z</time></trkpt><trkpt lat="44.03754151647107" lon="5.62866153186503"><ele>787.5</ele><time>2026-05-03T16:12:29Z</time></trkpt><trkpt lat="44.037433036457344" lon="5.628605924649664"><ele>787.25</ele><time>2026-05-03T16:12:31Z</time></trkpt><trkpt lat="44.037314878378645" lon="5.628565057212666"><ele>787.0</ele><time>2026-05-03T16:12:33Z</time></trkpt><trkpt lat="44.03719033576051" lon="5.6285414804761125"><ele>785.5714285714286</ele><time>2026-05-03T16:12:35Z</time></trkpt><trkpt lat="44.037118911877194" lon="5.62850960919338"><ele>784.1428571428571</ele><time>2026-05-03T16:12:36Z</time></trkpt><trkpt lat="44.03704667580341" lon="5.628498930545235"><ele>782.7142857142858</ele><time>2026-05-03T16:12:37Z</time></trkpt><trkpt lat="44.036975882220524" lon="5.628479067206425"><ele>781.2857142857142</ele><time>2026-05-03T16:12:38Z</time></trkpt><trkpt lat="44.036904465042426" lon="5.6284542108001"><ele>779.8571428571429</ele><time>2026-05-03T16:12:39Z</time></trkpt><trkpt lat="44.03683730984029" lon="5.628434660981658"><ele>778.4285714285714</ele><time>2026-05-03T16:12:40Z</time></trkpt><trkpt lat="44.03676968488525" lon="5.628412056296966"><ele>777.0</ele><time>2026-05-03T16:12:41Z</time></trkpt><trkpt lat="44.036696325822895" lon="5.628371595195869"><ele>775.5</ele><time>2026-05-03T16:12:42Z</time></trkpt><trkpt lat="44.03662976980543" lon="5.628364461450035"><ele>774.0</ele><time>2026-05-03T16:12:43Z</time></trkpt><trkpt lat="44.03656322898092" lon="5.628343312313268"><ele>772.5</ele><time>2026-05-03T16:12:44Z</time></trkpt><trkpt lat="44.03649455362631" lon="5.628322114723251"><ele>771.0</ele><time>2026-05-03T16:12:45Z</time></trkpt><trkpt lat="44.03643169107061" lon="5.62828265979912"><ele>769.5</ele><time>2026-05-03T16:12:46Z</time></trkpt><trkpt lat="44.03636679613247" lon="5.628278237780724"><ele>768.0</ele><time>2026-05-03T16:12:47Z</time></trkpt><trkpt lat="44.03626334148307" lon="5.6282205086455654"><ele>768.0</ele><time>2026-05-03T16:12:49Z</time></trkpt><trkpt lat="44.036192850518795" lon="5.628153263078847"><ele>768.0</ele><time>2026-05-03T16:12:51Z</time></trkpt><trkpt lat="44.036182988558465" lon="5.628047095102487"><ele>768.0</ele><time>2026-05-03T16:12:52Z</time></trkpt><trkpt lat="44.03608693906124" lon="5.6279419094214"><ele>768.0</ele><time>2026-05-03T16:12:54Z</time></trkpt><trkpt lat="44.03603114314629" lon="5.627803037723256"><ele>768.0</ele><time>2026-05-03T16:12:56Z</time></trkpt><trkpt lat="44.03601185000679" lon="5.627719376005334"><ele>768.4285714285713</ele><time>2026-05-03T16:12:57Z</time></trkpt><trkpt lat="44.03598402341346" lon="5.627623460514704"><ele>768.8571428571429</ele><time>2026-05-03T16:12:58Z</time></trkpt><trkpt lat="44.03594963838086" lon="5.627534039201585"><ele>769.2857142857142</ele><time>2026-05-03T16:12:58.999Z</time></trkpt><trkpt lat="44.03591368017536" lon="5.627446339995359"><ele>769.7142857142857</ele><time>2026-05-03T16:12:59.999Z</time></trkpt><trkpt lat="44.03587680144717" lon="5.627353384116906"><ele>770.1428571428571</ele><time>2026-05-03T16:13:00.999Z</time></trkpt><trkpt lat="44.035837296629495" lon="5.6272771673718225"><ele>770.5714285714286</ele><time>2026-05-03T16:13:01.999Z</time></trkpt><trkpt lat="44.035818757254276" lon="5.627188419742529"><ele>771.0</ele><time>2026-05-03T16:13:02.999Z</time></trkpt><trkpt lat="44.03580889006521" lon="5.627004201755604"><ele>771.4285714285714</ele><time>2026-05-03T16:13:04.999Z</time></trkpt><trkpt lat="44.03583045186917" lon="5.626910934945257"><ele>771.8571428571428</ele><time>2026-05-03T16:13:05.999Z</time></trkpt><trkpt lat="44.035866614129795" lon="5.6268241555876655"><ele>772.2857142857142</ele><time>2026-05-03T16:13:06.999Z</time></trkpt><trkpt lat="44.03591095949788" lon="5.626743198797814"><ele>772.7142857142858</ele><time>2026-05-03T16:13:07.999Z</time></trkpt><trkpt lat="44.03595845119038" lon="5.62666908339937"><ele>773.1428571428571</ele><time>2026-05-03T16:13:08.999Z</time></trkpt><trkpt lat="44.036011153590216" lon="5.626589779595316"><ele>773.5714285714286</ele><time>2026-05-03T16:13:09.999Z</time></trkpt><trkpt lat="44.0360603206485" lon="5.626501090013389"><ele>774.0</ele><time>2026-05-03T16:13:10.999Z</time></trkpt><trkpt lat="44.036108987662814" lon="5.626418184087186"><ele>774.0</ele><time>2026-05-03T16:13:11.999Z</time></trkpt><trkpt lat="44.036154657001724" lon="5.626323869104417"><ele>774.0</ele><time>2026-05-03T16:13:12.999Z</time></trkpt><trkpt lat="44.03620191910161" lon="5.6262301663328245"><ele>774.0</ele><time>2026-05-03T16:13:13.999Z</time></trkpt><trkpt lat="44.03625392807776" lon="5.626137754876928"><ele>774.0</ele><time>2026-05-03T16:13:14.999Z</time></trkpt><trkpt lat="44.03630213561071" lon="5.626035016359359"><ele>774.0</ele><time>2026-05-03T16:13:15.999Z</time></trkpt><trkpt lat="44.03634976758602" lon="5.625946919696008"><ele>774.0</ele><time>2026-05-03T16:13:16.999Z</time></trkpt><trkpt lat="44.036386536339926" lon="5.625855573807234"><ele>776.2</ele><time>2026-05-03T16:13:17.999Z</time></trkpt><trkpt lat="44.036419702190585" lon="5.625777414284835"><ele>778.4000000000001</ele><time>2026-05-03T16:13:18.999Z</time></trkpt><trkpt lat="44.036483774145104" lon="5.625652519056972"><ele>780.6</ele><time>2026-05-03T16:13:20.999Z</time></trkpt><trkpt lat="44.03653219791405" lon="5.625557716463798"><ele>782.8</ele><time>2026-05-03T16:13:22.999Z</time></trkpt><trkpt lat="44.03646459660663" lon="5.625400970286676"><ele>785.0</ele><time>2026-05-03T16:13:26.999Z</time></trkpt><trkpt lat="44.036375710399994" lon="5.625441286374338"><ele>785.0</ele><time>2026-05-03T16:13:28.999Z</time></trkpt><trkpt lat="44.036274492395435" lon="5.625487183689524"><ele>785.0</ele><time>2026-05-03T16:13:30.999Z</time></trkpt><trkpt lat="44.03616575041144" lon="5.625578707575713"><ele>785.0</ele><time>2026-05-03T16:13:32.999Z</time></trkpt><trkpt lat="44.036088821296175" lon="5.62562659642415"><ele>785.0</ele><time>2026-05-03T16:13:33.999Z</time></trkpt><trkpt lat="44.03601561198007" lon="5.625657766869358"><ele>785.0</ele><time>2026-05-03T16:13:34.999Z</time></trkpt><trkpt lat="44.03595116456796" lon="5.625699223120429"><ele>785.0000000000001</ele><time>2026-05-03T16:13:35.999Z</time></trkpt><trkpt lat="44.03587831917022" lon="5.625743449488875"><ele>785.0</ele><time>2026-05-03T16:13:36.999Z</time></trkpt><trkpt lat="44.03581005081934" lon="5.625777989550718"><ele>785.0</ele><time>2026-05-03T16:13:37.999Z</time></trkpt><trkpt lat="44.03574051590567" lon="5.62580972561259"><ele>785.0</ele><time>2026-05-03T16:13:38.999Z</time></trkpt><trkpt lat="44.03566942358478" lon="5.625843076092793"><ele>785.0000000000001</ele><time>2026-05-03T16:13:39.999Z</time></trkpt><trkpt lat="44.03560163992473" lon="5.625874874376028"><ele>785.0</ele><time>2026-05-03T16:13:40.999Z</time></trkpt><trkpt lat="44.035530383392356" lon="5.625934422166652"><ele>782.8</ele><time>2026-05-03T16:13:41.999Z</time></trkpt><trkpt lat="44.0354452230594" lon="5.625965129946403"><ele>780.6</ele><time>2026-05-03T16:13:42.999Z</time></trkpt><trkpt lat="44.03539334349755" lon="5.626036451151206"><ele>778.4000000000001</ele><time>2026-05-03T16:13:43.999Z</time></trkpt><trkpt lat="44.03533295095419" lon="5.626079378750855"><ele>776.2</ele><time>2026-05-03T16:13:44.999Z</time></trkpt><trkpt lat="44.035229441927775" lon="5.626141697391066"><ele>774.0</ele><time>2026-05-03T16:13:46.999Z</time></trkpt><trkpt lat="44.03510612838604" lon="5.626178066027501"><ele>774.0</ele><time>2026-05-03T16:13:48.999Z</time></trkpt><trkpt lat="44.03503729664927" lon="5.626187008909256"><ele>774.0</ele><time>2026-05-03T16:13:49.999Z</time></trkpt><trkpt lat="44.03497707021772" lon="5.6262170612719276"><ele>774.0</ele><time>2026-05-03T16:13:50.999Z</time></trkpt><trkpt lat="44.03490876471219" lon="5.626236424568864"><ele>774.0</ele><time>2026-05-03T16:13:52.001Z</time></trkpt><trkpt lat="44.034837846032566" lon="5.626239870128549"><ele>774.0</ele><time>2026-05-03T16:13:53.001Z</time></trkpt><trkpt lat="44.034763045273976" lon="5.626239428291157"><ele>774.0</ele><time>2026-05-03T16:13:54Z</time></trkpt><trkpt lat="44.03468395084452" lon="5.626237278234989"><ele>774.0</ele><time>2026-05-03T16:13:55.001Z</time></trkpt><trkpt lat="44.034601362805326" lon="5.626236131640758"><ele>774.1666666666666</ele><time>2026-05-03T16:13:56.001Z</time></trkpt><trkpt lat="44.03451906973031" lon="5.62623361635895"><ele>774.3333333333333</ele><time>2026-05-03T16:13:57Z</time></trkpt><trkpt lat="44.034444869062675" lon="5.626200647809571"><ele>774.5</ele><time>2026-05-03T16:13:58Z</time></trkpt><trkpt lat="44.034370137679375" lon="5.626186840539332"><ele>774.6666666666666</ele><time>2026-05-03T16:13:59Z</time></trkpt><trkpt lat="44.03430065754837" lon="5.626194298211236"><ele>774.8333333333333</ele><time>2026-05-03T16:14:00Z</time></trkpt><trkpt lat="44.034235285036594" lon="5.626152464474553"><ele>775.0</ele><time>2026-05-03T16:14:01Z</time></trkpt><trkpt lat="44.03416432268568" lon="5.626128279480176"><ele>780.1666666666666</ele><time>2026-05-03T16:14:02Z</time></trkpt><trkpt lat="44.034091376602824" lon="5.626098837936222"><ele>785.3333333333333</ele><time>2026-05-03T16:14:03Z</time></trkpt><trkpt lat="44.03401993177949" lon="5.626083572328476"><ele>790.5</ele><time>2026-05-03T16:14:04Z</time></trkpt><trkpt lat="44.03394421055951" lon="5.626044330999668"><ele>795.6666666666667</ele><time>2026-05-03T16:14:05Z</time></trkpt><trkpt lat="44.033864955130824" lon="5.626003417559924"><ele>800.8333333333334</ele><time>2026-05-03T16:14:06Z</time></trkpt><trkpt lat="44.033783760043654" lon="5.625965991283278"><ele>806.0</ele><time>2026-05-03T16:14:07Z</time></trkpt><trkpt lat="44.03371141108439" lon="5.625909969143324"><ele>806.0000000000001</ele><time>2026-05-03T16:14:08Z</time></trkpt><trkpt lat="44.033632798640134" lon="5.625869798006464"><ele>806.0</ele><time>2026-05-03T16:14:09Z</time></trkpt><trkpt lat="44.03355509071469" lon="5.625830089087394"><ele>806.0</ele><time>2026-05-03T16:14:10Z</time></trkpt><trkpt lat="44.033475182143086" lon="5.625789255511243"><ele>806.0</ele><time>2026-05-03T16:14:11Z</time></trkpt><trkpt lat="44.033404349415214" lon="5.625749331361975"><ele>806.0000000000001</ele><time>2026-05-03T16:14:12Z</time></trkpt><trkpt lat="44.03332909207048" lon="5.62570635149546"><ele>806.0</ele><time>2026-05-03T16:14:13Z</time></trkpt><trkpt lat="44.03325810552519" lon="5.6256630501839755"><ele>804.3333333333334</ele><time>2026-05-03T16:14:14Z</time></trkpt><trkpt lat="44.033190217021144" lon="5.625621283464871"><ele>802.6666666666667</ele><time>2026-05-03T16:14:15Z</time></trkpt><trkpt lat="44.03310508102402" lon="5.625591391707375"><ele>801.0</ele><time>2026-05-03T16:14:16Z</time></trkpt><trkpt lat="44.0330308875466" lon="5.625533740952512"><ele>799.3333333333333</ele><time>2026-05-03T16:14:17Z</time></trkpt><trkpt lat="44.03294683358724" lon="5.625487115608848"><ele>797.6666666666666</ele><time>2026-05-03T16:14:18Z</time></trkpt><trkpt lat="44.03286697179918" lon="5.6254374230683615"><ele>796.0</ele><time>2026-05-03T16:14:19Z</time></trkpt><trkpt lat="44.0327945841988" lon="5.625363381701702"><ele>801.0</ele><time>2026-05-03T16:14:20Z</time></trkpt><trkpt lat="44.032705218717844" lon="5.6252988926903935"><ele>806.0</ele><time>2026-05-03T16:14:21Z</time></trkpt><trkpt lat="44.032611667918566" lon="5.625230670106683"><ele>811.0</ele><time>2026-05-03T16:14:22Z</time></trkpt><trkpt lat="44.03251435943363" lon="5.625159707306033"><ele>816.0</ele><time>2026-05-03T16:14:23Z</time></trkpt><trkpt lat="44.03241461275456" lon="5.625086624163165"><ele>821.0</ele><time>2026-05-03T16:14:24Z</time></trkpt><trkpt lat="44.03231416532242" lon="5.625012154392551"><ele>821.0</ele><time>2026-05-03T16:14:25Z</time></trkpt><trkpt lat="44.03222205162402" lon="5.6249407975981995"><ele>821.0</ele><time>2026-05-03T16:14:26Z</time></trkpt><trkpt lat="44.03212953777327" lon="5.624895395376022"><ele>821.0</ele><time>2026-05-03T16:14:27Z</time></trkpt><trkpt lat="44.0320516549323" lon="5.624818504134954"><ele>821.0</ele><time>2026-05-03T16:14:28Z</time></trkpt><trkpt lat="44.031983719625146" lon="5.624735302431778"><ele>821.0</ele><time>2026-05-03T16:14:29Z</time></trkpt><trkpt lat="44.03194322452408" lon="5.624651875476773"><ele>821.0</ele><time>2026-05-03T16:14:30Z</time></trkpt><trkpt lat="44.031902069468096" lon="5.624492207485601"><ele>821.0</ele><time>2026-05-03T16:14:32Z</time></trkpt><trkpt lat="44.031938432407784" lon="5.624351924023728"><ele>821.0</ele><time>2026-05-03T16:14:34Z</time></trkpt><trkpt lat="44.03195772214809" lon="5.6242676660411055"><ele>821.0</ele><time>2026-05-03T16:14:35Z</time></trkpt><trkpt lat="44.031985887258536" lon="5.624177434023829"><ele>821.0</ele><time>2026-05-03T16:14:36Z</time></trkpt><trkpt lat="44.03202356948099" lon="5.624069592006083"><ele>823.25</ele><time>2026-05-03T16:14:37Z</time></trkpt><trkpt lat="44.03208653875171" lon="5.623938690260959"><ele>825.5</ele><time>2026-05-03T16:14:38Z</time></trkpt><trkpt lat="44.03218063993968" lon="5.6237898370013735"><ele>827.75</ele><time>2026-05-03T16:14:39Z</time></trkpt><trkpt lat="44.03224771396168" lon="5.623618749867782"><ele>830.0</ele><time>2026-05-03T16:14:40Z</time></trkpt><trkpt lat="44.03230577520229" lon="5.623447259558855"><ele>830.0</ele><time>2026-05-03T16:14:41Z</time></trkpt><trkpt lat="44.032346481065176" lon="5.623272118773198"><ele>830.0</ele><time>2026-05-03T16:14:42Z</time></trkpt><trkpt lat="44.0323954066372" lon="5.623085121433471"><ele>830.0</ele><time>2026-05-03T16:14:43Z</time></trkpt><trkpt lat="44.03244299601984" lon="5.622912965595022"><ele>830.0</ele><time>2026-05-03T16:14:44Z</time></trkpt><trkpt lat="44.03247831416011" lon="5.622758403394299"><ele>833.6</ele><time>2026-05-03T16:14:45Z</time></trkpt><trkpt lat="44.032498512470404" lon="5.622592766055364"><ele>837.2</ele><time>2026-05-03T16:14:46Z</time></trkpt><trkpt lat="44.03251068166695" lon="5.622437430837167"><ele>840.8</ele><time>2026-05-03T16:14:47Z</time></trkpt><trkpt lat="44.03251973854469" lon="5.62228325788564"><ele>844.4</ele><time>2026-05-03T16:14:48Z</time></trkpt><trkpt lat="44.03256166791219" lon="5.622152707986135"><ele>848.0</ele><time>2026-05-03T16:14:49Z</time></trkpt><trkpt lat="44.03259081899997" lon="5.622024189577841"><ele>848.4</ele><time>2026-05-03T16:14:50Z</time></trkpt><trkpt lat="44.032624640919224" lon="5.621899323974328"><ele>848.8</ele><time>2026-05-03T16:14:51Z</time></trkpt><trkpt lat="44.03265970426857" lon="5.621760453077579"><ele>849.2</ele><time>2026-05-03T16:14:52Z</time></trkpt><trkpt lat="44.03271087789672" lon="5.621613608413427"><ele>849.6</ele><time>2026-05-03T16:14:53Z</time></trkpt><trkpt lat="44.03276031443188" lon="5.62145067404984"><ele>850.0</ele><time>2026-05-03T16:14:54Z</time></trkpt><trkpt lat="44.03280732049224" lon="5.621282493544456"><ele>849.25</ele><time>2026-05-03T16:14:55Z</time></trkpt><trkpt lat="44.03284956135957" lon="5.62112767812598"><ele>848.5</ele><time>2026-05-03T16:14:56Z</time></trkpt><trkpt lat="44.03289499062027" lon="5.620978560017066"><ele>847.75</ele><time>2026-05-03T16:14:57Z</time></trkpt><trkpt lat="44.03294395546332" lon="5.620825805604948"><ele>847.0</ele><time>2026-05-03T16:14:58Z</time></trkpt><trkpt lat="44.03299616584798" lon="5.620675671952309"><ele>847.0</ele><time>2026-05-03T16:14:59Z</time></trkpt><trkpt lat="44.03305286522667" lon="5.6205224509060665"><ele>847.0</ele><time>2026-05-03T16:15:00Z</time></trkpt><trkpt lat="44.03311113926157" lon="5.620364747879115"><ele>847.0</ele><time>2026-05-03T16:15:00.999Z</time></trkpt><trkpt lat="44.03316839542695" lon="5.620207613270405"><ele>847.0</ele><time>2026-05-03T16:15:01.999Z</time></trkpt><trkpt lat="44.033225151907025" lon="5.620049298341688"><ele>845.5</ele><time>2026-05-03T16:15:02.999Z</time></trkpt><trkpt lat="44.033284786976616" lon="5.619890274907111"><ele>844.0</ele><time>2026-05-03T16:15:03.999Z</time></trkpt><trkpt lat="44.03334630323553" lon="5.61972242419819"><ele>842.5</ele><time>2026-05-03T16:15:04.999Z</time></trkpt><trkpt lat="44.03340091863052" lon="5.619578162101918"><ele>841.0</ele><time>2026-05-03T16:15:05.999Z</time></trkpt><trkpt lat="44.03344794196398" lon="5.6194491451959285"><ele>841.0</ele><time>2026-05-03T16:15:06.999Z</time></trkpt><trkpt lat="44.033501433726855" lon="5.619312523503844"><ele>841.0</ele><time>2026-05-03T16:15:07.999Z</time></trkpt><trkpt lat="44.033554442713" lon="5.619159584591523"><ele>841.0</ele><time>2026-05-03T16:15:08.999Z</time></trkpt><trkpt lat="44.03360659510078" lon="5.619014474204086"><ele>841.0</ele><time>2026-05-03T16:15:09.999Z</time></trkpt><trkpt lat="44.033659177477595" lon="5.618863137930879"><ele>841.0</ele><time>2026-05-03T16:15:10.999Z</time></trkpt><trkpt lat="44.03372113667604" lon="5.618741149131372"><ele>841.0</ele><time>2026-05-03T16:15:11.999Z</time></trkpt><trkpt lat="44.03375483987085" lon="5.61860918051658"><ele>841.0</ele><time>2026-05-03T16:15:12.999Z</time></trkpt><trkpt lat="44.033829548655156" lon="5.61848306819668"><ele>841.0</ele><time>2026-05-03T16:15:13.999Z</time></trkpt><trkpt lat="44.03387743875047" lon="5.618331380204523"><ele>841.0</ele><time>2026-05-03T16:15:14.999Z</time></trkpt><trkpt lat="44.03393285951963" lon="5.6182015460758095"><ele>838.5999999999999</ele><time>2026-05-03T16:15:15.999Z</time></trkpt><trkpt lat="44.033980712694394" lon="5.618080056822747"><ele>836.2</ele><time>2026-05-03T16:15:16.999Z</time></trkpt><trkpt lat="44.03402421568077" lon="5.617954315332702"><ele>833.8</ele><time>2026-05-03T16:15:17.999Z</time></trkpt><trkpt lat="44.03403169380696" lon="5.617820937782615"><ele>831.4000000000001</ele><time>2026-05-03T16:15:18.999Z</time></trkpt><trkpt lat="44.03403467298873" lon="5.617694956555285"><ele>829.0</ele><time>2026-05-03T16:15:19.999Z</time></trkpt><trkpt lat="44.03403808912663" lon="5.61757825042297"><ele>828.3333333333333</ele><time>2026-05-03T16:15:20.999Z</time></trkpt><trkpt lat="44.03404393349404" lon="5.617489469470142"><ele>827.6666666666666</ele><time>2026-05-03T16:15:21.999Z</time></trkpt><trkpt lat="44.03407206406235" lon="5.617400803210979"><ele>827.0</ele><time>2026-05-03T16:15:22.999Z</time></trkpt><trkpt lat="44.03408372358642" lon="5.617311462544218"><ele>826.3333333333333</ele><time>2026-05-03T16:15:23.999Z</time></trkpt><trkpt lat="44.034055227037086" lon="5.617195108557263"><ele>825.6666666666666</ele><time>2026-05-03T16:15:25.999Z</time></trkpt><trkpt lat="44.03399606253891" lon="5.617097013925653"><ele>825.0</ele><time>2026-05-03T16:15:27.999Z</time></trkpt><trkpt lat="44.03382985408312" lon="5.617059170032087"><ele>825.0</ele><time>2026-05-03T16:16:33Z</time></trkpt><trkpt lat="44.03376952718939" lon="5.617015234671785"><ele>825.0</ele><time>2026-05-03T16:16:34Z</time></trkpt><trkpt lat="44.03368286893428" lon="5.616870267974072"><ele>825.0</ele><time>2026-05-03T16:16:36Z</time></trkpt><trkpt lat="44.03363518165387" lon="5.616802776530395"><ele>825.0</ele><time>2026-05-03T16:16:37Z</time></trkpt><trkpt lat="44.03356076042908" lon="5.616665804552388"><ele>825.0</ele><time>2026-05-03T16:16:39Z</time></trkpt><trkpt lat="44.0335246316263" lon="5.616583839889165"><ele>826.0</ele><time>2026-05-03T16:16:40Z</time></trkpt><trkpt lat="44.03348443937353" lon="5.616486764748329"><ele>827.0</ele><time>2026-05-03T16:16:41Z</time></trkpt><trkpt lat="44.03343435816004" lon="5.6163935955831645"><ele>828.0</ele><time>2026-05-03T16:16:42Z</time></trkpt><trkpt lat="44.0334015332452" lon="5.61623890340962"><ele>829.0</ele><time>2026-05-03T16:16:44Z</time></trkpt><trkpt lat="44.03337410486523" lon="5.61614229155897"><ele>830.0</ele><time>2026-05-03T16:16:45Z</time></trkpt><trkpt lat="44.03334428766802" lon="5.616011237264026"><ele>830.0000000000001</ele><time>2026-05-03T16:16:46Z</time></trkpt><trkpt lat="44.03332785260102" lon="5.615891608451689"><ele>830.0</ele><time>2026-05-03T16:16:47Z</time></trkpt><trkpt lat="44.03331481221398" lon="5.615771822151857"><ele>830.0</ele><time>2026-05-03T16:16:48Z</time></trkpt><trkpt lat="44.03332615120845" lon="5.615655078535772"><ele>830.0</ele><time>2026-05-03T16:16:49Z</time></trkpt><trkpt lat="44.03334973505064" lon="5.615546705141721"><ele>830.0000000000001</ele><time>2026-05-03T16:16:50Z</time></trkpt><trkpt lat="44.033385589794314" lon="5.615436025420487"><ele>830.0</ele><time>2026-05-03T16:16:51Z</time></trkpt><trkpt lat="44.03343264919432" lon="5.615322004721907"><ele>828.2</ele><time>2026-05-03T16:16:52Z</time></trkpt><trkpt lat="44.033496747276224" lon="5.615215108912583"><ele>826.4</ele><time>2026-05-03T16:16:53Z</time></trkpt><trkpt lat="44.03357723825482" lon="5.615128528323774"><ele>824.5999999999999</ele><time>2026-05-03T16:16:54Z</time></trkpt><trkpt lat="44.03366721403196" lon="5.6150253683297935"><ele>822.8</ele><time>2026-05-03T16:16:55Z</time></trkpt><trkpt lat="44.03377071002935" lon="5.6149219883278345"><ele>821.0</ele><time>2026-05-03T16:16:56Z</time></trkpt><trkpt lat="44.033886712565995" lon="5.614812052321156"><ele>821.0</ele><time>2026-05-03T16:16:57Z</time></trkpt><trkpt lat="44.034002406479445" lon="5.614699050414254"><ele>821.0</ele><time>2026-05-03T16:16:58Z</time></trkpt><trkpt lat="44.03411782143775" lon="5.614608145943389"><ele>821.0</ele><time>2026-05-03T16:16:59Z</time></trkpt><trkpt lat="44.034208472818584" lon="5.61451843760985"><ele>821.0</ele><time>2026-05-03T16:17:00Z</time></trkpt><trkpt lat="44.034284489461335" lon="5.614460422546432"><ele>821.8333333333334</ele><time>2026-05-03T16:17:01Z</time></trkpt><trkpt lat="44.03433641560041" lon="5.61440608889283"><ele>822.6666666666667</ele><time>2026-05-03T16:17:02Z</time></trkpt><trkpt lat="44.03439927229493" lon="5.614324580317295"><ele>823.5</ele><time>2026-05-03T16:17:03.999Z</time></trkpt><trkpt lat="44.03440917285394" lon="5.614216389044929"><ele>824.3333333333333</ele><time>2026-05-03T16:17:04.999Z</time></trkpt><trkpt lat="44.03434111958333" lon="5.614120519745154"><ele>825.1666666666666</ele><time>2026-05-03T16:17:05.999Z</time></trkpt><trkpt lat="44.03428439066879" lon="5.614043028308829"><ele>826.0</ele><time>2026-05-03T16:17:07.999Z</time></trkpt><trkpt lat="44.03423789546728" lon="5.613979515465562"><ele>823.1999999999999</ele><time>2026-05-03T16:17:10.999Z</time></trkpt><trkpt lat="44.034103936355216" lon="5.61398788336363"><ele>820.4</ele><time>2026-05-03T16:17:12.999Z</time></trkpt><trkpt lat="44.0339969717986" lon="5.613915892521188"><ele>817.6</ele><time>2026-05-03T16:17:14.999Z</time></trkpt><trkpt lat="44.033935679076045" lon="5.613870054400056"><ele>814.8</ele><time>2026-05-03T16:17:15.999Z</time></trkpt><trkpt lat="44.03387174400415" lon="5.613824934208312"><ele>812.0</ele><time>2026-05-03T16:17:16.999Z</time></trkpt><trkpt lat="44.033802763250726" lon="5.613779472065087"><ele>812.0000000000001</ele><time>2026-05-03T16:17:17.999Z</time></trkpt><trkpt lat="44.03373041349447" lon="5.613733588719956"><ele>812.0</ele><time>2026-05-03T16:17:18.999Z</time></trkpt><trkpt lat="44.03366026559419" lon="5.613689101649115"><ele>812.0</ele><time>2026-05-03T16:17:19.999Z</time></trkpt><trkpt lat="44.03357971143814" lon="5.613664294579357"><ele>812.0</ele><time>2026-05-03T16:17:20.999Z</time></trkpt><trkpt lat="44.03350372474834" lon="5.613622284041806"><ele>812.0000000000001</ele><time>2026-05-03T16:17:21.999Z</time></trkpt><trkpt lat="44.03343518565635" lon="5.6135618439851"><ele>812.0</ele><time>2026-05-03T16:17:22.999Z</time></trkpt><trkpt lat="44.03335460338959" lon="5.613545642604822"><ele>811.4285714285714</ele><time>2026-05-03T16:17:23.999Z</time></trkpt><trkpt lat="44.03327983871053" lon="5.613505903152598"><ele>810.8571428571429</ele><time>2026-05-03T16:17:24.999Z</time></trkpt><trkpt lat="44.03320867720322" lon="5.613479815592285"><ele>810.2857142857142</ele><time>2026-05-03T16:17:25.999Z</time></trkpt><trkpt lat="44.033139748818684" lon="5.6134541447310395"><ele>809.7142857142858</ele><time>2026-05-03T16:17:26.999Z</time></trkpt><trkpt lat="44.0330781641141" lon="5.613424376583181"><ele>809.1428571428571</ele><time>2026-05-03T16:17:27.999Z</time></trkpt><trkpt lat="44.03301863720721" lon="5.6133717452072815"><ele>808.5714285714286</ele><time>2026-05-03T16:17:28.999Z</time></trkpt><trkpt lat="44.0329487005238" lon="5.613357215382206"><ele>808.0</ele><time>2026-05-03T16:17:29.999Z</time></trkpt><trkpt lat="44.03288961678728" lon="5.613298206166638"><ele>807.9999999999999</ele><time>2026-05-03T16:17:30.999Z</time></trkpt><trkpt lat="44.03281813208147" lon="5.613259405273714"><ele>808.0</ele><time>2026-05-03T16:17:31.999Z</time></trkpt><trkpt lat="44.03274252397081" lon="5.613254156779735"><ele>808.0</ele><time>2026-05-03T16:17:32.999Z</time></trkpt><trkpt lat="44.032678124447514" lon="5.613209514651344"><ele>808.0</ele><time>2026-05-03T16:17:33.999Z</time></trkpt><trkpt lat="44.03261562393377" lon="5.613152022827961"><ele>807.9999999999999</ele><time>2026-05-03T16:17:34.999Z</time></trkpt><trkpt lat="44.032551223554755" lon="5.613092823477819"><ele>808.0</ele><time>2026-05-03T16:17:35.999Z</time></trkpt><trkpt lat="44.03249107118798" lon="5.613027226266903"><ele>806.9999999999999</ele><time>2026-05-03T16:17:36.999Z</time></trkpt><trkpt lat="44.03242480937754" lon="5.612960750964803"><ele>806.0</ele><time>2026-05-03T16:17:37.999Z</time></trkpt><trkpt lat="44.03235520062385" lon="5.612894282841525"><ele>805.0</ele><time>2026-05-03T16:17:38.999Z</time></trkpt><trkpt lat="44.03228316770043" lon="5.612827608667422"><ele>804.0</ele><time>2026-05-03T16:17:39.999Z</time></trkpt><trkpt lat="44.03221795290976" lon="5.612764276871824"><ele>802.9999999999999</ele><time>2026-05-03T16:17:40.999Z</time></trkpt><trkpt lat="44.03215310617956" lon="5.612697875853482"><ele>802.0</ele><time>2026-05-03T16:17:41.999Z</time></trkpt><trkpt lat="44.03208003255486" lon="5.61263092575114"><ele>801.9999999999999</ele><time>2026-05-03T16:17:42.999Z</time></trkpt><trkpt lat="44.03201624972551" lon="5.612541724139283"><ele>802.0</ele><time>2026-05-03T16:17:43.999Z</time></trkpt><trkpt lat="44.03193495928358" lon="5.612503346116245"><ele>802.0</ele><time>2026-05-03T16:17:44.999Z</time></trkpt><trkpt lat="44.03185783590978" lon="5.612463515804545"><ele>802.0</ele><time>2026-05-03T16:17:45.999Z</time></trkpt><trkpt lat="44.03177046126268" lon="5.612457350796185"><ele>801.9999999999999</ele><time>2026-05-03T16:17:46.999Z</time></trkpt><trkpt lat="44.031678994751125" lon="5.61247154554635"><ele>802.0</ele><time>2026-05-03T16:17:47.999Z</time></trkpt><trkpt lat="44.03159685446616" lon="5.61250292231237"><ele>801.0</ele><time>2026-05-03T16:17:48.999Z</time></trkpt><trkpt lat="44.031517629776125" lon="5.612542711255327"><ele>800.0</ele><time>2026-05-03T16:17:49.999Z</time></trkpt><trkpt lat="44.031435977117155" lon="5.61259257979451"><ele>799.0</ele><time>2026-05-03T16:17:50.999Z</time></trkpt><trkpt lat="44.03134156740045" lon="5.612617583439193"><ele>798.0</ele><time>2026-05-03T16:17:51.999Z</time></trkpt><trkpt lat="44.03125849266339" lon="5.612666349073711"><ele>797.0</ele><time>2026-05-03T16:17:52.999Z</time></trkpt><trkpt lat="44.03116869896378" lon="5.612680016291892"><ele>797.0</ele><time>2026-05-03T16:17:53.999Z</time></trkpt><trkpt lat="44.031073406012055" lon="5.612684204443528"><ele>797.0</ele><time>2026-05-03T16:17:54.999Z</time></trkpt><trkpt lat="44.03097711501273" lon="5.6126842494753975"><ele>797.0</ele><time>2026-05-03T16:17:55.999Z</time></trkpt><trkpt lat="44.03088397640518" lon="5.6126792913684245"><ele>797.0</ele><time>2026-05-03T16:17:56.999Z</time></trkpt><trkpt lat="44.03079357563464" lon="5.612666757643297"><ele>797.0</ele><time>2026-05-03T16:17:57.999Z</time></trkpt><trkpt lat="44.03069871423286" lon="5.612644675892757"><ele>795.0000000000001</ele><time>2026-05-03T16:17:58.999Z</time></trkpt><trkpt lat="44.030608666305625" lon="5.612613124638272"><ele>793.0</ele><time>2026-05-03T16:17:59.999Z</time></trkpt><trkpt lat="44.030519465558264" lon="5.61256788105666"><ele>791.0</ele><time>2026-05-03T16:18:00.999Z</time></trkpt><trkpt lat="44.03044186443941" lon="5.612520911989294"><ele>789.0</ele><time>2026-05-03T16:18:01.999Z</time></trkpt><trkpt lat="44.030356344036505" lon="5.612467751729218"><ele>787.0000000000001</ele><time>2026-05-03T16:18:02.999Z</time></trkpt><trkpt lat="44.03028200662964" lon="5.612421542931559"><ele>785.0</ele><time>2026-05-03T16:18:04Z</time></trkpt><trkpt lat="44.03021993393232" lon="5.612402087475455"><ele>785.0</ele><time>2026-05-03T16:18:05Z</time></trkpt><trkpt lat="44.030122777309394" lon="5.612336982324611"><ele>785.0</ele><time>2026-05-03T16:18:07Z</time></trkpt><trkpt lat="44.03005457074937" lon="5.61229888713944"><ele>785.0</ele><time>2026-05-03T16:18:09Z</time></trkpt><trkpt lat="44.02996494373257" lon="5.612222469054783"><ele>785.0</ele><time>2026-05-03T16:18:11Z</time></trkpt><trkpt lat="44.029838054876215" lon="5.612169373642239"><ele>785.0</ele><time>2026-05-03T16:18:13Z</time></trkpt><trkpt lat="44.02975960852365" lon="5.61216612176797"><ele>782.8333333333334</ele><time>2026-05-03T16:18:14Z</time></trkpt><trkpt lat="44.02968520181963" lon="5.612147014309329"><ele>780.6666666666667</ele><time>2026-05-03T16:18:15Z</time></trkpt><trkpt lat="44.02961162872284" lon="5.612123170441833"><ele>778.5</ele><time>2026-05-03T16:18:16Z</time></trkpt><trkpt lat="44.029530061415414" lon="5.6121001159117325"><ele>776.3333333333333</ele><time>2026-05-03T16:18:17Z</time></trkpt><trkpt lat="44.02943857471117" lon="5.612075815675877"><ele>774.1666666666666</ele><time>2026-05-03T16:18:18Z</time></trkpt><trkpt lat="44.02935892029365" lon="5.612030365401051"><ele>772.0</ele><time>2026-05-03T16:18:19Z</time></trkpt><trkpt lat="44.0292787362857" lon="5.612028880280226"><ele>771.9999999999999</ele><time>2026-05-03T16:18:20Z</time></trkpt><trkpt lat="44.02919929068619" lon="5.61200737666675"><ele>772.0</ele><time>2026-05-03T16:18:21Z</time></trkpt><trkpt lat="44.02911035828071" lon="5.611982288709783"><ele>772.0</ele><time>2026-05-03T16:18:22Z</time></trkpt><trkpt lat="44.029019308660125" lon="5.611958939826988"><ele>772.0</ele><time>2026-05-03T16:18:23Z</time></trkpt><trkpt lat="44.02892887484162" lon="5.611939579941633"><ele>771.9999999999999</ele><time>2026-05-03T16:18:24Z</time></trkpt><trkpt lat="44.02884184663757" lon="5.611913208385372"><ele>772.0</ele><time>2026-05-03T16:18:25Z</time></trkpt><trkpt lat="44.028758610199795" lon="5.611885234267079"><ele>771.6666666666666</ele><time>2026-05-03T16:18:26Z</time></trkpt><trkpt lat="44.028682236768454" lon="5.611842876576546"><ele>771.3333333333333</ele><time>2026-05-03T16:18:27Z</time></trkpt><trkpt lat="44.02861304552528" lon="5.611808670688469"><ele>771.0</ele><time>2026-05-03T16:18:28Z</time></trkpt><trkpt lat="44.02854490297588" lon="5.611771579101048"><ele>770.6666666666667</ele><time>2026-05-03T16:18:29Z</time></trkpt><trkpt lat="44.02846254516394" lon="5.611721312487055"><ele>770.3333333333334</ele><time>2026-05-03T16:18:30Z</time></trkpt><trkpt lat="44.028361921793454" lon="5.611675416574452"><ele>770.0</ele><time>2026-05-03T16:18:31Z</time></trkpt><trkpt lat="44.02826674207892" lon="5.611607876789906"><ele>767.6666666666667</ele><time>2026-05-03T16:18:32Z</time></trkpt><trkpt lat="44.028185312069354" lon="5.611558786468421"><ele>765.3333333333334</ele><time>2026-05-03T16:18:33Z</time></trkpt><trkpt lat="44.02811352641768" lon="5.611513731301462"><ele>763.0</ele><time>2026-05-03T16:18:34Z</time></trkpt><trkpt lat="44.028038635166816" lon="5.611464239203996"><ele>760.6666666666667</ele><time>2026-05-03T16:18:35Z</time></trkpt><trkpt lat="44.02795957795678" lon="5.611390932080853"><ele>758.3333333333334</ele><time>2026-05-03T16:18:36Z</time></trkpt><trkpt lat="44.027874360061325" lon="5.611336237170226"><ele>756.0</ele><time>2026-05-03T16:18:37Z</time></trkpt><trkpt lat="44.0277919330556" lon="5.611306129033574"><ele>756.0</ele><time>2026-05-03T16:18:38Z</time></trkpt><trkpt lat="44.027718507158966" lon="5.611258747767536"><ele>756.0</ele><time>2026-05-03T16:18:39Z</time></trkpt><trkpt lat="44.027647501846296" lon="5.611190580677999"><ele>756.0</ele><time>2026-05-03T16:18:40Z</time></trkpt><trkpt lat="44.02757069113669" lon="5.611140902998136"><ele>756.0</ele><time>2026-05-03T16:18:41Z</time></trkpt><trkpt lat="44.027491068187906" lon="5.6110894063631465"><ele>756.0</ele><time>2026-05-03T16:18:42Z</time></trkpt><trkpt lat="44.027406709460905" lon="5.611034846840102"><ele>756.0</ele><time>2026-05-03T16:18:43Z</time></trkpt><trkpt lat="44.02731678010258" lon="5.610976980388641"><ele>757.8</ele><time>2026-05-03T16:18:44Z</time></trkpt><trkpt lat="44.02722482535561" lon="5.6109198441694526"><ele>759.5999999999999</ele><time>2026-05-03T16:18:45Z</time></trkpt><trkpt lat="44.02711467699406" lon="5.610877348964238"><ele>761.4</ele><time>2026-05-03T16:18:46Z</time></trkpt><trkpt lat="44.027010304888925" lon="5.610804424519479"><ele>763.2</ele><time>2026-05-03T16:18:47Z</time></trkpt><trkpt lat="44.026909969016586" lon="5.610764166512494"><ele>765.0</ele><time>2026-05-03T16:18:48Z</time></trkpt><trkpt lat="44.02682872362842" lon="5.610737663894631"><ele>765.0</ele><time>2026-05-03T16:18:49Z</time></trkpt><trkpt lat="44.02674518410774" lon="5.610715043078313"><ele>765.0</ele><time>2026-05-03T16:18:50Z</time></trkpt><trkpt lat="44.026657428587505" lon="5.6107321597497295"><ele>765.0</ele><time>2026-05-03T16:18:51Z</time></trkpt><trkpt lat="44.02658268190803" lon="5.610754239214625"><ele>765.0</ele><time>2026-05-03T16:18:52Z</time></trkpt><trkpt lat="44.02651353107526" lon="5.6107684232095565"><ele>765.0</ele><time>2026-05-03T16:18:53Z</time></trkpt><trkpt lat="44.026416983961035" lon="5.610787137134216"><ele>765.0</ele><time>2026-05-03T16:18:54Z</time></trkpt><trkpt lat="44.026337611102086" lon="5.610816025084597"><ele>764.6666666666666</ele><time>2026-05-03T16:18:55Z</time></trkpt><trkpt lat="44.02625613214082" lon="5.610844474991649"><ele>764.3333333333334</ele><time>2026-05-03T16:18:56Z</time></trkpt><trkpt lat="44.0261717871785" lon="5.610864624314809"><ele>764.0</ele><time>2026-05-03T16:18:57Z</time></trkpt><trkpt lat="44.026090560707594" lon="5.610857797708641"><ele>763.6666666666667</ele><time>2026-05-03T16:18:58Z</time></trkpt><trkpt lat="44.02600366917547" lon="5.610837917074855"><ele>763.3333333333334</ele><time>2026-05-03T16:18:59Z</time></trkpt><trkpt lat="44.02591705545222" lon="5.6108173200053"><ele>763.0</ele><time>2026-05-03T16:19:00Z</time></trkpt><trkpt lat="44.02583345178429" lon="5.610812951164497"><ele>762.3333333333334</ele><time>2026-05-03T16:19:01Z</time></trkpt><trkpt lat="44.02575518858538" lon="5.610789341754142"><ele>761.6666666666667</ele><time>2026-05-03T16:19:02Z</time></trkpt><trkpt lat="44.0256750597304" lon="5.610762131357158"><ele>761.0</ele><time>2026-05-03T16:19:02.999Z</time></trkpt><trkpt lat="44.02559461999572" lon="5.610736971792878"><ele>760.3333333333334</ele><time>2026-05-03T16:19:03.999Z</time></trkpt><trkpt lat="44.02550592786006" lon="5.610715411193755"><ele>759.6666666666666</ele><time>2026-05-03T16:19:04.999Z</time></trkpt><trkpt lat="44.025418017346674" lon="5.610694381065859"><ele>759.0</ele><time>2026-05-03T16:19:05.999Z</time></trkpt><trkpt lat="44.025331385307574" lon="5.610673938843797"><ele>759.0</ele><time>2026-05-03T16:19:06.999Z</time></trkpt><trkpt lat="44.02524141713946" lon="5.610656215470201"><ele>759.0</ele><time>2026-05-03T16:19:07.999Z</time></trkpt><trkpt lat="44.02514745646881" lon="5.61064571692918"><ele>759.0</ele><time>2026-05-03T16:19:08.999Z</time></trkpt><trkpt lat="44.025057762344225" lon="5.61064274887569"><ele>759.0</ele><time>2026-05-03T16:19:09.999Z</time></trkpt><trkpt lat="44.02496805224718" lon="5.61064833347438"><ele>759.0</ele><time>2026-05-03T16:19:10.999Z</time></trkpt><trkpt lat="44.02487194156749" lon="5.610677212942479"><ele>758.6</ele><time>2026-05-03T16:19:11.999Z</time></trkpt><trkpt lat="44.02478316696489" lon="5.610711145058344"><ele>758.2</ele><time>2026-05-03T16:19:12.999Z</time></trkpt><trkpt lat="44.02469491068246" lon="5.610761198443745"><ele>757.8000000000001</ele><time>2026-05-03T16:19:13.999Z</time></trkpt><trkpt lat="44.02460910275462" lon="5.610807117561506"><ele>757.4000000000001</ele><time>2026-05-03T16:19:14.999Z</time></trkpt><trkpt lat="44.02451971245978" lon="5.61083017392716"><ele>757.0</ele><time>2026-05-03T16:19:15.999Z</time></trkpt><trkpt lat="44.02443139986633" lon="5.610868180166893"><ele>757.0</ele><time>2026-05-03T16:19:16.999Z</time></trkpt><trkpt lat="44.02434377566604" lon="5.610904830663528"><ele>757.0</ele><time>2026-05-03T16:19:17.999Z</time></trkpt><trkpt lat="44.024254287517" lon="5.610942041554276"><ele>757.0</ele><time>2026-05-03T16:19:18.999Z</time></trkpt><trkpt lat="44.02416105746449" lon="5.610976941683873"><ele>757.0</ele><time>2026-05-03T16:19:19.999Z</time></trkpt><trkpt lat="44.02407271100042" lon="5.611004887841279"><ele>757.0</ele><time>2026-05-03T16:19:20.999Z</time></trkpt><trkpt lat="44.02398034798903" lon="5.6110271073502425"><ele>755.2</ele><time>2026-05-03T16:19:21.999Z</time></trkpt><trkpt lat="44.02389062994137" lon="5.611065069009939"><ele>753.4000000000001</ele><time>2026-05-03T16:19:22.999Z</time></trkpt><trkpt lat="44.0237948684753" lon="5.61105727630296"><ele>751.5999999999999</ele><time>2026-05-03T16:19:23.999Z</time></trkpt><trkpt lat="44.02370163009778" lon="5.61109109814928"><ele>749.8</ele><time>2026-05-03T16:19:24.999Z</time></trkpt><trkpt lat="44.023603681861466" lon="5.611098914812687"><ele>748.0</ele><time>2026-05-03T16:19:25.999Z</time></trkpt><trkpt lat="44.02350715462449" lon="5.611105221472464"><ele>748.0</ele><time>2026-05-03T16:19:26.999Z</time></trkpt><trkpt lat="44.023416202368374" lon="5.61111495962022"><ele>748.0</ele><time>2026-05-03T16:19:27.999Z</time></trkpt><trkpt lat="44.02332551039747" lon="5.611120084642588"><ele>748.0</ele><time>2026-05-03T16:19:28.999Z</time></trkpt><trkpt lat="44.023230358663795" lon="5.611126671716012"><ele>748.0</ele><time>2026-05-03T16:19:29.999Z</time></trkpt><trkpt lat="44.02313518319103" lon="5.6111330599174725"><ele>748.0</ele><time>2026-05-03T16:19:30.999Z</time></trkpt><trkpt lat="44.02303910506991" lon="5.611140349024331"><ele>747.0</ele><time>2026-05-03T16:19:31.999Z</time></trkpt><trkpt lat="44.022940093306545" lon="5.611151630891221"><ele>746.0</ele><time>2026-05-03T16:19:32.999Z</time></trkpt><trkpt lat="44.022840507055435" lon="5.611163016943236"><ele>745.0</ele><time>2026-05-03T16:19:33.999Z</time></trkpt><trkpt lat="44.022747610688654" lon="5.611169287350736"><ele>744.0</ele><time>2026-05-03T16:19:34.999Z</time></trkpt><trkpt lat="44.02266373555932" lon="5.611170985460138"><ele>743.0</ele><time>2026-05-03T16:19:35.999Z</time></trkpt><trkpt lat="44.02257903066343" lon="5.611203850947499"><ele>739.75</ele><time>2026-05-03T16:19:37.999Z</time></trkpt><trkpt lat="44.02250039410081" lon="5.611176551791341"><ele>736.5</ele><time>2026-05-03T16:19:41.999Z</time></trkpt><trkpt lat="44.022359447597935" lon="5.61120812973666"><ele>733.25</ele><time>2026-05-03T16:19:43.999Z</time></trkpt><trkpt lat="44.022245134308044" lon="5.611219336933546"><ele>730.0</ele><time>2026-05-03T16:19:44.999Z</time></trkpt><trkpt lat="44.022113255397954" lon="5.611232266212952"><ele>729.5</ele><time>2026-05-03T16:19:45.999Z</time></trkpt><trkpt lat="44.02198004666064" lon="5.611251834329175"><ele>729.0</ele><time>2026-05-03T16:19:46.999Z</time></trkpt><trkpt lat="44.02185351320187" lon="5.611300504898531"><ele>728.5</ele><time>2026-05-03T16:19:47.999Z</time></trkpt><trkpt lat="44.02176719750248" lon="5.611363243394514"><ele>728.0</ele><time>2026-05-03T16:19:48.999Z</time></trkpt><trkpt lat="44.021656092558146" lon="5.611444629452174"><ele>727.75</ele><time>2026-05-03T16:19:49.999Z</time></trkpt><trkpt lat="44.021542728829864" lon="5.611514565798181"><ele>727.5</ele><time>2026-05-03T16:19:50.999Z</time></trkpt><trkpt lat="44.02141798829403" lon="5.611586513530567"><ele>727.25</ele><time>2026-05-03T16:19:51.999Z</time></trkpt><trkpt lat="44.02131883971949" lon="5.611635171619012"><ele>727.0</ele><time>2026-05-03T16:19:52.999Z</time></trkpt><trkpt lat="44.02122248642747" lon="5.611682457277248"><ele>727.0</ele><time>2026-05-03T16:19:53.999Z</time></trkpt><trkpt lat="44.02093089995239" lon="5.611784373287342"><ele>727.0</ele><time>2026-05-03T16:19:54.999Z</time></trkpt><trkpt lat="44.02078400552808" lon="5.6117369157032435"><ele>724.0</ele><time>2026-05-03T16:19:55.999Z</time></trkpt><trkpt lat="44.02062107145846" lon="5.611672223789107"><ele>721.0</ele><time>2026-05-03T16:19:56.999Z</time></trkpt><trkpt lat="44.02047349148915" lon="5.611595010345343"><ele>718.0</ele><time>2026-05-03T16:19:57.999Z</time></trkpt><trkpt lat="44.02032876953692" lon="5.611512567393119"><ele>718.0</ele><time>2026-05-03T16:19:58.999Z</time></trkpt><trkpt lat="44.02019285739966" lon="5.611427230024505"><ele>718.0</ele><time>2026-05-03T16:19:59.999Z</time></trkpt><trkpt lat="44.0200698016296" lon="5.6113425544435955"><ele>718.0</ele><time>2026-05-03T16:20:00.999Z</time></trkpt><trkpt lat="44.0199557115487" lon="5.611259621843511"><ele>718.0</ele><time>2026-05-03T16:20:01.999Z</time></trkpt><trkpt lat="44.01979201480114" lon="5.611162276852993"><ele>721.0</ele><time>2026-05-03T16:20:02.999Z</time></trkpt><trkpt lat="44.01977883835169" lon="5.610484003881712"><ele>721.0</ele><time>2026-05-03T16:20:03.999Z</time></trkpt><trkpt lat="44.01965562719913" lon="5.61045782328224"><ele>721.0</ele><time>2026-05-03T16:20:04.999Z</time></trkpt><trkpt lat="44.019523999277645" lon="5.610461305921901"><ele>721.0</ele><time>2026-05-03T16:20:05.999Z</time></trkpt><trkpt lat="44.01940202882944" lon="5.610472019524313"><ele>721.0</ele><time>2026-05-03T16:20:06.999Z</time></trkpt><trkpt lat="44.0193076878759" lon="5.610478733665973"><ele>721.0</ele><time>2026-05-03T16:20:07.999Z</time></trkpt><trkpt lat="44.0192201879138" lon="5.610477049293704"><ele>721.0</ele><time>2026-05-03T16:20:08.999Z</time></trkpt><trkpt lat="44.01914218282288" lon="5.610452958665319"><ele>721.0</ele><time>2026-05-03T16:20:10Z</time></trkpt><trkpt lat="44.019057931564724" lon="5.610395223354424"><ele>721.0</ele><time>2026-05-03T16:20:11Z</time></trkpt><trkpt lat="44.018970002385984" lon="5.6103239317512354"><ele>721.0</ele><time>2026-05-03T16:20:12Z</time></trkpt><trkpt lat="44.01891049806526" lon="5.610264803709659"><ele>721.0</ele><time>2026-05-03T16:20:13Z</time></trkpt><trkpt lat="44.018844361313505" lon="5.61022754441423"><ele>722.0</ele><time>2026-05-03T16:20:14Z</time></trkpt><trkpt lat="44.0187117108631" lon="5.610151279763292"><ele>723.0</ele><time>2026-05-03T16:20:16Z</time></trkpt><trkpt lat="44.01863361248277" lon="5.610104342296553"><ele>724.0</ele><time>2026-05-03T16:20:17Z</time></trkpt><trkpt lat="44.018551383668616" lon="5.610045615193259"><ele>725.0</ele><time>2026-05-03T16:20:18Z</time></trkpt><trkpt lat="44.01845756112252" lon="5.6099726434787796"><ele>726.0</ele><time>2026-05-03T16:20:19Z</time></trkpt><trkpt lat="44.018341822684185" lon="5.609912631030644"><ele>723.75</ele><time>2026-05-03T16:20:20Z</time></trkpt><trkpt lat="44.01820729881445" lon="5.609866281046521"><ele>721.5</ele><time>2026-05-03T16:20:21Z</time></trkpt><trkpt lat="44.01807888123508" lon="5.609830276353743"><ele>719.25</ele><time>2026-05-03T16:20:22Z</time></trkpt><trkpt lat="44.01798105878117" lon="5.609805546191054"><ele>717.0</ele><time>2026-05-03T16:20:23Z</time></trkpt><trkpt lat="44.01789528874819" lon="5.609768656090986"><ele>717.0</ele><time>2026-05-03T16:20:24Z</time></trkpt><trkpt lat="44.01780878237394" lon="5.609707348672721"><ele>717.0</ele><time>2026-05-03T16:20:25Z</time></trkpt><trkpt lat="44.017728759039635" lon="5.609614085447732"><ele>717.0</ele><time>2026-05-03T16:20:26Z</time></trkpt><trkpt lat="44.01765913557634" lon="5.609487633304918"><ele>717.0</ele><time>2026-05-03T16:20:27Z</time></trkpt><trkpt lat="44.01758082206156" lon="5.609346045617444"><ele>717.0</ele><time>2026-05-03T16:20:28Z</time></trkpt><trkpt lat="44.0175106962925" lon="5.6092064764111855"><ele>716.6</ele><time>2026-05-03T16:20:29Z</time></trkpt><trkpt lat="44.017448899468384" lon="5.6090770569711745"><ele>716.2</ele><time>2026-05-03T16:20:30Z</time></trkpt><trkpt lat="44.01740962081815" lon="5.608950164482151"><ele>715.8</ele><time>2026-05-03T16:20:31Z</time></trkpt><trkpt lat="44.01738032771019" lon="5.608814183900188"><ele>715.4</ele><time>2026-05-03T16:20:32Z</time></trkpt><trkpt lat="44.017349860921904" lon="5.608664002445622"><ele>715.0</ele><time>2026-05-03T16:20:33Z</time></trkpt><trkpt lat="44.01731738560158" lon="5.608513067647482"><ele>715.0</ele><time>2026-05-03T16:20:34Z</time></trkpt><trkpt lat="44.01728717174244" lon="5.608359359839866"><ele>715.0</ele><time>2026-05-03T16:20:35Z</time></trkpt><trkpt lat="44.01726556301808" lon="5.608236473928765"><ele>715.0</ele><time>2026-05-03T16:20:36Z</time></trkpt><trkpt lat="44.01725571328074" lon="5.608129889419312"><ele>715.0</ele><time>2026-05-03T16:20:37Z</time></trkpt><trkpt lat="44.017246214512426" lon="5.60803592830403"><ele>715.0</ele><time>2026-05-03T16:20:38Z</time></trkpt><trkpt lat="44.01721527411108" lon="5.60794753418922"><ele>715.0</ele><time>2026-05-03T16:20:39Z</time></trkpt><trkpt lat="44.01716837582414" lon="5.607866723100067"><ele>716.4</ele><time>2026-05-03T16:20:40Z</time></trkpt><trkpt lat="44.0171164940538" lon="5.607794369819864"><ele>717.8</ele><time>2026-05-03T16:20:41Z</time></trkpt><trkpt lat="44.01705280342207" lon="5.607723332898292"><ele>719.2</ele><time>2026-05-03T16:20:42Z</time></trkpt><trkpt lat="44.016986355080036" lon="5.607659711251555"><ele>720.6</ele><time>2026-05-03T16:20:43Z</time></trkpt><trkpt lat="44.016892730208426" lon="5.607578663953686"><ele>722.0</ele><time>2026-05-03T16:20:44Z</time></trkpt><trkpt lat="44.01678311765625" lon="5.607503508997145"><ele>722.0</ele><time>2026-05-03T16:20:45Z</time></trkpt><trkpt lat="44.01667744635269" lon="5.6074103090336145"><ele>722.0</ele><time>2026-05-03T16:20:46Z</time></trkpt><trkpt lat="44.016570071092055" lon="5.6073281290223145"><ele>722.0</ele><time>2026-05-03T16:20:47Z</time></trkpt><trkpt lat="44.016483126123745" lon="5.607255176433831"><ele>722.0</ele><time>2026-05-03T16:20:48Z</time></trkpt><trkpt lat="44.01638447505211" lon="5.607191486626779"><ele>719.4000000000001</ele><time>2026-05-03T16:20:49Z</time></trkpt><trkpt lat="44.016285879338426" lon="5.607144872695294"><ele>716.8000000000001</ele><time>2026-05-03T16:20:50Z</time></trkpt><trkpt lat="44.01619296320075" lon="5.607108914566682"><ele>714.2</ele><time>2026-05-03T16:20:51Z</time></trkpt><trkpt lat="44.01610048513875" lon="5.607100706604352"><ele>711.6</ele><time>2026-05-03T16:20:52Z</time></trkpt><trkpt lat="44.016006169225236" lon="5.607113540470508"><ele>709.0</ele><time>2026-05-03T16:20:53Z</time></trkpt><trkpt lat="44.01590158325586" lon="5.607148262449158"><ele>707.0</ele><time>2026-05-03T16:20:54Z</time></trkpt><trkpt lat="44.01579864383359" lon="5.6071917677130845"><ele>705.0</ele><time>2026-05-03T16:20:55Z</time></trkpt><trkpt lat="44.015706421493725" lon="5.607244423771191"><ele>703.0</ele><time>2026-05-03T16:20:56Z</time></trkpt><trkpt lat="44.0156248303079" lon="5.607294442471479"><ele>701.0</ele><time>2026-05-03T16:20:57Z</time></trkpt><trkpt lat="44.01554191994014" lon="5.6073448056500546"><ele>699.0</ele><time>2026-05-03T16:20:58Z</time></trkpt><trkpt lat="44.015452057264504" lon="5.6073795453701925"><ele>699.0</ele><time>2026-05-03T16:20:59Z</time></trkpt><trkpt lat="44.01535772930992" lon="5.607400215658558"><ele>699.0</ele><time>2026-05-03T16:21:00Z</time></trkpt><trkpt lat="44.01525881116502" lon="5.607415605893522"><ele>699.0</ele><time>2026-05-03T16:21:01Z</time></trkpt><trkpt lat="44.01515397996877" lon="5.607436710256396"><ele>699.0</ele><time>2026-05-03T16:21:01.999Z</time></trkpt><trkpt lat="44.015057767281945" lon="5.607461234315364"><ele>699.0</ele><time>2026-05-03T16:21:02.999Z</time></trkpt><trkpt lat="44.01496421461682" lon="5.607462717441527"><ele>698.5</ele><time>2026-05-03T16:21:03.999Z</time></trkpt><trkpt lat="44.014850347438596" lon="5.60747097807793"><ele>698.0</ele><time>2026-05-03T16:21:05.999Z</time></trkpt><trkpt lat="44.01477861506563" lon="5.60747481331008"><ele>697.5</ele><time>2026-05-03T16:21:07.999Z</time></trkpt><trkpt lat="44.0147033382303" lon="5.6074671120231265"><ele>697.0</ele><time>2026-05-03T16:21:09.999Z</time></trkpt><trkpt lat="44.01461893350026" lon="5.607454503873023"><ele>696.5</ele><time>2026-05-03T16:21:11.999Z</time></trkpt><trkpt lat="44.0145286003988" lon="5.607456950758668"><ele>696.0</ele><time>2026-05-03T16:21:13.999Z</time></trkpt><trkpt lat="44.01444679313538" lon="5.607458337805447"><ele>696.0</ele><time>2026-05-03T16:21:15.999Z</time></trkpt><trkpt lat="44.014376740237864" lon="5.6074662822308285"><ele>696.0</ele><time>2026-05-03T16:21:17.999Z</time></trkpt><trkpt lat="44.01430147284031" lon="5.607483601248774"><ele>696.0</ele><time>2026-05-03T16:21:19.999Z</time></trkpt><trkpt lat="44.014208948817476" lon="5.607503383696418"><ele>696.0</ele><time>2026-05-03T16:21:21.999Z</time></trkpt><trkpt lat="44.01410145525155" lon="5.607526489136379"><ele>696.0</ele><time>2026-05-03T16:21:23.999Z</time></trkpt><trkpt lat="44.014038795454496" lon="5.607542888851032"><ele>696.0</ele><time>2026-05-03T16:21:24.999Z</time></trkpt><trkpt lat="44.013970930476106" lon="5.607562196204204"><ele>695.5</ele><time>2026-05-03T16:21:25.999Z</time></trkpt><trkpt lat="44.013895099639235" lon="5.607590436787138"><ele>695.0</ele><time>2026-05-03T16:21:26.999Z</time></trkpt><trkpt lat="44.01382199465414" lon="5.60760492908631"><ele>694.5</ele><time>2026-05-03T16:21:27.999Z</time></trkpt><trkpt lat="44.01374530262454" lon="5.607616741734278"><ele>694.0</ele><time>2026-05-03T16:21:28.999Z</time></trkpt><trkpt lat="44.01365657116697" lon="5.607622704955379"><ele>693.5</ele><time>2026-05-03T16:21:29.999Z</time></trkpt><trkpt lat="44.013570103146066" lon="5.607628154266298"><ele>693.0</ele><time>2026-05-03T16:21:30.999Z</time></trkpt><trkpt lat="44.0134799493758" lon="5.607626942072355"><ele>693.0</ele><time>2026-05-03T16:21:31.999Z</time></trkpt><trkpt lat="44.01339466209334" lon="5.607632372728201"><ele>693.0</ele><time>2026-05-03T16:21:32.999Z</time></trkpt><trkpt lat="44.01330832924642" lon="5.607637941124529"><ele>693.0</ele><time>2026-05-03T16:21:33.999Z</time></trkpt><trkpt lat="44.0132279309786" lon="5.607625342553565"><ele>693.0</ele><time>2026-05-03T16:21:34.999Z</time></trkpt><trkpt lat="44.013153537998214" lon="5.607603636354357"><ele>693.0</ele><time>2026-05-03T16:21:35.999Z</time></trkpt><trkpt lat="44.013081048592866" lon="5.607573321549402"><ele>693.0</ele><time>2026-05-03T16:21:36.999Z</time></trkpt><trkpt lat="44.013015299665035" lon="5.607534848760677"><ele>692.3333333333334</ele><time>2026-05-03T16:21:37.999Z</time></trkpt><trkpt lat="44.012951836919676" lon="5.607505168416098"><ele>691.6666666666666</ele><time>2026-05-03T16:21:38.999Z</time></trkpt><trkpt lat="44.01284672978641" lon="5.607455303950695"><ele>691.0</ele><time>2026-05-03T16:21:40.999Z</time></trkpt><trkpt lat="44.01275850088183" lon="5.607427473763854"><ele>690.3333333333333</ele><time>2026-05-03T16:21:42.999Z</time></trkpt><trkpt lat="44.012675418004655" lon="5.60738963614102"><ele>689.6666666666666</ele><time>2026-05-03T16:21:44.999Z</time></trkpt><trkpt lat="44.01258210189114" lon="5.6073795300095455"><ele>689.0</ele><time>2026-05-03T16:21:46.999Z</time></trkpt><trkpt lat="44.01248332137643" lon="5.607374919916433"><ele>688.8000000000001</ele><time>2026-05-03T16:21:48.999Z</time></trkpt><trkpt lat="44.01239232004584" lon="5.607368968751987"><ele>688.6</ele><time>2026-05-03T16:21:50.999Z</time></trkpt><trkpt lat="44.012296959218915" lon="5.607378443183746"><ele>688.4</ele><time>2026-05-03T16:21:52.999Z</time></trkpt><trkpt lat="44.012188769416056" lon="5.607365549484272"><ele>688.2</ele><time>2026-05-03T16:21:54.999Z</time></trkpt><trkpt lat="44.0120695759519" lon="5.607335632033869"><ele>688.0</ele><time>2026-05-03T16:21:56.999Z</time></trkpt><trkpt lat="44.0120069986187" lon="5.607325245831983"><ele>688.0000000000001</ele><time>2026-05-03T16:21:57.999Z</time></trkpt><trkpt lat="44.01194092376663" lon="5.607329359659659"><ele>688.0</ele><time>2026-05-03T16:21:58.999Z</time></trkpt><trkpt lat="44.011875663954044" lon="5.6073136385579545"><ele>688.0</ele><time>2026-05-03T16:21:59.999Z</time></trkpt><trkpt lat="44.01180531500912" lon="5.607305356919478"><ele>688.0</ele><time>2026-05-03T16:22:00.999Z</time></trkpt><trkpt lat="44.01173688810728" lon="5.607292046693584"><ele>688.0</ele><time>2026-05-03T16:22:01.999Z</time></trkpt><trkpt lat="44.01166662154197" lon="5.6072790819444895"><ele>688.0000000000001</ele><time>2026-05-03T16:22:02.999Z</time></trkpt><trkpt lat="44.01159747614528" lon="5.60726721680111"><ele>688.0</ele><time>2026-05-03T16:22:03.999Z</time></trkpt><trkpt lat="44.01153124298642" lon="5.60725638388672"><ele>687.8571428571429</ele><time>2026-05-03T16:22:04.999Z</time></trkpt><trkpt lat="44.01146348338817" lon="5.60724883868389"><ele>687.7142857142858</ele><time>2026-05-03T16:22:05.999Z</time></trkpt><trkpt lat="44.011392757200525" lon="5.6072364546675075"><ele>687.5714285714287</ele><time>2026-05-03T16:22:06.999Z</time></trkpt><trkpt lat="44.01132308390968" lon="5.6072284114963065"><ele>687.4285714285714</ele><time>2026-05-03T16:22:07.998Z</time></trkpt><trkpt lat="44.01125443708127" lon="5.60719602542719"><ele>687.2857142857142</ele><time>2026-05-03T16:22:08.998Z</time></trkpt><trkpt lat="44.01118418127146" lon="5.6071839086943855"><ele>687.1428571428572</ele><time>2026-05-03T16:22:09.998Z</time></trkpt><trkpt lat="44.01111309272422" lon="5.607169218594192"><ele>687.0</ele><time>2026-05-03T16:22:10.998Z</time></trkpt><trkpt lat="44.0110373101129" lon="5.607150413281984"><ele>687.0</ele><time>2026-05-03T16:22:11.998Z</time></trkpt><trkpt lat="44.010959354711105" lon="5.607132685159267"><ele>687.0</ele><time>2026-05-03T16:22:12.998Z</time></trkpt><trkpt lat="44.010878112248065" lon="5.607119447797041"><ele>687.0</ele><time>2026-05-03T16:22:13.998Z</time></trkpt><trkpt lat="44.01079015208496" lon="5.607132147773232"><ele>687.0</ele><time>2026-05-03T16:22:14.998Z</time></trkpt><trkpt lat="44.01070425154748" lon="5.607125142033452"><ele>687.0</ele><time>2026-05-03T16:22:16Z</time></trkpt><trkpt lat="44.01062308273464" lon="5.6071161214508844"><ele>687.0</ele><time>2026-05-03T16:22:17Z</time></trkpt><trkpt lat="44.01054076750913" lon="5.607111994462377"><ele>687.6666666666666</ele><time>2026-05-03T16:22:18Z</time></trkpt><trkpt lat="44.010471581936535" lon="5.607093832619345"><ele>688.3333333333334</ele><time>2026-05-03T16:22:19Z</time></trkpt><trkpt lat="44.01040431567041" lon="5.607097862312568"><ele>689.0</ele><time>2026-05-03T16:22:20Z</time></trkpt><trkpt lat="44.010333412440836" lon="5.6071053189784426"><ele>689.6666666666667</ele><time>2026-05-03T16:22:21Z</time></trkpt><trkpt lat="44.01026319258991" lon="5.607137548847666"><ele>690.3333333333334</ele><time>2026-05-03T16:22:22Z</time></trkpt><trkpt lat="44.010180340176234" lon="5.607150415895544"><ele>691.0</ele><time>2026-05-03T16:22:23Z</time></trkpt><trkpt lat="44.01009411346253" lon="5.607168426600579"><ele>691.0</ele><time>2026-05-03T16:22:24Z</time></trkpt><trkpt lat="44.01000090468594" lon="5.60718687310457"><ele>691.0</ele><time>2026-05-03T16:22:25Z</time></trkpt><trkpt lat="44.00990305682459" lon="5.607186506384929"><ele>691.0</ele><time>2026-05-03T16:22:26Z</time></trkpt><trkpt lat="44.00980338670524" lon="5.607199056394592"><ele>691.0</ele><time>2026-05-03T16:22:27Z</time></trkpt><trkpt lat="44.00970170486999" lon="5.6072080317769"><ele>691.0</ele><time>2026-05-03T16:22:28Z</time></trkpt><trkpt lat="44.00960370007765" lon="5.607213474681926"><ele>691.25</ele><time>2026-05-03T16:22:29Z</time></trkpt><trkpt lat="44.00949754288802" lon="5.607212743972118"><ele>691.5</ele><time>2026-05-03T16:22:30Z</time></trkpt><trkpt lat="44.00938564850111" lon="5.607203335362492"><ele>691.75</ele><time>2026-05-03T16:22:31Z</time></trkpt><trkpt lat="44.00926967979212" lon="5.607181816345417"><ele>692.0</ele><time>2026-05-03T16:22:32Z</time></trkpt><trkpt lat="44.00914518999719" lon="5.6071544914270275"><ele>690.8</ele><time>2026-05-03T16:22:33Z</time></trkpt><trkpt lat="44.00901579113235" lon="5.607137822420942"><ele>689.6</ele><time>2026-05-03T16:22:34Z</time></trkpt><trkpt lat="44.00889693840236" lon="5.607110295817519"><ele>688.4</ele><time>2026-05-03T16:22:35Z</time></trkpt><trkpt lat="44.00880213315162" lon="5.607104058204467"><ele>687.1999999999999</ele><time>2026-05-03T16:22:36Z</time></trkpt><trkpt lat="44.008723677579994" lon="5.6071045178767935"><ele>686.0</ele><time>2026-05-03T16:22:37Z</time></trkpt><trkpt lat="44.00864851657178" lon="5.607089370530849"><ele>686.0</ele><time>2026-05-03T16:22:38Z</time></trkpt><trkpt lat="44.008577314648505" lon="5.607111357216503"><ele>686.0</ele><time>2026-05-03T16:22:39Z</time></trkpt><trkpt lat="44.00849211390362" lon="5.607093738283782"><ele>686.0</ele><time>2026-05-03T16:22:40Z</time></trkpt><trkpt lat="44.00835807952292" lon="5.607060937024723"><ele>686.0</ele><time>2026-05-03T16:22:42Z</time></trkpt><trkpt lat="44.008272582775" lon="5.607030012599625"><ele>686.0</ele><time>2026-05-03T16:22:43Z</time></trkpt><trkpt lat="44.0081711488316" lon="5.606993662715342"><ele>686.5</ele><time>2026-05-03T16:22:44Z</time></trkpt><trkpt lat="44.008056580128" lon="5.606965860574475"><ele>687.0</ele><time>2026-05-03T16:22:45Z</time></trkpt><trkpt lat="44.007947015069306" lon="5.606925950435858"><ele>687.5</ele><time>2026-05-03T16:22:46Z</time></trkpt><trkpt lat="44.0078285264036" lon="5.606900906545509"><ele>688.0</ele><time>2026-05-03T16:22:47Z</time></trkpt><trkpt lat="44.007699586191265" lon="5.606874486038227"><ele>688.0</ele><time>2026-05-03T16:22:48Z</time></trkpt><trkpt lat="44.007565663339875" lon="5.606845109010887"><ele>688.0</ele><time>2026-05-03T16:22:49Z</time></trkpt><trkpt lat="44.007428722930776" lon="5.606816294227941"><ele>688.0</ele><time>2026-05-03T16:22:50Z</time></trkpt><trkpt lat="44.007289693632586" lon="5.606807989408818"><ele>688.0</ele><time>2026-05-03T16:22:51Z</time></trkpt><trkpt lat="44.00715244391783" lon="5.606790771745512"><ele>687.75</ele><time>2026-05-03T16:22:52Z</time></trkpt><trkpt lat="44.007019453677835" lon="5.606796845173992"><ele>687.5</ele><time>2026-05-03T16:22:53Z</time></trkpt><trkpt lat="44.006881842210824" lon="5.606778718964068"><ele>687.25</ele><time>2026-05-03T16:22:54Z</time></trkpt><trkpt lat="44.006751905114896" lon="5.606759595998976"><ele>687.0</ele><time>2026-05-03T16:22:55Z</time></trkpt><trkpt lat="44.00661841621468" lon="5.606736677168571"><ele>687.0</ele><time>2026-05-03T16:22:56Z</time></trkpt><trkpt lat="44.006496465409995" lon="5.606742184631384"><ele>687.0</ele><time>2026-05-03T16:22:57Z</time></trkpt><trkpt lat="44.006378760887905" lon="5.606736770306269"><ele>687.0</ele><time>2026-05-03T16:22:58Z</time></trkpt><trkpt lat="44.00629269259307" lon="5.606712994788832"><ele>687.0</ele><time>2026-05-03T16:22:59Z</time></trkpt><trkpt lat="44.00621803871986" lon="5.606732912411253"><ele>687.0</ele><time>2026-05-03T16:23:00Z</time></trkpt><trkpt lat="44.00615347481975" lon="5.606708159390468"><ele>687.0</ele><time>2026-05-03T16:23:01Z</time></trkpt><trkpt lat="44.006085384768134" lon="5.606706763102035"><ele>687.0</ele><time>2026-05-03T16:23:02Z</time></trkpt><trkpt lat="44.006010973545045" lon="5.6067050008483035"><ele>687.0</ele><time>2026-05-03T16:23:02.999Z</time></trkpt><trkpt lat="44.005931370864026" lon="5.606701175514937"><ele>687.0</ele><time>2026-05-03T16:23:03.999Z</time></trkpt><trkpt lat="44.005851535733186" lon="5.6066971593362265"><ele>687.0</ele><time>2026-05-03T16:23:04.999Z</time></trkpt><trkpt lat="44.00576548273253" lon="5.606692830365343"><ele>687.0</ele><time>2026-05-03T16:23:05.999Z</time></trkpt><trkpt lat="44.005679368437" lon="5.606688249484856"><ele>686.0</ele><time>2026-05-03T16:23:06.999Z</time></trkpt><trkpt lat="44.00558399831566" lon="5.606682393934306"><ele>685.0</ele><time>2026-05-03T16:23:07.999Z</time></trkpt><trkpt lat="44.005471784906995" lon="5.60667305647402"><ele>684.0</ele><time>2026-05-03T16:23:08.999Z</time></trkpt><trkpt lat="44.0053429644798" lon="5.606662337113371"><ele>683.0</ele><time>2026-05-03T16:23:09.999Z</time></trkpt><trkpt lat="44.00518404168775" lon="5.606656534329201"><ele>683.0</ele><time>2026-05-03T16:23:10.999Z</time></trkpt><trkpt lat="44.0050124168587" lon="5.606649982240588"><ele>683.0</ele><time>2026-05-03T16:23:11.999Z</time></trkpt><trkpt lat="44.004867035931134" lon="5.6066258956179365"><ele>683.0</ele><time>2026-05-03T16:23:12.999Z</time></trkpt><trkpt lat="44.00471458438749" lon="5.606596270486037"><ele>682.0</ele><time>2026-05-03T16:23:13.999Z</time></trkpt><trkpt lat="44.00456678577374" lon="5.606580576966252"><ele>681.0</ele><time>2026-05-03T16:23:14.999Z</time></trkpt><trkpt lat="44.004411470420436" lon="5.60657857815216"><ele>680.0</ele><time>2026-05-03T16:23:15.999Z</time></trkpt><trkpt lat="44.00426297022043" lon="5.606598141264781"><ele>679.5</ele><time>2026-05-03T16:23:16.999Z</time></trkpt><trkpt lat="44.00413835078479" lon="5.606610162122379"><ele>679.0</ele><time>2026-05-03T16:23:17.999Z</time></trkpt><trkpt lat="44.00402579407962" lon="5.606571573530714"><ele>678.5</ele><time>2026-05-03T16:23:18.999Z</time></trkpt><trkpt lat="44.003899485080915" lon="5.606544301290654"><ele>678.0</ele><time>2026-05-03T16:23:19.999Z</time></trkpt><trkpt lat="44.00376351326592" lon="5.606504169720011"><ele>678.0</ele><time>2026-05-03T16:23:20.999Z</time></trkpt><trkpt lat="44.003619498063756" lon="5.606456072019836"><ele>678.0</ele><time>2026-05-03T16:23:21.999Z</time></trkpt><trkpt lat="44.00348678706425" lon="5.606411891250775"><ele>678.0</ele><time>2026-05-03T16:23:22.999Z</time></trkpt><trkpt lat="44.00335211639039" lon="5.60636535761217"><ele>678.0</ele><time>2026-05-03T16:23:23.999Z</time></trkpt><trkpt lat="44.003226466029865" lon="5.606321431963301"><ele>678.0</ele><time>2026-05-03T16:23:24.999Z</time></trkpt><trkpt lat="44.00309895510141" lon="5.606299519812775"><ele>678.0</ele><time>2026-05-03T16:23:25.999Z</time></trkpt><trkpt lat="44.002970483803146" lon="5.606255369523404"><ele>678.0</ele><time>2026-05-03T16:23:26.999Z</time></trkpt><trkpt lat="44.002837934856345" lon="5.606210227793981"><ele>678.0</ele><time>2026-05-03T16:23:27.999Z</time></trkpt><trkpt lat="44.002699409416735" lon="5.606188514905494"><ele>678.0</ele><time>2026-05-03T16:23:28.999Z</time></trkpt><trkpt lat="44.00254073465293" lon="5.606165764404944"><ele>678.0</ele><time>2026-05-03T16:23:29.999Z</time></trkpt><trkpt lat="44.002382757129624" lon="5.60613565794797"><ele>678.0</ele><time>2026-05-03T16:23:30.999Z</time></trkpt><trkpt lat="44.0022499245558" lon="5.606120841083073"><ele>679.75</ele><time>2026-05-03T16:23:31.999Z</time></trkpt><trkpt lat="44.00212900877426" lon="5.606102705244866"><ele>681.5</ele><time>2026-05-03T16:23:32.999Z</time></trkpt><trkpt lat="44.002000798421726" lon="5.6061297601206945"><ele>683.25</ele><time>2026-05-03T16:23:33.999Z</time></trkpt><trkpt lat="44.00189877116887" lon="5.606126986002513"><ele>685.0</ele><time>2026-05-03T16:23:34.999Z</time></trkpt><trkpt lat="44.00178361771253" lon="5.606154231999701"><ele>684.2</ele><time>2026-05-03T16:23:35.999Z</time></trkpt><trkpt lat="44.00167274239746" lon="5.606161775999967"><ele>683.4</ele><time>2026-05-03T16:23:36.999Z</time></trkpt><trkpt lat="44.00156152494646" lon="5.6061787097415765"><ele>682.5999999999999</ele><time>2026-05-03T16:23:37.999Z</time></trkpt><trkpt lat="44.00146638214393" lon="5.6061832734049055"><ele>681.8</ele><time>2026-05-03T16:23:38.999Z</time></trkpt><trkpt lat="44.00137106757568" lon="5.606170432584364"><ele>681.0</ele><time>2026-05-03T16:23:39.999Z</time></trkpt><trkpt lat="44.00129871807438" lon="5.606175460278347"><ele>681.0</ele><time>2026-05-03T16:23:40.999Z</time></trkpt><trkpt lat="44.0012312020477" lon="5.606206973042296"><ele>681.0</ele><time>2026-05-03T16:23:41.999Z</time></trkpt><trkpt lat="44.00114352768054" lon="5.6062105561181665"><ele>681.0</ele><time>2026-05-03T16:23:42.999Z</time></trkpt><trkpt lat="44.00104689497288" lon="5.606204320959728"><ele>681.0</ele><time>2026-05-03T16:23:43.999Z</time></trkpt><trkpt lat="44.0009697628196" lon="5.606184169104027"><ele>681.0</ele><time>2026-05-03T16:23:44.999Z</time></trkpt><trkpt lat="44.000901021483955" lon="5.606179170962198"><ele>681.0</ele><time>2026-05-03T16:23:45.999Z</time></trkpt><trkpt lat="44.00083991926979" lon="5.6061395027784595"><ele>681.75</ele><time>2026-05-03T16:23:46.999Z</time></trkpt><trkpt lat="44.000707680696195" lon="5.606104801834088"><ele>682.5</ele><time>2026-05-03T16:23:48.999Z</time></trkpt><trkpt lat="44.000569516146044" lon="5.606064884188897"><ele>683.25</ele><time>2026-05-03T16:23:49.999Z</time></trkpt><trkpt lat="44.00045293355676" lon="5.605984433513185"><ele>684.0</ele><time>2026-05-03T16:23:50.999Z</time></trkpt><trkpt lat="44.00037795473186" lon="5.605932692435094"><ele>684.0</ele><time>2026-05-03T16:23:51.999Z</time></trkpt><trkpt lat="44.00031845726949" lon="5.605891634705341"><ele>684.0</ele><time>2026-05-03T16:23:53.999Z</time></trkpt><trkpt lat="44.00024459281279" lon="5.605840662453587"><ele>684.0</ele><time>2026-05-03T16:23:56.999Z</time></trkpt><trkpt lat="44.00015957543018" lon="5.605781992523842"><ele>684.0</ele><time>2026-05-03T16:23:58.999Z</time></trkpt><trkpt lat="44.000094602817" lon="5.605730133551887"><ele>684.0</ele><time>2026-05-03T16:24:00.999Z</time></trkpt><trkpt lat="44.0001690608555" lon="5.60545210065342"><ele>685.2</ele><time>2026-05-03T16:24:02.999Z</time></trkpt><trkpt lat="44.000147300620974" lon="5.605291320953814"><ele>686.4000000000001</ele><time>2026-05-03T16:24:04.999Z</time></trkpt><trkpt lat="44.00012767123232" lon="5.605200181677029"><ele>687.6</ele><time>2026-05-03T16:24:05.999Z</time></trkpt><trkpt lat="44.00008588155674" lon="5.6051024000959"><ele>688.8</ele><time>2026-05-03T16:24:06.998Z</time></trkpt><trkpt lat="44.000001550699224" lon="5.60501925740046"><ele>690.0</ele><time>2026-05-03T16:24:07.998Z</time></trkpt><trkpt lat="43.99994835508486" lon="5.604936286624502"><ele>690.0</ele><time>2026-05-03T16:24:08.998Z</time></trkpt><trkpt lat="43.9999212687983" lon="5.6048456826005"><ele>690.0</ele><time>2026-05-03T16:24:09.998Z</time></trkpt><trkpt lat="43.999871877732076" lon="5.6047087660548796"><ele>690.0</ele><time>2026-05-03T16:24:11.998Z</time></trkpt><trkpt lat="43.99981657216671" lon="5.604534627262495"><ele>690.0</ele><time>2026-05-03T16:24:13.998Z</time></trkpt><trkpt lat="43.99978582800211" lon="5.604430055604984"><ele>690.0</ele><time>2026-05-03T16:24:14.998Z</time></trkpt><trkpt lat="43.99975423045233" lon="5.604307486124688"><ele>691.3333333333334</ele><time>2026-05-03T16:24:15.998Z</time></trkpt><trkpt lat="43.99973172483627" lon="5.604193415294163"><ele>692.6666666666666</ele><time>2026-05-03T16:24:16.998Z</time></trkpt><trkpt lat="43.99972290966289" lon="5.604089101645359"><ele>694.0</ele><time>2026-05-03T16:24:17.998Z</time></trkpt><trkpt lat="43.99971645913953" lon="5.603998707925456"><ele>695.3333333333333</ele><time>2026-05-03T16:24:18.998Z</time></trkpt><trkpt lat="43.99970925033241" lon="5.6038762371773005"><ele>696.6666666666666</ele><time>2026-05-03T16:24:20.998Z</time></trkpt><trkpt lat="43.999727316845316" lon="5.6037537438457745"><ele>698.0</ele><time>2026-05-03T16:24:24Z</time></trkpt><trkpt lat="43.99976917199834" lon="5.603665716785339"><ele>699.1666666666666</ele><time>2026-05-03T16:24:26Z</time></trkpt><trkpt lat="43.999833580919336" lon="5.603605061503098"><ele>700.3333333333333</ele><time>2026-05-03T16:24:28Z</time></trkpt><trkpt lat="43.999916043195896" lon="5.603541564631215"><ele>701.5</ele><time>2026-05-03T16:24:30Z</time></trkpt><trkpt lat="43.999985455250595" lon="5.60352315315162"><ele>702.6666666666666</ele><time>2026-05-03T16:24:31Z</time></trkpt><trkpt lat="44.0000698858244" lon="5.603503365759957"><ele>703.8333333333334</ele><time>2026-05-03T16:24:32Z</time></trkpt><trkpt lat="44.0001561246679" lon="5.603461461178583"><ele>705.0</ele><time>2026-05-03T16:24:33Z</time></trkpt><trkpt lat="44.00025585414128" lon="5.603425255258535"><ele>705.0</ele><time>2026-05-03T16:24:34Z</time></trkpt><trkpt lat="44.00034713820005" lon="5.603387828374428"><ele>705.0</ele><time>2026-05-03T16:24:35Z</time></trkpt><trkpt lat="44.000438114407494" lon="5.6033415742192245"><ele>705.0</ele><time>2026-05-03T16:24:36Z</time></trkpt><trkpt lat="44.000540008975484" lon="5.603277064879709"><ele>705.0</ele><time>2026-05-03T16:24:37Z</time></trkpt><trkpt lat="44.000662503000015" lon="5.60321587177877"><ele>705.0</ele><time>2026-05-03T16:24:38Z</time></trkpt><trkpt lat="44.000805725779955" lon="5.603136168771857"><ele>707.75</ele><time>2026-05-03T16:24:39Z</time></trkpt><trkpt lat="44.000951625815595" lon="5.6030868050597835"><ele>710.5</ele><time>2026-05-03T16:24:40Z</time></trkpt><trkpt lat="44.00108052522645" lon="5.60303566925366"><ele>713.25</ele><time>2026-05-03T16:24:41Z</time></trkpt><trkpt lat="44.001204812761074" lon="5.602986571510517"><ele>716.0</ele><time>2026-05-03T16:24:42Z</time></trkpt><trkpt lat="44.00133048785997" lon="5.6029312048285"><ele>716.0</ele><time>2026-05-03T16:24:43Z</time></trkpt><trkpt lat="44.00145608690696" lon="5.60288541471318"><ele>716.0</ele><time>2026-05-03T16:24:44Z</time></trkpt><trkpt lat="44.00160611407243" lon="5.6028778797067025"><ele>716.0</ele><time>2026-05-03T16:24:45Z</time></trkpt><trkpt lat="44.00174829101891" lon="5.602862762729051"><ele>716.0</ele><time>2026-05-03T16:24:46Z</time></trkpt><trkpt lat="44.00188239175429" lon="5.602819454199628"><ele>719.25</ele><time>2026-05-03T16:24:47Z</time></trkpt><trkpt lat="44.00200494068382" lon="5.602804970474139"><ele>722.5</ele><time>2026-05-03T16:24:48Z</time></trkpt><trkpt lat="44.00215886303116" lon="5.6027477064666655"><ele>725.75</ele><time>2026-05-03T16:24:49Z</time></trkpt><trkpt lat="44.00232284692025" lon="5.6027260489670665"><ele>729.0</ele><time>2026-05-03T16:24:50Z</time></trkpt><trkpt lat="44.00249278248999" lon="5.602661322544511"><ele>730.6</ele><time>2026-05-03T16:24:51Z</time></trkpt><trkpt lat="44.00262754683062" lon="5.602645039478251"><ele>732.2</ele><time>2026-05-03T16:24:52Z</time></trkpt><trkpt lat="44.00275188966571" lon="5.6025873693031265"><ele>733.8000000000001</ele><time>2026-05-03T16:24:53Z</time></trkpt><trkpt lat="44.002846133734394" lon="5.6025621631517115"><ele>735.4000000000001</ele><time>2026-05-03T16:24:54Z</time></trkpt><trkpt lat="44.00291505989803" lon="5.602549106734324"><ele>737.0</ele><time>2026-05-03T16:24:55Z</time></trkpt><trkpt lat="44.00300161002853" lon="5.602484040120306"><ele>737.0</ele><time>2026-05-03T16:24:57Z</time></trkpt><trkpt lat="44.00312312195264" lon="5.602447790514471"><ele>737.0</ele><time>2026-05-03T16:24:59Z</time></trkpt><trkpt lat="44.00322789966942" lon="5.602469650880336"><ele>737.0</ele><time>2026-05-03T16:25:01Z</time></trkpt><trkpt lat="44.00328897155615" lon="5.602495529100001"><ele>737.0</ele><time>2026-05-03T16:25:02Z</time></trkpt><trkpt lat="44.00334452978666" lon="5.6025367547762945"><ele>737.0</ele><time>2026-05-03T16:25:04Z</time></trkpt><trkpt lat="44.00323809500392" lon="5.6024555473966755"><ele>737.0</ele><time>2026-05-03T16:25:11.999Z</time></trkpt><trkpt lat="44.003155581691146" lon="5.60243980656461"><ele>737.0</ele><time>2026-05-03T16:25:12.999Z</time></trkpt><trkpt lat="44.00308068268972" lon="5.602442728234462"><ele>737.0</ele><time>2026-05-03T16:25:13.999Z</time></trkpt><trkpt lat="44.00301241975336" lon="5.602464821269885"><ele>737.0</ele><time>2026-05-03T16:25:14.999Z</time></trkpt><trkpt lat="44.0029465308229" lon="5.602502390977863"><ele>737.0</ele><time>2026-05-03T16:25:15.999Z</time></trkpt><trkpt lat="44.00285920172779" lon="5.602518890579087"><ele>737.0</ele><time>2026-05-03T16:25:16.999Z</time></trkpt><trkpt lat="44.00276940813225" lon="5.602552729658516"><ele>737.0</ele><time>2026-05-03T16:25:17.999Z</time></trkpt><trkpt lat="44.00268047278729" lon="5.602581295489792"><ele>737.0</ele><time>2026-05-03T16:25:18.999Z</time></trkpt><trkpt lat="44.00259353377461" lon="5.602607113109815"><ele>737.0</ele><time>2026-05-03T16:25:19.999Z</time></trkpt><trkpt lat="44.00251160368611" lon="5.602628895580266"><ele>737.0</ele><time>2026-05-03T16:25:20.999Z</time></trkpt><trkpt lat="44.00242911789693" lon="5.602650825793432"><ele>737.0</ele><time>2026-05-03T16:25:21.999Z</time></trkpt><trkpt lat="44.002344301954615" lon="5.602673375497333"><ele>737.0</ele><time>2026-05-03T16:25:22.999Z</time></trkpt><trkpt lat="44.00225994010641" lon="5.602718823915373"><ele>735.6666666666666</ele><time>2026-05-03T16:25:23.999Z</time></trkpt><trkpt lat="44.002181628074986" lon="5.602737674334579"><ele>734.3333333333333</ele><time>2026-05-03T16:25:24.999Z</time></trkpt><trkpt lat="44.002097443090086" lon="5.602760374014231"><ele>733.0</ele><time>2026-05-03T16:25:25.999Z</time></trkpt><trkpt lat="44.00200528473966" lon="5.60276148831219"><ele>731.6666666666666</ele><time>2026-05-03T16:25:26.999Z</time></trkpt><trkpt lat="44.00192905054413" lon="5.602779512596651"><ele>730.3333333333334</ele><time>2026-05-03T16:25:27.999Z</time></trkpt><trkpt lat="44.00186167790685" lon="5.602807334181998"><ele>729.0</ele><time>2026-05-03T16:25:28.999Z</time></trkpt><trkpt lat="44.00178187688573" lon="5.60282282814913"><ele>728.3333333333334</ele><time>2026-05-03T16:25:29.999Z</time></trkpt><trkpt lat="44.00170544113397" lon="5.602834815631355"><ele>727.6666666666666</ele><time>2026-05-03T16:25:30.999Z</time></trkpt><trkpt lat="44.00161709336636" lon="5.60285244003099"><ele>727.0</ele><time>2026-05-03T16:25:31.999Z</time></trkpt><trkpt lat="44.00153085406176" lon="5.602862354799689"><ele>726.3333333333333</ele><time>2026-05-03T16:25:32.999Z</time></trkpt><trkpt lat="44.00145349556304" lon="5.602852332851663"><ele>725.6666666666666</ele><time>2026-05-03T16:25:33.999Z</time></trkpt><trkpt lat="44.00137541479397" lon="5.602878725548201"><ele>725.0</ele><time>2026-05-03T16:25:34.999Z</time></trkpt><trkpt lat="44.001296691388056" lon="5.602905315177492"><ele>723.2</ele><time>2026-05-03T16:25:35.999Z</time></trkpt><trkpt lat="44.001211105746556" lon="5.602946812427929"><ele>721.4</ele><time>2026-05-03T16:25:36.999Z</time></trkpt><trkpt lat="44.001120243336246" lon="5.602989359825725"><ele>719.5999999999999</ele><time>2026-05-03T16:25:37.999Z</time></trkpt><trkpt lat="44.00102719001553" lon="5.603028935965217"><ele>717.8</ele><time>2026-05-03T16:25:38.999Z</time></trkpt><trkpt lat="44.00094137457285" lon="5.603042890822665"><ele>716.0</ele><time>2026-05-03T16:25:39.999Z</time></trkpt><trkpt lat="44.00085846980441" lon="5.603085508892963"><ele>714.1666666666666</ele><time>2026-05-03T16:25:40.999Z</time></trkpt><trkpt lat="44.00078965619435" lon="5.603131157712877"><ele>712.3333333333333</ele><time>2026-05-03T16:25:41.999Z</time></trkpt><trkpt lat="44.00072240299815" lon="5.603161656989826"><ele>710.5</ele><time>2026-05-03T16:25:42.999Z</time></trkpt><trkpt lat="44.00064410773366" lon="5.603205978315957"><ele>708.6666666666666</ele><time>2026-05-03T16:25:43.999Z</time></trkpt><trkpt lat="44.00055282390572" lon="5.603258308462488"><ele>706.8333333333334</ele><time>2026-05-03T16:25:44.999Z</time></trkpt><trkpt lat="44.00045242680844" lon="5.603307265210374"><ele>705.0</ele><time>2026-05-03T16:25:45.999Z</time></trkpt><trkpt lat="44.00035458116445" lon="5.603364372363425"><ele>705.0</ele><time>2026-05-03T16:25:46.999Z</time></trkpt><trkpt lat="44.00026524050455" lon="5.603383855483385"><ele>705.0</ele><time>2026-05-03T16:25:47.999Z</time></trkpt><trkpt lat="44.00018269381265" lon="5.603404597272818"><ele>705.0</ele><time>2026-05-03T16:25:48.999Z</time></trkpt><trkpt lat="44.00011217519302" lon="5.603424590947719"><ele>705.0</ele><time>2026-05-03T16:25:49.999Z</time></trkpt><trkpt lat="44.0000436153428" lon="5.603446448642371"><ele>705.0</ele><time>2026-05-03T16:25:50.999Z</time></trkpt><trkpt lat="43.99997994574747" lon="5.603466930093671"><ele>705.0</ele><time>2026-05-03T16:25:51.999Z</time></trkpt><trkpt lat="43.99988999936852" lon="5.603524822375884"><ele>705.0</ele><time>2026-05-03T16:25:53.999Z</time></trkpt><trkpt lat="43.99981788094354" lon="5.603556567325173"><ele>705.0</ele><time>2026-05-03T16:25:55.999Z</time></trkpt><trkpt lat="43.99975503768575" lon="5.603625733856403"><ele>705.0</ele><time>2026-05-03T16:25:57.999Z</time></trkpt><trkpt lat="43.99972516916339" lon="5.60372436059494"><ele>705.0</ele><time>2026-05-03T16:25:59.999Z</time></trkpt><trkpt lat="43.9996977872928" lon="5.60380813095504"><ele>705.0</ele><time>2026-05-03T16:26:01.999Z</time></trkpt><trkpt lat="43.999684518070474" lon="5.603912986310615"><ele>705.0</ele><time>2026-05-03T16:26:04.999Z</time></trkpt><trkpt lat="43.99959575730477" lon="5.603815406391521"><ele>705.0</ele><time>2026-05-03T16:26:12.998Z</time></trkpt><trkpt lat="43.99967923259828" lon="5.603773696009732"><ele>705.0</ele><time>2026-05-03T16:26:14.998Z</time></trkpt><trkpt lat="43.99954194605695" lon="5.60357608747587"><ele>705.0</ele><time>2026-05-03T16:26:15.998Z</time></trkpt><trkpt lat="43.99951924694216" lon="5.603485220483373"><ele>705.0</ele><time>2026-05-03T16:26:16.998Z</time></trkpt><trkpt lat="43.99949911551112" lon="5.603402109509982"><ele>705.0</ele><time>2026-05-03T16:26:17.998Z</time></trkpt><trkpt lat="43.99948425699894" lon="5.603254183275057"><ele>705.0</ele><time>2026-05-03T16:26:19.998Z</time></trkpt><trkpt lat="43.999481573738024" lon="5.603155230072768"><ele>705.0</ele><time>2026-05-03T16:26:20.998Z</time></trkpt><trkpt lat="43.99947349907666" lon="5.603031643722122"><ele>705.0</ele><time>2026-05-03T16:26:22.998Z</time></trkpt><trkpt lat="43.99942828582354" lon="5.602892961355325"><ele>705.0</ele><time>2026-05-03T16:26:24.998Z</time></trkpt><trkpt lat="43.999417574162" lon="5.602766286462999"><ele>705.0</ele><time>2026-05-03T16:26:25.998Z</time></trkpt><trkpt lat="43.9993966599961" lon="5.602635090062273"><ele>706.2</ele><time>2026-05-03T16:26:26.998Z</time></trkpt><trkpt lat="43.99937215080373" lon="5.602525426753889"><ele>707.4</ele><time>2026-05-03T16:26:28Z</time></trkpt><trkpt lat="43.99933595458115" lon="5.602444054868057"><ele>708.5999999999999</ele><time>2026-05-03T16:26:30Z</time></trkpt><trkpt lat="43.99927844367336" lon="5.602482748652254"><ele>709.8</ele><time>2026-05-03T16:26:35Z</time></trkpt><trkpt lat="43.99933332842675" lon="5.60257313674924"><ele>711.0</ele><time>2026-05-03T16:26:38Z</time></trkpt><trkpt lat="43.99942846526151" lon="5.602776363946553"><ele>710.0</ele><time>2026-05-03T16:26:44Z</time></trkpt><trkpt lat="43.99943225258053" lon="5.6028866863693905"><ele>709.0</ele><time>2026-05-03T16:26:45Z</time></trkpt><trkpt lat="43.99944313859932" lon="5.603003319076479"><ele>708.0</ele><time>2026-05-03T16:26:47Z</time></trkpt><trkpt lat="43.999486363076876" lon="5.603091397267037"><ele>707.0</ele><time>2026-05-03T16:26:49Z</time></trkpt><trkpt lat="43.99949477742787" lon="5.603184845932817"><ele>706.0</ele><time>2026-05-03T16:26:50Z</time></trkpt><trkpt lat="43.99948366960363" lon="5.603289150657225"><ele>705.0</ele><time>2026-05-03T16:26:51Z</time></trkpt><trkpt lat="43.99949914462228" lon="5.603413214983095"><ele>705.0</ele><time>2026-05-03T16:26:53Z</time></trkpt><trkpt lat="43.99954550698794" lon="5.603592234541149"><ele>705.0</ele><time>2026-05-03T16:26:55Z</time></trkpt><trkpt lat="43.99956984145861" lon="5.603705438278431"><ele>705.0</ele><time>2026-05-03T16:26:56Z</time></trkpt><trkpt lat="43.99959384207949" lon="5.603806234699189"><ele>705.0</ele><time>2026-05-03T16:26:57Z</time></trkpt><trkpt lat="43.99964411632204" lon="5.603901220542676"><ele>705.0</ele><time>2026-05-03T16:26:59Z</time></trkpt><trkpt lat="43.999698275443905" lon="5.60400527359451"><ele>703.25</ele><time>2026-05-03T16:27:02Z</time></trkpt><trkpt lat="43.99969677258514" lon="5.604168174968744"><ele>701.5</ele><time>2026-05-03T16:27:04Z</time></trkpt><trkpt lat="43.99971228987591" lon="5.60427181623357"><ele>699.75</ele><time>2026-05-03T16:27:05Z</time></trkpt><trkpt lat="43.99974830552314" lon="5.604423191128979"><ele>698.0</ele><time>2026-05-03T16:27:07Z</time></trkpt><trkpt lat="43.9998190049616" lon="5.604603066767134"><ele>696.6666666666666</ele><time>2026-05-03T16:27:09Z</time></trkpt><trkpt lat="43.99984141494483" lon="5.604727393076852"><ele>695.3333333333333</ele><time>2026-05-03T16:27:10Z</time></trkpt><trkpt lat="43.99988126507409" lon="5.604807284562047"><ele>694.0</ele><time>2026-05-03T16:27:11Z</time></trkpt><trkpt lat="43.99992155278021" lon="5.604931156019059"><ele>692.6666666666666</ele><time>2026-05-03T16:27:12.999Z</time></trkpt><trkpt lat="43.99996678675209" lon="5.605002884168354"><ele>691.3333333333334</ele><time>2026-05-03T16:27:13.999Z</time></trkpt><trkpt lat="44.000030971113" lon="5.605072179659558"><ele>690.0</ele><time>2026-05-03T16:27:14.999Z</time></trkpt><trkpt lat="44.00007224563469" lon="5.605157555549704"><ele>690.0</ele><time>2026-05-03T16:27:15.999Z</time></trkpt><trkpt lat="44.00011960497454" lon="5.605308876237623"><ele>690.0</ele><time>2026-05-03T16:27:17.999Z</time></trkpt><trkpt lat="44.00013524425681" lon="5.605453855747033"><ele>690.0</ele><time>2026-05-03T16:27:19.999Z</time></trkpt><trkpt lat="44.000167292680146" lon="5.605559012029798"><ele>690.0</ele><time>2026-05-03T16:27:21.999Z</time></trkpt><trkpt lat="44.00016625502197" lon="5.605654338450736"><ele>690.0</ele><time>2026-05-03T16:27:23.999Z</time></trkpt><trkpt lat="44.00009545059235" lon="5.605730768541002"><ele>689.0</ele><time>2026-05-03T16:27:27.999Z</time></trkpt><trkpt lat="43.99998613972748" lon="5.605648785423077"><ele>688.0</ele><time>2026-05-03T16:27:29.999Z</time></trkpt><trkpt lat="43.99992707117912" lon="5.605604483990561"><ele>687.0</ele><time>2026-05-03T16:27:30.999Z</time></trkpt><trkpt lat="43.99986262593409" lon="5.605556150081922"><ele>686.0</ele><time>2026-05-03T16:27:31.999Z</time></trkpt><trkpt lat="43.99979673799052" lon="5.6055067340277995"><ele>685.0</ele><time>2026-05-03T16:27:32.999Z</time></trkpt><trkpt lat="43.99972319993447" lon="5.605456059017954"><ele>684.0</ele><time>2026-05-03T16:27:33.999Z</time></trkpt><trkpt lat="43.99965630595757" lon="5.605410208863607"><ele>684.0</ele><time>2026-05-03T16:27:34.999Z</time></trkpt><trkpt lat="43.99958438351377" lon="5.605366989661825"><ele>684.0</ele><time>2026-05-03T16:27:35.999Z</time></trkpt><trkpt lat="43.999524981570886" lon="5.605332541871286"><ele>684.0</ele><time>2026-05-03T16:27:36.999Z</time></trkpt><trkpt lat="43.999452885036845" lon="5.6052927790910845"><ele>684.0</ele><time>2026-05-03T16:27:37.999Z</time></trkpt><trkpt lat="43.99935636529578" lon="5.605240812160189"><ele>684.0</ele><time>2026-05-03T16:27:38.999Z</time></trkpt><trkpt lat="43.99921214787126" lon="5.605164048671653"><ele>684.0</ele><time>2026-05-03T16:27:39.999Z</time></trkpt><trkpt lat="43.999089775880975" lon="5.605096989653862"><ele>684.0</ele><time>2026-05-03T16:27:40.999Z</time></trkpt><trkpt lat="43.998986054863245" lon="5.605039405595012"><ele>684.0</ele><time>2026-05-03T16:27:41.999Z</time></trkpt><trkpt lat="43.99887305907406" lon="5.604976672409444"><ele>684.0</ele><time>2026-05-03T16:27:42.999Z</time></trkpt><trkpt lat="43.99873053418935" lon="5.604904923704323"><ele>684.0</ele><time>2026-05-03T16:27:43.999Z</time></trkpt><trkpt lat="43.998582363582386" lon="5.604823813289403"><ele>684.0</ele><time>2026-05-03T16:27:44.999Z</time></trkpt><trkpt lat="43.99845962658778" lon="5.604746754735932"><ele>684.0</ele><time>2026-05-03T16:27:45.999Z</time></trkpt><trkpt lat="43.998326534545704" lon="5.604656454268559"><ele>684.0</ele><time>2026-05-03T16:27:46.999Z</time></trkpt><trkpt lat="43.99818218546895" lon="5.604544914775075"><ele>683.75</ele><time>2026-05-03T16:27:47.999Z</time></trkpt><trkpt lat="43.99804512372216" lon="5.604426103293131"><ele>683.5</ele><time>2026-05-03T16:27:48.999Z</time></trkpt><trkpt lat="43.9979324880422" lon="5.604326379341244"><ele>683.25</ele><time>2026-05-03T16:27:49.999Z</time></trkpt><trkpt lat="43.997811640294564" lon="5.604222045304224"><ele>683.0</ele><time>2026-05-03T16:27:50.999Z</time></trkpt><trkpt lat="43.99770030640356" lon="5.6041419508307175"><ele>683.0</ele><time>2026-05-03T16:27:51.999Z</time></trkpt><trkpt lat="43.99759288996039" lon="5.6040766736131165"><ele>683.0</ele><time>2026-05-03T16:27:52.999Z</time></trkpt><trkpt lat="43.9975051592933" lon="5.6040297032335"><ele>683.0</ele><time>2026-05-03T16:27:53.999Z</time></trkpt><trkpt lat="43.99742143491325" lon="5.603986392264927"><ele>683.0</ele><time>2026-05-03T16:27:54.999Z</time></trkpt><trkpt lat="43.99733770165498" lon="5.603946728692907"><ele>683.0</ele><time>2026-05-03T16:27:55.999Z</time></trkpt><trkpt lat="43.99722659513448" lon="5.603890856745807"><ele>682.25</ele><time>2026-05-03T16:27:56.999Z</time></trkpt><trkpt lat="43.99711836264009" lon="5.603835916816637"><ele>681.5</ele><time>2026-05-03T16:27:57.999Z</time></trkpt><trkpt lat="43.99700632568297" lon="5.60377643358498"><ele>680.75</ele><time>2026-05-03T16:27:58.999Z</time></trkpt><trkpt lat="43.996895841519525" lon="5.6037160301498306"><ele>680.0</ele><time>2026-05-03T16:27:59.999Z</time></trkpt><trkpt lat="43.996791819234325" lon="5.603659159532251"><ele>680.0</ele><time>2026-05-03T16:28:00.999Z</time></trkpt><trkpt lat="43.996674671556114" lon="5.603597815209988"><ele>680.0</ele><time>2026-05-03T16:28:01.999Z</time></trkpt><trkpt lat="43.996558490460366" lon="5.603545131433216"><ele>680.0</ele><time>2026-05-03T16:28:02.999Z</time></trkpt><trkpt lat="43.996469392804585" lon="5.603513295809878"><ele>680.0</ele><time>2026-05-03T16:28:03.999Z</time></trkpt><trkpt lat="43.99636584112915" lon="5.6034878022370105"><ele>680.0</ele><time>2026-05-03T16:28:04.999Z</time></trkpt><trkpt lat="43.99624430542094" lon="5.603462445544832"><ele>678.0</ele><time>2026-05-03T16:28:05.999Z</time></trkpt><trkpt lat="43.99612942689149" lon="5.603440763301112"><ele>676.0</ele><time>2026-05-03T16:28:06.999Z</time></trkpt><trkpt lat="43.99602550101098" lon="5.603426925943449"><ele>674.0</ele><time>2026-05-03T16:28:07.999Z</time></trkpt><trkpt lat="43.995898812587726" lon="5.603406502936729"><ele>672.0</ele><time>2026-05-03T16:28:08.999Z</time></trkpt><trkpt lat="43.995780117558425" lon="5.60338415638035"><ele>671.1666666666666</ele><time>2026-05-03T16:28:09.999Z</time></trkpt><trkpt lat="43.99567643096407" lon="5.603352441065136"><ele>670.3333333333334</ele><time>2026-05-03T16:28:10.999Z</time></trkpt><trkpt lat="43.99559750786975" lon="5.603320186396455"><ele>669.5</ele><time>2026-05-03T16:28:11.999Z</time></trkpt><trkpt lat="43.99552572608568" lon="5.603284992298227"><ele>668.6666666666667</ele><time>2026-05-03T16:28:12.999Z</time></trkpt><trkpt lat="43.9954632034142" lon="5.6032501571419795"><ele>667.8333333333334</ele><time>2026-05-03T16:28:13.998Z</time></trkpt><trkpt lat="43.99540520195189" lon="5.603196142880693"><ele>667.0</ele><time>2026-05-03T16:28:15.998Z</time></trkpt><trkpt lat="43.99561722490655" lon="5.602453314637357"><ele>666.7142857142858</ele><time>2026-05-03T16:28:17.998Z</time></trkpt><trkpt lat="43.99564228916274" lon="5.602362013097919"><ele>666.4285714285714</ele><time>2026-05-03T16:28:18.998Z</time></trkpt><trkpt lat="43.99568160910498" lon="5.602273707543133"><ele>666.1428571428571</ele><time>2026-05-03T16:28:19.998Z</time></trkpt><trkpt lat="43.99573125035567" lon="5.6022091111116135"><ele>665.8571428571429</ele><time>2026-05-03T16:28:20.998Z</time></trkpt><trkpt lat="43.99579541146587" lon="5.6021320979258995"><ele>665.5714285714286</ele><time>2026-05-03T16:28:21.998Z</time></trkpt><trkpt lat="43.99586000100045" lon="5.602084467062341"><ele>665.2857142857143</ele><time>2026-05-03T16:28:22.998Z</time></trkpt><trkpt lat="43.995922803061795" lon="5.602038799431642"><ele>665.0</ele><time>2026-05-03T16:28:23.998Z</time></trkpt><trkpt lat="43.99597997261388" lon="5.601969546874777"><ele>665.3333333333333</ele><time>2026-05-03T16:28:25.998Z</time></trkpt><trkpt lat="43.9959504226742" lon="5.601890481765563"><ele>665.6666666666666</ele><time>2026-05-03T16:28:27.998Z</time></trkpt><trkpt lat="43.99587978071339" lon="5.601895020200028"><ele>666.0</ele><time>2026-05-03T16:28:41Z</time></trkpt><trkpt lat="43.99577021088593" lon="5.60187381383582"><ele>666.3333333333334</ele><time>2026-05-03T16:28:43Z</time></trkpt><trkpt lat="43.99565921318069" lon="5.601855806428013"><ele>666.6666666666667</ele><time>2026-05-03T16:28:45Z</time></trkpt><trkpt lat="43.995586531619196" lon="5.601837851783008"><ele>667.0</ele><time>2026-05-03T16:28:46Z</time></trkpt><trkpt lat="43.995517604907924" lon="5.6018145262446986"><ele>667.0</ele><time>2026-05-03T16:28:47Z</time></trkpt><trkpt lat="43.99543925042312" lon="5.601797144073587"><ele>667.0</ele><time>2026-05-03T16:28:48Z</time></trkpt><trkpt lat="43.995364858915934" lon="5.601767971921892"><ele>667.0</ele><time>2026-05-03T16:28:49Z</time></trkpt><trkpt lat="43.99528100183427" lon="5.601743372438386"><ele>667.0</ele><time>2026-05-03T16:28:50Z</time></trkpt><trkpt lat="43.99519819947367" lon="5.601706025429838"><ele>667.0</ele><time>2026-05-03T16:28:51Z</time></trkpt><trkpt lat="43.99512131720218" lon="5.601659167520602"><ele>667.0</ele><time>2026-05-03T16:28:52Z</time></trkpt><trkpt lat="43.9950301344508" lon="5.601607006844435"><ele>666.2</ele><time>2026-05-03T16:28:53Z</time></trkpt><trkpt lat="43.99493317896567" lon="5.601548006709168"><ele>665.4000000000001</ele><time>2026-05-03T16:28:54Z</time></trkpt><trkpt lat="43.99484208492284" lon="5.601496213631748"><ele>664.5999999999999</ele><time>2026-05-03T16:28:55Z</time></trkpt><trkpt lat="43.994755747228375" lon="5.6014272588462495"><ele>663.8</ele><time>2026-05-03T16:28:56Z</time></trkpt><trkpt lat="43.99465578984796" lon="5.60135059790692"><ele>663.0</ele><time>2026-05-03T16:28:57Z</time></trkpt><trkpt lat="43.994566145768744" lon="5.601276333067563"><ele>663.0</ele><time>2026-05-03T16:28:58Z</time></trkpt><trkpt lat="43.994483601926966" lon="5.6011953254348"><ele>663.0</ele><time>2026-05-03T16:28:59Z</time></trkpt><trkpt lat="43.99440423923928" lon="5.6011103382577065"><ele>663.0</ele><time>2026-05-03T16:29:00Z</time></trkpt><trkpt lat="43.9943202916807" lon="5.601020859143804"><ele>663.0</ele><time>2026-05-03T16:29:01Z</time></trkpt><trkpt lat="43.994226543044796" lon="5.6009210802453495"><ele>663.0</ele><time>2026-05-03T16:29:02Z</time></trkpt><trkpt lat="43.99413856348224" lon="5.600835119668992"><ele>661.8333333333334</ele><time>2026-05-03T16:29:03Z</time></trkpt><trkpt lat="43.99406806552373" lon="5.600756640072824"><ele>660.6666666666666</ele><time>2026-05-03T16:29:04Z</time></trkpt><trkpt lat="43.99401712900983" lon="5.600681277144109"><ele>659.5</ele><time>2026-05-03T16:29:05Z</time></trkpt><trkpt lat="43.99395240369442" lon="5.600610981357222"><ele>658.3333333333333</ele><time>2026-05-03T16:29:06Z</time></trkpt><trkpt lat="43.99389304158661" lon="5.600527562762813"><ele>657.1666666666666</ele><time>2026-05-03T16:29:07Z</time></trkpt><trkpt lat="43.99382375259284" lon="5.600442693520046"><ele>656.0</ele><time>2026-05-03T16:29:08Z</time></trkpt><trkpt lat="43.99374545175507" lon="5.600341330581701"><ele>656.5999999999999</ele><time>2026-05-03T16:29:09Z</time></trkpt><trkpt lat="43.993678674283956" lon="5.600255303322078"><ele>657.2</ele><time>2026-05-03T16:29:10Z</time></trkpt><trkpt lat="43.99363321950692" lon="5.600192839434891"><ele>657.8</ele><time>2026-05-03T16:29:11Z</time></trkpt><trkpt lat="43.99357705884807" lon="5.600118756472116"><ele>658.4000000000001</ele><time>2026-05-03T16:29:13Z</time></trkpt><trkpt lat="43.993476047638836" lon="5.600016221253446"><ele>659.0</ele><time>2026-05-03T16:29:16Z</time></trkpt><trkpt lat="43.99336675847304" lon="5.59995431629076"><ele>656.4000000000001</ele><time>2026-05-03T16:29:17.999Z</time></trkpt><trkpt lat="43.99329545240024" lon="5.599897893455898"><ele>653.8</ele><time>2026-05-03T16:29:18.999Z</time></trkpt><trkpt lat="43.99316524992629" lon="5.59987403190213"><ele>651.2</ele><time>2026-05-03T16:29:20.999Z</time></trkpt><trkpt lat="43.993091264761084" lon="5.599850313734597"><ele>648.5999999999999</ele><time>2026-05-03T16:29:21.999Z</time></trkpt><trkpt lat="43.99301259083738" lon="5.599809855269551"><ele>646.0</ele><time>2026-05-03T16:29:22.999Z</time></trkpt><trkpt lat="43.99293347502994" lon="5.5997855017852665"><ele>646.0</ele><time>2026-05-03T16:29:23.999Z</time></trkpt><trkpt lat="43.9928691401373" lon="5.59976040732743"><ele>646.0</ele><time>2026-05-03T16:29:24.999Z</time></trkpt><trkpt lat="43.99274218829063" lon="5.599990896618261"><ele>646.0</ele><time>2026-05-03T16:29:25.999Z</time></trkpt><trkpt lat="43.992651805770265" lon="5.599940464601202"><ele>646.0</ele><time>2026-05-03T16:29:27.999Z</time></trkpt><trkpt lat="43.992577573443484" lon="5.599899044165089"><ele>643.5999999999999</ele><time>2026-05-03T16:29:29.999Z</time></trkpt><trkpt lat="43.99249876822258" lon="5.599854616110014"><ele>641.1999999999999</ele><time>2026-05-03T16:29:31.999Z</time></trkpt><trkpt lat="43.99239226028903" lon="5.5997928027845125"><ele>638.8</ele><time>2026-05-03T16:29:33.999Z</time></trkpt><trkpt lat="43.992299275384674" lon="5.5997388376754"><ele>636.4</ele><time>2026-05-03T16:29:35.999Z</time></trkpt><trkpt lat="43.992212656054484" lon="5.599687802364587"><ele>634.0</ele><time>2026-05-03T16:29:37.999Z</time></trkpt><trkpt lat="43.992137534308355" lon="5.599642422718966"><ele>634.0</ele><time>2026-05-03T16:29:39.999Z</time></trkpt><trkpt lat="43.99207648920337" lon="5.599601656769613"><ele>634.0</ele><time>2026-05-03T16:29:41.999Z</time></trkpt><trkpt lat="43.99202276467863" lon="5.599386598183902"><ele>634.0</ele><time>2026-05-03T16:29:45.999Z</time></trkpt><trkpt lat="43.99210121742186" lon="5.599591782842822"><ele>634.0</ele><time>2026-05-03T16:29:46.999Z</time></trkpt><trkpt lat="43.992037048810154" lon="5.5996376298646915"><ele>634.0</ele><time>2026-05-03T16:29:51.999Z</time></trkpt><trkpt lat="43.991996071429746" lon="5.599570923111739"><ele>634.0</ele><time>2026-05-03T16:29:52.999Z</time></trkpt><trkpt lat="43.99197029057399" lon="5.599490734100755"><ele>634.0</ele><time>2026-05-03T16:29:53.999Z</time></trkpt><trkpt lat="43.99199473097006" lon="5.599364303935476"><ele>634.0</ele><time>2026-05-03T16:29:55.999Z</time></trkpt><trkpt lat="43.99209663813786" lon="5.5992761017520145"><ele>634.0</ele><time>2026-05-03T16:29:57.999Z</time></trkpt><trkpt lat="43.992162639562736" lon="5.599247779863125"><ele>634.0</ele><time>2026-05-03T16:29:58.999Z</time></trkpt><trkpt lat="43.99223015103208" lon="5.5992122373147115"><ele>633.1666666666667</ele><time>2026-05-03T16:29:59.999Z</time></trkpt><trkpt lat="43.992300604241706" lon="5.5991874772997425"><ele>632.3333333333334</ele><time>2026-05-03T16:30:00.999Z</time></trkpt><trkpt lat="43.99236547631804" lon="5.599132076606211"><ele>631.5</ele><time>2026-05-03T16:30:01.999Z</time></trkpt><trkpt lat="43.992435011584575" lon="5.599104725395312"><ele>630.6666666666666</ele><time>2026-05-03T16:30:02.999Z</time></trkpt><trkpt lat="43.99250535267434" lon="5.599066345678225"><ele>629.8333333333333</ele><time>2026-05-03T16:30:03.999Z</time></trkpt><trkpt lat="43.992579033906445" lon="5.599041371307227"><ele>629.0</ele><time>2026-05-03T16:30:04.999Z</time></trkpt><trkpt lat="43.992654423592974" lon="5.599011599909158"><ele>630.6666666666666</ele><time>2026-05-03T16:30:05.999Z</time></trkpt><trkpt lat="43.992729580047204" lon="5.598975769433818"><ele>632.3333333333333</ele><time>2026-05-03T16:30:06.999Z</time></trkpt><trkpt lat="43.99280168445591" lon="5.598945759160776"><ele>634.0</ele><time>2026-05-03T16:30:07.999Z</time></trkpt><trkpt lat="43.99287527397895" lon="5.598889230942465"><ele>635.6666666666666</ele><time>2026-05-03T16:30:08.999Z</time></trkpt><trkpt lat="43.99294435168969" lon="5.598840911035447"><ele>637.3333333333334</ele><time>2026-05-03T16:30:09.999Z</time></trkpt><trkpt lat="43.993012708381876" lon="5.5987878576587775"><ele>639.0</ele><time>2026-05-03T16:30:10.999Z</time></trkpt><trkpt lat="43.993076168476584" lon="5.598725290885105"><ele>638.6666666666666</ele><time>2026-05-03T16:30:11.999Z</time></trkpt><trkpt lat="43.993140868985705" lon="5.598654384868097"><ele>638.3333333333334</ele><time>2026-05-03T16:30:12.999Z</time></trkpt><trkpt lat="43.993211914088505" lon="5.598586558854755"><ele>638.0</ele><time>2026-05-03T16:30:13.999Z</time></trkpt><trkpt lat="43.99328755371126" lon="5.598524044184869"><ele>637.6666666666667</ele><time>2026-05-03T16:30:14.999Z</time></trkpt><trkpt lat="43.99336260679307" lon="5.598464245214197"><ele>637.3333333333334</ele><time>2026-05-03T16:30:15.999Z</time></trkpt><trkpt lat="43.99343428642912" lon="5.598402430960082"><ele>637.0</ele><time>2026-05-03T16:30:16.999Z</time></trkpt><trkpt lat="43.99350437029725" lon="5.598340158740749"><ele>637.0</ele><time>2026-05-03T16:30:17.999Z</time></trkpt><trkpt lat="43.99357563030634" lon="5.598282475560606"><ele>637.0</ele><time>2026-05-03T16:30:18.999Z</time></trkpt><trkpt lat="43.99365123919003" lon="5.598211140340005"><ele>637.0</ele><time>2026-05-03T16:30:19.999Z</time></trkpt><trkpt lat="43.993715840704134" lon="5.598134514349655"><ele>637.0</ele><time>2026-05-03T16:30:20.999Z</time></trkpt><trkpt lat="43.993782407039674" lon="5.598047794218218"><ele>637.0</ele><time>2026-05-03T16:30:21.999Z</time></trkpt><trkpt lat="43.99384196842172" lon="5.597958228405473"><ele>637.0</ele><time>2026-05-03T16:30:22.999Z</time></trkpt><trkpt lat="43.99390911805474" lon="5.597862282908955"><ele>635.8333333333334</ele><time>2026-05-03T16:30:23.998Z</time></trkpt><trkpt lat="43.99397975438736" lon="5.597774417183569"><ele>634.6666666666667</ele><time>2026-05-03T16:30:24.998Z</time></trkpt><trkpt lat="43.99404334719119" lon="5.597688336749202"><ele>633.5</ele><time>2026-05-03T16:30:25.998Z</time></trkpt><trkpt lat="43.994108199508894" lon="5.597601088856209"><ele>632.3333333333334</ele><time>2026-05-03T16:30:26.998Z</time></trkpt><trkpt lat="43.99417222536931" lon="5.59752559118861"><ele>631.1666666666666</ele><time>2026-05-03T16:30:27.998Z</time></trkpt><trkpt lat="43.99423915694984" lon="5.59744263493515"><ele>630.0</ele><time>2026-05-03T16:30:28.998Z</time></trkpt><trkpt lat="43.99430943409032" lon="5.597360698600139"><ele>630.0</ele><time>2026-05-03T16:30:29.998Z</time></trkpt><trkpt lat="43.99437618178913" lon="5.597274366041645"><ele>630.0</ele><time>2026-05-03T16:30:30.998Z</time></trkpt><trkpt lat="43.99443972897487" lon="5.59718895935508"><ele>630.0</ele><time>2026-05-03T16:30:31.998Z</time></trkpt><trkpt lat="43.9945100148005" lon="5.597112503423147"><ele>630.0</ele><time>2026-05-03T16:30:32.998Z</time></trkpt><trkpt lat="43.99457968949568" lon="5.5970227717279695"><ele>630.0</ele><time>2026-05-03T16:30:33.998Z</time></trkpt><trkpt lat="43.99464553161497" lon="5.596938798542918"><ele>627.0</ele><time>2026-05-03T16:30:34.998Z</time></trkpt><trkpt lat="43.9947173433247" lon="5.596850982340466"><ele>624.0</ele><time>2026-05-03T16:30:35.998Z</time></trkpt><trkpt lat="43.994788412276655" lon="5.596769274948166"><ele>621.0</ele><time>2026-05-03T16:30:36.998Z</time></trkpt><trkpt lat="43.99485672101912" lon="5.596690616004158"><ele>618.0</ele><time>2026-05-03T16:30:37.998Z</time></trkpt><trkpt lat="43.994923336693155" lon="5.596610219464555"><ele>615.0</ele><time>2026-05-03T16:30:38.998Z</time></trkpt><trkpt lat="43.9949838909044" lon="5.596526224331458"><ele>615.0</ele><time>2026-05-03T16:30:40Z</time></trkpt><trkpt lat="43.99503348660328" lon="5.596427715939754"><ele>615.0</ele><time>2026-05-03T16:30:41Z</time></trkpt><trkpt lat="43.99506681162128" lon="5.596316389295707"><ele>615.0</ele><time>2026-05-03T16:30:42Z</time></trkpt><trkpt lat="43.995077139489005" lon="5.596201696769173"><ele>615.0</ele><time>2026-05-03T16:30:43Z</time></trkpt><trkpt lat="43.995056483851464" lon="5.596078173276161"><ele>615.0</ele><time>2026-05-03T16:30:44Z</time></trkpt><trkpt lat="43.995022755204396" lon="5.595973693590682"><ele>615.0</ele><time>2026-05-03T16:30:45Z</time></trkpt><trkpt lat="43.99496129500106" lon="5.595861168796893"><ele>613.8</ele><time>2026-05-03T16:30:46Z</time></trkpt><trkpt lat="43.99489204345461" lon="5.595756718402851"><ele>612.6</ele><time>2026-05-03T16:30:47Z</time></trkpt><trkpt lat="43.994828266360535" lon="5.59566235477083"><ele>611.4</ele><time>2026-05-03T16:30:48Z</time></trkpt><trkpt lat="43.99476294435542" lon="5.595559377067793"><ele>610.2</ele><time>2026-05-03T16:30:49Z</time></trkpt><trkpt lat="43.99469930358409" lon="5.595464192726693"><ele>609.0</ele><time>2026-05-03T16:30:50Z</time></trkpt><trkpt lat="43.994640025359885" lon="5.595368476615549"><ele>608.4</ele><time>2026-05-03T16:30:51Z</time></trkpt><trkpt lat="43.994576464551415" lon="5.595269332500858"><ele>607.8</ele><time>2026-05-03T16:30:52Z</time></trkpt><trkpt lat="43.994510780817706" lon="5.595172458633808"><ele>607.2</ele><time>2026-05-03T16:30:53Z</time></trkpt><trkpt lat="43.994450678315516" lon="5.595083690976405"><ele>606.6</ele><time>2026-05-03T16:30:54Z</time></trkpt><trkpt lat="43.99439080190169" lon="5.594983708659074"><ele>606.0</ele><time>2026-05-03T16:30:55Z</time></trkpt><trkpt lat="43.994335676775194" lon="5.594888836982954"><ele>606.0</ele><time>2026-05-03T16:30:56Z</time></trkpt><trkpt lat="43.99427027588538" lon="5.594795535194087"><ele>606.0</ele><time>2026-05-03T16:30:57Z</time></trkpt><trkpt lat="43.994201714403694" lon="5.59469785482475"><ele>606.0</ele><time>2026-05-03T16:30:58Z</time></trkpt><trkpt lat="43.99413923620269" lon="5.594599982971889"><ele>606.0</ele><time>2026-05-03T16:30:59Z</time></trkpt><trkpt lat="43.994063031436035" lon="5.5944898439093675"><ele>606.0</ele><time>2026-05-03T16:31:00Z</time></trkpt><trkpt lat="43.99398835887582" lon="5.594376329989832"><ele>605.5</ele><time>2026-05-03T16:31:01Z</time></trkpt><trkpt lat="43.99390746154962" lon="5.59425816662897"><ele>605.0</ele><time>2026-05-03T16:31:02Z</time></trkpt><trkpt lat="43.99382626420919" lon="5.594135156172148"><ele>604.5</ele><time>2026-05-03T16:31:03Z</time></trkpt><trkpt lat="43.993747842302156" lon="5.594011382355397"><ele>604.0</ele><time>2026-05-03T16:31:04Z</time></trkpt><trkpt lat="43.993656093749244" lon="5.593883534081853"><ele>604.0</ele><time>2026-05-03T16:31:05Z</time></trkpt><trkpt lat="43.99356677720598" lon="5.593748645986842"><ele>604.0</ele><time>2026-05-03T16:31:06Z</time></trkpt><trkpt lat="43.993474425568294" lon="5.593612297856345"><ele>604.0</ele><time>2026-05-03T16:31:07Z</time></trkpt><trkpt lat="43.993379954274396" lon="5.593479824161427"><ele>604.0</ele><time>2026-05-03T16:31:08Z</time></trkpt><trkpt lat="43.99329049265672" lon="5.593346309321699"><ele>604.5</ele><time>2026-05-03T16:31:09Z</time></trkpt><trkpt lat="43.99319686934705" lon="5.593213217692446"><ele>605.0</ele><time>2026-05-03T16:31:10Z</time></trkpt><trkpt lat="43.99311276175236" lon="5.593093930078323"><ele>605.5</ele><time>2026-05-03T16:31:11Z</time></trkpt><trkpt lat="43.9930409606668" lon="5.592990700687601"><ele>606.0</ele><time>2026-05-03T16:31:12Z</time></trkpt><trkpt lat="43.99296622457297" lon="5.592883792944143"><ele>606.3333333333334</ele><time>2026-05-03T16:31:13Z</time></trkpt><trkpt lat="43.99290713088191" lon="5.5927930585533865"><ele>606.6666666666666</ele><time>2026-05-03T16:31:14Z</time></trkpt><trkpt lat="43.992862462311564" lon="5.592721006518487"><ele>607.0</ele><time>2026-05-03T16:31:15Z</time></trkpt><trkpt lat="43.99283098318109" lon="5.592637280249308"><ele>607.3333333333333</ele><time>2026-05-03T16:31:17Z</time></trkpt><trkpt lat="43.99287533396633" lon="5.592568050645849"><ele>607.6666666666666</ele><time>2026-05-03T16:31:19Z</time></trkpt><trkpt lat="43.992949868043915" lon="5.592455649654721"><ele>608.0</ele><time>2026-05-03T16:31:20.999Z</time></trkpt><trkpt lat="43.993010625458915" lon="5.5923648676395725"><ele>608.0</ele><time>2026-05-03T16:31:22.999Z</time></trkpt><trkpt lat="43.992998796073564" lon="5.592247440636387"><ele>608.0</ele><time>2026-05-03T16:31:24.999Z</time></trkpt><trkpt lat="43.99299248395956" lon="5.5921061746425895"><ele>608.0</ele><time>2026-05-03T16:31:26.999Z</time></trkpt><trkpt lat="43.992955448759076" lon="5.59195515719395"><ele>608.0</ele><time>2026-05-03T16:31:28.999Z</time></trkpt><trkpt lat="43.99294793424402" lon="5.591839984194967"><ele>608.0</ele><time>2026-05-03T16:31:29.999Z</time></trkpt><trkpt lat="43.99294770406683" lon="5.591711728342401"><ele>608.6666666666666</ele><time>2026-05-03T16:31:30.999Z</time></trkpt><trkpt lat="43.99294694826226" lon="5.591588444903728"><ele>609.3333333333333</ele><time>2026-05-03T16:31:31.999Z</time></trkpt><trkpt lat="43.992976522562316" lon="5.591489548926608"><ele>610.0</ele><time>2026-05-03T16:31:32.999Z</time></trkpt><trkpt lat="43.99302284677283" lon="5.591411105465272"><ele>610.6666666666666</ele><time>2026-05-03T16:31:33.999Z</time></trkpt><trkpt lat="43.99306865252995" lon="5.591313862462398"><ele>611.3333333333334</ele><time>2026-05-03T16:31:34.999Z</time></trkpt><trkpt lat="43.99311290321805" lon="5.591222944269832"><ele>612.0</ele><time>2026-05-03T16:31:35.999Z</time></trkpt><trkpt lat="43.99315371954098" lon="5.591136084452054"><ele>612.1666666666666</ele><time>2026-05-03T16:31:36.999Z</time></trkpt><trkpt lat="43.99319232548627" lon="5.591054040203977"><ele>612.3333333333334</ele><time>2026-05-03T16:31:37.999Z</time></trkpt><trkpt lat="43.993243014360324" lon="5.590990429179454"><ele>612.5</ele><time>2026-05-03T16:31:38.999Z</time></trkpt><trkpt lat="43.99329567145545" lon="5.590941859708358"><ele>612.6666666666667</ele><time>2026-05-03T16:31:39.999Z</time></trkpt><trkpt lat="43.993398926828405" lon="5.590915557614909"><ele>612.8333333333334</ele><time>2026-05-03T16:31:41.999Z</time></trkpt><trkpt lat="43.99351274543349" lon="5.590896319835736"><ele>613.0</ele><time>2026-05-03T16:31:43.999Z</time></trkpt><trkpt lat="43.993579258135945" lon="5.590875565261973"><ele>613.6666666666667</ele><time>2026-05-03T16:31:44.999Z</time></trkpt><trkpt lat="43.99365707888991" lon="5.590845621233752"><ele>614.3333333333334</ele><time>2026-05-03T16:31:45.999Z</time></trkpt><trkpt lat="43.99373195982447" lon="5.5908010201879685"><ele>615.0</ele><time>2026-05-03T16:31:46.999Z</time></trkpt><trkpt lat="43.993818751594425" lon="5.590781148848558"><ele>615.6666666666666</ele><time>2026-05-03T16:31:47.999Z</time></trkpt><trkpt lat="43.99388134775466" lon="5.5907498578052355"><ele>616.3333333333333</ele><time>2026-05-03T16:31:48.999Z</time></trkpt><trkpt lat="43.99395504074117" lon="5.590627693853259"><ele>617.0</ele><time>2026-05-03T16:31:50.999Z</time></trkpt><trkpt lat="43.994017759336586" lon="5.590521705920425"><ele>617.0</ele><time>2026-05-03T16:31:52.999Z</time></trkpt><trkpt lat="43.994105529936235" lon="5.590513012385835"><ele>617.0</ele><time>2026-05-03T16:31:53.999Z</time></trkpt><trkpt lat="43.99417521418829" lon="5.590443680453889"><ele>617.0</ele><time>2026-05-03T16:31:54.999Z</time></trkpt><trkpt lat="43.99426581721249" lon="5.590376054411697"><ele>617.0</ele><time>2026-05-03T16:31:55.999Z</time></trkpt><trkpt lat="43.99434781250443" lon="5.590285869986444"><ele>617.0</ele><time>2026-05-03T16:31:56.999Z</time></trkpt><trkpt lat="43.994449159706726" lon="5.590190772894467"><ele>618.25</ele><time>2026-05-03T16:31:57.999Z</time></trkpt><trkpt lat="43.99455433098678" lon="5.5900787439666795"><ele>619.5</ele><time>2026-05-03T16:31:58.999Z</time></trkpt><trkpt lat="43.9946648877278" lon="5.589960842342945"><ele>620.75</ele><time>2026-05-03T16:31:59.999Z</time></trkpt><trkpt lat="43.99477269375151" lon="5.589820470533802"><ele>622.0</ele><time>2026-05-03T16:32:00.999Z</time></trkpt><trkpt lat="43.994878330869" lon="5.589720912275985"><ele>622.0</ele><time>2026-05-03T16:32:01.999Z</time></trkpt><trkpt lat="43.99494785982705" lon="5.589635992378766"><ele>622.0</ele><time>2026-05-03T16:32:02.999Z</time></trkpt><trkpt lat="43.99500218890609" lon="5.589570910450146"><ele>622.0</ele><time>2026-05-03T16:32:03.999Z</time></trkpt><trkpt lat="43.995054748721586" lon="5.589478137348718"><ele>622.0</ele><time>2026-05-03T16:32:04.999Z</time></trkpt><trkpt lat="43.99510776627725" lon="5.589371606324894"><ele>622.0</ele><time>2026-05-03T16:32:05.999Z</time></trkpt><trkpt lat="43.9951558619457" lon="5.5892643228954535"><ele>622.0</ele><time>2026-05-03T16:32:06.999Z</time></trkpt><trkpt lat="43.99519518878014" lon="5.58913657074499"><ele>623.75</ele><time>2026-05-03T16:32:07.999Z</time></trkpt><trkpt lat="43.99523566833836" lon="5.589002683949171"><ele>625.5</ele><time>2026-05-03T16:32:08.999Z</time></trkpt><trkpt lat="43.99527445213423" lon="5.588862056246462"><ele>627.25</ele><time>2026-05-03T16:32:09.999Z</time></trkpt><trkpt lat="43.995333330346206" lon="5.58873063350779"><ele>629.0</ele><time>2026-05-03T16:32:10.999Z</time></trkpt><trkpt lat="43.995390304694915" lon="5.588574630563924"><ele>629.75</ele><time>2026-05-03T16:32:11.999Z</time></trkpt><trkpt lat="43.99545157788016" lon="5.588426860607682"><ele>630.5</ele><time>2026-05-03T16:32:12.999Z</time></trkpt><trkpt lat="43.99550290452588" lon="5.58826447187558"><ele>631.25</ele><time>2026-05-03T16:32:13.999Z</time></trkpt><trkpt lat="43.9955825669955" lon="5.588079383251213"><ele>632.0</ele><time>2026-05-03T16:32:14.999Z</time></trkpt><trkpt lat="43.99565581583794" lon="5.587908412434377"><ele>632.2</ele><time>2026-05-03T16:32:15.999Z</time></trkpt><trkpt lat="43.99571919936491" lon="5.587783045346802"><ele>632.4000000000001</ele><time>2026-05-03T16:32:16.999Z</time></trkpt><trkpt lat="43.99575856342111" lon="5.587670853395433"><ele>632.5999999999999</ele><time>2026-05-03T16:32:17.999Z</time></trkpt><trkpt lat="43.995816103479385" lon="5.587577231894849"><ele>632.8</ele><time>2026-05-03T16:32:18.999Z</time></trkpt><trkpt lat="43.99586809074757" lon="5.587464233504977"><ele>633.0</ele><time>2026-05-03T16:32:20.999Z</time></trkpt><trkpt lat="43.99587184281321" lon="5.587374219864073"><ele>633.6</ele><time>2026-05-03T16:32:28.998Z</time></trkpt><trkpt lat="43.9959548643686" lon="5.587273615720503"><ele>634.1999999999999</ele><time>2026-05-03T16:32:30.998Z</time></trkpt><trkpt lat="43.99600128879435" lon="5.587189303704613"><ele>634.8</ele><time>2026-05-03T16:32:31.998Z</time></trkpt><trkpt lat="43.996064577647346" lon="5.587099284529595"><ele>635.4</ele><time>2026-05-03T16:32:32.998Z</time></trkpt><trkpt lat="43.99611952609086" lon="5.586989572926416"><ele>636.0</ele><time>2026-05-03T16:32:33.998Z</time></trkpt><trkpt lat="43.99617957473463" lon="5.5868478740767324"><ele>636.5</ele><time>2026-05-03T16:32:34.998Z</time></trkpt><trkpt lat="43.99623934163185" lon="5.586715336504802"><ele>637.0</ele><time>2026-05-03T16:32:35.998Z</time></trkpt><trkpt lat="43.99629576714078" lon="5.586569707601133"><ele>637.5</ele><time>2026-05-03T16:32:36.998Z</time></trkpt><trkpt lat="43.99634553280424" lon="5.586407346030717"><ele>638.0</ele><time>2026-05-03T16:32:37.998Z</time></trkpt><trkpt lat="43.996405975083555" lon="5.586263924115491"><ele>637.6</ele><time>2026-05-03T16:32:38.998Z</time></trkpt><trkpt lat="43.996482385104215" lon="5.58615650987024"><ele>637.1999999999999</ele><time>2026-05-03T16:32:39.998Z</time></trkpt><trkpt lat="43.99653520329335" lon="5.586050272651538"><ele>636.8</ele><time>2026-05-03T16:32:40.998Z</time></trkpt><trkpt lat="43.996578802928774" lon="5.585953997766983"><ele>636.4</ele><time>2026-05-03T16:32:41.998Z</time></trkpt><trkpt lat="43.996628697778974" lon="5.585852120634427"><ele>636.0</ele><time>2026-05-03T16:32:42.998Z</time></trkpt><trkpt lat="43.996670681148416" lon="5.585752840160084"><ele>635.6666666666666</ele><time>2026-05-03T16:32:43.998Z</time></trkpt><trkpt lat="43.99670605743555" lon="5.585614127518264"><ele>635.3333333333334</ele><time>2026-05-03T16:32:46Z</time></trkpt><trkpt lat="43.99673762025012" lon="5.585503313472481"><ele>635.0</ele><time>2026-05-03T16:32:48Z</time></trkpt><trkpt lat="43.99680116713813" lon="5.585482923538985"><ele>634.6666666666667</ele><time>2026-05-03T16:32:51Z</time></trkpt><trkpt lat="43.99687953415876" lon="5.585507627497135"><ele>634.3333333333334</ele><time>2026-05-03T16:32:54Z</time></trkpt><trkpt lat="43.996940756091426" lon="5.585564147776945"><ele>634.0</ele><time>2026-05-03T16:32:55Z</time></trkpt><trkpt lat="43.99700721318539" lon="5.585583063077577"><ele>634.0</ele><time>2026-05-03T16:32:56Z</time></trkpt><trkpt lat="43.997143008208695" lon="5.585565483500495"><ele>634.0</ele><time>2026-05-03T16:32:58Z</time></trkpt><trkpt lat="43.99725936767626" lon="5.5856216795627045"><ele>634.0</ele><time>2026-05-03T16:33:00Z</time></trkpt><trkpt lat="43.99734243185778" lon="5.585643636582617"><ele>634.0</ele><time>2026-05-03T16:33:01Z</time></trkpt><trkpt lat="43.997406052078965" lon="5.585674818463454"><ele>634.0</ele><time>2026-05-03T16:33:02Z</time></trkpt><trkpt lat="43.99750060339743" lon="5.585690870072578"><ele>634.2</ele><time>2026-05-03T16:33:04Z</time></trkpt><trkpt lat="43.997589678349556" lon="5.5856346927866785"><ele>634.4</ele><time>2026-05-03T16:33:06Z</time></trkpt><trkpt lat="43.99765409433642" lon="5.585555813215644"><ele>634.6</ele><time>2026-05-03T16:33:08Z</time></trkpt><trkpt lat="43.997730672192276" lon="5.5854205827378935"><ele>634.8</ele><time>2026-05-03T16:33:10Z</time></trkpt><trkpt lat="43.99778263430423" lon="5.585309286158556"><ele>635.0</ele><time>2026-05-03T16:33:11Z</time></trkpt><trkpt lat="43.99782269852816" lon="5.5852011364642475"><ele>635.25</ele><time>2026-05-03T16:33:12Z</time></trkpt><trkpt lat="43.99783322889293" lon="5.585109387242618"><ele>635.5</ele><time>2026-05-03T16:33:13Z</time></trkpt><trkpt lat="43.99779034989713" lon="5.584904042371135"><ele>635.75</ele><time>2026-05-03T16:33:15Z</time></trkpt><trkpt lat="43.99774443055893" lon="5.584761256751654"><ele>636.0</ele><time>2026-05-03T16:33:16Z</time></trkpt><trkpt lat="43.997647320484376" lon="5.584667159476614"><ele>636.0</ele><time>2026-05-03T16:33:17Z</time></trkpt><trkpt lat="43.997594388567265" lon="5.584611699453319"><ele>636.0</ele><time>2026-05-03T16:33:18Z</time></trkpt><trkpt lat="43.997610207783524" lon="5.584499019323344"><ele>636.0</ele><time>2026-05-03T16:33:21Z</time></trkpt><trkpt lat="43.99765129632109" lon="5.584432292737134"><ele>636.0</ele><time>2026-05-03T16:33:22Z</time></trkpt><trkpt lat="43.997712369567594" lon="5.584351823477125"><ele>636.0</ele><time>2026-05-03T16:33:23Z</time></trkpt><trkpt lat="43.99776870585389" lon="5.5842329007133005"><ele>636.0</ele><time>2026-05-03T16:33:24Z</time></trkpt><trkpt lat="43.99779692069348" lon="5.584090232333724"><ele>637.25</ele><time>2026-05-03T16:33:25Z</time></trkpt><trkpt lat="43.99782162652477" lon="5.583922928766808"><ele>638.5</ele><time>2026-05-03T16:33:26Z</time></trkpt><trkpt lat="43.99783101089456" lon="5.583753022992338"><ele>639.75</ele><time>2026-05-03T16:33:27Z</time></trkpt><trkpt lat="43.997839792954935" lon="5.583597784663007"><ele>641.0</ele><time>2026-05-03T16:33:27.999Z</time></trkpt><trkpt lat="43.997846368894436" lon="5.583445334147313"><ele>641.8</ele><time>2026-05-03T16:33:28.999Z</time></trkpt><trkpt lat="43.997862424638804" lon="5.583324675757295"><ele>642.5999999999999</ele><time>2026-05-03T16:33:29.999Z</time></trkpt><trkpt lat="43.99785816426997" lon="5.583174160294888"><ele>643.4</ele><time>2026-05-03T16:33:30.999Z</time></trkpt><trkpt lat="43.997842431122535" lon="5.583035006230067"><ele>644.2</ele><time>2026-05-03T16:33:31.999Z</time></trkpt><trkpt lat="43.99782650296732" lon="5.582898904295683"><ele>645.0</ele><time>2026-05-03T16:33:32.999Z</time></trkpt><trkpt lat="43.997801733238134" lon="5.582778160259991"><ele>646.4</ele><time>2026-05-03T16:33:33.999Z</time></trkpt><trkpt lat="43.99777394680969" lon="5.5826648340143565"><ele>647.8</ele><time>2026-05-03T16:33:34.999Z</time></trkpt><trkpt lat="43.99773120964526" lon="5.582555214534712"><ele>649.2</ele><time>2026-05-03T16:33:35.999Z</time></trkpt><trkpt lat="43.99767822551098" lon="5.582444705641426"><ele>650.6</ele><time>2026-05-03T16:33:36.999Z</time></trkpt><trkpt lat="43.99762956220095" lon="5.582334768953222"><ele>652.0</ele><time>2026-05-03T16:33:37.999Z</time></trkpt><trkpt lat="43.99757053964058" lon="5.582221715221619"><ele>652.0</ele><time>2026-05-03T16:33:38.999Z</time></trkpt><trkpt lat="43.99750360669491" lon="5.582112173711267"><ele>652.0</ele><time>2026-05-03T16:33:39.999Z</time></trkpt><trkpt lat="43.99742660213978" lon="5.582012633392853"><ele>652.0</ele><time>2026-05-03T16:33:40.999Z</time></trkpt><trkpt lat="43.997347527367964" lon="5.581911439090978"><ele>652.0</ele><time>2026-05-03T16:33:41.999Z</time></trkpt><trkpt lat="43.9972637318602" lon="5.581803382060734"><ele>652.0</ele><time>2026-05-03T16:33:42.999Z</time></trkpt><trkpt lat="43.99720255327354" lon="5.581710069140287"><ele>652.1666666666667</ele><time>2026-05-03T16:33:43.999Z</time></trkpt><trkpt lat="43.99711721857849" lon="5.5816018032786445"><ele>652.3333333333334</ele><time>2026-05-03T16:33:44.999Z</time></trkpt><trkpt lat="43.99704169907195" lon="5.581526761693217"><ele>652.5</ele><time>2026-05-03T16:33:45.999Z</time></trkpt><trkpt lat="43.996978032036104" lon="5.581447309325342"><ele>652.6666666666666</ele><time>2026-05-03T16:33:46.999Z</time></trkpt><trkpt lat="43.996937215606245" lon="5.581372205983668"><ele>652.8333333333333</ele><time>2026-05-03T16:33:47.999Z</time></trkpt><trkpt lat="43.99692749064206" lon="5.5812681115757234"><ele>653.0</ele><time>2026-05-03T16:33:49.999Z</time></trkpt><trkpt lat="43.99694145309401" lon="5.581155379948053"><ele>653.0</ele><time>2026-05-03T16:33:51.999Z</time></trkpt><trkpt lat="43.996954763978415" lon="5.58097979370136"><ele>653.0</ele><time>2026-05-03T16:33:53.999Z</time></trkpt><trkpt lat="43.99692919626672" lon="5.580877208417383"><ele>653.0</ele><time>2026-05-03T16:33:54.999Z</time></trkpt><trkpt lat="43.99688317117231" lon="5.580765284665027"><ele>653.0</ele><time>2026-05-03T16:33:55.999Z</time></trkpt><trkpt lat="43.9968289473024" lon="5.580621565132324"><ele>653.0</ele><time>2026-05-03T16:33:56.999Z</time></trkpt><trkpt lat="43.996775558394546" lon="5.580452500062774"><ele>653.2</ele><time>2026-05-03T16:33:57.999Z</time></trkpt><trkpt lat="43.996726898905266" lon="5.5802751102458155"><ele>653.4</ele><time>2026-05-03T16:33:58.999Z</time></trkpt><trkpt lat="43.996688339749205" lon="5.5801419796470455"><ele>653.6</ele><time>2026-05-03T16:33:59.999Z</time></trkpt><trkpt lat="43.99665520849309" lon="5.580036490163332"><ele>653.8000000000001</ele><time>2026-05-03T16:34:00.999Z</time></trkpt><trkpt lat="43.996632338230576" lon="5.579951659448949"><ele>654.0</ele><time>2026-05-03T16:34:01.999Z</time></trkpt><trkpt lat="43.9965989998778" lon="5.579814889246888"><ele>654.0</ele><time>2026-05-03T16:34:03.999Z</time></trkpt><trkpt lat="43.99667194506369" lon="5.579648472051247"><ele>654.0</ele><time>2026-05-03T16:34:05.999Z</time></trkpt><trkpt lat="43.99674078635046" lon="5.579535761066049"><ele>654.0</ele><time>2026-05-03T16:34:06.999Z</time></trkpt><trkpt lat="43.996815687533534" lon="5.579394054422376"><ele>654.0</ele><time>2026-05-03T16:34:07.999Z</time></trkpt><trkpt lat="43.9968976735973" lon="5.579203463130104"><ele>653.75</ele><time>2026-05-03T16:34:08.999Z</time></trkpt><trkpt lat="43.99698109116274" lon="5.579018096072596"><ele>653.5</ele><time>2026-05-03T16:34:09.999Z</time></trkpt><trkpt lat="43.99704909740607" lon="5.578872719404345"><ele>653.25</ele><time>2026-05-03T16:34:10.999Z</time></trkpt><trkpt lat="43.99711041481216" lon="5.578742261585462"><ele>653.0</ele><time>2026-05-03T16:34:11.999Z</time></trkpt><trkpt lat="43.997173036058065" lon="5.578620125747269"><ele>652.6666666666666</ele><time>2026-05-03T16:34:12.999Z</time></trkpt><trkpt lat="43.99722848789928" lon="5.578509358627283"><ele>652.3333333333333</ele><time>2026-05-03T16:34:13.999Z</time></trkpt><trkpt lat="43.99729484195686" lon="5.578440560356129"><ele>652.0</ele><time>2026-05-03T16:34:14.999Z</time></trkpt><trkpt lat="43.99734285595057" lon="5.578375212321245"><ele>651.6666666666666</ele><time>2026-05-03T16:34:15.999Z</time></trkpt><trkpt lat="43.997391355902415" lon="5.578303546831977"><ele>651.3333333333334</ele><time>2026-05-03T16:34:16.999Z</time></trkpt><trkpt lat="43.99746590706672" lon="5.578274944055874"><ele>651.0</ele><time>2026-05-03T16:34:17.999Z</time></trkpt><trkpt lat="43.99756400701872" lon="5.578312266422132"><ele>650.1666666666666</ele><time>2026-05-03T16:34:19.999Z</time></trkpt><trkpt lat="43.99761560940957" lon="5.578178950692277"><ele>649.3333333333334</ele><time>2026-05-03T16:34:20.999Z</time></trkpt><trkpt lat="43.997640190140196" lon="5.578089058193694"><ele>648.5</ele><time>2026-05-03T16:34:21.999Z</time></trkpt><trkpt lat="43.997683426214145" lon="5.578012786767425"><ele>647.6666666666667</ele><time>2026-05-03T16:34:22.999Z</time></trkpt><trkpt lat="43.99771470591661" lon="5.577930909215349"><ele>646.8333333333334</ele><time>2026-05-03T16:34:23.999Z</time></trkpt><trkpt lat="43.997755065670354" lon="5.577825264553845"><ele>646.0</ele><time>2026-05-03T16:34:24.999Z</time></trkpt><trkpt lat="43.997791445074625" lon="5.577729780250883"><ele>646.0</ele><time>2026-05-03T16:34:25.999Z</time></trkpt><trkpt lat="43.997813461730104" lon="5.57762148364352"><ele>646.0</ele><time>2026-05-03T16:34:26.999Z</time></trkpt><trkpt lat="43.99786237068173" lon="5.577537101796299"><ele>646.0</ele><time>2026-05-03T16:34:27.999Z</time></trkpt><trkpt lat="43.99789660732142" lon="5.577440443119427"><ele>646.0</ele><time>2026-05-03T16:34:28.999Z</time></trkpt><trkpt lat="43.997916263890936" lon="5.577344818791978"><ele>646.0</ele><time>2026-05-03T16:34:29.999Z</time></trkpt><trkpt lat="43.99795221391549" lon="5.577270586079565"><ele>646.0</ele><time>2026-05-03T16:34:30.998Z</time></trkpt><trkpt lat="43.99799616562014" lon="5.577169426132489"><ele>646.0</ele><time>2026-05-03T16:34:32.998Z</time></trkpt><trkpt lat="43.99801940881694" lon="5.577047135769842"><ele>646.0</ele><time>2026-05-03T16:34:37.998Z</time></trkpt><trkpt lat="43.997923506375905" lon="5.576976505033565"><ele>646.0</ele><time>2026-05-03T16:34:38.998Z</time></trkpt><trkpt lat="43.997863104257114" lon="5.576944248518524"><ele>646.0</ele><time>2026-05-03T16:34:39.998Z</time></trkpt><trkpt lat="43.99780261017009" lon="5.576903427063575"><ele>646.0</ele><time>2026-05-03T16:34:40.998Z</time></trkpt><trkpt lat="43.99774047188459" lon="5.576851327962637"><ele>646.0</ele><time>2026-05-03T16:34:41.998Z</time></trkpt><trkpt lat="43.99767532251523" lon="5.576799570672854"><ele>646.1666666666667</ele><time>2026-05-03T16:34:42.998Z</time></trkpt><trkpt lat="43.99760336932427" lon="5.576752313978539"><ele>646.3333333333334</ele><time>2026-05-03T16:34:43.998Z</time></trkpt><trkpt lat="43.99752771470014" lon="5.576704389784363"><ele>646.5</ele><time>2026-05-03T16:34:44.998Z</time></trkpt><trkpt lat="43.99744649145767" lon="5.576647499521924"><ele>646.6666666666666</ele><time>2026-05-03T16:34:45.998Z</time></trkpt><trkpt lat="43.99736347948126" lon="5.576586664728843"><ele>646.8333333333333</ele><time>2026-05-03T16:34:46.998Z</time></trkpt><trkpt lat="43.99727795393862" lon="5.576525479422446"><ele>647.0</ele><time>2026-05-03T16:34:47.998Z</time></trkpt><trkpt lat="43.997192538376204" lon="5.576468102011439"><ele>646.6666666666666</ele><time>2026-05-03T16:34:48.998Z</time></trkpt><trkpt lat="43.99712093048311" lon="5.576415949399679"><ele>646.3333333333333</ele><time>2026-05-03T16:34:49.998Z</time></trkpt><trkpt lat="43.99704345263249" lon="5.5763550380334435"><ele>646.0</ele><time>2026-05-03T16:34:50.998Z</time></trkpt><trkpt lat="43.99697114260956" lon="5.576307655016388"><ele>645.6666666666666</ele><time>2026-05-03T16:34:52Z</time></trkpt><trkpt lat="43.996900595099554" lon="5.576258825783579"><ele>645.3333333333334</ele><time>2026-05-03T16:34:53Z</time></trkpt><trkpt lat="43.996831707005846" lon="5.576208539885339"><ele>645.0</ele><time>2026-05-03T16:34:54Z</time></trkpt><trkpt lat="43.99676319572173" lon="5.576167358189445"><ele>645.0</ele><time>2026-05-03T16:34:55Z</time></trkpt><trkpt lat="43.99669608818902" lon="5.576126761460588"><ele>645.0</ele><time>2026-05-03T16:34:56Z</time></trkpt><trkpt lat="43.996630717640585" lon="5.576091513714269"><ele>645.0</ele><time>2026-05-03T16:34:57Z</time></trkpt><trkpt lat="43.99652731102014" lon="5.576049865892123"><ele>645.0</ele><time>2026-05-03T16:34:59Z</time></trkpt><trkpt lat="43.99641720976235" lon="5.576021283547672"><ele>645.0</ele><time>2026-05-03T16:35:01Z</time></trkpt><trkpt lat="43.99635062069946" lon="5.5759963001272626"><ele>645.0</ele><time>2026-05-03T16:35:04Z</time></trkpt><trkpt lat="43.99640126803241" lon="5.57585375454294"><ele>645.0</ele><time>2026-05-03T16:35:11Z</time></trkpt><trkpt lat="43.99634054290965" lon="5.575769399600428"><ele>645.0</ele><time>2026-05-03T16:35:13Z</time></trkpt><trkpt lat="43.99629319859159" lon="5.575689793604555"><ele>645.0</ele><time>2026-05-03T16:35:14Z</time></trkpt><trkpt lat="43.996252844637475" lon="5.5756065439849"><ele>645.0</ele><time>2026-05-03T16:35:15Z</time></trkpt><trkpt lat="43.996206736297694" lon="5.575489633408805"><ele>645.0</ele><time>2026-05-03T16:35:17Z</time></trkpt><trkpt lat="43.99613256818501" lon="5.575465010995528"><ele>645.0</ele><time>2026-05-03T16:35:20Z</time></trkpt><trkpt lat="43.99606290847294" lon="5.575480195173533"><ele>645.0</ele><time>2026-05-03T16:35:22Z</time></trkpt><trkpt lat="43.99598253418963" lon="5.57547567148066"><ele>645.0</ele><time>2026-05-03T16:35:25Z</time></trkpt><trkpt lat="43.99592390311365" lon="5.575406821168826"><ele>645.0</ele><time>2026-05-03T16:35:28Z</time></trkpt><trkpt lat="43.995856476048544" lon="5.575379209126623"><ele>645.0</ele><time>2026-05-03T16:35:30Z</time></trkpt><trkpt lat="43.99580662275459" lon="5.57531822985851"><ele>645.0</ele><time>2026-05-03T16:35:32Z</time></trkpt><trkpt lat="43.99575891104511" lon="5.575227613049424"><ele>645.0</ele><time>2026-05-03T16:35:33.999Z</time></trkpt><trkpt lat="43.99570278442433" lon="5.575119964861918"><ele>645.6</ele><time>2026-05-03T16:35:35.999Z</time></trkpt><trkpt lat="43.995640013560624" lon="5.575016869219122"><ele>646.2</ele><time>2026-05-03T16:35:37.999Z</time></trkpt><trkpt lat="43.99556910623442" lon="5.574908022900737"><ele>646.8</ele><time>2026-05-03T16:35:39.999Z</time></trkpt><trkpt lat="43.995515315379876" lon="5.574784833784623"><ele>647.4</ele><time>2026-05-03T16:35:41.999Z</time></trkpt><trkpt lat="43.99542541030072" lon="5.574671774067045"><ele>648.0</ele><time>2026-05-03T16:35:43.999Z</time></trkpt><trkpt lat="43.995334673512666" lon="5.574567414303921"><ele>648.0</ele><time>2026-05-03T16:35:45.999Z</time></trkpt><trkpt lat="43.9952558775325" lon="5.574451079993348"><ele>648.0</ele><time>2026-05-03T16:35:47.999Z</time></trkpt><trkpt lat="43.9952151652587" lon="5.574378493822242"><ele>648.0</ele><time>2026-05-03T16:35:48.999Z</time></trkpt><trkpt lat="43.995175931924805" lon="5.574297762671617"><ele>648.0</ele><time>2026-05-03T16:35:49.999Z</time></trkpt><trkpt lat="43.995138521719355" lon="5.574221005172572"><ele>648.0</ele><time>2026-05-03T16:35:50.999Z</time></trkpt><trkpt lat="43.995099533396505" lon="5.5741382577482845"><ele>648.0</ele><time>2026-05-03T16:35:51.999Z</time></trkpt><trkpt lat="43.9950607462166" lon="5.5740551359386545"><ele>648.0</ele><time>2026-05-03T16:35:52.999Z</time></trkpt><trkpt lat="43.99502179391998" lon="5.573969356614924"><ele>648.0</ele><time>2026-05-03T16:35:53.999Z</time></trkpt><trkpt lat="43.99497926086881" lon="5.573874154696445"><ele>648.0</ele><time>2026-05-03T16:35:54.999Z</time></trkpt><trkpt lat="43.994937018787134" lon="5.57377960393188"><ele>648.0</ele><time>2026-05-03T16:35:55.999Z</time></trkpt><trkpt lat="43.994897958594755" lon="5.573692175332556"><ele>648.0</ele><time>2026-05-03T16:35:56.999Z</time></trkpt><trkpt lat="43.994847714273575" lon="5.573620461000606"><ele>648.0</ele><time>2026-05-03T16:35:57.999Z</time></trkpt><trkpt lat="43.994827295900805" lon="5.573526102050746"><ele>651.25</ele><time>2026-05-03T16:35:58.999Z</time></trkpt><trkpt lat="43.9947704816627" lon="5.57337206767384"><ele>654.5</ele><time>2026-05-03T16:36:00.999Z</time></trkpt><trkpt lat="43.99472607956576" lon="5.573225303632662"><ele>657.75</ele><time>2026-05-03T16:36:02.999Z</time></trkpt><trkpt lat="43.994690692098644" lon="5.57306130073919"><ele>661.0</ele><time>2026-05-03T16:36:04.999Z</time></trkpt><trkpt lat="43.99466191207358" lon="5.572878506049709"><ele>661.1666666666667</ele><time>2026-05-03T16:36:06.999Z</time></trkpt><trkpt lat="43.99464660670744" lon="5.5727785822830835"><ele>661.3333333333334</ele><time>2026-05-03T16:36:07.999Z</time></trkpt><trkpt lat="43.99462623370388" lon="5.572664210488917"><ele>661.5</ele><time>2026-05-03T16:36:08.999Z</time></trkpt><trkpt lat="43.99460155754656" lon="5.572557900492884"><ele>661.6666666666666</ele><time>2026-05-03T16:36:09.999Z</time></trkpt><trkpt lat="43.99457257273442" lon="5.572454279595237"><ele>661.8333333333333</ele><time>2026-05-03T16:36:10.999Z</time></trkpt><trkpt lat="43.994544466239724" lon="5.572357108418338"><ele>662.0</ele><time>2026-05-03T16:36:11.999Z</time></trkpt><trkpt lat="43.99451676589537" lon="5.572261674460645"><ele>662.0</ele><time>2026-05-03T16:36:12.999Z</time></trkpt><trkpt lat="43.99448600825355" lon="5.572161278598236"><ele>662.0</ele><time>2026-05-03T16:36:13.999Z</time></trkpt><trkpt lat="43.99445714228168" lon="5.572076673682145"><ele>662.0</ele><time>2026-05-03T16:36:14.999Z</time></trkpt><trkpt lat="43.994425398526616" lon="5.571984181741377"><ele>662.0</ele><time>2026-05-03T16:36:15.999Z</time></trkpt><trkpt lat="43.99439517130101" lon="5.5718961084009315"><ele>662.0</ele><time>2026-05-03T16:36:16.999Z</time></trkpt><trkpt lat="43.99436654494202" lon="5.57181492174414"><ele>662.0</ele><time>2026-05-03T16:36:17.999Z</time></trkpt><trkpt lat="43.994338139838696" lon="5.571735422632499"><ele>662.0</ele><time>2026-05-03T16:36:18.999Z</time></trkpt><trkpt lat="43.99430626241219" lon="5.571646205350299"><ele>661.8333333333333</ele><time>2026-05-03T16:36:19.999Z</time></trkpt><trkpt lat="43.99427769888049" lon="5.571566260584474"><ele>661.6666666666666</ele><time>2026-05-03T16:36:20.999Z</time></trkpt><trkpt lat="43.99424250597844" lon="5.571477771263701"><ele>661.5</ele><time>2026-05-03T16:36:21.999Z</time></trkpt><trkpt lat="43.99418681324686" lon="5.571341730597838"><ele>661.3333333333334</ele><time>2026-05-03T16:36:23.999Z</time></trkpt><trkpt lat="43.99412374547723" lon="5.571232211623906"><ele>661.1666666666667</ele><time>2026-05-03T16:36:25.999Z</time></trkpt><trkpt lat="43.99408524930044" lon="5.571118759321664"><ele>661.0</ele><time>2026-05-03T16:36:27.999Z</time></trkpt><trkpt lat="43.99403185419125" lon="5.571015847834034"><ele>662.3333333333334</ele><time>2026-05-03T16:36:29.999Z</time></trkpt><trkpt lat="43.99396940439222" lon="5.570897679704004"><ele>663.6666666666667</ele><time>2026-05-03T16:36:31.999Z</time></trkpt><trkpt lat="43.99391251414186" lon="5.570753340447668"><ele>665.0</ele><time>2026-05-03T16:36:33.998Z</time></trkpt><trkpt lat="43.99388242165824" lon="5.570665905095199"><ele>666.3333333333334</ele><time>2026-05-03T16:36:34.998Z</time></trkpt><trkpt lat="43.99385309894982" lon="5.570580705300409"><ele>667.6666666666666</ele><time>2026-05-03T16:36:35.998Z</time></trkpt><trkpt lat="43.9938235150366" lon="5.570494745284301"><ele>669.0</ele><time>2026-05-03T16:36:36.998Z</time></trkpt><trkpt lat="43.99380562437061" lon="5.570406179811324"><ele>670.4000000000001</ele><time>2026-05-03T16:36:37.998Z</time></trkpt><trkpt lat="43.99378751977423" lon="5.570321586634532"><ele>671.8</ele><time>2026-05-03T16:36:38.998Z</time></trkpt><trkpt lat="43.99377419634001" lon="5.570177842950262"><ele>673.2</ele><time>2026-05-03T16:36:40.998Z</time></trkpt><trkpt lat="43.993773072975856" lon="5.570060255632184"><ele>674.5999999999999</ele><time>2026-05-03T16:36:42.998Z</time></trkpt><trkpt lat="43.993655711096125" lon="5.569934956648829"><ele>676.0</ele><time>2026-05-03T16:36:47.998Z</time></trkpt><trkpt lat="43.993591642058064" lon="5.56990412019387"><ele>676.0</ele><time>2026-05-03T16:36:48.998Z</time></trkpt><trkpt lat="43.993509041334526" lon="5.569868340437525"><ele>676.0</ele><time>2026-05-03T16:36:49.998Z</time></trkpt><trkpt lat="43.993394719804215" lon="5.56982315634668"><ele>676.0</ele><time>2026-05-03T16:36:50.998Z</time></trkpt><trkpt lat="43.993257367950356" lon="5.56976939673152"><ele>676.0</ele><time>2026-05-03T16:36:51.998Z</time></trkpt><trkpt lat="43.9931081729707" lon="5.56970877322403"><ele>675.6666666666667</ele><time>2026-05-03T16:36:52.998Z</time></trkpt><trkpt lat="43.992938273836046" lon="5.5696374580602095"><ele>675.3333333333334</ele><time>2026-05-03T16:36:53.998Z</time></trkpt><trkpt lat="43.992763151288884" lon="5.569574446236608"><ele>675.0</ele><time>2026-05-03T16:36:54.998Z</time></trkpt><trkpt lat="43.99262271421871" lon="5.56949152369173"><ele>676.0</ele><time>2026-05-03T16:36:55.998Z</time></trkpt><trkpt lat="43.99249922914719" lon="5.569439239736726"><ele>677.0</ele><time>2026-05-03T16:36:56.998Z</time></trkpt><trkpt lat="43.992390778827364" lon="5.569400341647305"><ele>678.0</ele><time>2026-05-03T16:36:58Z</time></trkpt><trkpt lat="43.9922809081564" lon="5.569344016494842"><ele>679.0</ele><time>2026-05-03T16:36:59Z</time></trkpt><trkpt lat="43.99216102062395" lon="5.569282822904269"><ele>679.0</ele><time>2026-05-03T16:37:00Z</time></trkpt><trkpt lat="43.99204689174315" lon="5.569230091210155"><ele>679.0</ele><time>2026-05-03T16:37:01Z</time></trkpt><trkpt lat="43.99195618281402" lon="5.569182819019669"><ele>679.0</ele><time>2026-05-03T16:37:02Z</time></trkpt><trkpt lat="43.991868306168634" lon="5.569134816329872"><ele>679.0</ele><time>2026-05-03T16:37:03Z</time></trkpt><trkpt lat="43.99176843865811" lon="5.5690869056498835"><ele>679.0</ele><time>2026-05-03T16:37:04Z</time></trkpt><trkpt lat="43.99166628636507" lon="5.56904040499209"><ele>678.0</ele><time>2026-05-03T16:37:05Z</time></trkpt><trkpt lat="43.99158021571769" lon="5.568980466355261"><ele>677.0</ele><time>2026-05-03T16:37:06Z</time></trkpt><trkpt lat="43.99149229997454" lon="5.568934778531789"><ele>676.0</ele><time>2026-05-03T16:37:07Z</time></trkpt><trkpt lat="43.99141401324046" lon="5.568882828512585"><ele>675.0</ele><time>2026-05-03T16:37:08Z</time></trkpt><trkpt lat="43.99132778977084" lon="5.568828712032975"><ele>674.0</ele><time>2026-05-03T16:37:09Z</time></trkpt><trkpt lat="43.99123211076381" lon="5.568792777330294"><ele>674.0</ele><time>2026-05-03T16:37:10Z</time></trkpt><trkpt lat="43.99115186066688" lon="5.568797591176601"><ele>674.0</ele><time>2026-05-03T16:37:11Z</time></trkpt><trkpt lat="43.99107056237715" lon="5.568808036457483"><ele>674.0</ele><time>2026-05-03T16:37:12Z</time></trkpt><trkpt lat="43.99098218390484" lon="5.568818473104198"><ele>674.0</ele><time>2026-05-03T16:37:13Z</time></trkpt><trkpt lat="43.99090922024519" lon="5.568823209056855"><ele>674.0</ele><time>2026-05-03T16:37:14Z</time></trkpt><trkpt lat="43.99077020241539" lon="5.568815684217512"><ele>673.8333333333333</ele><time>2026-05-03T16:37:16Z</time></trkpt><trkpt lat="43.990685355973646" lon="5.568801207523415"><ele>673.6666666666666</ele><time>2026-05-03T16:37:17Z</time></trkpt><trkpt lat="43.990620449462355" lon="5.568790098470208"><ele>673.5</ele><time>2026-05-03T16:37:18Z</time></trkpt><trkpt lat="43.990556216084656" lon="5.568778967466424"><ele>673.3333333333334</ele><time>2026-05-03T16:37:19Z</time></trkpt><trkpt lat="43.99047692379901" lon="5.568767070169252"><ele>673.1666666666667</ele><time>2026-05-03T16:37:20Z</time></trkpt><trkpt lat="43.990355540000294" lon="5.568748857378075"><ele>673.0</ele><time>2026-05-03T16:37:22Z</time></trkpt><trkpt lat="43.99027038684039" lon="5.5687376274666915"><ele>673.0</ele><time>2026-05-03T16:37:24Z</time></trkpt><trkpt lat="43.990197456061885" lon="5.568747504145919"><ele>673.0</ele><time>2026-05-03T16:37:26Z</time></trkpt><trkpt lat="43.99012703317412" lon="5.568731677784446"><ele>673.0</ele><time>2026-05-03T16:37:29Z</time></trkpt><trkpt lat="43.99007233414573" lon="5.568776207999946"><ele>673.0</ele><time>2026-05-03T16:37:36Z</time></trkpt><trkpt lat="43.98999532743359" lon="5.568788238405015"><ele>673.0</ele><time>2026-05-03T16:37:38Z</time></trkpt><trkpt lat="43.98990222521538" lon="5.568819475953152"><ele>673.0</ele><time>2026-05-03T16:37:40Z</time></trkpt><trkpt lat="43.98978757290842" lon="5.568819482279883"><ele>673.0</ele><time>2026-05-03T16:37:42Z</time></trkpt><trkpt lat="43.98967948162787" lon="5.568761766509453"><ele>673.0</ele><time>2026-05-03T16:37:43.999Z</time></trkpt><trkpt lat="43.98957095004508" lon="5.568710046880781"><ele>673.0</ele><time>2026-05-03T16:37:45.999Z</time></trkpt><trkpt lat="43.98950324395089" lon="5.5686928404693585"><ele>673.0</ele><time>2026-05-03T16:37:46.999Z</time></trkpt><trkpt lat="43.98944377796102" lon="5.568631164223555"><ele>673.0</ele><time>2026-05-03T16:37:47.999Z</time></trkpt><trkpt lat="43.98935677809425" lon="5.56858681105847"><ele>672.6666666666667</ele><time>2026-05-03T16:37:48.999Z</time></trkpt><trkpt lat="43.98928147717057" lon="5.568565807878623"><ele>672.3333333333334</ele><time>2026-05-03T16:37:49.999Z</time></trkpt><trkpt lat="43.989206715466096" lon="5.568540117992778"><ele>672.0</ele><time>2026-05-03T16:37:50.999Z</time></trkpt><trkpt lat="43.989135055553675" lon="5.568513750698878"><ele>671.6666666666666</ele><time>2026-05-03T16:37:51.999Z</time></trkpt><trkpt lat="43.989061240083075" lon="5.568486746101038"><ele>671.3333333333333</ele><time>2026-05-03T16:37:52.999Z</time></trkpt><trkpt lat="43.98899009470861" lon="5.568456687714233"><ele>671.0</ele><time>2026-05-03T16:37:53.999Z</time></trkpt><trkpt lat="43.98891995706587" lon="5.568421216885972"><ele>671.0</ele><time>2026-05-03T16:37:54.999Z</time></trkpt><trkpt lat="43.988828189784144" lon="5.568362163323751"><ele>671.0</ele><time>2026-05-03T16:37:55.999Z</time></trkpt><trkpt lat="43.988733700258116" lon="5.5683035277305475"><ele>671.0</ele><time>2026-05-03T16:37:56.999Z</time></trkpt><trkpt lat="43.988651291643286" lon="5.568258043636252"><ele>671.0</ele><time>2026-05-03T16:37:57.999Z</time></trkpt><trkpt lat="43.98856987375561" lon="5.568214861067211"><ele>671.0</ele><time>2026-05-03T16:37:58.999Z</time></trkpt><trkpt lat="43.988487006094296" lon="5.5681701930419125"><ele>671.0</ele><time>2026-05-03T16:37:59.999Z</time></trkpt><trkpt lat="43.9884077305056" lon="5.568123348119744"><ele>671.0</ele><time>2026-05-03T16:38:00.999Z</time></trkpt><trkpt lat="43.98833997360533" lon="5.568081651660229"><ele>671.0</ele><time>2026-05-03T16:38:01.999Z</time></trkpt><trkpt lat="43.988280680972906" lon="5.568043440061648"><ele>671.0</ele><time>2026-05-03T16:38:02.999Z</time></trkpt><trkpt lat="43.98819964798252" lon="5.567978751894905"><ele>671.0</ele><time>2026-05-03T16:38:05.999Z</time></trkpt><trkpt lat="43.988121858930434" lon="5.56793482365551"><ele>671.0</ele><time>2026-05-03T16:38:11.999Z</time></trkpt><trkpt lat="43.988030462826416" lon="5.5679109096138895"><ele>671.0</ele><time>2026-05-03T16:38:13.999Z</time></trkpt><trkpt lat="43.98796643800165" lon="5.5678430159696966"><ele>671.0</ele><time>2026-05-03T16:38:16.999Z</time></trkpt><trkpt lat="43.987979077376814" lon="5.567749781124611"><ele>671.0</ele><time>2026-05-03T16:38:18.999Z</time></trkpt><trkpt lat="43.98802908909787" lon="5.567669780148285"><ele>671.0</ele><time>2026-05-03T16:38:20.999Z</time></trkpt><trkpt lat="43.98806668140004" lon="5.567581496843329"><ele>671.0</ele><time>2026-05-03T16:38:22.999Z</time></trkpt><trkpt lat="43.98806840745905" lon="5.567458633463727"><ele>671.0</ele><time>2026-05-03T16:38:24.999Z</time></trkpt><trkpt lat="43.98809333812392" lon="5.567308900736121"><ele>671.0</ele><time>2026-05-03T16:38:26.999Z</time></trkpt><trkpt lat="43.98809313797447" lon="5.56721716709437"><ele>671.0</ele><time>2026-05-03T16:38:27.999Z</time></trkpt><trkpt lat="43.98809039703134" lon="5.567073575807509"><ele>671.0</ele><time>2026-05-03T16:38:29.999Z</time></trkpt><trkpt lat="43.9880660100713" lon="5.5669079901075165"><ele>671.0</ele><time>2026-05-03T16:38:31.999Z</time></trkpt><trkpt lat="43.98798684303917" lon="5.566774367034582"><ele>671.0</ele><time>2026-05-03T16:38:33.999Z</time></trkpt><trkpt lat="43.987961802164016" lon="5.5666922640809595"><ele>671.8571428571428</ele><time>2026-05-03T16:38:34.999Z</time></trkpt><trkpt lat="43.98791643182406" lon="5.566619143349607"><ele>672.7142857142858</ele><time>2026-05-03T16:38:35.999Z</time></trkpt><trkpt lat="43.9878651940004" lon="5.566543221463966"><ele>673.5714285714286</ele><time>2026-05-03T16:38:36.999Z</time></trkpt><trkpt lat="43.98781810819268" lon="5.566477839076751"><ele>674.4285714285713</ele><time>2026-05-03T16:38:37.999Z</time></trkpt><trkpt lat="43.987757839939746" lon="5.566409292110667"><ele>675.2857142857142</ele><time>2026-05-03T16:38:38.999Z</time></trkpt><trkpt lat="43.98769151670901" lon="5.566348814738098"><ele>676.1428571428571</ele><time>2026-05-03T16:38:39.999Z</time></trkpt><trkpt lat="43.98762288142639" lon="5.566295511021328"><ele>677.0</ele><time>2026-05-03T16:38:40.999Z</time></trkpt><trkpt lat="43.98754767080687" lon="5.566240930081663"><ele>677.8333333333333</ele><time>2026-05-03T16:38:41.999Z</time></trkpt><trkpt lat="43.987473816800176" lon="5.566187609793204"><ele>678.6666666666666</ele><time>2026-05-03T16:38:42.999Z</time></trkpt><trkpt lat="43.987412768674496" lon="5.566141279567845"><ele>679.5</ele><time>2026-05-03T16:38:43.999Z</time></trkpt><trkpt lat="43.98734933805428" lon="5.566090446519221"><ele>680.3333333333334</ele><time>2026-05-03T16:38:44.998Z</time></trkpt><trkpt lat="43.987284668003625" lon="5.5660361901663356"><ele>681.1666666666667</ele><time>2026-05-03T16:38:45.998Z</time></trkpt><trkpt lat="43.98721496189443" lon="5.565977708338305"><ele>682.0</ele><time>2026-05-03T16:38:46.998Z</time></trkpt><trkpt lat="43.987150459732014" lon="5.5659235929618935"><ele>682.0</ele><time>2026-05-03T16:38:47.998Z</time></trkpt><trkpt lat="43.98706942069278" lon="5.565854640437534"><ele>682.0</ele><time>2026-05-03T16:38:48.998Z</time></trkpt><trkpt lat="43.98700369037981" lon="5.565798736291535"><ele>682.0</ele><time>2026-05-03T16:38:49.998Z</time></trkpt><trkpt lat="43.986939846507255" lon="5.565744333366169"><ele>682.0</ele><time>2026-05-03T16:38:50.998Z</time></trkpt><trkpt lat="43.98688043302814" lon="5.565693633919262"><ele>682.0</ele><time>2026-05-03T16:38:51.998Z</time></trkpt><trkpt lat="43.98680774270613" lon="5.565635103141657"><ele>682.0</ele><time>2026-05-03T16:38:52.998Z</time></trkpt><trkpt lat="43.986735825967614" lon="5.565581408838538"><ele>683.0</ele><time>2026-05-03T16:38:53.998Z</time></trkpt><trkpt lat="43.98666353112674" lon="5.565528074985714"><ele>684.0</ele><time>2026-05-03T16:38:54.998Z</time></trkpt><trkpt lat="43.986597170468826" lon="5.5654791189086925"><ele>685.0</ele><time>2026-05-03T16:38:55.998Z</time></trkpt><trkpt lat="43.98652171563987" lon="5.565421842274198"><ele>686.0</ele><time>2026-05-03T16:38:56.998Z</time></trkpt><trkpt lat="43.986443621093855" lon="5.565360191003435"><ele>687.0</ele><time>2026-05-03T16:38:57.998Z</time></trkpt><trkpt lat="43.9863623517105" lon="5.565295019616798"><ele>688.0</ele><time>2026-05-03T16:38:58.998Z</time></trkpt><trkpt lat="43.986278829298946" lon="5.565228041615046"><ele>688.0</ele><time>2026-05-03T16:38:59.998Z</time></trkpt><trkpt lat="43.986194897465474" lon="5.565156399409733"><ele>688.0</ele><time>2026-05-03T16:39:00.998Z</time></trkpt><trkpt lat="43.986115797477986" lon="5.5650979154561275"><ele>688.0</ele><time>2026-05-03T16:39:01.998Z</time></trkpt><trkpt lat="43.98603293454563" lon="5.5650552707414125"><ele>688.0</ele><time>2026-05-03T16:39:02.998Z</time></trkpt><trkpt lat="43.98593762870384" lon="5.565041265505212"><ele>688.0</ele><time>2026-05-03T16:39:04Z</time></trkpt><trkpt lat="43.98585780706929" lon="5.565050719049786"><ele>687.4285714285714</ele><time>2026-05-03T16:39:05Z</time></trkpt><trkpt lat="43.985784456664966" lon="5.565069330564838"><ele>686.8571428571429</ele><time>2026-05-03T16:39:06Z</time></trkpt><trkpt lat="43.98570333988312" lon="5.56506411623999"><ele>686.2857142857142</ele><time>2026-05-03T16:39:07Z</time></trkpt><trkpt lat="43.98563874553795" lon="5.565068197691947"><ele>685.7142857142858</ele><time>2026-05-03T16:39:08Z</time></trkpt><trkpt lat="43.98556972246898" lon="5.5650705414017985"><ele>685.1428571428571</ele><time>2026-05-03T16:39:09Z</time></trkpt><trkpt lat="43.98549958583233" lon="5.565070957990873"><ele>684.5714285714286</ele><time>2026-05-03T16:39:10Z</time></trkpt><trkpt lat="43.98543176698533" lon="5.5650183883715965"><ele>684.0</ele><time>2026-05-03T16:39:11Z</time></trkpt><trkpt lat="43.9853680848534" lon="5.564936684530953"><ele>684.0</ele><time>2026-05-03T16:39:12Z</time></trkpt><trkpt lat="43.98531054523718" lon="5.564854644793181"><ele>684.0</ele><time>2026-05-03T16:39:13Z</time></trkpt><trkpt lat="43.98523396523748" lon="5.564785562102037"><ele>684.0</ele><time>2026-05-03T16:39:14Z</time></trkpt><trkpt lat="43.985140931364306" lon="5.564760713122905"><ele>684.0</ele><time>2026-05-03T16:39:15Z</time></trkpt><trkpt lat="43.985042370410724" lon="5.564758149162421"><ele>684.0</ele><time>2026-05-03T16:39:16Z</time></trkpt><trkpt lat="43.98496419147485" lon="5.564730475576985"><ele>684.0</ele><time>2026-05-03T16:39:17Z</time></trkpt><trkpt lat="43.98488874855793" lon="5.564698271523528"><ele>682.8333333333334</ele><time>2026-05-03T16:39:18Z</time></trkpt><trkpt lat="43.984812496981206" lon="5.564652006174279"><ele>681.6666666666666</ele><time>2026-05-03T16:39:19Z</time></trkpt><trkpt lat="43.98473023470037" lon="5.564601267712726"><ele>680.5</ele><time>2026-05-03T16:39:20Z</time></trkpt><trkpt lat="43.984661643406845" lon="5.564554238052608"><ele>679.3333333333333</ele><time>2026-05-03T16:39:21Z</time></trkpt><trkpt lat="43.98459694424046" lon="5.564508968229889"><ele>678.1666666666666</ele><time>2026-05-03T16:39:22Z</time></trkpt><trkpt lat="43.98452627314646" lon="5.564461834659287"><ele>677.0</ele><time>2026-05-03T16:39:23Z</time></trkpt><trkpt lat="43.98445724590776" lon="5.564416829281032"><ele>678.5714285714286</ele><time>2026-05-03T16:39:24Z</time></trkpt><trkpt lat="43.9843896377851" lon="5.564372749120261"><ele>680.1428571428571</ele><time>2026-05-03T16:39:25Z</time></trkpt><trkpt lat="43.98433132584575" lon="5.564332536597348"><ele>681.7142857142858</ele><time>2026-05-03T16:39:26Z</time></trkpt><trkpt lat="43.984273686640144" lon="5.564287596632309"><ele>683.2857142857142</ele><time>2026-05-03T16:39:27Z</time></trkpt><trkpt lat="43.984216362466775" lon="5.564240681270043"><ele>684.8571428571429</ele><time>2026-05-03T16:39:28Z</time></trkpt><trkpt lat="43.9841539718805" lon="5.564188764911811"><ele>686.4285714285714</ele><time>2026-05-03T16:39:29Z</time></trkpt><trkpt lat="43.98409069990625" lon="5.564135442158594"><ele>688.0</ele><time>2026-05-03T16:39:30Z</time></trkpt><trkpt lat="43.98402120992441" lon="5.5641007322845075"><ele>688.0000000000001</ele><time>2026-05-03T16:39:31Z</time></trkpt><trkpt lat="43.98395771980742" lon="5.5640475903031295"><ele>688.0</ele><time>2026-05-03T16:39:32Z</time></trkpt><trkpt lat="43.98389727028384" lon="5.564002008489687"><ele>688.0</ele><time>2026-05-03T16:39:33Z</time></trkpt><trkpt lat="43.983838886575164" lon="5.563968835474905"><ele>688.0</ele><time>2026-05-03T16:39:34Z</time></trkpt><trkpt lat="43.98377236282127" lon="5.563935483085564"><ele>688.0</ele><time>2026-05-03T16:39:35Z</time></trkpt><trkpt lat="43.98370176824526" lon="5.563919130078587"><ele>688.0000000000001</ele><time>2026-05-03T16:39:36Z</time></trkpt><trkpt lat="43.983631327387684" lon="5.563902247065891"><ele>688.0</ele><time>2026-05-03T16:39:37Z</time></trkpt><trkpt lat="43.98355194171542" lon="5.563882659430222"><ele>688.0</ele><time>2026-05-03T16:39:38Z</time></trkpt><trkpt lat="43.983483869494776" lon="5.563865863265436"><ele>688.0</ele><time>2026-05-03T16:39:39Z</time></trkpt><trkpt lat="43.983395154342105" lon="5.563843973653264"><ele>688.0</ele><time>2026-05-03T16:39:40Z</time></trkpt><trkpt lat="43.983312001854756" lon="5.563822955009985"><ele>688.0</ele><time>2026-05-03T16:39:41Z</time></trkpt><trkpt lat="43.98322913075895" lon="5.563801663781837"><ele>688.0</ele><time>2026-05-03T16:39:42Z</time></trkpt><trkpt lat="43.98314192810796" lon="5.563777509550814"><ele>688.0</ele><time>2026-05-03T16:39:43Z</time></trkpt><trkpt lat="43.98305723961673" lon="5.563753866523797"><ele>687.1666666666667</ele><time>2026-05-03T16:39:44Z</time></trkpt><trkpt lat="43.982976881184214" lon="5.563731432421969"><ele>686.3333333333334</ele><time>2026-05-03T16:39:45Z</time></trkpt><trkpt lat="43.982893059405754" lon="5.563708031331236"><ele>685.5</ele><time>2026-05-03T16:39:46Z</time></trkpt><trkpt lat="43.9828204330582" lon="5.563687755790579"><ele>684.6666666666666</ele><time>2026-05-03T16:39:47Z</time></trkpt><trkpt lat="43.98275285859564" lon="5.5636688905880565"><ele>683.8333333333333</ele><time>2026-05-03T16:39:48Z</time></trkpt><trkpt lat="43.982632902626484" lon="5.563632543804521"><ele>683.0</ele><time>2026-05-03T16:39:49.999Z</time></trkpt><trkpt lat="43.982517907137634" lon="5.563597673251227"><ele>685.2</ele><time>2026-05-03T16:39:51.999Z</time></trkpt><trkpt lat="43.98241783088222" lon="5.563582369559469"><ele>687.4</ele><time>2026-05-03T16:39:53.999Z</time></trkpt><trkpt lat="43.982314001946825" lon="5.563523443846114"><ele>689.6</ele><time>2026-05-03T16:39:55.999Z</time></trkpt><trkpt lat="43.98223800603127" lon="5.563501477579575"><ele>691.8000000000001</ele><time>2026-05-03T16:39:57.999Z</time></trkpt><trkpt lat="43.98218270617326" lon="5.56342518583581"><ele>694.0</ele><time>2026-05-03T16:39:59.999Z</time></trkpt><trkpt lat="43.98217249073759" lon="5.563268924257278"><ele>694.0</ele><time>2026-05-03T16:40:01.999Z</time></trkpt><trkpt lat="43.98215335741146" lon="5.563128075496214"><ele>694.0</ele><time>2026-05-03T16:40:03.999Z</time></trkpt><trkpt lat="43.98211648677152" lon="5.563028636814286"><ele>694.0</ele><time>2026-05-03T16:40:05.999Z</time></trkpt><trkpt lat="43.982071478126194" lon="5.562961499616738"><ele>694.0</ele><time>2026-05-03T16:40:07.999Z</time></trkpt><trkpt lat="43.981997977364756" lon="5.562931199122486"><ele>694.0</ele><time>2026-05-03T16:40:10.999Z</time></trkpt><trkpt lat="43.98202298338967" lon="5.562834179446161"><ele>694.0</ele><time>2026-05-03T16:40:13.999Z</time></trkpt><trkpt lat="43.982023898275855" lon="5.562744161645666"><ele>694.0</ele><time>2026-05-03T16:40:16.999Z</time></trkpt><trkpt lat="43.982023676792174" lon="5.56283481899061"><ele>694.0</ele><time>2026-05-03T16:40:20.999Z</time></trkpt><trkpt lat="43.98201180667659" lon="5.562949831617746"><ele>694.0</ele><time>2026-05-03T16:40:23.999Z</time></trkpt><trkpt lat="43.98190053024907" lon="5.562933289863037"><ele>694.0</ele><time>2026-05-03T16:40:24.999Z</time></trkpt><trkpt lat="43.98184036326907" lon="5.562963118365345"><ele>694.0</ele><time>2026-05-03T16:40:28.999Z</time></trkpt><trkpt lat="43.98171437879117" lon="5.562861494331543"><ele>695.5</ele><time>2026-05-03T16:40:31.999Z</time></trkpt><trkpt lat="43.981631190890944" lon="5.562849703805181"><ele>697.0</ele><time>2026-05-03T16:40:34.999Z</time></trkpt><trkpt lat="43.98154717879125" lon="5.5628316628332755"><ele>698.5</ele><time>2026-05-03T16:40:37.999Z</time></trkpt><trkpt lat="43.98148536370501" lon="5.562811343105966"><ele>700.0</ele><time>2026-05-03T16:40:39.999Z</time></trkpt><trkpt lat="43.981451216361584" lon="5.562731519658261"><ele>701.5</ele><time>2026-05-03T16:40:42.999Z</time></trkpt><trkpt lat="43.981368895142644" lon="5.562723355715047"><ele>703.0</ele><time>2026-05-03T16:40:47.999Z</time></trkpt><trkpt lat="43.98129474253733" lon="5.562734552926234"><ele>703.0</ele><time>2026-05-03T16:40:49.999Z</time></trkpt><trkpt lat="43.98120831862934" lon="5.562714082880141"><ele>703.0</ele><time>2026-05-03T16:40:52.998Z</time></trkpt><trkpt lat="43.98112981532869" lon="5.562689643193836"><ele>703.0</ele><time>2026-05-03T16:40:55.998Z</time></trkpt><trkpt lat="43.9810652655269" lon="5.562692652102005"><ele>703.0</ele><time>2026-05-03T16:40:57.998Z</time></trkpt><trkpt lat="43.980961607280676" lon="5.562681408857886"><ele>703.0</ele><time>2026-05-03T16:41:00.998Z</time></trkpt><trkpt lat="43.98090857060338" lon="5.5626093527595595"><ele>703.0</ele><time>2026-05-03T16:41:02.998Z</time></trkpt><trkpt lat="43.980855647113295" lon="5.562502630304633"><ele>703.0</ele><time>2026-05-03T16:41:06.998Z</time></trkpt><trkpt lat="43.98082183332247" lon="5.562428048616934"><ele>703.0</ele><time>2026-05-03T16:41:12Z</time></trkpt><trkpt lat="43.98086231925702" lon="5.562345343057034"><ele>703.0</ele><time>2026-05-03T16:41:16Z</time></trkpt><trkpt lat="43.98081991929448" lon="5.5622379071118395"><ele>703.0</ele><time>2026-05-03T16:41:19Z</time></trkpt><trkpt lat="43.98083577298445" lon="5.562114651572844"><ele>703.0</ele><time>2026-05-03T16:41:22Z</time></trkpt><trkpt lat="43.98082963375436" lon="5.562015475056326"><ele>703.0</ele><time>2026-05-03T16:41:25Z</time></trkpt><trkpt lat="43.980830880560625" lon="5.561899829546443"><ele>704.8333333333334</ele><time>2026-05-03T16:41:28Z</time></trkpt><trkpt lat="43.980882647863794" lon="5.561819474841601"><ele>706.6666666666667</ele><time>2026-05-03T16:41:31Z</time></trkpt><trkpt lat="43.980956102547815" lon="5.56178141187789"><ele>708.5</ele><time>2026-05-03T16:41:34Z</time></trkpt><trkpt lat="43.98098275477569" lon="5.561672894903032"><ele>710.3333333333334</ele><time>2026-05-03T16:41:38Z</time></trkpt><trkpt lat="43.980999480974056" lon="5.561586321933342"><ele>712.1666666666666</ele><time>2026-05-03T16:41:40Z</time></trkpt><trkpt lat="43.98102027808889" lon="5.561476582483659"><ele>714.0</ele><time>2026-05-03T16:41:43Z</time></trkpt><trkpt lat="43.98106388131036" lon="5.561381755726264"><ele>714.0</ele><time>2026-05-03T16:41:47Z</time></trkpt><trkpt lat="43.98112585274648" lon="5.561297686229069"><ele>714.0</ele><time>2026-05-03T16:41:50Z</time></trkpt><trkpt lat="43.98120844730526" lon="5.561248943411719"><ele>714.0</ele><time>2026-05-03T16:41:53Z</time></trkpt><trkpt lat="43.981273160406566" lon="5.5612166337221725"><ele>714.0</ele><time>2026-05-03T16:41:55Z</time></trkpt><trkpt lat="43.9813352695025" lon="5.56114632296466"><ele>714.0</ele><time>2026-05-03T16:41:56.999Z</time></trkpt><trkpt lat="43.98135842548081" lon="5.561005992384477"><ele>714.0</ele><time>2026-05-03T16:41:58.999Z</time></trkpt><trkpt lat="43.9814047609073" lon="5.560859918082099"><ele>715.6</ele><time>2026-05-03T16:42:00.999Z</time></trkpt><trkpt lat="43.981458966277515" lon="5.56071431106064"><ele>717.2</ele><time>2026-05-03T16:42:02.999Z</time></trkpt><trkpt lat="43.98149444524453" lon="5.560577432610691"><ele>718.8000000000001</ele><time>2026-05-03T16:42:04.999Z</time></trkpt><trkpt lat="43.981533929719895" lon="5.5604441629205805"><ele>720.4000000000001</ele><time>2026-05-03T16:42:06.999Z</time></trkpt><trkpt lat="43.98156914608043" lon="5.5603014928032115"><ele>722.0</ele><time>2026-05-03T16:42:08.999Z</time></trkpt><trkpt lat="43.981644216116955" lon="5.560206958866657"><ele>723.3333333333333</ele><time>2026-05-03T16:42:10.999Z</time></trkpt><trkpt lat="43.98161484871184" lon="5.560105302266467"><ele>724.6666666666666</ele><time>2026-05-03T16:42:11.999Z</time></trkpt><trkpt lat="43.981639772786714" lon="5.559937249276912"><ele>726.0</ele><time>2026-05-03T16:42:13.999Z</time></trkpt><trkpt lat="43.98167797632086" lon="5.55985431241143"><ele>727.3333333333334</ele><time>2026-05-03T16:42:14.999Z</time></trkpt><trkpt lat="43.98171519027034" lon="5.559772249758127"><ele>728.6666666666667</ele><time>2026-05-03T16:42:15.999Z</time></trkpt><trkpt lat="43.98174680512543" lon="5.559688303480876"><ele>730.0</ele><time>2026-05-03T16:42:16.999Z</time></trkpt><trkpt lat="43.98177806778922" lon="5.559605292480519"><ele>731.8571428571429</ele><time>2026-05-03T16:42:17.999Z</time></trkpt><trkpt lat="43.981806678636794" lon="5.55952189992328"><ele>733.7142857142858</ele><time>2026-05-03T16:42:18.999Z</time></trkpt><trkpt lat="43.98183389260442" lon="5.559440819504814"><ele>735.5714285714287</ele><time>2026-05-03T16:42:19.999Z</time></trkpt><trkpt lat="43.98186141847536" lon="5.55935594780438"><ele>737.4285714285714</ele><time>2026-05-03T16:42:20.999Z</time></trkpt><trkpt lat="43.98187362556125" lon="5.559253534787865"><ele>739.2857142857142</ele><time>2026-05-03T16:42:21.999Z</time></trkpt><trkpt lat="43.981898264073735" lon="5.559163373311516"><ele>741.1428571428572</ele><time>2026-05-03T16:42:22.999Z</time></trkpt><trkpt lat="43.9819214581827" lon="5.559070612736455"><ele>743.0</ele><time>2026-05-03T16:42:23.999Z</time></trkpt><trkpt lat="43.98195235355874" lon="5.558990108217667"><ele>743.0</ele><time>2026-05-03T16:42:24.999Z</time></trkpt><trkpt lat="43.981964544269694" lon="5.558899699863829"><ele>743.0</ele><time>2026-05-03T16:42:25.999Z</time></trkpt><trkpt lat="43.98198397300078" lon="5.558810841547797"><ele>743.0</ele><time>2026-05-03T16:42:26.999Z</time></trkpt><trkpt lat="43.982004119943014" lon="5.55872372514111"><ele>743.0</ele><time>2026-05-03T16:42:27.999Z</time></trkpt><trkpt lat="43.98202972954183" lon="5.558636007987767"><ele>743.0</ele><time>2026-05-03T16:42:28.999Z</time></trkpt><trkpt lat="43.98205819347444" lon="5.558553045995331"><ele>743.0</ele><time>2026-05-03T16:42:29.999Z</time></trkpt><trkpt lat="43.982088467510614" lon="5.558469948754981"><ele>743.0</ele><time>2026-05-03T16:42:30.999Z</time></trkpt><trkpt lat="43.9821290925505" lon="5.558365771163391"><ele>743.8571428571429</ele><time>2026-05-03T16:42:31.999Z</time></trkpt><trkpt lat="43.98216106964684" lon="5.55827469503093"><ele>744.7142857142857</ele><time>2026-05-03T16:42:32.999Z</time></trkpt><trkpt lat="43.982184524249334" lon="5.558185625042401"><ele>745.5714285714286</ele><time>2026-05-03T16:42:33.999Z</time></trkpt><trkpt lat="43.98220960754761" lon="5.558099591538916"><ele>746.4285714285714</ele><time>2026-05-03T16:42:34.999Z</time></trkpt><trkpt lat="43.982243872786675" lon="5.558017189941521"><ele>747.2857142857142</ele><time>2026-05-03T16:42:35.999Z</time></trkpt><trkpt lat="43.982279100384055" lon="5.55792878204498"><ele>748.1428571428571</ele><time>2026-05-03T16:42:36.999Z</time></trkpt><trkpt lat="43.982329023132046" lon="5.557851085458281"><ele>749.0</ele><time>2026-05-03T16:42:37.999Z</time></trkpt><trkpt lat="43.98235897935578" lon="5.557767008624032"><ele>750.5</ele><time>2026-05-03T16:42:38.999Z</time></trkpt><trkpt lat="43.9823927840613" lon="5.5576880432380005"><ele>752.0</ele><time>2026-05-03T16:42:39.999Z</time></trkpt><trkpt lat="43.98242029166942" lon="5.557537847791637"><ele>753.5</ele><time>2026-05-03T16:42:41.999Z</time></trkpt><trkpt lat="43.982473161645814" lon="5.557388465442185"><ele>755.0</ele><time>2026-05-03T16:42:43.999Z</time></trkpt><trkpt lat="43.98251574860547" lon="5.557303936089218"><ele>756.5</ele><time>2026-05-03T16:42:44.999Z</time></trkpt><trkpt lat="43.98257063317155" lon="5.557240613161462"><ele>758.0</ele><time>2026-05-03T16:42:45.999Z</time></trkpt><trkpt lat="43.98262355724615" lon="5.557175174011089"><ele>758.8333333333333</ele><time>2026-05-03T16:42:46.999Z</time></trkpt><trkpt lat="43.98265999437988" lon="5.557083277196654"><ele>759.6666666666666</ele><time>2026-05-03T16:42:47.999Z</time></trkpt><trkpt lat="43.98267062270949" lon="5.5569655765047195"><ele>760.5</ele><time>2026-05-03T16:42:48.999Z</time></trkpt><trkpt lat="43.982684896121604" lon="5.556850423814051"><ele>761.3333333333334</ele><time>2026-05-03T16:42:49.999Z</time></trkpt><trkpt lat="43.98269943701828" lon="5.556733894529233"><ele>762.1666666666667</ele><time>2026-05-03T16:42:50.999Z</time></trkpt><trkpt lat="43.98270862607572" lon="5.556619196148651"><ele>763.0</ele><time>2026-05-03T16:42:51.999Z</time></trkpt><trkpt lat="43.982709254260435" lon="5.55650853792136"><ele>763.4285714285714</ele><time>2026-05-03T16:42:52.999Z</time></trkpt><trkpt lat="43.98271986998667" lon="5.556408203159798"><ele>763.8571428571429</ele><time>2026-05-03T16:42:53.999Z</time></trkpt><trkpt lat="43.98269938744126" lon="5.556306771329415"><ele>764.2857142857142</ele><time>2026-05-03T16:42:54.999Z</time></trkpt><trkpt lat="43.982696879631305" lon="5.556202696063496"><ele>764.7142857142858</ele><time>2026-05-03T16:42:55.999Z</time></trkpt><trkpt lat="43.98267750786166" lon="5.556107229919602"><ele>765.1428571428571</ele><time>2026-05-03T16:42:56.999Z</time></trkpt><trkpt lat="43.98266201610486" lon="5.556020948977737"><ele>765.5714285714286</ele><time>2026-05-03T16:42:57.999Z</time></trkpt><trkpt lat="43.98264842141542" lon="5.555931305740991"><ele>766.0</ele><time>2026-05-03T16:42:58.999Z</time></trkpt><trkpt lat="43.9826386907542" lon="5.555841343128886"><ele>767.0</ele><time>2026-05-03T16:42:59.998Z</time></trkpt><trkpt lat="43.98263300800257" lon="5.5557476661246"><ele>768.0</ele><time>2026-05-03T16:43:00.998Z</time></trkpt><trkpt lat="43.982637339005954" lon="5.555647835461846"><ele>769.0</ele><time>2026-05-03T16:43:01.998Z</time></trkpt><trkpt lat="43.98264401970135" lon="5.5555495257163745"><ele>770.0</ele><time>2026-05-03T16:43:02.998Z</time></trkpt><trkpt lat="43.982656032171356" lon="5.555456221865971"><ele>771.0</ele><time>2026-05-03T16:43:03.998Z</time></trkpt><trkpt lat="43.982673353320344" lon="5.555364275924215"><ele>772.0</ele><time>2026-05-03T16:43:04.998Z</time></trkpt><trkpt lat="43.982697121903" lon="5.555273668614186"><ele>773.0</ele><time>2026-05-03T16:43:05.998Z</time></trkpt><trkpt lat="43.98272238410435" lon="5.555180990081623"><ele>773.7142857142857</ele><time>2026-05-03T16:43:06.998Z</time></trkpt><trkpt lat="43.98274926061647" lon="5.555090874235481"><ele>774.4285714285713</ele><time>2026-05-03T16:43:07.998Z</time></trkpt><trkpt lat="43.9827790882186" lon="5.555002150774869"><ele>775.1428571428571</ele><time>2026-05-03T16:43:08.998Z</time></trkpt><trkpt lat="43.982799128554035" lon="5.554912239561832"><ele>775.8571428571429</ele><time>2026-05-03T16:43:09.998Z</time></trkpt><trkpt lat="43.98281930327703" lon="5.554817970332143"><ele>776.5714285714286</ele><time>2026-05-03T16:43:10.998Z</time></trkpt><trkpt lat="43.98280618573779" lon="5.554718735026849"><ele>777.2857142857143</ele><time>2026-05-03T16:43:11.998Z</time></trkpt><trkpt lat="43.982767947315736" lon="5.554627871480347"><ele>778.0</ele><time>2026-05-03T16:43:12.998Z</time></trkpt><trkpt lat="43.98277374840783" lon="5.554532019780475"><ele>778.7142857142858</ele><time>2026-05-03T16:43:13.998Z</time></trkpt><trkpt lat="43.98277174783973" lon="5.554440930325969"><ele>779.4285714285713</ele><time>2026-05-03T16:43:14.998Z</time></trkpt><trkpt lat="43.98277708389669" lon="5.5543435927825"><ele>780.1428571428571</ele><time>2026-05-03T16:43:16Z</time></trkpt><trkpt lat="43.98278822226249" lon="5.554246431467792"><ele>780.8571428571429</ele><time>2026-05-03T16:43:17Z</time></trkpt><trkpt lat="43.98279972218886" lon="5.554150692647911"><ele>781.5714285714287</ele><time>2026-05-03T16:43:18Z</time></trkpt><trkpt lat="43.98280703706775" lon="5.55404978652709"><ele>782.2857142857142</ele><time>2026-05-03T16:43:19Z</time></trkpt><trkpt lat="43.982795348606764" lon="5.553957234657753"><ele>783.0</ele><time>2026-05-03T16:43:20Z</time></trkpt><trkpt lat="43.98280432130984" lon="5.55386329654042"><ele>783.0</ele><time>2026-05-03T16:43:21Z</time></trkpt><trkpt lat="43.9827920377027" lon="5.553773715537221"><ele>783.0</ele><time>2026-05-03T16:43:22Z</time></trkpt><trkpt lat="43.98277636428105" lon="5.553680447551769"><ele>783.0</ele><time>2026-05-03T16:43:23Z</time></trkpt><trkpt lat="43.98275864565663" lon="5.55358730508735"><ele>783.0</ele><time>2026-05-03T16:43:24Z</time></trkpt><trkpt lat="43.982740480733945" lon="5.553498985737238"><ele>783.0</ele><time>2026-05-03T16:43:25Z</time></trkpt><trkpt lat="43.982721243656535" lon="5.553413027702347"><ele>783.0</ele><time>2026-05-03T16:43:26Z</time></trkpt><trkpt lat="43.98268434468164" lon="5.553334386285906"><ele>783.0</ele><time>2026-05-03T16:43:27Z</time></trkpt><trkpt lat="43.98266535387132" lon="5.553241931425616"><ele>784.1666666666666</ele><time>2026-05-03T16:43:28Z</time></trkpt><trkpt lat="43.982644113414345" lon="5.553157576980004"><ele>785.3333333333333</ele><time>2026-05-03T16:43:29Z</time></trkpt><trkpt lat="43.98263687540319" lon="5.55299813066764"><ele>786.5</ele><time>2026-05-03T16:43:31Z</time></trkpt><trkpt lat="43.9826021924533" lon="5.552826028083827"><ele>787.6666666666666</ele><time>2026-05-03T16:43:33Z</time></trkpt><trkpt lat="43.98257939798914" lon="5.552740678738668"><ele>788.8333333333333</ele><time>2026-05-03T16:43:34Z</time></trkpt><trkpt lat="43.98257692257165" lon="5.552649081110848"><ele>790.0</ele><time>2026-05-03T16:43:35Z</time></trkpt><trkpt lat="43.98255934931533" lon="5.552563420826607"><ele>790.25</ele><time>2026-05-03T16:43:36Z</time></trkpt><trkpt lat="43.98253104431157" lon="5.552398849136015"><ele>790.5</ele><time>2026-05-03T16:43:38Z</time></trkpt><trkpt lat="43.98250490861497" lon="5.552241971116554"><ele>790.75</ele><time>2026-05-03T16:43:40Z</time></trkpt><trkpt lat="43.982507275587956" lon="5.552075059686913"><ele>791.0</ele><time>2026-05-03T16:43:42Z</time></trkpt><trkpt lat="43.982518931178156" lon="5.551910655920172"><ele>793.75</ele><time>2026-05-03T16:43:44Z</time></trkpt><trkpt lat="43.98254133758717" lon="5.551754353022678"><ele>796.5</ele><time>2026-05-03T16:43:46Z</time></trkpt><trkpt lat="43.982557910573114" lon="5.551604659708578"><ele>799.25</ele><time>2026-05-03T16:43:48Z</time></trkpt><trkpt lat="43.98256152194652" lon="5.5514399112301565"><ele>802.0</ele><time>2026-05-03T16:43:50Z</time></trkpt><trkpt lat="43.9825477609669" lon="5.551275307000623"><ele>802.0</ele><time>2026-05-03T16:43:52Z</time></trkpt><trkpt lat="43.98251879295385" lon="5.5511290416096815"><ele>802.0</ele><time>2026-05-03T16:43:54Z</time></trkpt><trkpt lat="43.98247504185509" lon="5.551002106200172"><ele>802.0</ele><time>2026-05-03T16:43:56Z</time></trkpt><trkpt lat="43.98241301611361" lon="5.550858347255951"><ele>802.0</ele><time>2026-05-03T16:43:57.999Z</time></trkpt><trkpt lat="43.982343296827" lon="5.550748855964317"><ele>802.0</ele><time>2026-05-03T16:43:59.999Z</time></trkpt><trkpt lat="43.98225308942767" lon="5.550693169272856"><ele>802.0</ele><time>2026-05-03T16:44:01.999Z</time></trkpt><trkpt lat="43.9821832483692" lon="5.550675158587597"><ele>802.0</ele><time>2026-05-03T16:44:03.999Z</time></trkpt><trkpt lat="43.982110209663" lon="5.550666001937361"><ele>802.0</ele><time>2026-05-03T16:44:07.999Z</time></trkpt><trkpt lat="43.98223462908981" lon="5.5507040548596525"><ele>802.0</ele><time>2026-05-03T16:44:14.999Z</time></trkpt><trkpt lat="43.98218275459209" lon="5.550633951974926"><ele>802.0</ele><time>2026-05-03T16:44:22.999Z</time></trkpt><trkpt lat="43.98221822112891" lon="5.5504136169525395"><ele>803.1666666666666</ele><time>2026-05-03T16:44:23.999Z</time></trkpt><trkpt lat="43.982209488938395" lon="5.550325862134079"><ele>804.3333333333333</ele><time>2026-05-03T16:44:25.999Z</time></trkpt><trkpt lat="43.98219668990996" lon="5.550225482635622"><ele>805.5</ele><time>2026-05-03T16:44:28.999Z</time></trkpt><trkpt lat="43.982191993166865" lon="5.550095755152292"><ele>806.6666666666667</ele><time>2026-05-03T16:44:31.999Z</time></trkpt><trkpt lat="43.982194031136835" lon="5.549971146469485"><ele>807.8333333333334</ele><time>2026-05-03T16:44:34.999Z</time></trkpt><trkpt lat="43.98220241480474" lon="5.54984266177233"><ele>809.0</ele><time>2026-05-03T16:44:37.999Z</time></trkpt><trkpt lat="43.982224231420595" lon="5.549735201495713"><ele>809.0000000000001</ele><time>2026-05-03T16:44:40.999Z</time></trkpt><trkpt lat="43.98223995688626" lon="5.549649324357815"><ele>809.0</ele><time>2026-05-03T16:44:42.999Z</time></trkpt><trkpt lat="43.9822701165062" lon="5.549528359597567"><ele>809.0</ele><time>2026-05-03T16:44:45.999Z</time></trkpt><trkpt lat="43.9822732454214" lon="5.549435303034103"><ele>809.0</ele><time>2026-05-03T16:44:47.999Z</time></trkpt><trkpt lat="43.98226475355834" lon="5.549335421147058"><ele>809.0000000000001</ele><time>2026-05-03T16:44:49.999Z</time></trkpt><trkpt lat="43.982225456388555" lon="5.549214388678401"><ele>809.0</ele><time>2026-05-03T16:44:51.999Z</time></trkpt><trkpt lat="43.98219644043783" lon="5.549112537044473"><ele>809.8333333333334</ele><time>2026-05-03T16:44:53.999Z</time></trkpt><trkpt lat="43.982148945720645" lon="5.5490424911487155"><ele>810.6666666666667</ele><time>2026-05-03T16:44:55.999Z</time></trkpt><trkpt lat="43.98211636844024" lon="5.548963880454518"><ele>811.5</ele><time>2026-05-03T16:44:57.999Z</time></trkpt><trkpt lat="43.98205798913875" lon="5.548844861208999"><ele>812.3333333333333</ele><time>2026-05-03T16:45:00.998Z</time></trkpt><trkpt lat="43.98203888108503" lon="5.5487488932084625"><ele>813.1666666666666</ele><time>2026-05-03T16:45:02.998Z</time></trkpt><trkpt lat="43.98206320382919" lon="5.548645333952666"><ele>814.0</ele><time>2026-05-03T16:45:06.998Z</time></trkpt><trkpt lat="43.98208920991595" lon="5.548554141634969"><ele>813.9999999999999</ele><time>2026-05-03T16:45:10.998Z</time></trkpt><trkpt lat="43.98212107841535" lon="5.548474145967774"><ele>814.0</ele><time>2026-05-03T16:45:13.998Z</time></trkpt><trkpt lat="43.982165809007064" lon="5.548405277156309"><ele>814.0</ele><time>2026-05-03T16:45:16.998Z</time></trkpt><trkpt lat="43.982234591241074" lon="5.548361317680153"><ele>814.0</ele><time>2026-05-03T16:45:18.998Z</time></trkpt><trkpt lat="43.982313276341834" lon="5.548339437374255"><ele>813.9999999999999</ele><time>2026-05-03T16:45:20.998Z</time></trkpt><trkpt lat="43.98239234069183" lon="5.548270447492543"><ele>814.0</ele><time>2026-05-03T16:45:24Z</time></trkpt><trkpt lat="43.98247009485441" lon="5.548219805178298"><ele>814.6666666666666</ele><time>2026-05-03T16:45:27Z</time></trkpt><trkpt lat="43.98253511639194" lon="5.548232790443781"><ele>815.3333333333333</ele><time>2026-05-03T16:45:29Z</time></trkpt><trkpt lat="43.98262152985766" lon="5.548244899866248"><ele>816.0</ele><time>2026-05-03T16:45:32Z</time></trkpt><trkpt lat="43.9826846693714" lon="5.548230569482435"><ele>816.6666666666667</ele><time>2026-05-03T16:45:34Z</time></trkpt><trkpt lat="43.98275410075207" lon="5.548219307713621"><ele>817.3333333333334</ele><time>2026-05-03T16:45:36Z</time></trkpt><trkpt lat="43.9828448338201" lon="5.5482373931340225"><ele>818.0</ele><time>2026-05-03T16:45:41Z</time></trkpt><trkpt lat="43.982925476394904" lon="5.548188755292307"><ele>818.0000000000001</ele><time>2026-05-03T16:45:44Z</time></trkpt><trkpt lat="43.98297400604167" lon="5.548083490509309"><ele>818.0</ele><time>2026-05-03T16:45:47Z</time></trkpt><trkpt lat="43.983031625095464" lon="5.548011276098786"><ele>818.0</ele><time>2026-05-03T16:45:49Z</time></trkpt><trkpt lat="43.983127722041814" lon="5.547967925391745"><ele>818.0</ele><time>2026-05-03T16:45:51Z</time></trkpt><trkpt lat="43.98319755488934" lon="5.54796838102472"><ele>818.0000000000001</ele><time>2026-05-03T16:45:53Z</time></trkpt><trkpt lat="43.98327592263481" lon="5.547976643849424"><ele>818.0</ele><time>2026-05-03T16:45:55Z</time></trkpt><trkpt lat="43.98335720348968" lon="5.54794748087554"><ele>819.3333333333334</ele><time>2026-05-03T16:45:57Z</time></trkpt><trkpt lat="43.98346280833083" lon="5.547956338645517"><ele>820.6666666666667</ele><time>2026-05-03T16:46:00Z</time></trkpt><trkpt lat="43.98354023914965" lon="5.547941600108522"><ele>822.0</ele><time>2026-05-03T16:46:01Z</time></trkpt><trkpt lat="43.98361234755225" lon="5.547936758249717"><ele>823.3333333333333</ele><time>2026-05-03T16:46:02Z</time></trkpt><trkpt lat="43.983684674610735" lon="5.5479337349922035"><ele>824.6666666666666</ele><time>2026-05-03T16:46:03Z</time></trkpt><trkpt lat="43.983748427458636" lon="5.547947874503821"><ele>826.0</ele><time>2026-05-03T16:46:04Z</time></trkpt><trkpt lat="43.98382210740713" lon="5.547957889544625"><ele>825.9999999999999</ele><time>2026-05-03T16:46:04.999Z</time></trkpt><trkpt lat="43.98389641480891" lon="5.547943448421272"><ele>826.0</ele><time>2026-05-03T16:46:05.999Z</time></trkpt><trkpt lat="43.98396158898485" lon="5.547892760940648"><ele>826.0</ele><time>2026-05-03T16:46:06.999Z</time></trkpt><trkpt lat="43.984042943609154" lon="5.547873057136457"><ele>826.0</ele><time>2026-05-03T16:46:08.999Z</time></trkpt><trkpt lat="43.98413811693325" lon="5.5478616657790045"><ele>825.9999999999999</ele><time>2026-05-03T16:46:11.999Z</time></trkpt><trkpt lat="43.98424661729827" lon="5.547873201532444"><ele>826.0</ele><time>2026-05-03T16:46:13.999Z</time></trkpt><trkpt lat="43.984362699707575" lon="5.54784959723042"><ele>826.1666666666666</ele><time>2026-05-03T16:46:15.999Z</time></trkpt><trkpt lat="43.98443281299333" lon="5.54783990934989"><ele>826.3333333333333</ele><time>2026-05-03T16:46:16.999Z</time></trkpt><trkpt lat="43.984504935157965" lon="5.54785220753476"><ele>826.5</ele><time>2026-05-03T16:46:17.999Z</time></trkpt><trkpt lat="43.98457266629089" lon="5.547829446973445"><ele>826.6666666666667</ele><time>2026-05-03T16:46:18.999Z</time></trkpt><trkpt lat="43.98463907443962" lon="5.547833960106875"><ele>826.8333333333334</ele><time>2026-05-03T16:46:19.999Z</time></trkpt><trkpt lat="43.98471383304461" lon="5.5478271173506135"><ele>827.0</ele><time>2026-05-03T16:46:20.999Z</time></trkpt><trkpt lat="43.98482616017977" lon="5.547763029871437"><ele>827.0000000000001</ele><time>2026-05-03T16:46:22.999Z</time></trkpt><trkpt lat="43.98493708745658" lon="5.547717454488576"><ele>827.0</ele><time>2026-05-03T16:46:24.999Z</time></trkpt><trkpt lat="43.98505508069427" lon="5.547689845868496"><ele>827.0</ele><time>2026-05-03T16:46:26.999Z</time></trkpt><trkpt lat="43.98512341168147" lon="5.54765732871303"><ele>827.0</ele><time>2026-05-03T16:46:27.999Z</time></trkpt><trkpt lat="43.98518464846042" lon="5.547628743202655"><ele>827.0000000000001</ele><time>2026-05-03T16:46:28.999Z</time></trkpt><trkpt lat="43.985251230100616" lon="5.5475952998870985"><ele>827.0</ele><time>2026-05-03T16:46:31.999Z</time></trkpt><trkpt lat="43.985330906669546" lon="5.547617313311542"><ele>828.0</ele><time>2026-05-03T16:46:34.999Z</time></trkpt><trkpt lat="43.98547388573321" lon="5.547574540674344"><ele>829.0</ele><time>2026-05-03T16:46:36.999Z</time></trkpt><trkpt lat="43.98556649210199" lon="5.54754756183855"><ele>830.0</ele><time>2026-05-03T16:46:37.999Z</time></trkpt><trkpt lat="43.98563290796249" lon="5.547531438232959"><ele>831.0</ele><time>2026-05-03T16:46:38.999Z</time></trkpt><trkpt lat="43.98569562517977" lon="5.547564027037759"><ele>832.0</ele><time>2026-05-03T16:46:40.999Z</time></trkpt><trkpt lat="43.985767353972726" lon="5.547527017238125"><ele>832.0</ele><time>2026-05-03T16:46:43.999Z</time></trkpt><trkpt lat="43.98578101150204" lon="5.5474140243163115"><ele>832.0</ele><time>2026-05-03T16:46:44.999Z</time></trkpt><trkpt lat="43.98580533402064" lon="5.5472800183548845"><ele>832.0</ele><time>2026-05-03T16:46:45.999Z</time></trkpt><trkpt lat="43.98583594778757" lon="5.547161245877841"><ele>832.0</ele><time>2026-05-03T16:46:46.999Z</time></trkpt><trkpt lat="43.98586917789342" lon="5.5470330315855225"><ele>832.0</ele><time>2026-05-03T16:46:48.999Z</time></trkpt><trkpt lat="43.98592030042898" lon="5.546929664436949"><ele>832.4000000000001</ele><time>2026-05-03T16:46:50.999Z</time></trkpt><trkpt lat="43.98597236698106" lon="5.546880192873325"><ele>832.8000000000001</ele><time>2026-05-03T16:46:51.999Z</time></trkpt><trkpt lat="43.986015233803165" lon="5.546761813831727"><ele>833.2</ele><time>2026-05-03T16:46:53.999Z</time></trkpt><trkpt lat="43.986088497023424" lon="5.546640430541986"><ele>833.6</ele><time>2026-05-03T16:46:55.999Z</time></trkpt><trkpt lat="43.986127342101376" lon="5.546569439490174"><ele>834.0</ele><time>2026-05-03T16:46:56.999Z</time></trkpt><trkpt lat="43.98620353664541" lon="5.546449226356193"><ele>834.0</ele><time>2026-05-03T16:46:58.999Z</time></trkpt><trkpt lat="43.986236088091886" lon="5.546310686067947"><ele>834.0</ele><time>2026-05-03T16:47:00.999Z</time></trkpt><trkpt lat="43.98626435864392" lon="5.546180135645128"><ele>834.0</ele><time>2026-05-03T16:47:02.999Z</time></trkpt><trkpt lat="43.98630076363375" lon="5.546026991285617"><ele>834.0</ele><time>2026-05-03T16:47:04.999Z</time></trkpt><trkpt lat="43.9863417884778" lon="5.545922893702181"><ele>834.0</ele><time>2026-05-03T16:47:05.999Z</time></trkpt><trkpt lat="43.98640869031051" lon="5.545798887658714"><ele>833.0</ele><time>2026-05-03T16:47:06.998Z</time></trkpt><trkpt lat="43.98646510611245" lon="5.545689948520039"><ele>832.0</ele><time>2026-05-03T16:47:07.998Z</time></trkpt><trkpt lat="43.98649440642081" lon="5.545603018268237"><ele>831.0</ele><time>2026-05-03T16:47:08.998Z</time></trkpt><trkpt lat="43.98648617983926" lon="5.545505493407724"><ele>830.0</ele><time>2026-05-03T16:47:10.998Z</time></trkpt><trkpt lat="43.986508358443594" lon="5.545328355060925"><ele>829.0</ele><time>2026-05-03T16:47:12.998Z</time></trkpt><trkpt lat="43.986549811375575" lon="5.54518956866593"><ele>828.8000000000001</ele><time>2026-05-03T16:47:14.998Z</time></trkpt><trkpt lat="43.98659969075702" lon="5.545044573537623"><ele>828.6</ele><time>2026-05-03T16:47:16.998Z</time></trkpt><trkpt lat="43.98662139988149" lon="5.544922904267831"><ele>828.4</ele><time>2026-05-03T16:47:18.998Z</time></trkpt><trkpt lat="43.986703303063734" lon="5.544834725053102"><ele>828.2</ele><time>2026-05-03T16:47:20.998Z</time></trkpt><trkpt lat="43.98676530714488" lon="5.544783278131462"><ele>828.0</ele><time>2026-05-03T16:47:21.998Z</time></trkpt><trkpt lat="43.986835494151386" lon="5.5447147937519965"><ele>828.0</ele><time>2026-05-03T16:47:22.998Z</time></trkpt><trkpt lat="43.98688346425408" lon="5.544647344152815"><ele>828.0</ele><time>2026-05-03T16:47:23.998Z</time></trkpt><trkpt lat="43.986939800986626" lon="5.544604172757962"><ele>828.0</ele><time>2026-05-03T16:47:24.998Z</time></trkpt><trkpt lat="43.98700508266544" lon="5.544569338209672"><ele>828.0</ele><time>2026-05-03T16:47:25.998Z</time></trkpt><trkpt lat="43.98711205219214" lon="5.544505639344953"><ele>828.0</ele><time>2026-05-03T16:47:28Z</time></trkpt><trkpt lat="43.98716372462437" lon="5.544434698231311"><ele>828.0</ele><time>2026-05-03T16:47:29Z</time></trkpt><trkpt lat="43.987232720524055" lon="5.544329644438989"><ele>827.1666666666666</ele><time>2026-05-03T16:47:30Z</time></trkpt><trkpt lat="43.98730058327064" lon="5.544266914654123"><ele>826.3333333333333</ele><time>2026-05-03T16:47:31Z</time></trkpt><trkpt lat="43.98735495210876" lon="5.544165826799454"><ele>825.5</ele><time>2026-05-03T16:47:32Z</time></trkpt><trkpt lat="43.9874155508717" lon="5.544089060373993"><ele>824.6666666666666</ele><time>2026-05-03T16:47:33Z</time></trkpt><trkpt lat="43.98748450496112" lon="5.544009754506821"><ele>823.8333333333333</ele><time>2026-05-03T16:47:34Z</time></trkpt><trkpt lat="43.987545779396676" lon="5.543959222657815"><ele>823.0</ele><time>2026-05-03T16:47:35Z</time></trkpt><trkpt lat="43.987645710538715" lon="5.543865104082265"><ele>823.0</ele><time>2026-05-03T16:47:37Z</time></trkpt><trkpt lat="43.98773194340848" lon="5.543837045282209"><ele>823.0</ele><time>2026-05-03T16:47:39Z</time></trkpt><trkpt lat="43.98785203627527" lon="5.543761518997906"><ele>823.0</ele><time>2026-05-03T16:47:41Z</time></trkpt><trkpt lat="43.98793533552992" lon="5.543703303021713"><ele>823.0</ele><time>2026-05-03T16:47:42Z</time></trkpt><trkpt lat="43.98801186385488" lon="5.543641976075115"><ele>823.0</ele><time>2026-05-03T16:47:43Z</time></trkpt><trkpt lat="43.98807860782153" lon="5.543598227680145"><ele>819.4999999999999</ele><time>2026-05-03T16:47:44Z</time></trkpt><trkpt lat="43.98816000467062" lon="5.543562588457481"><ele>816.0</ele><time>2026-05-03T16:47:45Z</time></trkpt><trkpt lat="43.98823727456551" lon="5.543531667618163"><ele>812.5</ele><time>2026-05-03T16:47:46Z</time></trkpt><trkpt lat="43.98834569497673" lon="5.543494226300141"><ele>809.0</ele><time>2026-05-03T16:47:48Z</time></trkpt><trkpt lat="43.988415363527615" lon="5.543495695480734"><ele>805.4999999999999</ele><time>2026-05-03T16:47:49Z</time></trkpt><trkpt lat="43.98848773329927" lon="5.543497573332916"><ele>802.0</ele><time>2026-05-03T16:47:50Z</time></trkpt><trkpt lat="43.98861163885549" lon="5.543479756963797"><ele>802.0</ele><time>2026-05-03T16:47:52Z</time></trkpt><trkpt lat="43.98868470288672" lon="5.543490504789388"><ele>802.0</ele><time>2026-05-03T16:47:53Z</time></trkpt><trkpt lat="43.988773887517326" lon="5.543488036271424"><ele>802.0</ele><time>2026-05-03T16:47:54Z</time></trkpt><trkpt lat="43.98887720334727" lon="5.543488678025396"><ele>802.0</ele><time>2026-05-03T16:47:55Z</time></trkpt><trkpt lat="43.9889395190431" lon="5.543462554261294"><ele>802.0</ele><time>2026-05-03T16:47:56Z</time></trkpt><trkpt lat="43.98905394763276" lon="5.54340815729096"><ele>801.9999999999999</ele><time>2026-05-03T16:47:58Z</time></trkpt><trkpt lat="43.989121412163136" lon="5.543395630297972"><ele>802.0</ele><time>2026-05-03T16:47:59Z</time></trkpt><trkpt lat="43.9891822473632" lon="5.54336367375712"><ele>802.0</ele><time>2026-05-03T16:48:00Z</time></trkpt><trkpt lat="43.98925353619669" lon="5.543360457836967"><ele>802.0</ele><time>2026-05-03T16:48:01Z</time></trkpt><trkpt lat="43.9893408126697" lon="5.543350021405601"><ele>801.9999999999999</ele><time>2026-05-03T16:48:02Z</time></trkpt><trkpt lat="43.989447514876105" lon="5.543344856077268"><ele>802.0</ele><time>2026-05-03T16:48:03Z</time></trkpt><trkpt lat="43.989530065399336" lon="5.543309350676117"><ele>803.8</ele><time>2026-05-03T16:48:04Z</time></trkpt><trkpt lat="43.98960994583094" lon="5.543271336770607"><ele>805.6</ele><time>2026-05-03T16:48:05Z</time></trkpt><trkpt lat="43.98967505919925" lon="5.54323054395497"><ele>807.4</ele><time>2026-05-03T16:48:06Z</time></trkpt><trkpt lat="43.98977667393596" lon="5.543150241238151"><ele>809.1999999999999</ele><time>2026-05-03T16:48:08Z</time></trkpt><trkpt lat="43.98989892844679" lon="5.543057555421957"><ele>811.0</ele><time>2026-05-03T16:48:09.999Z</time></trkpt><trkpt lat="43.98997617561178" lon="5.543027424661069"><ele>812.3333333333333</ele><time>2026-05-03T16:48:11.999Z</time></trkpt><trkpt lat="43.99003496007353" lon="5.542989082519526"><ele>813.6666666666666</ele><time>2026-05-03T16:48:12.999Z</time></trkpt><trkpt lat="43.990097104700105" lon="5.542946647579582"><ele>815.0</ele><time>2026-05-03T16:48:13.999Z</time></trkpt><trkpt lat="43.99015537325169" lon="5.542913440951366"><ele>816.3333333333333</ele><time>2026-05-03T16:48:14.999Z</time></trkpt><trkpt lat="43.9902197287548" lon="5.542859416541028"><ele>817.6666666666666</ele><time>2026-05-03T16:48:16.999Z</time></trkpt><trkpt lat="43.99030839039079" lon="5.542800861630207"><ele>819.0</ele><time>2026-05-03T16:48:19.999Z</time></trkpt><trkpt lat="43.990379894664116" lon="5.542750479849393"><ele>817.0</ele><time>2026-05-03T16:48:21.999Z</time></trkpt><trkpt lat="43.99045703137548" lon="5.54271212226417"><ele>815.0</ele><time>2026-05-03T16:48:23.999Z</time></trkpt><trkpt lat="43.990515598406134" lon="5.542650778547497"><ele>813.0</ele><time>2026-05-03T16:48:24.999Z</time></trkpt><trkpt lat="43.99058181564623" lon="5.542606941280225"><ele>811.0</ele><time>2026-05-03T16:48:25.999Z</time></trkpt><trkpt lat="43.99065532655333" lon="5.542601069156318"><ele>809.0</ele><time>2026-05-03T16:48:27.999Z</time></trkpt><trkpt lat="43.99077123681237" lon="5.542543339577334"><ele>807.0</ele><time>2026-05-03T16:48:29.999Z</time></trkpt><trkpt lat="43.99086317321754" lon="5.542492966220379"><ele>807.0</ele><time>2026-05-03T16:48:31.999Z</time></trkpt><trkpt lat="43.99097215725607" lon="5.542456292092601"><ele>807.0</ele><time>2026-05-03T16:48:33.999Z</time></trkpt><trkpt lat="43.99104290400748" lon="5.542413632356115"><ele>807.0</ele><time>2026-05-03T16:48:34.999Z</time></trkpt><trkpt lat="43.991122656779716" lon="5.542372176783898"><ele>807.0</ele><time>2026-05-03T16:48:35.999Z</time></trkpt><trkpt lat="43.99121273097394" lon="5.542346999441139"><ele>807.0</ele><time>2026-05-03T16:48:36.999Z</time></trkpt><trkpt lat="43.991276642757356" lon="5.542348709913473"><ele>807.0</ele><time>2026-05-03T16:48:37.999Z</time></trkpt><trkpt lat="43.99134014059284" lon="5.542274254294178"><ele>807.0</ele><time>2026-05-03T16:48:39.999Z</time></trkpt><trkpt lat="43.99146983500955" lon="5.542210979640245"><ele>807.0</ele><time>2026-05-03T16:48:41.999Z</time></trkpt><trkpt lat="43.99154133288322" lon="5.542171708936564"><ele>807.0</ele><time>2026-05-03T16:48:42.999Z</time></trkpt><trkpt lat="43.991604641312094" lon="5.542118859486216"><ele>807.0</ele><time>2026-05-03T16:48:43.999Z</time></trkpt><trkpt lat="43.99171043816259" lon="5.542041250246939"><ele>807.0</ele><time>2026-05-03T16:48:45.999Z</time></trkpt><trkpt lat="43.9917914127911" lon="5.542007914411447"><ele>806.3333333333334</ele><time>2026-05-03T16:48:47.999Z</time></trkpt><trkpt lat="43.991869180895925" lon="5.5419106192992516"><ele>805.6666666666667</ele><time>2026-05-03T16:48:50.999Z</time></trkpt><trkpt lat="43.99195332102528" lon="5.541863445335889"><ele>805.0</ele><time>2026-05-03T16:48:52.999Z</time></trkpt><trkpt lat="43.99201640795996" lon="5.541823373051314"><ele>804.3333333333334</ele><time>2026-05-03T16:48:54.999Z</time></trkpt><trkpt lat="43.99208161037203" lon="5.54177131054458"><ele>803.6666666666667</ele><time>2026-05-03T16:48:56.999Z</time></trkpt><trkpt lat="43.99215407536777" lon="5.541731564715955"><ele>803.0</ele><time>2026-05-03T16:48:58.999Z</time></trkpt><trkpt lat="43.99221482375466" lon="5.5416813767807005"><ele>803.0</ele><time>2026-05-03T16:49:00.999Z</time></trkpt><trkpt lat="43.9922801360586" lon="5.541620595530904"><ele>803.0</ele><time>2026-05-03T16:49:02.999Z</time></trkpt><trkpt lat="43.99237267299816" lon="5.541549757465184"><ele>803.0</ele><time>2026-05-03T16:49:04.999Z</time></trkpt><trkpt lat="43.99242490818709" lon="5.541488296692249"><ele>803.0</ele><time>2026-05-03T16:49:05.999Z</time></trkpt><trkpt lat="43.99251745593056" lon="5.541389266473382"><ele>803.0</ele><time>2026-05-03T16:49:07.999Z</time></trkpt><trkpt lat="43.99259138797522" lon="5.5413224200054705"><ele>803.0</ele><time>2026-05-03T16:49:08.999Z</time></trkpt><trkpt lat="43.99267239966579" lon="5.541233417480975"><ele>803.0</ele><time>2026-05-03T16:49:09.999Z</time></trkpt><trkpt lat="43.99277103653248" lon="5.541144790317744"><ele>803.0</ele><time>2026-05-03T16:49:10.999Z</time></trkpt><trkpt lat="43.99285564441428" lon="5.54106471087344"><ele>803.0</ele><time>2026-05-03T16:49:11.999Z</time></trkpt><trkpt lat="43.99291611006768" lon="5.54099495331554"><ele>803.0</ele><time>2026-05-03T16:49:12.998Z</time></trkpt><trkpt lat="43.992981077135234" lon="5.5409343657674945"><ele>803.0000000000001</ele><time>2026-05-03T16:49:13.998Z</time></trkpt><trkpt lat="43.99303598084128" lon="5.54087011374571"><ele>803.0</ele><time>2026-05-03T16:49:14.998Z</time></trkpt><trkpt lat="43.99313020177748" lon="5.540800481941482"><ele>803.0</ele><time>2026-05-03T16:49:16.998Z</time></trkpt><trkpt lat="43.993201615228585" lon="5.540724993982893"><ele>803.0</ele><time>2026-05-03T16:49:18.998Z</time></trkpt><trkpt lat="43.99328669012393" lon="5.540661226995652"><ele>803.0000000000001</ele><time>2026-05-03T16:49:20.998Z</time></trkpt><trkpt lat="43.99334826440363" lon="5.540588688665461"><ele>803.0</ele><time>2026-05-03T16:49:21.998Z</time></trkpt><trkpt lat="43.99342973912969" lon="5.540516221511756"><ele>803.5999999999999</ele><time>2026-05-03T16:49:22.998Z</time></trkpt><trkpt lat="43.99353542671005" lon="5.5404295897815805"><ele>804.1999999999999</ele><time>2026-05-03T16:49:23.998Z</time></trkpt><trkpt lat="43.993631789937766" lon="5.540366683345144"><ele>804.8</ele><time>2026-05-03T16:49:24.998Z</time></trkpt><trkpt lat="43.99370324819783" lon="5.5403144702149625"><ele>805.4</ele><time>2026-05-03T16:49:25.998Z</time></trkpt><trkpt lat="43.99382459932357" lon="5.540265379046474"><ele>806.0</ele><time>2026-05-03T16:49:27.998Z</time></trkpt><trkpt lat="43.99388550143776" lon="5.54019044781986"><ele>806.0</ele><time>2026-05-03T16:49:29.998Z</time></trkpt><trkpt lat="43.99395705154523" lon="5.5401574969796705"><ele>806.0</ele><time>2026-05-03T16:49:30.998Z</time></trkpt><trkpt lat="43.99401860859368" lon="5.540079543191877"><ele>806.0</ele><time>2026-05-03T16:49:32.998Z</time></trkpt><trkpt lat="43.994072796941026" lon="5.540007894838859"><ele>806.0</ele><time>2026-05-03T16:49:36Z</time></trkpt><trkpt lat="43.994131671658366" lon="5.53990994438664"><ele>806.0</ele><time>2026-05-03T16:49:38Z</time></trkpt><trkpt lat="43.99423031668802" lon="5.539793656728089"><ele>806.2857142857143</ele><time>2026-05-03T16:49:40Z</time></trkpt><trkpt lat="43.99429041937104" lon="5.5397288700253045"><ele>806.5714285714286</ele><time>2026-05-03T16:49:42Z</time></trkpt><trkpt lat="43.994356979258576" lon="5.539673939300836"><ele>806.8571428571429</ele><time>2026-05-03T16:49:44Z</time></trkpt><trkpt lat="43.994407703940844" lon="5.539607001993921"><ele>807.1428571428571</ele><time>2026-05-03T16:49:46Z</time></trkpt><trkpt lat="43.994426599176876" lon="5.539522296474335"><ele>807.4285714285713</ele><time>2026-05-03T16:49:48Z</time></trkpt><trkpt lat="43.994466236873855" lon="5.539441771707052"><ele>807.7142857142857</ele><time>2026-05-03T16:49:49Z</time></trkpt><trkpt lat="43.99452566342534" lon="5.539344932697842"><ele>808.0</ele><time>2026-05-03T16:49:51Z</time></trkpt><trkpt lat="43.99465237141016" lon="5.539145737931817"><ele>808.0</ele><time>2026-05-03T16:49:57Z</time></trkpt><trkpt lat="43.99473746914488" lon="5.539081064482406"><ele>808.0</ele><time>2026-05-03T16:49:59Z</time></trkpt><trkpt lat="43.99480233918377" lon="5.538982766302965"><ele>808.0</ele><time>2026-05-03T16:50:01Z</time></trkpt><trkpt lat="43.99488374946628" lon="5.538945391665882"><ele>808.0</ele><time>2026-05-03T16:50:03Z</time></trkpt><trkpt lat="43.9949819601089" lon="5.538935868814395"><ele>808.0</ele><time>2026-05-03T16:50:05Z</time></trkpt><trkpt lat="43.99506741650548" lon="5.5388586886078315"><ele>809.0</ele><time>2026-05-03T16:50:09Z</time></trkpt><trkpt lat="43.995168509547725" lon="5.538750961590895"><ele>810.0</ele><time>2026-05-03T16:50:11Z</time></trkpt><trkpt lat="43.9952420105109" lon="5.538680322451915"><ele>811.0</ele><time>2026-05-03T16:50:12Z</time></trkpt><trkpt lat="43.99531994885119" lon="5.538610943252587"><ele>812.0</ele><time>2026-05-03T16:50:13Z</time></trkpt><trkpt lat="43.99539511844291" lon="5.5385228033053995"><ele>813.0</ele><time>2026-05-03T16:50:15Z</time></trkpt><trkpt lat="43.99546963996326" lon="5.538464655408192"><ele>813.0</ele><time>2026-05-03T16:50:17Z</time></trkpt><trkpt lat="43.9955679338948" lon="5.538365702459421"><ele>813.0</ele><time>2026-05-03T16:50:18.999Z</time></trkpt><trkpt lat="43.9956200562838" lon="5.538250831070182"><ele>813.0</ele><time>2026-05-03T16:50:20.999Z</time></trkpt><trkpt lat="43.995682081415225" lon="5.53811523908163"><ele>813.0</ele><time>2026-05-03T16:50:22.999Z</time></trkpt><trkpt lat="43.995728103425705" lon="5.538025056384446"><ele>813.0</ele><time>2026-05-03T16:50:23.999Z</time></trkpt><trkpt lat="43.99578974718259" lon="5.537943275519316"><ele>813.8</ele><time>2026-05-03T16:50:24.999Z</time></trkpt><trkpt lat="43.995856942043666" lon="5.53786396924188"><ele>814.5999999999999</ele><time>2026-05-03T16:50:25.999Z</time></trkpt><trkpt lat="43.99591806717508" lon="5.537786278924042"><ele>815.4000000000001</ele><time>2026-05-03T16:50:26.999Z</time></trkpt><trkpt lat="43.99598512140239" lon="5.537630271085345"><ele>816.2</ele><time>2026-05-03T16:50:28.999Z</time></trkpt><trkpt lat="43.996020927334115" lon="5.537547873491102"><ele>817.0</ele><time>2026-05-03T16:50:29.999Z</time></trkpt><trkpt lat="43.99612604658336" lon="5.537441721896066"><ele>817.0</ele><time>2026-05-03T16:50:31.999Z</time></trkpt><trkpt lat="43.996205004197" lon="5.537378540682844"><ele>817.0</ele><time>2026-05-03T16:50:32.999Z</time></trkpt><trkpt lat="43.99630000503129" lon="5.5373357627687385"><ele>817.0</ele><time>2026-05-03T16:50:34.999Z</time></trkpt><trkpt lat="43.99636222937498" lon="5.537214773986217"><ele>817.0</ele><time>2026-05-03T16:50:36.999Z</time></trkpt><trkpt lat="43.996435733685736" lon="5.537140742178431"><ele>817.0</ele><time>2026-05-03T16:50:38.999Z</time></trkpt><trkpt lat="43.99650381601074" lon="5.537108952970335"><ele>817.8</ele><time>2026-05-03T16:50:40.999Z</time></trkpt><trkpt lat="43.99657810626774" lon="5.536951173358725"><ele>818.6</ele><time>2026-05-03T16:50:42.999Z</time></trkpt><trkpt lat="43.996648313749894" lon="5.536866466390159"><ele>819.4</ele><time>2026-05-03T16:50:43.999Z</time></trkpt><trkpt lat="43.996716630526805" lon="5.536811579235107"><ele>820.1999999999999</ele><time>2026-05-03T16:50:44.999Z</time></trkpt><trkpt lat="43.996791419909684" lon="5.536757862014507"><ele>821.0</ele><time>2026-05-03T16:50:45.999Z</time></trkpt><trkpt lat="43.996890080844764" lon="5.536656276291761"><ele>821.0000000000001</ele><time>2026-05-03T16:50:46.999Z</time></trkpt><trkpt lat="43.996958719000034" lon="5.5365493682932465"><ele>821.0</ele><time>2026-05-03T16:50:47.999Z</time></trkpt><trkpt lat="43.9970071908416" lon="5.536422534096422"><ele>821.0</ele><time>2026-05-03T16:50:49.999Z</time></trkpt><trkpt lat="43.996961313731276" lon="5.536324035744695"><ele>821.0</ele><time>2026-05-03T16:50:59.999Z</time></trkpt><trkpt lat="43.99691295270347" lon="5.536266708173931"><ele>821.0000000000001</ele><time>2026-05-03T16:51:00.999Z</time></trkpt><trkpt lat="43.996868866236284" lon="5.536199335334412"><ele>821.0</ele><time>2026-05-03T16:51:01.999Z</time></trkpt><trkpt lat="43.996822005206084" lon="5.53610965308715"><ele>820.1999999999999</ele><time>2026-05-03T16:51:02.999Z</time></trkpt><trkpt lat="43.99676302686802" lon="5.535995412802287"><ele>819.4</ele><time>2026-05-03T16:51:03.999Z</time></trkpt><trkpt lat="43.99670160829237" lon="5.535889000566125"><ele>818.6</ele><time>2026-05-03T16:51:04.999Z</time></trkpt><trkpt lat="43.996625133300135" lon="5.535804311192632"><ele>817.8</ele><time>2026-05-03T16:51:05.999Z</time></trkpt><trkpt lat="43.996549234924295" lon="5.535716703210594"><ele>817.0</ele><time>2026-05-03T16:51:06.999Z</time></trkpt><trkpt lat="43.996484623368396" lon="5.535636535477553"><ele>816.8333333333333</ele><time>2026-05-03T16:51:07.999Z</time></trkpt><trkpt lat="43.996424761469626" lon="5.535573138539256"><ele>816.6666666666666</ele><time>2026-05-03T16:51:08.999Z</time></trkpt><trkpt lat="43.99636558000046" lon="5.535526611833681"><ele>816.5</ele><time>2026-05-03T16:51:09.999Z</time></trkpt><trkpt lat="43.99625235626936" lon="5.535478993872108"><ele>816.3333333333333</ele><time>2026-05-03T16:51:11.999Z</time></trkpt><trkpt lat="43.9961910327765" lon="5.535443997822315"><ele>816.1666666666666</ele><time>2026-05-03T16:51:12.999Z</time></trkpt><trkpt lat="43.99613433219096" lon="5.535380710952663"><ele>816.0</ele><time>2026-05-03T16:51:13.999Z</time></trkpt><trkpt lat="43.996084152582384" lon="5.5352899131087465"><ele>816.0</ele><time>2026-05-03T16:51:14.999Z</time></trkpt><trkpt lat="43.9960360155418" lon="5.535196599573238"><ele>816.0</ele><time>2026-05-03T16:51:15.999Z</time></trkpt><trkpt lat="43.995979959243826" lon="5.535110602216052"><ele>816.0</ele><time>2026-05-03T16:51:16.999Z</time></trkpt><trkpt lat="43.995938968183665" lon="5.5350314506007985"><ele>816.0</ele><time>2026-05-03T16:51:17.999Z</time></trkpt><trkpt lat="43.9959026433774" lon="5.5349162188328584"><ele>816.0</ele><time>2026-05-03T16:51:19.999Z</time></trkpt><trkpt lat="43.99581822110401" lon="5.534938620994962"><ele>816.0</ele><time>2026-05-03T16:51:22.999Z</time></trkpt><trkpt lat="43.995758274081886" lon="5.535101939350779"><ele>818.1999999999999</ele><time>2026-05-03T16:51:24.998Z</time></trkpt><trkpt lat="43.99573355639135" lon="5.535211988024658"><ele>820.4</ele><time>2026-05-03T16:51:25.998Z</time></trkpt><trkpt lat="43.995680153832964" lon="5.535327076668343"><ele>822.6</ele><time>2026-05-03T16:51:27.998Z</time></trkpt><trkpt lat="43.995574734986434" lon="5.535381722745786"><ele>824.8</ele><time>2026-05-03T16:51:29.998Z</time></trkpt><trkpt lat="43.99548542681734" lon="5.5353097036441055"><ele>827.0</ele><time>2026-05-03T16:51:31.998Z</time></trkpt><trkpt lat="43.99539772862622" lon="5.535196482294124"><ele>827.0000000000001</ele><time>2026-05-03T16:51:33.998Z</time></trkpt><trkpt lat="43.99531868356907" lon="5.53516490546284"><ele>827.0</ele><time>2026-05-03T16:51:34.998Z</time></trkpt><trkpt lat="43.99521630448242" lon="5.535130125760255"><ele>827.0</ele><time>2026-05-03T16:51:35.998Z</time></trkpt><trkpt lat="43.995155510157595" lon="5.535081150268137"><ele>827.0</ele><time>2026-05-03T16:51:36.998Z</time></trkpt><trkpt lat="43.995082412304605" lon="5.535028746680832"><ele>827.0000000000001</ele><time>2026-05-03T16:51:38.998Z</time></trkpt><trkpt lat="43.994996553216225" lon="5.535104516608937"><ele>827.0</ele><time>2026-05-03T16:51:41Z</time></trkpt><trkpt lat="43.99494235690555" lon="5.535169670145972"><ele>828.8333333333334</ele><time>2026-05-03T16:51:42Z</time></trkpt><trkpt lat="43.994889232966806" lon="5.535225588197565"><ele>830.6666666666667</ele><time>2026-05-03T16:51:43Z</time></trkpt><trkpt lat="43.99483126467086" lon="5.535261816319459"><ele>832.5</ele><time>2026-05-03T16:51:44Z</time></trkpt><trkpt lat="43.99476751863136" lon="5.535307005297838"><ele>834.3333333333333</ele><time>2026-05-03T16:51:45Z</time></trkpt><trkpt lat="43.99471752147548" lon="5.535370483892028"><ele>836.1666666666666</ele><time>2026-05-03T16:51:46Z</time></trkpt><trkpt lat="43.99467961058606" lon="5.535468541172562"><ele>838.0</ele><time>2026-05-03T16:51:49Z</time></trkpt><trkpt lat="43.99468983881996" lon="5.535607241522858"><ele>838.0</ele><time>2026-05-03T16:51:51Z</time></trkpt><trkpt lat="43.99466637709597" lon="5.535740741411214"><ele>838.0</ele><time>2026-05-03T16:51:53Z</time></trkpt><trkpt lat="43.99457304023622" lon="5.535819771857874"><ele>838.0</ele><time>2026-05-03T16:51:55Z</time></trkpt><trkpt lat="43.994470608399595" lon="5.535807837813047"><ele>838.0</ele><time>2026-05-03T16:51:57Z</time></trkpt><trkpt lat="43.994443387169355" lon="5.535714675148918"><ele>838.0</ele><time>2026-05-03T16:51:59Z</time></trkpt><trkpt lat="43.99442799048246" lon="5.53559035284306"><ele>838.0</ele><time>2026-05-03T16:52:01Z</time></trkpt><trkpt lat="43.994397195355795" lon="5.535473863735658"><ele>838.0</ele><time>2026-05-03T16:52:03Z</time></trkpt><trkpt lat="43.994293960151616" lon="5.535378172144115"><ele>838.0</ele><time>2026-05-03T16:52:05Z</time></trkpt><trkpt lat="43.99420817622715" lon="5.535346616809351"><ele>838.0</ele><time>2026-05-03T16:52:06Z</time></trkpt><trkpt lat="43.994086943067195" lon="5.535311079089974"><ele>838.0</ele><time>2026-05-03T16:52:07Z</time></trkpt><trkpt lat="43.99393808984313" lon="5.535278666758897"><ele>840.6666666666666</ele><time>2026-05-03T16:52:08Z</time></trkpt><trkpt lat="43.99376330215834" lon="5.535237771939731"><ele>843.3333333333333</ele><time>2026-05-03T16:52:09Z</time></trkpt><trkpt lat="43.99356812478135" lon="5.535192371226046"><ele>846.0</ele><time>2026-05-03T16:52:10Z</time></trkpt><trkpt lat="43.993367118451154" lon="5.535156381514285"><ele>846.5</ele><time>2026-05-03T16:52:11Z</time></trkpt><trkpt lat="43.993203340253935" lon="5.535128478303979"><ele>847.0</ele><time>2026-05-03T16:52:12Z</time></trkpt><trkpt lat="43.99306874877649" lon="5.535108048870153"><ele>847.5</ele><time>2026-05-03T16:52:13Z</time></trkpt><trkpt lat="43.99295212723476" lon="5.535088416753765"><ele>848.0</ele><time>2026-05-03T16:52:14Z</time></trkpt><trkpt lat="43.99285171341199" lon="5.53507874398513"><ele>848.0000000000001</ele><time>2026-05-03T16:52:15Z</time></trkpt><trkpt lat="43.99278142105202" lon="5.535063639880764"><ele>848.0</ele><time>2026-05-03T16:52:16Z</time></trkpt><trkpt lat="43.992708598553584" lon="5.5350526642640085"><ele>848.0</ele><time>2026-05-03T16:52:17Z</time></trkpt><trkpt lat="43.99264485594212" lon="5.535037675577967"><ele>848.0</ele><time>2026-05-03T16:52:18Z</time></trkpt><trkpt lat="43.99256548993948" lon="5.534939387312639"><ele>848.0000000000001</ele><time>2026-05-03T16:52:20Z</time></trkpt><trkpt lat="43.99255079999848" lon="5.534841508970481"><ele>848.0</ele><time>2026-05-03T16:52:21Z</time></trkpt><trkpt lat="43.99252827187283" lon="5.534730218927714"><ele>848.0</ele><time>2026-05-03T16:52:22Z</time></trkpt><trkpt lat="43.99246355623938" lon="5.534642726533135"><ele>848.0</ele><time>2026-05-03T16:52:23Z</time></trkpt><trkpt lat="43.99236772173422" lon="5.534564507647368"><ele>848.0</ele><time>2026-05-03T16:52:23.999Z</time></trkpt><trkpt lat="43.99227509713196" lon="5.534457243470806"><ele>848.0</ele><time>2026-05-03T16:52:24.999Z</time></trkpt><trkpt lat="43.99220489874803" lon="5.534342533312382"><ele>848.0</ele><time>2026-05-03T16:52:25.999Z</time></trkpt><trkpt lat="43.99210937939296" lon="5.534254861678627"><ele>847.75</ele><time>2026-05-03T16:52:26.999Z</time></trkpt><trkpt lat="43.99199094244501" lon="5.534201164384689"><ele>847.5</ele><time>2026-05-03T16:52:27.999Z</time></trkpt><trkpt lat="43.99183864948366" lon="5.534156971089644"><ele>847.25</ele><time>2026-05-03T16:52:28.999Z</time></trkpt><trkpt lat="43.991676538688225" lon="5.5341308873589306"><ele>847.0</ele><time>2026-05-03T16:52:29.999Z</time></trkpt><trkpt lat="43.991549109489455" lon="5.534132079558986"><ele>847.0</ele><time>2026-05-03T16:52:30.999Z</time></trkpt><trkpt lat="43.991448408909115" lon="5.534140156893021"><ele>847.0</ele><time>2026-05-03T16:52:31.999Z</time></trkpt><trkpt lat="43.99136544739466" lon="5.534139826484533"><ele>847.0</ele><time>2026-05-03T16:52:32.999Z</time></trkpt><trkpt lat="43.99126684863525" lon="5.534080899917568"><ele>847.0</ele><time>2026-05-03T16:52:34.999Z</time></trkpt><trkpt lat="43.991178136912225" lon="5.534058583903334"><ele>847.0</ele><time>2026-05-03T16:52:35.999Z</time></trkpt><trkpt lat="43.991081221383915" lon="5.534018055526913"><ele>847.0</ele><time>2026-05-03T16:52:36.999Z</time></trkpt><trkpt lat="43.990960410187306" lon="5.533978267531714"><ele>847.0</ele><time>2026-05-03T16:52:37.999Z</time></trkpt><trkpt lat="43.99083910163491" lon="5.53397646221455"><ele>847.0</ele><time>2026-05-03T16:52:38.999Z</time></trkpt><trkpt lat="43.990723131163485" lon="5.5339953721705974"><ele>847.0</ele><time>2026-05-03T16:52:39.999Z</time></trkpt><trkpt lat="43.99061235515748" lon="5.534031389328091"><ele>846.25</ele><time>2026-05-03T16:52:40.999Z</time></trkpt><trkpt lat="43.990498039833035" lon="5.534087437676338"><ele>845.5</ele><time>2026-05-03T16:52:41.999Z</time></trkpt><trkpt lat="43.990384045216196" lon="5.5341568805917305"><ele>844.75</ele><time>2026-05-03T16:52:42.999Z</time></trkpt><trkpt lat="43.99026662764382" lon="5.534228371720376"><ele>844.0</ele><time>2026-05-03T16:52:43.999Z</time></trkpt><trkpt lat="43.990161310973235" lon="5.534259992595952"><ele>843.9999999999999</ele><time>2026-05-03T16:52:44.999Z</time></trkpt><trkpt lat="43.99006541615797" lon="5.534287441518399"><ele>844.0</ele><time>2026-05-03T16:52:45.999Z</time></trkpt><trkpt lat="43.9899822695614" lon="5.534331857666762"><ele>844.0</ele><time>2026-05-03T16:52:46.999Z</time></trkpt><trkpt lat="43.98990485432216" lon="5.534360979687021"><ele>844.0</ele><time>2026-05-03T16:52:47.999Z</time></trkpt><trkpt lat="43.98982990318414" lon="5.534405359458711"><ele>843.9999999999999</ele><time>2026-05-03T16:52:48.999Z</time></trkpt><trkpt lat="43.98976479202449" lon="5.5344718939342075"><ele>844.0</ele><time>2026-05-03T16:52:49.999Z</time></trkpt><trkpt lat="43.98969235109752" lon="5.534557357737145"><ele>843.75</ele><time>2026-05-03T16:52:50.999Z</time></trkpt><trkpt lat="43.98960811404333" lon="5.534670908327491"><ele>843.5</ele><time>2026-05-03T16:52:51.999Z</time></trkpt><trkpt lat="43.98953798713333" lon="5.53479082217052"><ele>843.25</ele><time>2026-05-03T16:52:52.999Z</time></trkpt><trkpt lat="43.9894762203555" lon="5.5349529556246075"><ele>843.0</ele><time>2026-05-03T16:52:53.999Z</time></trkpt><trkpt lat="43.98943372606038" lon="5.535087426951954"><ele>843.0</ele><time>2026-05-03T16:52:54.999Z</time></trkpt><trkpt lat="43.989332994195074" lon="5.535214881113254"><ele>843.0</ele><time>2026-05-03T16:52:56.999Z</time></trkpt><trkpt lat="43.98922899399603" lon="5.535266784955644"><ele>843.0</ele><time>2026-05-03T16:52:57.999Z</time></trkpt><trkpt lat="43.98915750094984" lon="5.535343761271401"><ele>843.0</ele><time>2026-05-03T16:52:58.999Z</time></trkpt><trkpt lat="43.98909647554052" lon="5.535461191246183"><ele>843.0</ele><time>2026-05-03T16:52:59.999Z</time></trkpt><trkpt lat="43.98903438905849" lon="5.535549297785644"><ele>842.5999999999999</ele><time>2026-05-03T16:53:00.999Z</time></trkpt><trkpt lat="43.988942837649056" lon="5.535580017843659"><ele>842.1999999999999</ele><time>2026-05-03T16:53:01.999Z</time></trkpt><trkpt lat="43.98883275156105" lon="5.535637356388824"><ele>841.8</ele><time>2026-05-03T16:53:02.999Z</time></trkpt><trkpt lat="43.98874168815004" lon="5.535679237478272"><ele>841.4</ele><time>2026-05-03T16:53:03.999Z</time></trkpt><trkpt lat="43.98863002397295" lon="5.535702610199933"><ele>841.0</ele><time>2026-05-03T16:53:04.999Z</time></trkpt><trkpt lat="43.98852291848072" lon="5.535686008297745"><ele>841.0</ele><time>2026-05-03T16:53:05.999Z</time></trkpt><trkpt lat="43.988391228654955" lon="5.535659762809023"><ele>841.0</ele><time>2026-05-03T16:53:06.999Z</time></trkpt><trkpt lat="43.988275926426205" lon="5.535646792942197"><ele>841.0</ele><time>2026-05-03T16:53:07.999Z</time></trkpt><trkpt lat="43.98818850797523" lon="5.535665619388581"><ele>841.0</ele><time>2026-05-03T16:53:08.999Z</time></trkpt><trkpt lat="43.98807671399317" lon="5.535745414030733"><ele>840.5</ele><time>2026-05-03T16:53:09.999Z</time></trkpt><trkpt lat="43.98792646430345" lon="5.53583541873686"><ele>840.0</ele><time>2026-05-03T16:53:10.999Z</time></trkpt><trkpt lat="43.98780702359193" lon="5.535900321913175"><ele>839.5</ele><time>2026-05-03T16:53:11.999Z</time></trkpt><trkpt lat="43.98772818676314" lon="5.535963432058363"><ele>839.0</ele><time>2026-05-03T16:53:12.999Z</time></trkpt><trkpt lat="43.98760344950066" lon="5.5359599037648035"><ele>839.0</ele><time>2026-05-03T16:53:14.999Z</time></trkpt><trkpt lat="43.98752104079733" lon="5.535909002524943"><ele>839.0</ele><time>2026-05-03T16:53:15.999Z</time></trkpt><trkpt lat="43.98744503898556" lon="5.535899456164941"><ele>839.0</ele><time>2026-05-03T16:53:16.999Z</time></trkpt><trkpt lat="43.98735409841737" lon="5.535962507214269"><ele>839.0</ele><time>2026-05-03T16:53:17.999Z</time></trkpt><trkpt lat="43.98725717341004" lon="5.5360088042523"><ele>839.0</ele><time>2026-05-03T16:53:18.999Z</time></trkpt><trkpt lat="43.98717620165154" lon="5.535994254891902"><ele>838.4000000000001</ele><time>2026-05-03T16:53:19.999Z</time></trkpt><trkpt lat="43.98706727087921" lon="5.535947311716722"><ele>837.8</ele><time>2026-05-03T16:53:20.999Z</time></trkpt><trkpt lat="43.986979296382835" lon="5.535908685692138"><ele>837.2</ele><time>2026-05-03T16:53:21.999Z</time></trkpt><trkpt lat="43.986923001334596" lon="5.5358631631842306"><ele>836.5999999999999</ele><time>2026-05-03T16:53:22.999Z</time></trkpt><trkpt lat="43.98686093813485" lon="5.535780470078411"><ele>836.0</ele><time>2026-05-03T16:53:24.999Z</time></trkpt><trkpt lat="43.98686368744887" lon="5.53558798836502"><ele>836.0</ele><time>2026-05-03T16:53:26.999Z</time></trkpt><trkpt lat="43.98689173034582" lon="5.535429556767623"><ele>836.0</ele><time>2026-05-03T16:53:27.998Z</time></trkpt><trkpt lat="43.98691900778636" lon="5.535255688273853"><ele>836.0</ele><time>2026-05-03T16:53:28.998Z</time></trkpt><trkpt lat="43.98694585173385" lon="5.535136619956996"><ele>836.0</ele><time>2026-05-03T16:53:29.998Z</time></trkpt><trkpt lat="43.98696770815271" lon="5.535038965428401"><ele>836.0</ele><time>2026-05-03T16:53:30.998Z</time></trkpt><trkpt lat="43.986927515234946" lon="5.534941055710243"><ele>835.5999999999999</ele><time>2026-05-03T16:53:32.998Z</time></trkpt><trkpt lat="43.986855650356254" lon="5.534870884054655"><ele>835.2</ele><time>2026-05-03T16:53:33.998Z</time></trkpt><trkpt lat="43.9867855402032" lon="5.534800608033276"><ele>834.8</ele><time>2026-05-03T16:53:34.998Z</time></trkpt><trkpt lat="43.98673731991185" lon="5.5347019409739415"><ele>834.4000000000001</ele><time>2026-05-03T16:53:35.998Z</time></trkpt><trkpt lat="43.98667381776442" lon="5.534548121533732"><ele>834.0</ele><time>2026-05-03T16:53:36.998Z</time></trkpt><trkpt lat="43.98662194178453" lon="5.534418069954742"><ele>834.0</ele><time>2026-05-03T16:53:37.998Z</time></trkpt><trkpt lat="43.98658684282202" lon="5.534321683674586"><ele>834.0</ele><time>2026-05-03T16:53:38.998Z</time></trkpt><trkpt lat="43.98655985572743" lon="5.53423982821366"><ele>834.0</ele><time>2026-05-03T16:53:39.998Z</time></trkpt><trkpt lat="43.98655404751845" lon="5.534121922180777"><ele>834.0</ele><time>2026-05-03T16:53:41.998Z</time></trkpt><trkpt lat="43.98659242825439" lon="5.533996572112701"><ele>834.0</ele><time>2026-05-03T16:53:44.998Z</time></trkpt><trkpt lat="43.98663531419026" lon="5.533862551092218"><ele>834.0</ele><time>2026-05-03T16:53:47Z</time></trkpt><trkpt lat="43.98666086753132" lon="5.533686815169969"><ele>834.0</ele><time>2026-05-03T16:53:49Z</time></trkpt><trkpt lat="43.98661456355634" lon="5.5335405090312175"><ele>834.0</ele><time>2026-05-03T16:53:51Z</time></trkpt><trkpt lat="43.98657131920801" lon="5.533428529752466"><ele>834.0</ele><time>2026-05-03T16:53:52Z</time></trkpt><trkpt lat="43.9864891219944" lon="5.53334894328257"><ele>834.0</ele><time>2026-05-03T16:53:53Z</time></trkpt><trkpt lat="43.986434420250575" lon="5.533300568309126"><ele>834.0</ele><time>2026-05-03T16:53:54Z</time></trkpt><trkpt lat="43.98635454733587" lon="5.533251432269828"><ele>834.0</ele><time>2026-05-03T16:53:57Z</time></trkpt><trkpt lat="43.98628090633948" lon="5.533168713907556"><ele>834.0</ele><time>2026-05-03T16:53:59Z</time></trkpt><trkpt lat="43.986221811332584" lon="5.533119700833783"><ele>834.0</ele><time>2026-05-03T16:54:02Z</time></trkpt><trkpt lat="43.98614983464045" lon="5.533059329208748"><ele>834.0</ele><time>2026-05-03T16:54:04Z</time></trkpt><trkpt lat="43.986175524060684" lon="5.532808973051614"><ele>834.0</ele><time>2026-05-03T16:54:06Z</time></trkpt><trkpt lat="43.98625567969946" lon="5.532727472343647"><ele>834.1666666666666</ele><time>2026-05-03T16:54:08Z</time></trkpt><trkpt lat="43.986320236637454" lon="5.532682859312939"><ele>834.3333333333333</ele><time>2026-05-03T16:54:09Z</time></trkpt><trkpt lat="43.986398318713924" lon="5.532617861319231"><ele>834.5</ele><time>2026-05-03T16:54:10Z</time></trkpt><trkpt lat="43.986461217326074" lon="5.532571278606378"><ele>834.6666666666666</ele><time>2026-05-03T16:54:11Z</time></trkpt><trkpt lat="43.98636570217527" lon="5.532596833387559"><ele>834.8333333333333</ele><time>2026-05-03T16:54:17Z</time></trkpt><trkpt lat="43.9863004740922" lon="5.532681239401142"><ele>835.0</ele><time>2026-05-03T16:54:18Z</time></trkpt><trkpt lat="43.98621864448438" lon="5.532780717434762"><ele>834.8333333333333</ele><time>2026-05-03T16:54:19Z</time></trkpt><trkpt lat="43.98618251650934" lon="5.532901647200615"><ele>834.6666666666666</ele><time>2026-05-03T16:54:21Z</time></trkpt><trkpt lat="43.98621312055102" lon="5.532996324790389"><ele>834.5</ele><time>2026-05-03T16:54:23Z</time></trkpt><trkpt lat="43.98627366832883" lon="5.533051691297538"><ele>834.3333333333333</ele><time>2026-05-03T16:54:26Z</time></trkpt><trkpt lat="43.98625600434864" lon="5.533184725723032"><ele>834.1666666666666</ele><time>2026-05-03T16:54:29Z</time></trkpt><trkpt lat="43.98629962234543" lon="5.533257917087001"><ele>834.0</ele><time>2026-05-03T16:54:31Z</time></trkpt><trkpt lat="43.98639016627159" lon="5.533215033749713"><ele>834.0</ele><time>2026-05-03T16:54:33Z</time></trkpt><trkpt lat="43.98643243324972" lon="5.533133737643221"><ele>834.0</ele><time>2026-05-03T16:54:34.999Z</time></trkpt><trkpt lat="43.98638934905575" lon="5.533054802758389"><ele>834.0</ele><time>2026-05-03T16:55:19.999Z</time></trkpt><trkpt lat="43.98640576593984" lon="5.5329695407804955"><ele>834.0</ele><time>2026-05-03T16:55:29.999Z</time></trkpt></trkseg></trk></gpx>